<?xml version='1.0' encoding='UTF-8'?><gpx version="1.1" creator="JPX - https://github.com/jenetics/jpx" xmlns="http://www.topografix.com/GPX/1/1"><trk><trkseg><trkpt lat="42.2277128" lon="14.3965156"><ele>278.99999999999994</ele><time>2026-03-22T09:40:44.467Z</time></trkpt><trkpt lat="42.2276445" lon="14.396511"><ele>279.0</ele><time>2026-03-22T09:40:48.463Z</time></trkpt><trkpt lat="42.2275685" lon="14.3964951"><ele>279.0</ele><time>2026-03-22T09:40:51.467Z</time></trkpt><trkpt lat="42.2276039" lon="14.3965713"><ele>279.0</ele><time>2026-03-22T09:41:03.49Z</time></trkpt><trkpt lat="42.2276646" lon="14.3966004"><ele>279.0</ele><time>2026-03-22T09:41:05.484Z</time></trkpt><trkpt lat="42.2276747" lon="14.3966874"><ele>278.99999999999994</ele><time>2026-03-22T09:41:09.477Z</time></trkpt><trkpt lat="42.2276289" lon="14.3967827"><ele>279.0</ele><time>2026-03-22T09:41:12.474Z</time></trkpt><trkpt lat="42.2275958" lon="14.3969175"><ele>279.0</ele><time>2026-03-22T09:41:14.48Z</time></trkpt><trkpt lat="42.227587" lon="14.3970556"><ele>279.0</ele><time>2026-03-22T09:41:16.48Z</time></trkpt><trkpt lat="42.2276356" lon="14.3971528"><ele>279.0</ele><time>2026-03-22T09:41:18.476Z</time></trkpt><trkpt lat="42.227652" lon="14.3972733"><ele>279.0</ele><time>2026-03-22T09:41:20.484Z</time></trkpt><trkpt lat="42.227658" lon="14.3973939"><ele>279.0</ele><time>2026-03-22T09:41:22.488Z</time></trkpt><trkpt lat="42.2276697" lon="14.397497"><ele>279.0</ele><time>2026-03-22T09:41:24.474Z</time></trkpt><trkpt lat="42.2276486" lon="14.3975988"><ele>278.8333333333333</ele><time>2026-03-22T09:41:46.483Z</time></trkpt><trkpt lat="42.2275899" lon="14.3976953"><ele>278.6666666666667</ele><time>2026-03-22T09:41:48.479Z</time></trkpt><trkpt lat="42.2275843" lon="14.3978008"><ele>278.5</ele><time>2026-03-22T09:41:49.49Z</time></trkpt><trkpt lat="42.2275817" lon="14.397898"><ele>278.33333333333337</ele><time>2026-03-22T09:41:50.479Z</time></trkpt><trkpt lat="42.2275797" lon="14.3980291"><ele>278.1666666666667</ele><time>2026-03-22T09:41:51.49Z</time></trkpt><trkpt lat="42.2275785" lon="14.3981599"><ele>278.0</ele><time>2026-03-22T09:41:52.487Z</time></trkpt><trkpt lat="42.2275756" lon="14.3982865"><ele>277.6666666666667</ele><time>2026-03-22T09:41:53.495Z</time></trkpt><trkpt lat="42.2275875" lon="14.3983922"><ele>277.33333333333337</ele><time>2026-03-22T09:41:54.489Z</time></trkpt><trkpt lat="42.2276132" lon="14.3984811"><ele>277.0</ele><time>2026-03-22T09:41:55.497Z</time></trkpt><trkpt lat="42.2276592" lon="14.3985668"><ele>276.6666666666667</ele><time>2026-03-22T09:41:56.507Z</time></trkpt><trkpt lat="42.2277116" lon="14.3986606"><ele>276.3333333333333</ele><time>2026-03-22T09:41:57.501Z</time></trkpt><trkpt lat="42.2277681" lon="14.3987565"><ele>276.0</ele><time>2026-03-22T09:41:58.519Z</time></trkpt><trkpt lat="42.2278171" lon="14.3988546"><ele>275.3333333333333</ele><time>2026-03-22T09:41:59.492Z</time></trkpt><trkpt lat="42.2278573" lon="14.3989541"><ele>274.6666666666667</ele><time>2026-03-22T09:42:00.507Z</time></trkpt><trkpt lat="42.2278954" lon="14.3990523"><ele>274.0</ele><time>2026-03-22T09:42:01.502Z</time></trkpt><trkpt lat="42.2279337" lon="14.3991646"><ele>273.33333333333337</ele><time>2026-03-22T09:42:02.509Z</time></trkpt><trkpt lat="42.2279749" lon="14.3992701"><ele>272.6666666666667</ele><time>2026-03-22T09:42:03.506Z</time></trkpt><trkpt lat="42.2280291" lon="14.3993709"><ele>272.0</ele><time>2026-03-22T09:42:04.5Z</time></trkpt><trkpt lat="42.2280803" lon="14.3994772"><ele>272.0</ele><time>2026-03-22T09:42:05.506Z</time></trkpt><trkpt lat="42.2281407" lon="14.3995815"><ele>272.0</ele><time>2026-03-22T09:42:06.508Z</time></trkpt><trkpt lat="42.2282115" lon="14.3996558"><ele>272.0</ele><time>2026-03-22T09:42:07.51Z</time></trkpt><trkpt lat="42.228283" lon="14.3997132"><ele>272.0</ele><time>2026-03-22T09:42:08.505Z</time></trkpt><trkpt lat="42.2283585" lon="14.3997594"><ele>272.0</ele><time>2026-03-22T09:42:09.519Z</time></trkpt><trkpt lat="42.2284395" lon="14.3998044"><ele>272.0</ele><time>2026-03-22T09:42:10.514Z</time></trkpt><trkpt lat="42.2285117" lon="14.3998583"><ele>271.2857142857143</ele><time>2026-03-22T09:42:11.514Z</time></trkpt><trkpt lat="42.2285806" lon="14.3999015"><ele>270.57142857142856</ele><time>2026-03-22T09:42:12.512Z</time></trkpt><trkpt lat="42.2286398" lon="14.3999444"><ele>269.8571428571429</ele><time>2026-03-22T09:42:13.513Z</time></trkpt><trkpt lat="42.2287003" lon="14.3999942"><ele>269.1428571428571</ele><time>2026-03-22T09:42:14.509Z</time></trkpt><trkpt lat="42.2287623" lon="14.4000371"><ele>268.42857142857144</ele><time>2026-03-22T09:42:15.515Z</time></trkpt><trkpt lat="42.2288236" lon="14.4000651"><ele>267.7142857142857</ele><time>2026-03-22T09:42:16.515Z</time></trkpt><trkpt lat="42.2289227" lon="14.4000908"><ele>267.0</ele><time>2026-03-22T09:42:18.515Z</time></trkpt><trkpt lat="42.2289997" lon="14.4000906"><ele>266.0</ele><time>2026-03-22T09:42:20.504Z</time></trkpt><trkpt lat="42.2290728" lon="14.4000948"><ele>265.0</ele><time>2026-03-22T09:42:22.509Z</time></trkpt><trkpt lat="42.2291401" lon="14.4001317"><ele>264.0</ele><time>2026-03-22T09:42:25.509Z</time></trkpt><trkpt lat="42.2291857" lon="14.4002249"><ele>263.0</ele><time>2026-03-22T09:42:27.506Z</time></trkpt><trkpt lat="42.2291911" lon="14.4003351"><ele>262.0</ele><time>2026-03-22T09:42:28.521Z</time></trkpt><trkpt lat="42.2291875" lon="14.4004657"><ele>261.0</ele><time>2026-03-22T09:42:29.522Z</time></trkpt><trkpt lat="42.2291836" lon="14.4006022"><ele>260.40000000000003</ele><time>2026-03-22T09:42:30.521Z</time></trkpt><trkpt lat="42.2291794" lon="14.4007339"><ele>259.8</ele><time>2026-03-22T09:42:31.524Z</time></trkpt><trkpt lat="42.2291733" lon="14.400873"><ele>259.20000000000005</ele><time>2026-03-22T09:42:32.522Z</time></trkpt><trkpt lat="42.2291837" lon="14.4010294"><ele>258.6</ele><time>2026-03-22T09:42:33.516Z</time></trkpt><trkpt lat="42.2291846" lon="14.401187"><ele>258.0</ele><time>2026-03-22T09:42:34.518Z</time></trkpt><trkpt lat="42.2291931" lon="14.4013571"><ele>255.25</ele><time>2026-03-22T09:42:35.507Z</time></trkpt><trkpt lat="42.2292037" lon="14.4015339"><ele>252.5</ele><time>2026-03-22T09:42:36.509Z</time></trkpt><trkpt lat="42.2292271" lon="14.4016972"><ele>249.75</ele><time>2026-03-22T09:42:37.515Z</time></trkpt><trkpt lat="42.2292436" lon="14.4018418"><ele>247.0</ele><time>2026-03-22T09:42:38.505Z</time></trkpt><trkpt lat="42.2292294" lon="14.4019632"><ele>247.0</ele><time>2026-03-22T09:42:39.523Z</time></trkpt><trkpt lat="42.2291852" lon="14.4020776"><ele>247.0</ele><time>2026-03-22T09:42:40.513Z</time></trkpt><trkpt lat="42.2290962" lon="14.4021618"><ele>247.0</ele><time>2026-03-22T09:42:41.506Z</time></trkpt><trkpt lat="42.228973" lon="14.4022113"><ele>247.0</ele><time>2026-03-22T09:42:42.522Z</time></trkpt><trkpt lat="42.2288443" lon="14.4022178"><ele>246.5</ele><time>2026-03-22T09:42:43.514Z</time></trkpt><trkpt lat="42.2287" lon="14.4021794"><ele>246.0</ele><time>2026-03-22T09:42:44.516Z</time></trkpt><trkpt lat="42.228555" lon="14.402131"><ele>245.5</ele><time>2026-03-22T09:42:45.521Z</time></trkpt><trkpt lat="42.2284197" lon="14.4020946"><ele>245.0</ele><time>2026-03-22T09:42:46.511Z</time></trkpt><trkpt lat="42.2282976" lon="14.4020789"><ele>246.2</ele><time>2026-03-22T09:42:47.511Z</time></trkpt><trkpt lat="42.228176" lon="14.4020891"><ele>247.4</ele><time>2026-03-22T09:42:48.514Z</time></trkpt><trkpt lat="42.2280658" lon="14.4021239"><ele>248.60000000000002</ele><time>2026-03-22T09:42:49.514Z</time></trkpt><trkpt lat="42.2279754" lon="14.4021941"><ele>249.8</ele><time>2026-03-22T09:42:50.504Z</time></trkpt><trkpt lat="42.2279054" lon="14.4022851"><ele>251.0</ele><time>2026-03-22T09:42:51.52Z</time></trkpt><trkpt lat="42.2278511" lon="14.4023959"><ele>251.4</ele><time>2026-03-22T09:42:52.513Z</time></trkpt><trkpt lat="42.2277776" lon="14.402496"><ele>251.8</ele><time>2026-03-22T09:42:53.497Z</time></trkpt><trkpt lat="42.2276949" lon="14.402564"><ele>252.20000000000002</ele><time>2026-03-22T09:42:54.497Z</time></trkpt><trkpt lat="42.2275882" lon="14.4025988"><ele>252.60000000000002</ele><time>2026-03-22T09:42:55.504Z</time></trkpt><trkpt lat="42.2274868" lon="14.4025902"><ele>253.0</ele><time>2026-03-22T09:42:56.506Z</time></trkpt><trkpt lat="42.227365" lon="14.4025354"><ele>254.66666666666666</ele><time>2026-03-22T09:42:57.493Z</time></trkpt><trkpt lat="42.227228" lon="14.4024613"><ele>256.3333333333333</ele><time>2026-03-22T09:42:58.499Z</time></trkpt><trkpt lat="42.2270791" lon="14.4023902"><ele>258.0</ele><time>2026-03-22T09:42:59.509Z</time></trkpt><trkpt lat="42.2269315" lon="14.4023008"><ele>258.0</ele><time>2026-03-22T09:43:00.505Z</time></trkpt><trkpt lat="42.2268098" lon="14.4022791"><ele>258.0</ele><time>2026-03-22T09:43:01.499Z</time></trkpt><trkpt lat="42.226732" lon="14.4022515"><ele>258.0</ele><time>2026-03-22T09:43:02.501Z</time></trkpt><trkpt lat="42.2266642" lon="14.4021539"><ele>258.0</ele><time>2026-03-22T09:43:03.508Z</time></trkpt><trkpt lat="42.2266265" lon="14.4020388"><ele>258.0</ele><time>2026-03-22T09:43:04.509Z</time></trkpt><trkpt lat="42.2266215" lon="14.401916"><ele>257.0</ele><time>2026-03-22T09:43:05.507Z</time></trkpt><trkpt lat="42.2266621" lon="14.4017766"><ele>256.0</ele><time>2026-03-22T09:43:06.506Z</time></trkpt><trkpt lat="42.2267172" lon="14.4016892"><ele>255.0</ele><time>2026-03-22T09:43:07.507Z</time></trkpt><trkpt lat="42.2267895" lon="14.4016182"><ele>254.0</ele><time>2026-03-22T09:43:08.511Z</time></trkpt><trkpt lat="42.2268891" lon="14.4015888"><ele>253.0</ele><time>2026-03-22T09:43:09.511Z</time></trkpt><trkpt lat="42.2270249" lon="14.4015921"><ele>253.0</ele><time>2026-03-22T09:43:10.497Z</time></trkpt><trkpt lat="42.2271834" lon="14.4016146"><ele>253.0</ele><time>2026-03-22T09:43:11.499Z</time></trkpt><trkpt lat="42.2273588" lon="14.4016158"><ele>253.0</ele><time>2026-03-22T09:43:12.507Z</time></trkpt><trkpt lat="42.2275514" lon="14.40162"><ele>252.33333333333331</ele><time>2026-03-22T09:43:13.511Z</time></trkpt><trkpt lat="42.2277221" lon="14.4016031"><ele>251.66666666666669</ele><time>2026-03-22T09:43:14.511Z</time></trkpt><trkpt lat="42.2279075" lon="14.4016159"><ele>251.0</ele><time>2026-03-22T09:43:15.512Z</time></trkpt><trkpt lat="42.2280836" lon="14.4016276"><ele>251.33333333333334</ele><time>2026-03-22T09:43:16.509Z</time></trkpt><trkpt lat="42.2282626" lon="14.4016369"><ele>251.66666666666669</ele><time>2026-03-22T09:43:17.513Z</time></trkpt><trkpt lat="42.2284453" lon="14.4016326"><ele>252.0</ele><time>2026-03-22T09:43:18.512Z</time></trkpt><trkpt lat="42.2286152" lon="14.4016069"><ele>252.0</ele><time>2026-03-22T09:43:19.524Z</time></trkpt><trkpt lat="42.2287795" lon="14.4015816"><ele>252.0</ele><time>2026-03-22T09:43:20.518Z</time></trkpt><trkpt lat="42.2289397" lon="14.4015277"><ele>252.0</ele><time>2026-03-22T09:43:21.517Z</time></trkpt><trkpt lat="42.2291083" lon="14.4014459"><ele>250.33333333333331</ele><time>2026-03-22T09:43:22.521Z</time></trkpt><trkpt lat="42.229272" lon="14.4013509"><ele>248.66666666666666</ele><time>2026-03-22T09:43:23.521Z</time></trkpt><trkpt lat="42.2294217" lon="14.4012487"><ele>247.0</ele><time>2026-03-22T09:43:24.521Z</time></trkpt><trkpt lat="42.229573" lon="14.4011439"><ele>250.66666666666666</ele><time>2026-03-22T09:43:25.523Z</time></trkpt><trkpt lat="42.2297364" lon="14.40105"><ele>254.33333333333331</ele><time>2026-03-22T09:43:26.521Z</time></trkpt><trkpt lat="42.2299138" lon="14.4009335"><ele>258.0</ele><time>2026-03-22T09:43:27.521Z</time></trkpt><trkpt lat="42.2300966" lon="14.4008341"><ele>258.6666666666667</ele><time>2026-03-22T09:43:28.525Z</time></trkpt><trkpt lat="42.2302851" lon="14.4007273"><ele>259.33333333333337</ele><time>2026-03-22T09:43:29.521Z</time></trkpt><trkpt lat="42.2304708" lon="14.4006325"><ele>260.0</ele><time>2026-03-22T09:43:30.519Z</time></trkpt><trkpt lat="42.2306526" lon="14.4005222"><ele>262.33333333333337</ele><time>2026-03-22T09:43:31.517Z</time></trkpt><trkpt lat="42.2308406" lon="14.400417"><ele>264.6666666666667</ele><time>2026-03-22T09:43:32.51Z</time></trkpt><trkpt lat="42.2310038" lon="14.4003044"><ele>267.0</ele><time>2026-03-22T09:43:33.513Z</time></trkpt><trkpt lat="42.2311985" lon="14.4002232"><ele>267.0</ele><time>2026-03-22T09:43:34.511Z</time></trkpt><trkpt lat="42.2313799" lon="14.4001159"><ele>267.0</ele><time>2026-03-22T09:43:35.51Z</time></trkpt><trkpt lat="42.2315631" lon="14.400026"><ele>267.0</ele><time>2026-03-22T09:43:36.508Z</time></trkpt><trkpt lat="42.2317471" lon="14.3999256"><ele>267.0</ele><time>2026-03-22T09:43:37.518Z</time></trkpt><trkpt lat="42.23193" lon="14.399865"><ele>267.0</ele><time>2026-03-22T09:43:38.518Z</time></trkpt><trkpt lat="42.2321123" lon="14.3998218"><ele>267.0</ele><time>2026-03-22T09:43:39.512Z</time></trkpt><trkpt lat="42.2322983" lon="14.3997818"><ele>266.6666666666667</ele><time>2026-03-22T09:43:40.518Z</time></trkpt><trkpt lat="42.2324912" lon="14.3997362"><ele>266.33333333333337</ele><time>2026-03-22T09:43:41.507Z</time></trkpt><trkpt lat="42.2326737" lon="14.3997022"><ele>266.0</ele><time>2026-03-22T09:43:42.518Z</time></trkpt><trkpt lat="42.2328607" lon="14.3996586"><ele>266.0</ele><time>2026-03-22T09:43:43.513Z</time></trkpt><trkpt lat="42.2330475" lon="14.3996096"><ele>266.0</ele><time>2026-03-22T09:43:44.513Z</time></trkpt><trkpt lat="42.2332408" lon="14.3995752"><ele>266.0</ele><time>2026-03-22T09:43:45.519Z</time></trkpt><trkpt lat="42.2334464" lon="14.3995354"><ele>265.6666666666667</ele><time>2026-03-22T09:43:46.517Z</time></trkpt><trkpt lat="42.2336531" lon="14.3994753"><ele>265.3333333333333</ele><time>2026-03-22T09:43:47.516Z</time></trkpt><trkpt lat="42.2338477" lon="14.399428"><ele>265.0</ele><time>2026-03-22T09:43:48.518Z</time></trkpt><trkpt lat="42.2340542" lon="14.3993608"><ele>264.66666666666663</ele><time>2026-03-22T09:43:49.515Z</time></trkpt><trkpt lat="42.2342533" lon="14.399301"><ele>264.3333333333333</ele><time>2026-03-22T09:43:50.517Z</time></trkpt><trkpt lat="42.2344469" lon="14.3992642"><ele>264.0</ele><time>2026-03-22T09:43:51.516Z</time></trkpt><trkpt lat="42.2346427" lon="14.3992216"><ele>263.3333333333333</ele><time>2026-03-22T09:43:52.512Z</time></trkpt><trkpt lat="42.2348344" lon="14.3991939"><ele>262.66666666666663</ele><time>2026-03-22T09:43:53.517Z</time></trkpt><trkpt lat="42.235017" lon="14.3991639"><ele>262.0</ele><time>2026-03-22T09:43:54.515Z</time></trkpt><trkpt lat="42.2351875" lon="14.3991263"><ele>262.0</ele><time>2026-03-22T09:43:55.518Z</time></trkpt><trkpt lat="42.2353841" lon="14.3990847"><ele>262.0</ele><time>2026-03-22T09:43:56.513Z</time></trkpt><trkpt lat="42.23558" lon="14.3990197"><ele>262.0</ele><time>2026-03-22T09:43:57.515Z</time></trkpt><trkpt lat="42.2357551" lon="14.3989752"><ele>262.3333333333333</ele><time>2026-03-22T09:43:58.509Z</time></trkpt><trkpt lat="42.2359356" lon="14.398928"><ele>262.6666666666667</ele><time>2026-03-22T09:43:59.517Z</time></trkpt><trkpt lat="42.2361023" lon="14.3989049"><ele>263.0</ele><time>2026-03-22T09:44:00.522Z</time></trkpt><trkpt lat="42.2362811" lon="14.3988651"><ele>263.33333333333337</ele><time>2026-03-22T09:44:01.52Z</time></trkpt><trkpt lat="42.2364562" lon="14.3988257"><ele>263.6666666666667</ele><time>2026-03-22T09:44:02.515Z</time></trkpt><trkpt lat="42.2366281" lon="14.3987867"><ele>264.0</ele><time>2026-03-22T09:44:03.518Z</time></trkpt><trkpt lat="42.2368141" lon="14.3987326"><ele>264.0</ele><time>2026-03-22T09:44:04.517Z</time></trkpt><trkpt lat="42.2370043" lon="14.3986911"><ele>264.0</ele><time>2026-03-22T09:44:05.52Z</time></trkpt><trkpt lat="42.237185" lon="14.3986555"><ele>264.0</ele><time>2026-03-22T09:44:06.515Z</time></trkpt><trkpt lat="42.2373625" lon="14.3986241"><ele>263.3333333333333</ele><time>2026-03-22T09:44:07.519Z</time></trkpt><trkpt lat="42.237549" lon="14.3985798"><ele>262.66666666666663</ele><time>2026-03-22T09:44:08.515Z</time></trkpt><trkpt lat="42.237738" lon="14.3985336"><ele>262.0</ele><time>2026-03-22T09:44:09.517Z</time></trkpt><trkpt lat="42.237905" lon="14.3984952"><ele>262.0</ele><time>2026-03-22T09:44:10.516Z</time></trkpt><trkpt lat="42.2380847" lon="14.3984506"><ele>262.0</ele><time>2026-03-22T09:44:11.516Z</time></trkpt><trkpt lat="42.2382613" lon="14.398422"><ele>262.0</ele><time>2026-03-22T09:44:12.517Z</time></trkpt><trkpt lat="42.2384253" lon="14.3983861"><ele>261.0</ele><time>2026-03-22T09:44:13.521Z</time></trkpt><trkpt lat="42.2385986" lon="14.3983436"><ele>260.0</ele><time>2026-03-22T09:44:14.515Z</time></trkpt><trkpt lat="42.2387907" lon="14.3982984"><ele>259.0</ele><time>2026-03-22T09:44:15.517Z</time></trkpt><trkpt lat="42.238968" lon="14.398261"><ele>257.3333333333333</ele><time>2026-03-22T09:44:16.517Z</time></trkpt><trkpt lat="42.2391264" lon="14.3982323"><ele>255.66666666666669</ele><time>2026-03-22T09:44:17.518Z</time></trkpt><trkpt lat="42.2393062" lon="14.3982081"><ele>254.0</ele><time>2026-03-22T09:44:18.519Z</time></trkpt><trkpt lat="42.2394965" lon="14.3981693"><ele>254.0</ele><time>2026-03-22T09:44:19.519Z</time></trkpt><trkpt lat="42.2396775" lon="14.3981188"><ele>254.0</ele><time>2026-03-22T09:44:20.517Z</time></trkpt><trkpt lat="42.2398509" lon="14.3980737"><ele>254.0</ele><time>2026-03-22T09:44:21.517Z</time></trkpt><trkpt lat="42.2400226" lon="14.3980374"><ele>254.33333333333334</ele><time>2026-03-22T09:44:22.516Z</time></trkpt><trkpt lat="42.2402065" lon="14.3979947"><ele>254.66666666666669</ele><time>2026-03-22T09:44:23.515Z</time></trkpt><trkpt lat="42.240381" lon="14.397958"><ele>255.0</ele><time>2026-03-22T09:44:24.522Z</time></trkpt><trkpt lat="42.2405654" lon="14.3979156"><ele>256.0</ele><time>2026-03-22T09:44:25.517Z</time></trkpt><trkpt lat="42.2407366" lon="14.3978771"><ele>257.0</ele><time>2026-03-22T09:44:26.515Z</time></trkpt><trkpt lat="42.2409059" lon="14.397842"><ele>258.0</ele><time>2026-03-22T09:44:27.521Z</time></trkpt><trkpt lat="42.2410803" lon="14.3978175"><ele>258.0</ele><time>2026-03-22T09:44:28.52Z</time></trkpt><trkpt lat="42.241249" lon="14.3977657"><ele>258.0</ele><time>2026-03-22T09:44:29.519Z</time></trkpt><trkpt lat="42.2414313" lon="14.397723"><ele>258.0</ele><time>2026-03-22T09:44:30.521Z</time></trkpt><trkpt lat="42.241604" lon="14.3976988"><ele>258.5</ele><time>2026-03-22T09:44:31.52Z</time></trkpt><trkpt lat="42.2417607" lon="14.3976686"><ele>259.0</ele><time>2026-03-22T09:44:32.514Z</time></trkpt><trkpt lat="42.2418999" lon="14.3976388"><ele>259.5</ele><time>2026-03-22T09:44:33.521Z</time></trkpt><trkpt lat="42.2420365" lon="14.397613"><ele>260.0</ele><time>2026-03-22T09:44:34.519Z</time></trkpt><trkpt lat="42.242163" lon="14.3976008"><ele>260.0</ele><time>2026-03-22T09:44:35.518Z</time></trkpt><trkpt lat="42.2422473" lon="14.3976162"><ele>260.0</ele><time>2026-03-22T09:44:36.515Z</time></trkpt><trkpt lat="42.2423392" lon="14.3976359"><ele>260.0</ele><time>2026-03-22T09:44:37.52Z</time></trkpt><trkpt lat="42.2424079" lon="14.3976562"><ele>260.0</ele><time>2026-03-22T09:44:38.522Z</time></trkpt><trkpt lat="42.2425149" lon="14.3976788"><ele>260.0</ele><time>2026-03-22T09:44:40.53Z</time></trkpt><trkpt lat="42.2426317" lon="14.397716"><ele>260.1666666666667</ele><time>2026-03-22T09:44:42.525Z</time></trkpt><trkpt lat="42.2427139" lon="14.3977536"><ele>260.33333333333337</ele><time>2026-03-22T09:44:43.528Z</time></trkpt><trkpt lat="42.2427901" lon="14.3978138"><ele>260.5</ele><time>2026-03-22T09:44:44.523Z</time></trkpt><trkpt lat="42.2428652" lon="14.3979059"><ele>260.6666666666667</ele><time>2026-03-22T09:44:45.524Z</time></trkpt><trkpt lat="42.2429284" lon="14.3979854"><ele>260.8333333333333</ele><time>2026-03-22T09:44:46.531Z</time></trkpt><trkpt lat="42.2429765" lon="14.39805"><ele>261.0</ele><time>2026-03-22T09:44:47.529Z</time></trkpt><trkpt lat="42.2430173" lon="14.3981171"><ele>260.7142857142857</ele><time>2026-03-22T09:44:48.535Z</time></trkpt><trkpt lat="42.2430477" lon="14.3981997"><ele>260.42857142857144</ele><time>2026-03-22T09:44:49.527Z</time></trkpt><trkpt lat="42.2430767" lon="14.3983037"><ele>260.1428571428571</ele><time>2026-03-22T09:44:50.529Z</time></trkpt><trkpt lat="42.2430948" lon="14.398399"><ele>259.8571428571429</ele><time>2026-03-22T09:44:51.526Z</time></trkpt><trkpt lat="42.2431195" lon="14.3985007"><ele>259.57142857142856</ele><time>2026-03-22T09:44:52.534Z</time></trkpt><trkpt lat="42.2431402" lon="14.398597"><ele>259.2857142857143</ele><time>2026-03-22T09:44:53.523Z</time></trkpt><trkpt lat="42.2431615" lon="14.3986897"><ele>259.0</ele><time>2026-03-22T09:44:54.524Z</time></trkpt><trkpt lat="42.2431921" lon="14.3987887"><ele>258.5</ele><time>2026-03-22T09:44:55.529Z</time></trkpt><trkpt lat="42.2432164" lon="14.3988789"><ele>258.0</ele><time>2026-03-22T09:44:56.523Z</time></trkpt><trkpt lat="42.2432382" lon="14.3989658"><ele>257.5</ele><time>2026-03-22T09:44:57.531Z</time></trkpt><trkpt lat="42.2432647" lon="14.3990571"><ele>257.0</ele><time>2026-03-22T09:44:58.528Z</time></trkpt><trkpt lat="42.2432926" lon="14.3991485"><ele>256.5</ele><time>2026-03-22T09:44:59.523Z</time></trkpt><trkpt lat="42.2433246" lon="14.3992479"><ele>256.0</ele><time>2026-03-22T09:45:00.536Z</time></trkpt><trkpt lat="42.2433669" lon="14.3993736"><ele>256.0</ele><time>2026-03-22T09:45:01.521Z</time></trkpt><trkpt lat="42.2434062" lon="14.3995245"><ele>256.0</ele><time>2026-03-22T09:45:02.55Z</time></trkpt><trkpt lat="42.2434373" lon="14.3996832"><ele>256.0</ele><time>2026-03-22T09:45:03.525Z</time></trkpt><trkpt lat="42.2434687" lon="14.3998616"><ele>256.0</ele><time>2026-03-22T09:45:04.523Z</time></trkpt><trkpt lat="42.2435248" lon="14.4000502"><ele>255.66666666666666</ele><time>2026-03-22T09:45:05.521Z</time></trkpt><trkpt lat="42.2436071" lon="14.4002441"><ele>255.33333333333331</ele><time>2026-03-22T09:45:06.533Z</time></trkpt><trkpt lat="42.2436731" lon="14.4004278"><ele>255.0</ele><time>2026-03-22T09:45:07.519Z</time></trkpt><trkpt lat="42.2437458" lon="14.4006165"><ele>254.75</ele><time>2026-03-22T09:45:08.522Z</time></trkpt><trkpt lat="42.2438099" lon="14.4007856"><ele>254.5</ele><time>2026-03-22T09:45:09.529Z</time></trkpt><trkpt lat="42.2438769" lon="14.4009507"><ele>254.25</ele><time>2026-03-22T09:45:10.522Z</time></trkpt><trkpt lat="42.2439372" lon="14.4011178"><ele>254.0</ele><time>2026-03-22T09:45:11.529Z</time></trkpt><trkpt lat="42.2439924" lon="14.4012757"><ele>253.25</ele><time>2026-03-22T09:45:12.528Z</time></trkpt><trkpt lat="42.2440399" lon="14.4014348"><ele>252.5</ele><time>2026-03-22T09:45:13.532Z</time></trkpt><trkpt lat="42.2440802" lon="14.4015926"><ele>251.75</ele><time>2026-03-22T09:45:14.521Z</time></trkpt><trkpt lat="42.2441324" lon="14.4017258"><ele>251.0</ele><time>2026-03-22T09:45:15.527Z</time></trkpt><trkpt lat="42.2442191" lon="14.4018283"><ele>251.0</ele><time>2026-03-22T09:45:16.529Z</time></trkpt><trkpt lat="42.2443138" lon="14.4019405"><ele>251.0</ele><time>2026-03-22T09:45:17.528Z</time></trkpt><trkpt lat="42.2444232" lon="14.4020267"><ele>251.0</ele><time>2026-03-22T09:45:18.517Z</time></trkpt><trkpt lat="42.2445557" lon="14.4021027"><ele>251.0</ele><time>2026-03-22T09:45:19.522Z</time></trkpt><trkpt lat="42.244684" lon="14.4021894"><ele>250.0</ele><time>2026-03-22T09:45:20.516Z</time></trkpt><trkpt lat="42.2448315" lon="14.402273"><ele>249.0</ele><time>2026-03-22T09:45:21.527Z</time></trkpt><trkpt lat="42.2449695" lon="14.402354"><ele>248.0</ele><time>2026-03-22T09:45:22.531Z</time></trkpt><trkpt lat="42.2451208" lon="14.4024093"><ele>248.0</ele><time>2026-03-22T09:45:23.523Z</time></trkpt><trkpt lat="42.2452433" lon="14.4024882"><ele>248.0</ele><time>2026-03-22T09:45:24.525Z</time></trkpt><trkpt lat="42.2453583" lon="14.4025574"><ele>248.0</ele><time>2026-03-22T09:45:25.528Z</time></trkpt><trkpt lat="42.2454832" lon="14.4026389"><ele>248.0</ele><time>2026-03-22T09:45:26.527Z</time></trkpt><trkpt lat="42.2456" lon="14.4027425"><ele>247.5</ele><time>2026-03-22T09:45:27.524Z</time></trkpt><trkpt lat="42.2457249" lon="14.4028466"><ele>247.0</ele><time>2026-03-22T09:45:28.528Z</time></trkpt><trkpt lat="42.2458505" lon="14.4029483"><ele>246.5</ele><time>2026-03-22T09:45:29.525Z</time></trkpt><trkpt lat="42.2459621" lon="14.4030615"><ele>246.0</ele><time>2026-03-22T09:45:30.527Z</time></trkpt><trkpt lat="42.246067" lon="14.4031528"><ele>245.60000000000002</ele><time>2026-03-22T09:45:31.53Z</time></trkpt><trkpt lat="42.2461714" lon="14.4032401"><ele>245.20000000000002</ele><time>2026-03-22T09:45:32.531Z</time></trkpt><trkpt lat="42.2462872" lon="14.4033127"><ele>244.79999999999998</ele><time>2026-03-22T09:45:33.524Z</time></trkpt><trkpt lat="42.2463781" lon="14.4033717"><ele>244.39999999999998</ele><time>2026-03-22T09:45:34.529Z</time></trkpt><trkpt lat="42.2464631" lon="14.4034065"><ele>244.0</ele><time>2026-03-22T09:45:35.521Z</time></trkpt><trkpt lat="42.2465567" lon="14.4034001"><ele>243.0</ele><time>2026-03-22T09:45:36.519Z</time></trkpt><trkpt lat="42.2466523" lon="14.4032786"><ele>241.99999999999997</ele><time>2026-03-22T09:45:38.523Z</time></trkpt><trkpt lat="42.2466492" lon="14.4031514"><ele>240.99999999999997</ele><time>2026-03-22T09:45:40.512Z</time></trkpt><trkpt lat="42.2466088" lon="14.4030668"><ele>240.0</ele><time>2026-03-22T09:45:41.512Z</time></trkpt><trkpt lat="42.2465583" lon="14.4029678"><ele>239.0</ele><time>2026-03-22T09:45:42.51Z</time></trkpt><trkpt lat="42.246506" lon="14.4028393"><ele>239.0</ele><time>2026-03-22T09:45:43.517Z</time></trkpt><trkpt lat="42.2464651" lon="14.4026861"><ele>239.0</ele><time>2026-03-22T09:45:44.517Z</time></trkpt><trkpt lat="42.2464148" lon="14.402513"><ele>239.0</ele><time>2026-03-22T09:45:45.518Z</time></trkpt><trkpt lat="42.2463646" lon="14.4023268"><ele>239.0</ele><time>2026-03-22T09:45:46.519Z</time></trkpt><trkpt lat="42.2463325" lon="14.4021621"><ele>239.79999999999998</ele><time>2026-03-22T09:45:47.515Z</time></trkpt><trkpt lat="42.246324" lon="14.4019941"><ele>240.59999999999997</ele><time>2026-03-22T09:45:48.521Z</time></trkpt><trkpt lat="42.2463505" lon="14.4018293"><ele>241.4</ele><time>2026-03-22T09:45:49.521Z</time></trkpt><trkpt lat="42.2463747" lon="14.4016951"><ele>242.2</ele><time>2026-03-22T09:45:50.522Z</time></trkpt><trkpt lat="42.2463974" lon="14.4016054"><ele>243.0</ele><time>2026-03-22T09:45:51.53Z</time></trkpt><trkpt lat="42.2464759" lon="14.4015393"><ele>243.0</ele><time>2026-03-22T09:45:53.53Z</time></trkpt><trkpt lat="42.2465735" lon="14.4016099"><ele>243.0</ele><time>2026-03-22T09:45:55.515Z</time></trkpt><trkpt lat="42.2466505" lon="14.4017033"><ele>243.0</ele><time>2026-03-22T09:45:56.523Z</time></trkpt><trkpt lat="42.2467643" lon="14.4018192"><ele>243.0</ele><time>2026-03-22T09:45:57.516Z</time></trkpt><trkpt lat="42.2468933" lon="14.4019551"><ele>243.0</ele><time>2026-03-22T09:45:58.52Z</time></trkpt><trkpt lat="42.2470275" lon="14.4021207"><ele>243.0</ele><time>2026-03-22T09:45:59.521Z</time></trkpt><trkpt lat="42.2471596" lon="14.4022721"><ele>243.0</ele><time>2026-03-22T09:46:00.522Z</time></trkpt><trkpt lat="42.2472632" lon="14.4023754"><ele>241.60000000000002</ele><time>2026-03-22T09:46:01.517Z</time></trkpt><trkpt lat="42.247334" lon="14.4024658"><ele>240.20000000000002</ele><time>2026-03-22T09:46:02.524Z</time></trkpt><trkpt lat="42.2473621" lon="14.4025817"><ele>238.8</ele><time>2026-03-22T09:46:03.522Z</time></trkpt><trkpt lat="42.247374" lon="14.4027396"><ele>237.4</ele><time>2026-03-22T09:46:04.523Z</time></trkpt><trkpt lat="42.2473758" lon="14.4028904"><ele>236.0</ele><time>2026-03-22T09:46:05.516Z</time></trkpt><trkpt lat="42.2473886" lon="14.4030518"><ele>233.75</ele><time>2026-03-22T09:46:06.51Z</time></trkpt><trkpt lat="42.2473839" lon="14.4032373"><ele>231.5</ele><time>2026-03-22T09:46:07.508Z</time></trkpt><trkpt lat="42.2473781" lon="14.4034086"><ele>229.25</ele><time>2026-03-22T09:46:08.513Z</time></trkpt><trkpt lat="42.2473798" lon="14.4035486"><ele>227.0</ele><time>2026-03-22T09:46:09.516Z</time></trkpt><trkpt lat="42.2473498" lon="14.4036723"><ele>227.0</ele><time>2026-03-22T09:46:10.518Z</time></trkpt><trkpt lat="42.2473622" lon="14.4037615"><ele>227.0</ele><time>2026-03-22T09:46:11.527Z</time></trkpt><trkpt lat="42.2474427" lon="14.403846"><ele>227.0</ele><time>2026-03-22T09:46:13.52Z</time></trkpt><trkpt lat="42.2475331" lon="14.4038391"><ele>227.0</ele><time>2026-03-22T09:46:14.525Z</time></trkpt><trkpt lat="42.2476451" lon="14.4038687"><ele>227.0</ele><time>2026-03-22T09:46:15.521Z</time></trkpt><trkpt lat="42.2477578" lon="14.4039337"><ele>224.25</ele><time>2026-03-22T09:46:16.521Z</time></trkpt><trkpt lat="42.247865" lon="14.4039844"><ele>221.5</ele><time>2026-03-22T09:46:17.523Z</time></trkpt><trkpt lat="42.2479928" lon="14.4040095"><ele>218.75</ele><time>2026-03-22T09:46:18.531Z</time></trkpt><trkpt lat="42.2481136" lon="14.4040085"><ele>216.0</ele><time>2026-03-22T09:46:19.53Z</time></trkpt><trkpt lat="42.2482194" lon="14.4040278"><ele>216.0</ele><time>2026-03-22T09:46:20.533Z</time></trkpt><trkpt lat="42.2483211" lon="14.4040415"><ele>216.0</ele><time>2026-03-22T09:46:21.532Z</time></trkpt><trkpt lat="42.2483983" lon="14.4040301"><ele>216.0</ele><time>2026-03-22T09:46:22.527Z</time></trkpt><trkpt lat="42.2484643" lon="14.4040279"><ele>216.0</ele><time>2026-03-22T09:46:23.521Z</time></trkpt><trkpt lat="42.2485468" lon="14.4039987"><ele>216.0</ele><time>2026-03-22T09:46:25.525Z</time></trkpt><trkpt lat="42.2485997" lon="14.4038878"><ele>216.0</ele><time>2026-03-22T09:46:27.517Z</time></trkpt><trkpt lat="42.2486509" lon="14.403771"><ele>218.20000000000002</ele><time>2026-03-22T09:46:28.52Z</time></trkpt><trkpt lat="42.248727" lon="14.403672"><ele>220.40000000000003</ele><time>2026-03-22T09:46:29.513Z</time></trkpt><trkpt lat="42.2488198" lon="14.4035909"><ele>222.6</ele><time>2026-03-22T09:46:30.515Z</time></trkpt><trkpt lat="42.2489146" lon="14.4035446"><ele>224.8</ele><time>2026-03-22T09:46:31.516Z</time></trkpt><trkpt lat="42.2489843" lon="14.403514"><ele>227.0</ele><time>2026-03-22T09:46:32.518Z</time></trkpt><trkpt lat="42.2491011" lon="14.4034995"><ele>227.0</ele><time>2026-03-22T09:46:33.513Z</time></trkpt><trkpt lat="42.2492186" lon="14.403508"><ele>227.0</ele><time>2026-03-22T09:46:34.514Z</time></trkpt><trkpt lat="42.2493312" lon="14.4035008"><ele>227.0</ele><time>2026-03-22T09:46:35.52Z</time></trkpt><trkpt lat="42.2494468" lon="14.4035163"><ele>227.0</ele><time>2026-03-22T09:46:36.525Z</time></trkpt><trkpt lat="42.2495986" lon="14.4035642"><ele>227.0</ele><time>2026-03-22T09:46:37.532Z</time></trkpt><trkpt lat="42.24974" lon="14.4036093"><ele>227.0</ele><time>2026-03-22T09:46:38.524Z</time></trkpt><trkpt lat="42.2498703" lon="14.4036528"><ele>227.0</ele><time>2026-03-22T09:46:39.529Z</time></trkpt><trkpt lat="42.2500236" lon="14.4036549"><ele>227.0</ele><time>2026-03-22T09:46:40.537Z</time></trkpt><trkpt lat="42.2501651" lon="14.4036843"><ele>225.75</ele><time>2026-03-22T09:46:41.538Z</time></trkpt><trkpt lat="42.2502858" lon="14.4037603"><ele>224.5</ele><time>2026-03-22T09:46:42.525Z</time></trkpt><trkpt lat="42.2503977" lon="14.4038568"><ele>223.25</ele><time>2026-03-22T09:46:43.532Z</time></trkpt><trkpt lat="42.2504974" lon="14.403955"><ele>222.0</ele><time>2026-03-22T09:46:44.537Z</time></trkpt><trkpt lat="42.2506134" lon="14.4040347"><ele>218.5</ele><time>2026-03-22T09:46:45.533Z</time></trkpt><trkpt lat="42.2507273" lon="14.4041163"><ele>215.0</ele><time>2026-03-22T09:46:46.533Z</time></trkpt><trkpt lat="42.2508505" lon="14.4041937"><ele>211.5</ele><time>2026-03-22T09:46:47.539Z</time></trkpt><trkpt lat="42.2509735" lon="14.4042709"><ele>208.0</ele><time>2026-03-22T09:46:48.536Z</time></trkpt><trkpt lat="42.2510882" lon="14.404335"><ele>208.0</ele><time>2026-03-22T09:46:49.539Z</time></trkpt><trkpt lat="42.2512168" lon="14.4043822"><ele>208.0</ele><time>2026-03-22T09:46:50.53Z</time></trkpt><trkpt lat="42.2513621" lon="14.4044218"><ele>208.0</ele><time>2026-03-22T09:46:51.529Z</time></trkpt><trkpt lat="42.2514819" lon="14.4044444"><ele>208.0</ele><time>2026-03-22T09:46:52.531Z</time></trkpt><trkpt lat="42.2515801" lon="14.4044657"><ele>208.8</ele><time>2026-03-22T09:46:53.531Z</time></trkpt><trkpt lat="42.2516458" lon="14.404472"><ele>209.60000000000002</ele><time>2026-03-22T09:46:54.53Z</time></trkpt><trkpt lat="42.2517489" lon="14.404461"><ele>210.39999999999998</ele><time>2026-03-22T09:46:55.526Z</time></trkpt><trkpt lat="42.2518716" lon="14.4044355"><ele>211.2</ele><time>2026-03-22T09:46:56.53Z</time></trkpt><trkpt lat="42.2519907" lon="14.4044063"><ele>212.0</ele><time>2026-03-22T09:46:57.53Z</time></trkpt><trkpt lat="42.2520961" lon="14.4043784"><ele>212.0</ele><time>2026-03-22T09:46:58.534Z</time></trkpt><trkpt lat="42.2521899" lon="14.4043542"><ele>212.0</ele><time>2026-03-22T09:46:59.532Z</time></trkpt><trkpt lat="42.2522857" lon="14.404313"><ele>212.0</ele><time>2026-03-22T09:47:00.531Z</time></trkpt><trkpt lat="42.2523705" lon="14.4042554"><ele>212.0</ele><time>2026-03-22T09:47:01.536Z</time></trkpt><trkpt lat="42.2524535" lon="14.4041866"><ele>212.0</ele><time>2026-03-22T09:47:02.529Z</time></trkpt><trkpt lat="42.2525371" lon="14.4041899"><ele>212.75</ele><time>2026-03-22T09:47:04.542Z</time></trkpt><trkpt lat="42.2525883" lon="14.4043024"><ele>213.5</ele><time>2026-03-22T09:47:06.529Z</time></trkpt><trkpt lat="42.2526808" lon="14.4044169"><ele>214.25</ele><time>2026-03-22T09:47:08.528Z</time></trkpt><trkpt lat="42.2527775" lon="14.4044887"><ele>215.0</ele><time>2026-03-22T09:47:09.528Z</time></trkpt><trkpt lat="42.2528935" lon="14.4045637"><ele>211.0</ele><time>2026-03-22T09:47:10.524Z</time></trkpt><trkpt lat="42.2530154" lon="14.4046653"><ele>207.0</ele><time>2026-03-22T09:47:11.529Z</time></trkpt><trkpt lat="42.2531251" lon="14.4047596"><ele>203.0</ele><time>2026-03-22T09:47:12.523Z</time></trkpt><trkpt lat="42.2532368" lon="14.4048734"><ele>199.0</ele><time>2026-03-22T09:47:13.528Z</time></trkpt><trkpt lat="42.253362" lon="14.4050234"><ele>199.0</ele><time>2026-03-22T09:47:14.53Z</time></trkpt><trkpt lat="42.2534715" lon="14.4051676"><ele>199.0</ele><time>2026-03-22T09:47:15.541Z</time></trkpt><trkpt lat="42.2535836" lon="14.4053008"><ele>199.0</ele><time>2026-03-22T09:47:16.541Z</time></trkpt><trkpt lat="42.2536782" lon="14.4054004"><ele>199.0</ele><time>2026-03-22T09:47:17.546Z</time></trkpt><trkpt lat="42.2537571" lon="14.4054935"><ele>195.0</ele><time>2026-03-22T09:47:18.53Z</time></trkpt><trkpt lat="42.2538194" lon="14.4055932"><ele>191.0</ele><time>2026-03-22T09:47:19.538Z</time></trkpt><trkpt lat="42.253851" lon="14.4057122"><ele>187.0</ele><time>2026-03-22T09:47:20.534Z</time></trkpt><trkpt lat="42.2538479" lon="14.4058316"><ele>183.0</ele><time>2026-03-22T09:47:21.536Z</time></trkpt><trkpt lat="42.2538381" lon="14.405993"><ele>179.0</ele><time>2026-03-22T09:47:22.539Z</time></trkpt><trkpt lat="42.2538101" lon="14.4061588"><ele>179.0</ele><time>2026-03-22T09:47:23.541Z</time></trkpt><trkpt lat="42.2537886" lon="14.4063015"><ele>179.0</ele><time>2026-03-22T09:47:24.54Z</time></trkpt><trkpt lat="42.2537724" lon="14.406409"><ele>179.0</ele><time>2026-03-22T09:47:25.535Z</time></trkpt><trkpt lat="42.2537267" lon="14.4065255"><ele>179.0</ele><time>2026-03-22T09:47:27.535Z</time></trkpt><trkpt lat="42.2536428" lon="14.4066033"><ele>179.0</ele><time>2026-03-22T09:47:29.531Z</time></trkpt><trkpt lat="42.2535688" lon="14.4065735"><ele>179.25</ele><time>2026-03-22T09:47:30.534Z</time></trkpt><trkpt lat="42.2534748" lon="14.4065298"><ele>179.5</ele><time>2026-03-22T09:47:31.523Z</time></trkpt><trkpt lat="42.2533504" lon="14.40646"><ele>179.75</ele><time>2026-03-22T09:47:32.517Z</time></trkpt><trkpt lat="42.2532049" lon="14.4063857"><ele>180.0</ele><time>2026-03-22T09:47:33.526Z</time></trkpt><trkpt lat="42.2530568" lon="14.4063079"><ele>180.0</ele><time>2026-03-22T09:47:34.527Z</time></trkpt><trkpt lat="42.2529031" lon="14.4062201"><ele>180.0</ele><time>2026-03-22T09:47:35.523Z</time></trkpt><trkpt lat="42.2527431" lon="14.4061325"><ele>180.0</ele><time>2026-03-22T09:47:36.524Z</time></trkpt><trkpt lat="42.2525985" lon="14.4060725"><ele>180.0</ele><time>2026-03-22T09:47:37.526Z</time></trkpt><trkpt lat="42.2524526" lon="14.4060164"><ele>180.0</ele><time>2026-03-22T09:47:38.528Z</time></trkpt><trkpt lat="42.2522902" lon="14.4060145"><ele>180.0</ele><time>2026-03-22T09:47:39.521Z</time></trkpt><trkpt lat="42.2521281" lon="14.40602"><ele>179.33333333333334</ele><time>2026-03-22T09:47:40.523Z</time></trkpt><trkpt lat="42.2519674" lon="14.4059972"><ele>178.66666666666669</ele><time>2026-03-22T09:47:41.527Z</time></trkpt><trkpt lat="42.2517976" lon="14.40597"><ele>178.0</ele><time>2026-03-22T09:47:42.524Z</time></trkpt><trkpt lat="42.251625" lon="14.4059229"><ele>178.0</ele><time>2026-03-22T09:47:43.537Z</time></trkpt><trkpt lat="42.2514852" lon="14.4058918"><ele>178.0</ele><time>2026-03-22T09:47:44.529Z</time></trkpt><trkpt lat="42.2513372" lon="14.4058796"><ele>178.0</ele><time>2026-03-22T09:47:45.524Z</time></trkpt><trkpt lat="42.2511978" lon="14.4058965"><ele>178.0</ele><time>2026-03-22T09:47:46.527Z</time></trkpt><trkpt lat="42.2510988" lon="14.4059282"><ele>178.75</ele><time>2026-03-22T09:47:47.527Z</time></trkpt><trkpt lat="42.2509978" lon="14.4059305"><ele>179.5</ele><time>2026-03-22T09:47:48.527Z</time></trkpt><trkpt lat="42.2508993" lon="14.405938"><ele>180.25</ele><time>2026-03-22T09:47:49.539Z</time></trkpt><trkpt lat="42.2507529" lon="14.4059291"><ele>181.0</ele><time>2026-03-22T09:47:50.525Z</time></trkpt><trkpt lat="42.2506021" lon="14.405893"><ele>181.33333333333334</ele><time>2026-03-22T09:47:51.535Z</time></trkpt><trkpt lat="42.2504647" lon="14.4058538"><ele>181.66666666666666</ele><time>2026-03-22T09:47:52.536Z</time></trkpt><trkpt lat="42.2503042" lon="14.4058345"><ele>182.0</ele><time>2026-03-22T09:47:53.54Z</time></trkpt><trkpt lat="42.2501478" lon="14.4058166"><ele>182.0</ele><time>2026-03-22T09:47:54.54Z</time></trkpt><trkpt lat="42.2499907" lon="14.4058008"><ele>182.0</ele><time>2026-03-22T09:47:55.537Z</time></trkpt><trkpt lat="42.2498533" lon="14.4058092"><ele>182.0</ele><time>2026-03-22T09:47:56.532Z</time></trkpt><trkpt lat="42.2497559" lon="14.4058162"><ele>182.0</ele><time>2026-03-22T09:47:57.534Z</time></trkpt><trkpt lat="42.2496415" lon="14.4058144"><ele>182.75</ele><time>2026-03-22T09:47:58.538Z</time></trkpt><trkpt lat="42.2495364" lon="14.4058203"><ele>183.5</ele><time>2026-03-22T09:47:59.536Z</time></trkpt><trkpt lat="42.2494275" lon="14.4058183"><ele>184.25</ele><time>2026-03-22T09:48:00.532Z</time></trkpt><trkpt lat="42.2492783" lon="14.4058216"><ele>185.0</ele><time>2026-03-22T09:48:01.527Z</time></trkpt><trkpt lat="42.2491406" lon="14.4058329"><ele>185.0</ele><time>2026-03-22T09:48:02.532Z</time></trkpt><trkpt lat="42.2490071" lon="14.4058233"><ele>185.0</ele><time>2026-03-22T09:48:03.53Z</time></trkpt><trkpt lat="42.2488279" lon="14.4058235"><ele>185.0</ele><time>2026-03-22T09:48:04.527Z</time></trkpt><trkpt lat="42.2486572" lon="14.4058205"><ele>185.0</ele><time>2026-03-22T09:48:05.53Z</time></trkpt><trkpt lat="42.2484967" lon="14.4058374"><ele>185.0</ele><time>2026-03-22T09:48:06.535Z</time></trkpt><trkpt lat="42.2483594" lon="14.4058554"><ele>185.0</ele><time>2026-03-22T09:48:07.527Z</time></trkpt><trkpt lat="42.2482343" lon="14.4058658"><ele>185.0</ele><time>2026-03-22T09:48:08.54Z</time></trkpt><trkpt lat="42.2481007" lon="14.4058921"><ele>185.75</ele><time>2026-03-22T09:48:09.533Z</time></trkpt><trkpt lat="42.2479639" lon="14.4059473"><ele>186.5</ele><time>2026-03-22T09:48:10.541Z</time></trkpt><trkpt lat="42.247829" lon="14.4060151"><ele>187.25</ele><time>2026-03-22T09:48:11.538Z</time></trkpt><trkpt lat="42.2477258" lon="14.4060711"><ele>188.0</ele><time>2026-03-22T09:48:12.54Z</time></trkpt><trkpt lat="42.2476471" lon="14.4061042"><ele>188.0</ele><time>2026-03-22T09:48:13.539Z</time></trkpt><trkpt lat="42.2475711" lon="14.4061448"><ele>188.0</ele><time>2026-03-22T09:48:14.538Z</time></trkpt><trkpt lat="42.247492" lon="14.4061788"><ele>188.0</ele><time>2026-03-22T09:48:15.537Z</time></trkpt><trkpt lat="42.247399" lon="14.4061982"><ele>188.0</ele><time>2026-03-22T09:48:16.538Z</time></trkpt><trkpt lat="42.2472904" lon="14.4062235"><ele>188.0</ele><time>2026-03-22T09:48:17.54Z</time></trkpt><trkpt lat="42.2471798" lon="14.4062574"><ele>187.25</ele><time>2026-03-22T09:48:18.537Z</time></trkpt><trkpt lat="42.2470772" lon="14.4063097"><ele>186.5</ele><time>2026-03-22T09:48:19.542Z</time></trkpt><trkpt lat="42.2469584" lon="14.4063732"><ele>185.75</ele><time>2026-03-22T09:48:20.546Z</time></trkpt><trkpt lat="42.2468506" lon="14.4064233"><ele>185.0</ele><time>2026-03-22T09:48:21.55Z</time></trkpt><trkpt lat="42.2467294" lon="14.4064647"><ele>185.0</ele><time>2026-03-22T09:48:22.542Z</time></trkpt><trkpt lat="42.2466184" lon="14.406494"><ele>185.0</ele><time>2026-03-22T09:48:23.538Z</time></trkpt><trkpt lat="42.2465174" lon="14.4065242"><ele>185.0</ele><time>2026-03-22T09:48:24.541Z</time></trkpt><trkpt lat="42.2464031" lon="14.4065688"><ele>185.0</ele><time>2026-03-22T09:48:25.548Z</time></trkpt><trkpt lat="42.2462938" lon="14.4066015"><ele>185.0</ele><time>2026-03-22T09:48:26.541Z</time></trkpt><trkpt lat="42.2461991" lon="14.4066347"><ele>185.6</ele><time>2026-03-22T09:48:27.54Z</time></trkpt><trkpt lat="42.2461211" lon="14.4066624"><ele>186.2</ele><time>2026-03-22T09:48:28.54Z</time></trkpt><trkpt lat="42.246039" lon="14.4066997"><ele>186.8</ele><time>2026-03-22T09:48:29.535Z</time></trkpt><trkpt lat="42.2459485" lon="14.4067356"><ele>187.4</ele><time>2026-03-22T09:48:30.534Z</time></trkpt><trkpt lat="42.2458591" lon="14.4067781"><ele>188.0</ele><time>2026-03-22T09:48:31.53Z</time></trkpt><trkpt lat="42.2457557" lon="14.4068145"><ele>188.0</ele><time>2026-03-22T09:48:32.528Z</time></trkpt><trkpt lat="42.2456371" lon="14.4068638"><ele>188.0</ele><time>2026-03-22T09:48:33.529Z</time></trkpt><trkpt lat="42.2455168" lon="14.4069067"><ele>188.0</ele><time>2026-03-22T09:48:34.537Z</time></trkpt><trkpt lat="42.2453928" lon="14.4069596"><ele>188.0</ele><time>2026-03-22T09:48:35.533Z</time></trkpt><trkpt lat="42.2453036" lon="14.4069979"><ele>189.4</ele><time>2026-03-22T09:48:36.529Z</time></trkpt><trkpt lat="42.2452373" lon="14.4070052"><ele>190.8</ele><time>2026-03-22T09:48:37.524Z</time></trkpt><trkpt lat="42.2451096" lon="14.4069001"><ele>192.2</ele><time>2026-03-22T09:48:39.542Z</time></trkpt><trkpt lat="42.2450068" lon="14.4068995"><ele>193.6</ele><time>2026-03-22T09:48:40.535Z</time></trkpt><trkpt lat="42.2448875" lon="14.40697"><ele>195.0</ele><time>2026-03-22T09:48:41.534Z</time></trkpt><trkpt lat="42.2447535" lon="14.4070411"><ele>195.0</ele><time>2026-03-22T09:48:42.539Z</time></trkpt><trkpt lat="42.2446274" lon="14.40709"><ele>195.0</ele><time>2026-03-22T09:48:43.539Z</time></trkpt><trkpt lat="42.2445037" lon="14.4071595"><ele>195.0</ele><time>2026-03-22T09:48:44.54Z</time></trkpt><trkpt lat="42.2443866" lon="14.4071903"><ele>195.0</ele><time>2026-03-22T09:48:45.531Z</time></trkpt><trkpt lat="42.2442866" lon="14.4071987"><ele>195.0</ele><time>2026-03-22T09:48:46.531Z</time></trkpt><trkpt lat="42.2441574" lon="14.4072019"><ele>195.0</ele><time>2026-03-22T09:48:47.543Z</time></trkpt><trkpt lat="42.244039" lon="14.407219"><ele>195.0</ele><time>2026-03-22T09:48:48.53Z</time></trkpt><trkpt lat="42.2439413" lon="14.4072516"><ele>195.0</ele><time>2026-03-22T09:48:49.548Z</time></trkpt><trkpt lat="42.2438435" lon="14.4072912"><ele>196.25</ele><time>2026-03-22T09:48:50.531Z</time></trkpt><trkpt lat="42.2437167" lon="14.4072952"><ele>197.5</ele><time>2026-03-22T09:48:51.53Z</time></trkpt><trkpt lat="42.2435812" lon="14.4072632"><ele>198.75</ele><time>2026-03-22T09:48:52.537Z</time></trkpt><trkpt lat="42.2434555" lon="14.4072287"><ele>200.0</ele><time>2026-03-22T09:48:53.531Z</time></trkpt><trkpt lat="42.2433519" lon="14.4072163"><ele>200.0</ele><time>2026-03-22T09:48:54.524Z</time></trkpt><trkpt lat="42.2432442" lon="14.4072122"><ele>200.0</ele><time>2026-03-22T09:48:55.532Z</time></trkpt><trkpt lat="42.243147" lon="14.4072017"><ele>200.0</ele><time>2026-03-22T09:48:56.535Z</time></trkpt><trkpt lat="42.2430747" lon="14.4071713"><ele>200.0</ele><time>2026-03-22T09:48:57.532Z</time></trkpt><trkpt lat="42.2430014" lon="14.4071229"><ele>200.0</ele><time>2026-03-22T09:48:58.53Z</time></trkpt><trkpt lat="42.2429215" lon="14.4069696"><ele>202.8</ele><time>2026-03-22T09:49:00.531Z</time></trkpt><trkpt lat="42.2429039" lon="14.4068581"><ele>205.6</ele><time>2026-03-22T09:49:01.529Z</time></trkpt><trkpt lat="42.2428597" lon="14.4067659"><ele>208.39999999999998</ele><time>2026-03-22T09:49:02.515Z</time></trkpt><trkpt lat="42.2427948" lon="14.4066623"><ele>211.2</ele><time>2026-03-22T09:49:03.52Z</time></trkpt><trkpt lat="42.242714" lon="14.4065672"><ele>214.0</ele><time>2026-03-22T09:49:04.518Z</time></trkpt><trkpt lat="42.2426105" lon="14.4064891"><ele>214.0</ele><time>2026-03-22T09:49:05.525Z</time></trkpt><trkpt lat="42.2425078" lon="14.4063882"><ele>214.0</ele><time>2026-03-22T09:49:06.524Z</time></trkpt><trkpt lat="42.2424166" lon="14.406274"><ele>214.0</ele><time>2026-03-22T09:49:07.522Z</time></trkpt><trkpt lat="42.2423201" lon="14.4061677"><ele>214.0</ele><time>2026-03-22T09:49:08.522Z</time></trkpt><trkpt lat="42.2422141" lon="14.4060893"><ele>215.6</ele><time>2026-03-22T09:49:09.52Z</time></trkpt><trkpt lat="42.2421025" lon="14.4060126"><ele>217.2</ele><time>2026-03-22T09:49:10.523Z</time></trkpt><trkpt lat="42.2420061" lon="14.405946"><ele>218.79999999999998</ele><time>2026-03-22T09:49:11.532Z</time></trkpt><trkpt lat="42.2419443" lon="14.4058611"><ele>220.39999999999998</ele><time>2026-03-22T09:49:12.523Z</time></trkpt><trkpt lat="42.2419154" lon="14.4057752"><ele>222.0</ele><time>2026-03-22T09:49:13.524Z</time></trkpt><trkpt lat="42.2419273" lon="14.4056823"><ele>222.0</ele><time>2026-03-22T09:49:14.534Z</time></trkpt><trkpt lat="42.2419586" lon="14.4055547"><ele>222.0</ele><time>2026-03-22T09:49:16.523Z</time></trkpt><trkpt lat="42.2418964" lon="14.4056198"><ele>222.0</ele><time>2026-03-22T09:49:27.536Z</time></trkpt><trkpt lat="42.2418425" lon="14.4057689"><ele>222.0</ele><time>2026-03-22T09:49:29.53Z</time></trkpt><trkpt lat="42.2418128" lon="14.4058463"><ele>222.0</ele><time>2026-03-22T09:49:30.536Z</time></trkpt><trkpt lat="42.2417575" lon="14.4059283"><ele>222.0</ele><time>2026-03-22T09:49:31.533Z</time></trkpt><trkpt lat="42.2417038" lon="14.4059814"><ele>222.0</ele><time>2026-03-22T09:49:32.535Z</time></trkpt><trkpt lat="42.2416344" lon="14.4059876"><ele>222.0</ele><time>2026-03-22T09:49:33.53Z</time></trkpt><trkpt lat="42.2415318" lon="14.4059726"><ele>222.0</ele><time>2026-03-22T09:49:35.53Z</time></trkpt><trkpt lat="42.2414572" lon="14.4059169"><ele>222.0</ele><time>2026-03-22T09:49:51.552Z</time></trkpt><trkpt lat="42.241384" lon="14.4058885"><ele>222.0</ele><time>2026-03-22T09:49:54.533Z</time></trkpt><trkpt lat="42.241297" lon="14.4058611"><ele>222.0</ele><time>2026-03-22T09:49:56.524Z</time></trkpt><trkpt lat="42.2411408" lon="14.4057944"><ele>222.0</ele><time>2026-03-22T09:49:58.53Z</time></trkpt><trkpt lat="42.2410839" lon="14.4057418"><ele>222.0</ele><time>2026-03-22T09:49:59.526Z</time></trkpt><trkpt lat="42.2409921" lon="14.4056334"><ele>222.0</ele><time>2026-03-22T09:50:01.522Z</time></trkpt><trkpt lat="42.2409379" lon="14.4055701"><ele>222.0</ele><time>2026-03-22T09:50:02.524Z</time></trkpt><trkpt lat="42.2408827" lon="14.405525"><ele>222.0</ele><time>2026-03-22T09:50:03.528Z</time></trkpt><trkpt lat="42.240817" lon="14.4054899"><ele>222.0</ele><time>2026-03-22T09:50:05.522Z</time></trkpt><trkpt lat="42.2407731" lon="14.4054119"><ele>222.0</ele><time>2026-03-22T09:50:07.514Z</time></trkpt><trkpt lat="42.2406754" lon="14.4053217"><ele>222.0</ele><time>2026-03-22T09:50:09.516Z</time></trkpt><trkpt lat="42.240562" lon="14.4053241"><ele>222.0</ele><time>2026-03-22T09:50:10.508Z</time></trkpt><trkpt lat="42.2404489" lon="14.405341"><ele>222.0</ele><time>2026-03-22T09:50:11.508Z</time></trkpt><trkpt lat="42.2403338" lon="14.4053729"><ele>220.2</ele><time>2026-03-22T09:50:12.51Z</time></trkpt><trkpt lat="42.2402173" lon="14.4053845"><ele>218.39999999999998</ele><time>2026-03-22T09:50:13.517Z</time></trkpt><trkpt lat="42.240112" lon="14.4053998"><ele>216.60000000000002</ele><time>2026-03-22T09:50:14.524Z</time></trkpt><trkpt lat="42.2399995" lon="14.4054283"><ele>214.8</ele><time>2026-03-22T09:50:15.528Z</time></trkpt><trkpt lat="42.2398959" lon="14.4054687"><ele>213.0</ele><time>2026-03-22T09:50:16.532Z</time></trkpt><trkpt lat="42.2398104" lon="14.4055422"><ele>212.66666666666666</ele><time>2026-03-22T09:50:17.529Z</time></trkpt><trkpt lat="42.2397253" lon="14.4055997"><ele>212.33333333333331</ele><time>2026-03-22T09:50:18.528Z</time></trkpt><trkpt lat="42.2396499" lon="14.4056536"><ele>212.0</ele><time>2026-03-22T09:50:19.526Z</time></trkpt><trkpt lat="42.2395791" lon="14.4056965"><ele>211.66666666666666</ele><time>2026-03-22T09:50:20.531Z</time></trkpt><trkpt lat="42.2395134" lon="14.4057141"><ele>211.33333333333331</ele><time>2026-03-22T09:50:21.533Z</time></trkpt><trkpt lat="42.2394869" lon="14.4057923"><ele>211.0</ele><time>2026-03-22T09:50:25.522Z</time></trkpt><trkpt lat="42.2395153" lon="14.4059024"><ele>211.0</ele><time>2026-03-22T09:50:27.523Z</time></trkpt><trkpt lat="42.239526" lon="14.4059925"><ele>211.0</ele><time>2026-03-22T09:50:28.523Z</time></trkpt><trkpt lat="42.2395767" lon="14.4060876"><ele>211.0</ele><time>2026-03-22T09:50:30.52Z</time></trkpt><trkpt lat="42.2396809" lon="14.4061395"><ele>211.0</ele><time>2026-03-22T09:50:32.514Z</time></trkpt><trkpt lat="42.239787" lon="14.4061842"><ele>211.0</ele><time>2026-03-22T09:50:34.511Z</time></trkpt><trkpt lat="42.2398777" lon="14.4062126"><ele>209.60000000000002</ele><time>2026-03-22T09:50:35.511Z</time></trkpt><trkpt lat="42.2399824" lon="14.4062555"><ele>208.2</ele><time>2026-03-22T09:50:36.509Z</time></trkpt><trkpt lat="42.2400876" lon="14.4062979"><ele>206.8</ele><time>2026-03-22T09:50:37.509Z</time></trkpt><trkpt lat="42.24017" lon="14.4063328"><ele>205.39999999999998</ele><time>2026-03-22T09:50:38.516Z</time></trkpt><trkpt lat="42.2402705" lon="14.4064402"><ele>204.0</ele><time>2026-03-22T09:50:40.517Z</time></trkpt><trkpt lat="42.2402979" lon="14.4065791"><ele>207.6</ele><time>2026-03-22T09:50:42.516Z</time></trkpt><trkpt lat="42.240291" lon="14.4067033"><ele>211.2</ele><time>2026-03-22T09:50:43.516Z</time></trkpt><trkpt lat="42.2403271" lon="14.4067902"><ele>214.79999999999998</ele><time>2026-03-22T09:50:44.519Z</time></trkpt><trkpt lat="42.2403938" lon="14.4068957"><ele>218.39999999999998</ele><time>2026-03-22T09:50:45.511Z</time></trkpt><trkpt lat="42.2404585" lon="14.4069846"><ele>222.0</ele><time>2026-03-22T09:50:46.517Z</time></trkpt><trkpt lat="42.2405296" lon="14.4071122"><ele>222.2</ele><time>2026-03-22T09:50:47.506Z</time></trkpt><trkpt lat="42.2405913" lon="14.4071932"><ele>222.39999999999998</ele><time>2026-03-22T09:50:48.507Z</time></trkpt><trkpt lat="42.2406443" lon="14.4072804"><ele>222.60000000000002</ele><time>2026-03-22T09:50:49.506Z</time></trkpt><trkpt lat="42.2407523" lon="14.4073671"><ele>222.8</ele><time>2026-03-22T09:50:50.507Z</time></trkpt><trkpt lat="42.2408346" lon="14.407442"><ele>223.0</ele><time>2026-03-22T09:50:51.51Z</time></trkpt><trkpt lat="42.2409266" lon="14.4074793"><ele>223.0</ele><time>2026-03-22T09:50:52.513Z</time></trkpt><trkpt lat="42.2410177" lon="14.407479"><ele>223.0</ele><time>2026-03-22T09:50:53.506Z</time></trkpt><trkpt lat="42.2410913" lon="14.4074814"><ele>223.0</ele><time>2026-03-22T09:50:54.508Z</time></trkpt><trkpt lat="42.2411817" lon="14.4074926"><ele>223.0</ele><time>2026-03-22T09:50:55.511Z</time></trkpt><trkpt lat="42.241285" lon="14.4075045"><ele>223.0</ele><time>2026-03-22T09:50:56.514Z</time></trkpt><trkpt lat="42.2414019" lon="14.4075638"><ele>218.33333333333331</ele><time>2026-03-22T09:50:57.511Z</time></trkpt><trkpt lat="42.2415539" lon="14.4076477"><ele>213.66666666666669</ele><time>2026-03-22T09:50:58.509Z</time></trkpt><trkpt lat="42.241689" lon="14.4077292"><ele>209.0</ele><time>2026-03-22T09:50:59.503Z</time></trkpt><trkpt lat="42.2418312" lon="14.4078764"><ele>214.66666666666669</ele><time>2026-03-22T09:51:00.507Z</time></trkpt><trkpt lat="42.2419751" lon="14.408007"><ele>220.33333333333331</ele><time>2026-03-22T09:51:01.515Z</time></trkpt><trkpt lat="42.242098" lon="14.4081154"><ele>226.0</ele><time>2026-03-22T09:51:02.504Z</time></trkpt><trkpt lat="42.2422106" lon="14.4082273"><ele>222.60000000000002</ele><time>2026-03-22T09:51:03.512Z</time></trkpt><trkpt lat="42.2422991" lon="14.4083522"><ele>219.20000000000002</ele><time>2026-03-22T09:51:04.512Z</time></trkpt><trkpt lat="42.2423623" lon="14.4084689"><ele>215.8</ele><time>2026-03-22T09:51:05.509Z</time></trkpt><trkpt lat="42.2424191" lon="14.4085633"><ele>212.39999999999998</ele><time>2026-03-22T09:51:06.51Z</time></trkpt><trkpt lat="42.2424812" lon="14.4086114"><ele>209.0</ele><time>2026-03-22T09:51:07.507Z</time></trkpt><trkpt lat="42.2425746" lon="14.408593"><ele>209.0</ele><time>2026-03-22T09:51:09.511Z</time></trkpt><trkpt lat="42.2426411" lon="14.4085126"><ele>209.0</ele><time>2026-03-22T09:51:11.512Z</time></trkpt><trkpt lat="42.2427211" lon="14.4084867"><ele>209.0</ele><time>2026-03-22T09:51:14.507Z</time></trkpt><trkpt lat="42.2428011" lon="14.4085192"><ele>209.0</ele><time>2026-03-22T09:51:16.507Z</time></trkpt><trkpt lat="42.2428785" lon="14.4085852"><ele>209.0</ele><time>2026-03-22T09:51:18.509Z</time></trkpt><trkpt lat="42.242982" lon="14.4086438"><ele>209.00000000000003</ele><time>2026-03-22T09:51:20.506Z</time></trkpt><trkpt lat="42.2430547" lon="14.4086564"><ele>209.0</ele><time>2026-03-22T09:51:21.517Z</time></trkpt><trkpt lat="42.2431448" lon="14.408672"><ele>209.0</ele><time>2026-03-22T09:51:22.505Z</time></trkpt><trkpt lat="42.2432385" lon="14.4086895"><ele>209.0</ele><time>2026-03-22T09:51:23.512Z</time></trkpt><trkpt lat="42.243323" lon="14.408704"><ele>209.00000000000003</ele><time>2026-03-22T09:51:24.51Z</time></trkpt><trkpt lat="42.2434109" lon="14.4086909"><ele>209.0</ele><time>2026-03-22T09:51:25.513Z</time></trkpt><trkpt lat="42.2434834" lon="14.4086848"><ele>207.83333333333334</ele><time>2026-03-22T09:51:26.505Z</time></trkpt><trkpt lat="42.2435513" lon="14.4086866"><ele>206.66666666666669</ele><time>2026-03-22T09:51:27.509Z</time></trkpt><trkpt lat="42.2436386" lon="14.408708"><ele>205.5</ele><time>2026-03-22T09:51:28.513Z</time></trkpt><trkpt lat="42.2437387" lon="14.4087276"><ele>204.33333333333331</ele><time>2026-03-22T09:51:29.51Z</time></trkpt><trkpt lat="42.2438128" lon="14.4087466"><ele>203.16666666666666</ele><time>2026-03-22T09:51:30.519Z</time></trkpt><trkpt lat="42.2438899" lon="14.4087588"><ele>202.0</ele><time>2026-03-22T09:51:31.514Z</time></trkpt><trkpt lat="42.2439522" lon="14.4087841"><ele>205.49999999999997</ele><time>2026-03-22T09:51:32.512Z</time></trkpt><trkpt lat="42.2440121" lon="14.408826"><ele>209.0</ele><time>2026-03-22T09:51:33.511Z</time></trkpt><trkpt lat="42.2440912" lon="14.4088481"><ele>212.5</ele><time>2026-03-22T09:51:34.519Z</time></trkpt><trkpt lat="42.2441765" lon="14.4088574"><ele>216.0</ele><time>2026-03-22T09:51:35.51Z</time></trkpt><trkpt lat="42.2442731" lon="14.4088432"><ele>219.49999999999997</ele><time>2026-03-22T09:51:36.507Z</time></trkpt><trkpt lat="42.2443752" lon="14.408838"><ele>223.0</ele><time>2026-03-22T09:51:37.515Z</time></trkpt><trkpt lat="42.2444906" lon="14.4088532"><ele>223.0</ele><time>2026-03-22T09:51:38.507Z</time></trkpt><trkpt lat="42.2446273" lon="14.4088828"><ele>223.0</ele><time>2026-03-22T09:51:39.507Z</time></trkpt><trkpt lat="42.244767" lon="14.4088915"><ele>223.0</ele><time>2026-03-22T09:51:40.506Z</time></trkpt><trkpt lat="42.2449172" lon="14.4088804"><ele>223.0</ele><time>2026-03-22T09:51:41.501Z</time></trkpt><trkpt lat="42.2450402" lon="14.4088607"><ele>217.0</ele><time>2026-03-22T09:51:42.506Z</time></trkpt><trkpt lat="42.2451595" lon="14.4088255"><ele>211.0</ele><time>2026-03-22T09:51:43.501Z</time></trkpt><trkpt lat="42.245265" lon="14.4087649"><ele>205.0</ele><time>2026-03-22T09:51:44.508Z</time></trkpt><trkpt lat="42.2453617" lon="14.4087061"><ele>199.0</ele><time>2026-03-22T09:51:45.505Z</time></trkpt><trkpt lat="42.2454811" lon="14.4086529"><ele>199.0</ele><time>2026-03-22T09:51:46.512Z</time></trkpt><trkpt lat="42.2455992" lon="14.4086179"><ele>199.0</ele><time>2026-03-22T09:51:47.51Z</time></trkpt><trkpt lat="42.2457117" lon="14.4086098"><ele>199.0</ele><time>2026-03-22T09:51:48.508Z</time></trkpt><trkpt lat="42.2458223" lon="14.4085938"><ele>199.0</ele><time>2026-03-22T09:51:49.518Z</time></trkpt><trkpt lat="42.2459427" lon="14.4086168"><ele>199.25</ele><time>2026-03-22T09:51:50.514Z</time></trkpt><trkpt lat="42.2460655" lon="14.4086394"><ele>199.5</ele><time>2026-03-22T09:51:51.513Z</time></trkpt><trkpt lat="42.2461841" lon="14.4086708"><ele>199.75</ele><time>2026-03-22T09:51:52.519Z</time></trkpt><trkpt lat="42.2462886" lon="14.4087365"><ele>200.0</ele><time>2026-03-22T09:51:53.511Z</time></trkpt><trkpt lat="42.2463712" lon="14.4087988"><ele>205.25</ele><time>2026-03-22T09:51:54.518Z</time></trkpt><trkpt lat="42.2464768" lon="14.4088497"><ele>210.5</ele><time>2026-03-22T09:51:55.512Z</time></trkpt><trkpt lat="42.2466042" lon="14.4088714"><ele>215.75</ele><time>2026-03-22T09:51:56.511Z</time></trkpt><trkpt lat="42.2467209" lon="14.4088818"><ele>221.0</ele><time>2026-03-22T09:51:57.511Z</time></trkpt><trkpt lat="42.2468301" lon="14.4088725"><ele>221.0</ele><time>2026-03-22T09:51:58.512Z</time></trkpt><trkpt lat="42.2469447" lon="14.4088698"><ele>221.0</ele><time>2026-03-22T09:51:59.511Z</time></trkpt><trkpt lat="42.2470629" lon="14.4088874"><ele>221.0</ele><time>2026-03-22T09:52:00.514Z</time></trkpt><trkpt lat="42.2471852" lon="14.4089041"><ele>221.0</ele><time>2026-03-22T09:52:01.515Z</time></trkpt><trkpt lat="42.2473154" lon="14.4089057"><ele>220.4</ele><time>2026-03-22T09:52:02.518Z</time></trkpt><trkpt lat="42.2474369" lon="14.4088847"><ele>219.8</ele><time>2026-03-22T09:52:03.518Z</time></trkpt><trkpt lat="42.2475473" lon="14.4088499"><ele>219.20000000000002</ele><time>2026-03-22T09:52:04.516Z</time></trkpt><trkpt lat="42.2476381" lon="14.4088099"><ele>218.60000000000002</ele><time>2026-03-22T09:52:05.516Z</time></trkpt><trkpt lat="42.2477129" lon="14.4087522"><ele>218.0</ele><time>2026-03-22T09:52:06.518Z</time></trkpt><trkpt lat="42.2478024" lon="14.408718"><ele>214.66666666666669</ele><time>2026-03-22T09:52:07.52Z</time></trkpt><trkpt lat="42.247892" lon="14.4086752"><ele>211.33333333333334</ele><time>2026-03-22T09:52:08.514Z</time></trkpt><trkpt lat="42.2479805" lon="14.4086138"><ele>208.0</ele><time>2026-03-22T09:52:09.515Z</time></trkpt><trkpt lat="42.2480686" lon="14.4085503"><ele>204.66666666666669</ele><time>2026-03-22T09:52:10.511Z</time></trkpt><trkpt lat="42.2481312" lon="14.4084883"><ele>201.33333333333334</ele><time>2026-03-22T09:52:11.509Z</time></trkpt><trkpt lat="42.2481758" lon="14.4084197"><ele>198.0</ele><time>2026-03-22T09:52:12.517Z</time></trkpt><trkpt lat="42.2482613" lon="14.408331"><ele>197.60000000000002</ele><time>2026-03-22T09:52:14.514Z</time></trkpt><trkpt lat="42.2483317" lon="14.4083037"><ele>197.20000000000002</ele><time>2026-03-22T09:52:15.512Z</time></trkpt><trkpt lat="42.2483957" lon="14.4083049"><ele>196.8</ele><time>2026-03-22T09:52:16.504Z</time></trkpt><trkpt lat="42.2485022" lon="14.4083551"><ele>196.4</ele><time>2026-03-22T09:52:18.505Z</time></trkpt><trkpt lat="42.2486353" lon="14.4083071"><ele>196.0</ele><time>2026-03-22T09:52:20.505Z</time></trkpt><trkpt lat="42.2487161" lon="14.4082454"><ele>196.0</ele><time>2026-03-22T09:52:21.512Z</time></trkpt><trkpt lat="42.2488073" lon="14.4082048"><ele>196.0</ele><time>2026-03-22T09:52:22.512Z</time></trkpt><trkpt lat="42.2489023" lon="14.4081765"><ele>196.0</ele><time>2026-03-22T09:52:23.512Z</time></trkpt><trkpt lat="42.2490285" lon="14.4081569"><ele>196.0</ele><time>2026-03-22T09:52:24.508Z</time></trkpt><trkpt lat="42.2491753" lon="14.4081505"><ele>195.33333333333331</ele><time>2026-03-22T09:52:25.514Z</time></trkpt><trkpt lat="42.2493414" lon="14.4081503"><ele>194.66666666666669</ele><time>2026-03-22T09:52:26.511Z</time></trkpt><trkpt lat="42.2495126" lon="14.4081441"><ele>194.0</ele><time>2026-03-22T09:52:27.516Z</time></trkpt><trkpt lat="42.2496539" lon="14.4081505"><ele>194.0</ele><time>2026-03-22T09:52:28.514Z</time></trkpt><trkpt lat="42.249759" lon="14.4081262"><ele>194.0</ele><time>2026-03-22T09:52:29.511Z</time></trkpt><trkpt lat="42.2498503" lon="14.408125"><ele>194.0</ele><time>2026-03-22T09:52:30.513Z</time></trkpt><trkpt lat="42.2499186" lon="14.4081513"><ele>194.0</ele><time>2026-03-22T09:52:32.516Z</time></trkpt><trkpt lat="42.2499423" lon="14.408281"><ele>194.0</ele><time>2026-03-22T09:52:36.51Z</time></trkpt><trkpt lat="42.2500089" lon="14.4083793"><ele>194.33333333333334</ele><time>2026-03-22T09:52:38.518Z</time></trkpt><trkpt lat="42.2500742" lon="14.4084029"><ele>194.66666666666669</ele><time>2026-03-22T09:54:07.528Z</time></trkpt><trkpt lat="42.2501369" lon="14.4083675"><ele>195.0</ele><time>2026-03-22T09:54:08.526Z</time></trkpt><trkpt lat="42.2502127" lon="14.408341"><ele>195.33333333333331</ele><time>2026-03-22T09:54:09.524Z</time></trkpt><trkpt lat="42.2503155" lon="14.4083144"><ele>195.66666666666666</ele><time>2026-03-22T09:54:10.526Z</time></trkpt><trkpt lat="42.250414" lon="14.4083029"><ele>196.0</ele><time>2026-03-22T09:54:11.516Z</time></trkpt><trkpt lat="42.2505275" lon="14.4082991"><ele>196.0</ele><time>2026-03-22T09:54:12.524Z</time></trkpt><trkpt lat="42.2506108" lon="14.408306"><ele>196.0</ele><time>2026-03-22T09:54:13.522Z</time></trkpt><trkpt lat="42.2506805" lon="14.4083027"><ele>196.0</ele><time>2026-03-22T09:54:14.528Z</time></trkpt><trkpt lat="42.2507913" lon="14.4082906"><ele>196.0</ele><time>2026-03-22T09:54:16.53Z</time></trkpt><trkpt lat="42.2509036" lon="14.4083281"><ele>196.0</ele><time>2026-03-22T09:54:18.533Z</time></trkpt><trkpt lat="42.2509574" lon="14.4084179"><ele>195.99999999999997</ele><time>2026-03-22T09:54:20.528Z</time></trkpt><trkpt lat="42.2509216" lon="14.4085107"><ele>196.0</ele><time>2026-03-22T09:54:22.542Z</time></trkpt><trkpt lat="42.2508772" lon="14.4086237"><ele>196.0</ele><time>2026-03-22T09:54:24.532Z</time></trkpt><trkpt lat="42.2508047" lon="14.4086265"><ele>196.0</ele><time>2026-03-22T09:54:26.522Z</time></trkpt><trkpt lat="42.250721" lon="14.4086672"><ele>195.99999999999997</ele><time>2026-03-22T09:54:28.526Z</time></trkpt><trkpt lat="42.2506232" lon="14.4087465"><ele>196.0</ele><time>2026-03-22T09:54:30.526Z</time></trkpt><trkpt lat="42.2505469" lon="14.4087449"><ele>195.83333333333331</ele><time>2026-03-22T09:54:32.529Z</time></trkpt><trkpt lat="42.2505746" lon="14.4088373"><ele>195.66666666666666</ele><time>2026-03-22T09:54:38.527Z</time></trkpt><trkpt lat="42.2506428" lon="14.4088431"><ele>195.5</ele><time>2026-03-22T09:54:40.525Z</time></trkpt><trkpt lat="42.2507056" lon="14.4088276"><ele>195.33333333333331</ele><time>2026-03-22T09:54:41.517Z</time></trkpt><trkpt lat="42.250791" lon="14.4088468"><ele>195.16666666666666</ele><time>2026-03-22T09:54:42.52Z</time></trkpt><trkpt lat="42.2508744" lon="14.4088408"><ele>195.0</ele><time>2026-03-22T09:54:43.531Z</time></trkpt><trkpt lat="42.2509502" lon="14.4088018"><ele>195.0</ele><time>2026-03-22T09:54:44.53Z</time></trkpt><trkpt lat="42.251018" lon="14.4087943"><ele>195.0</ele><time>2026-03-22T09:54:45.538Z</time></trkpt><trkpt lat="42.2510867" lon="14.4087606"><ele>195.0</ele><time>2026-03-22T09:55:35.521Z</time></trkpt><trkpt lat="42.2511304" lon="14.408648"><ele>195.0</ele><time>2026-03-22T09:55:36.534Z</time></trkpt><trkpt lat="42.2511585" lon="14.4085559"><ele>195.0</ele><time>2026-03-22T09:55:37.523Z</time></trkpt><trkpt lat="42.2512074" lon="14.4084914"><ele>195.0</ele><time>2026-03-22T09:55:39.536Z</time></trkpt><trkpt lat="42.2512593" lon="14.4085564"><ele>195.0</ele><time>2026-03-22T09:55:42.531Z</time></trkpt><trkpt lat="42.2513094" lon="14.408608"><ele>195.0</ele><time>2026-03-22T09:55:43.534Z</time></trkpt><trkpt lat="42.2514016" lon="14.4085539"><ele>195.0</ele><time>2026-03-22T09:56:33.532Z</time></trkpt><trkpt lat="42.25148" lon="14.4085612"><ele>195.0</ele><time>2026-03-22T09:56:36.532Z</time></trkpt><trkpt lat="42.251561" lon="14.4085785"><ele>195.0</ele><time>2026-03-22T09:56:38.529Z</time></trkpt><trkpt lat="42.2516365" lon="14.4085595"><ele>195.0</ele><time>2026-03-22T09:56:41.526Z</time></trkpt><trkpt lat="42.2517859" lon="14.4085282"><ele>195.0</ele><time>2026-03-22T09:56:43.539Z</time></trkpt><trkpt lat="42.2518781" lon="14.4084983"><ele>195.0</ele><time>2026-03-22T09:56:44.538Z</time></trkpt><trkpt lat="42.2519735" lon="14.4084573"><ele>195.0</ele><time>2026-03-22T09:56:45.548Z</time></trkpt><trkpt lat="42.2520678" lon="14.4084546"><ele>195.0</ele><time>2026-03-22T09:56:46.538Z</time></trkpt><trkpt lat="42.2521492" lon="14.4084509"><ele>195.0</ele><time>2026-03-22T09:56:47.551Z</time></trkpt><trkpt lat="42.2522176" lon="14.4084527"><ele>195.0</ele><time>2026-03-22T09:56:48.541Z</time></trkpt><trkpt lat="42.2522843" lon="14.408466"><ele>194.33333333333334</ele><time>2026-03-22T09:56:49.54Z</time></trkpt><trkpt lat="42.2523466" lon="14.4084887"><ele>193.66666666666666</ele><time>2026-03-22T09:56:50.541Z</time></trkpt><trkpt lat="42.2524158" lon="14.4085467"><ele>193.0</ele><time>2026-03-22T09:56:51.55Z</time></trkpt><trkpt lat="42.2524991" lon="14.4086015"><ele>192.33333333333331</ele><time>2026-03-22T09:56:52.538Z</time></trkpt><trkpt lat="42.2525842" lon="14.4086625"><ele>191.66666666666666</ele><time>2026-03-22T09:56:53.535Z</time></trkpt><trkpt lat="42.2526564" lon="14.4087546"><ele>191.0</ele><time>2026-03-22T09:56:54.543Z</time></trkpt><trkpt lat="42.2527442" lon="14.4088498"><ele>191.0</ele><time>2026-03-22T09:56:55.541Z</time></trkpt><trkpt lat="42.2528422" lon="14.4089441"><ele>191.0</ele><time>2026-03-22T09:56:56.545Z</time></trkpt><trkpt lat="42.2529295" lon="14.4090423"><ele>191.0</ele><time>2026-03-22T09:56:57.538Z</time></trkpt><trkpt lat="42.252996" lon="14.4091488"><ele>191.0</ele><time>2026-03-22T09:56:58.533Z</time></trkpt><trkpt lat="42.2530751" lon="14.4092514"><ele>191.0</ele><time>2026-03-22T09:56:59.538Z</time></trkpt><trkpt lat="42.2531409" lon="14.4092977"><ele>191.0</ele><time>2026-03-22T09:57:00.54Z</time></trkpt><trkpt lat="42.2532715" lon="14.4092868"><ele>191.0</ele><time>2026-03-22T09:57:03.528Z</time></trkpt><trkpt lat="42.253325" lon="14.4092337"><ele>191.0</ele><time>2026-03-22T09:57:05.531Z</time></trkpt><trkpt lat="42.2533939" lon="14.4092691"><ele>191.0</ele><time>2026-03-22T09:57:11.533Z</time></trkpt><trkpt lat="42.2534692" lon="14.4092654"><ele>191.0</ele><time>2026-03-22T09:57:13.55Z</time></trkpt><trkpt lat="42.2535435" lon="14.4092843"><ele>191.0</ele><time>2026-03-22T09:57:43.567Z</time></trkpt><trkpt lat="42.2536103" lon="14.4093393"><ele>191.0</ele><time>2026-03-22T09:57:45.559Z</time></trkpt><trkpt lat="42.253707" lon="14.4094402"><ele>191.0</ele><time>2026-03-22T09:57:47.543Z</time></trkpt><trkpt lat="42.2537586" lon="14.4095026"><ele>191.0</ele><time>2026-03-22T09:57:48.555Z</time></trkpt><trkpt lat="42.2538089" lon="14.4096408"><ele>191.0</ele><time>2026-03-22T09:57:50.555Z</time></trkpt><trkpt lat="42.2538625" lon="14.4097803"><ele>191.0</ele><time>2026-03-22T09:57:52.555Z</time></trkpt><trkpt lat="42.2538998" lon="14.4098582"><ele>190.66666666666666</ele><time>2026-03-22T09:57:53.562Z</time></trkpt><trkpt lat="42.2539439" lon="14.409925"><ele>190.33333333333331</ele><time>2026-03-22T09:57:54.555Z</time></trkpt><trkpt lat="42.2539942" lon="14.4099966"><ele>190.0</ele><time>2026-03-22T09:57:55.55Z</time></trkpt><trkpt lat="42.2540327" lon="14.4100659"><ele>189.66666666666666</ele><time>2026-03-22T09:57:56.55Z</time></trkpt><trkpt lat="42.2541083" lon="14.4101479"><ele>189.33333333333334</ele><time>2026-03-22T09:57:58.567Z</time></trkpt><trkpt lat="42.2541568" lon="14.4102421"><ele>189.0</ele><time>2026-03-22T09:58:00.557Z</time></trkpt><trkpt lat="42.2541295" lon="14.4103695"><ele>189.0</ele><time>2026-03-22T09:58:02.549Z</time></trkpt><trkpt lat="42.2541602" lon="14.4104739"><ele>189.0</ele><time>2026-03-22T09:58:04.552Z</time></trkpt><trkpt lat="42.2541783" lon="14.4105763"><ele>189.0</ele><time>2026-03-22T09:58:17.55Z</time></trkpt><trkpt lat="42.2542606" lon="14.4106701"><ele>189.0</ele><time>2026-03-22T09:58:19.551Z</time></trkpt><trkpt lat="42.2543412" lon="14.4107616"><ele>189.0</ele><time>2026-03-22T09:58:20.543Z</time></trkpt><trkpt lat="42.2544261" lon="14.4108697"><ele>189.6</ele><time>2026-03-22T09:58:21.543Z</time></trkpt><trkpt lat="42.2545023" lon="14.4109495"><ele>190.2</ele><time>2026-03-22T09:58:22.538Z</time></trkpt><trkpt lat="42.2545814" lon="14.4110009"><ele>190.79999999999998</ele><time>2026-03-22T09:58:23.533Z</time></trkpt><trkpt lat="42.2546859" lon="14.4110753"><ele>191.39999999999998</ele><time>2026-03-22T09:58:24.535Z</time></trkpt><trkpt lat="42.2548171" lon="14.4111646"><ele>192.0</ele><time>2026-03-22T09:58:25.54Z</time></trkpt><trkpt lat="42.2549493" lon="14.4112194"><ele>192.0</ele><time>2026-03-22T09:58:26.536Z</time></trkpt><trkpt lat="42.2550697" lon="14.4112407"><ele>192.0</ele><time>2026-03-22T09:58:27.535Z</time></trkpt><trkpt lat="42.2551942" lon="14.4112463"><ele>192.0</ele><time>2026-03-22T09:58:28.536Z</time></trkpt><trkpt lat="42.2553236" lon="14.4112553"><ele>192.0</ele><time>2026-03-22T09:58:29.534Z</time></trkpt><trkpt lat="42.2554449" lon="14.4112331"><ele>192.0</ele><time>2026-03-22T09:58:30.54Z</time></trkpt><trkpt lat="42.2555452" lon="14.4112009"><ele>192.0</ele><time>2026-03-22T09:58:31.543Z</time></trkpt><trkpt lat="42.2556352" lon="14.4111637"><ele>192.0</ele><time>2026-03-22T09:58:32.539Z</time></trkpt><trkpt lat="42.2557355" lon="14.4111249"><ele>192.0</ele><time>2026-03-22T09:58:33.54Z</time></trkpt><trkpt lat="42.2558191" lon="14.4111273"><ele>192.0</ele><time>2026-03-22T09:58:34.545Z</time></trkpt><trkpt lat="42.2559125" lon="14.4111413"><ele>190.2</ele><time>2026-03-22T09:58:35.54Z</time></trkpt><trkpt lat="42.2560051" lon="14.4111902"><ele>188.39999999999998</ele><time>2026-03-22T09:58:36.55Z</time></trkpt><trkpt lat="42.2561095" lon="14.4112512"><ele>186.60000000000002</ele><time>2026-03-22T09:58:37.543Z</time></trkpt><trkpt lat="42.2562048" lon="14.4113388"><ele>184.8</ele><time>2026-03-22T09:58:38.526Z</time></trkpt><trkpt lat="42.2562896" lon="14.4114175"><ele>183.0</ele><time>2026-03-22T09:58:39.549Z</time></trkpt><trkpt lat="42.2563766" lon="14.4115171"><ele>181.2</ele><time>2026-03-22T09:58:40.558Z</time></trkpt><trkpt lat="42.2564557" lon="14.411612"><ele>179.4</ele><time>2026-03-22T09:58:41.564Z</time></trkpt><trkpt lat="42.2565537" lon="14.4117079"><ele>177.6</ele><time>2026-03-22T09:58:42.55Z</time></trkpt><trkpt lat="42.2566211" lon="14.4117816"><ele>175.79999999999998</ele><time>2026-03-22T09:58:43.552Z</time></trkpt><trkpt lat="42.2566891" lon="14.4118476"><ele>174.0</ele><time>2026-03-22T09:58:49.555Z</time></trkpt><trkpt lat="42.256724" lon="14.4119444"><ele>174.0</ele><time>2026-03-22T09:58:53.564Z</time></trkpt><trkpt lat="42.2567031" lon="14.4120492"><ele>174.0</ele><time>2026-03-22T09:58:55.56Z</time></trkpt><trkpt lat="42.2566658" lon="14.4121236"><ele>174.0</ele><time>2026-03-22T09:58:56.554Z</time></trkpt><trkpt lat="42.2566144" lon="14.4122258"><ele>174.0</ele><time>2026-03-22T09:58:57.549Z</time></trkpt><trkpt lat="42.2565374" lon="14.4123094"><ele>174.0</ele><time>2026-03-22T09:58:58.551Z</time></trkpt><trkpt lat="42.2564729" lon="14.4123826"><ele>174.0</ele><time>2026-03-22T09:58:59.553Z</time></trkpt><trkpt lat="42.2565513" lon="14.4123315"><ele>174.0</ele><time>2026-03-22T09:59:04.536Z</time></trkpt><trkpt lat="42.2566849" lon="14.4122434"><ele>174.0</ele><time>2026-03-22T09:59:06.541Z</time></trkpt><trkpt lat="42.2567599" lon="14.4122116"><ele>174.0</ele><time>2026-03-22T09:59:07.544Z</time></trkpt><trkpt lat="42.2568741" lon="14.4121295"><ele>174.0</ele><time>2026-03-22T09:59:09.541Z</time></trkpt><trkpt lat="42.2569342" lon="14.4120372"><ele>174.0</ele><time>2026-03-22T09:59:10.539Z</time></trkpt><trkpt lat="42.2569743" lon="14.411936"><ele>174.0</ele><time>2026-03-22T09:59:11.545Z</time></trkpt><trkpt lat="42.2569869" lon="14.4118484"><ele>174.0</ele><time>2026-03-22T09:59:12.549Z</time></trkpt><trkpt lat="42.2569725" lon="14.4117566"><ele>174.0</ele><time>2026-03-22T09:59:13.543Z</time></trkpt><trkpt lat="42.2569416" lon="14.4116669"><ele>174.0</ele><time>2026-03-22T09:59:14.546Z</time></trkpt><trkpt lat="42.2568928" lon="14.4115445"><ele>174.0</ele><time>2026-03-22T09:59:16.543Z</time></trkpt><trkpt lat="42.2568534" lon="14.411447"><ele>174.0</ele><time>2026-03-22T09:59:26.555Z</time></trkpt><trkpt lat="42.2567276" lon="14.4113749"><ele>176.25</ele><time>2026-03-22T09:59:28.555Z</time></trkpt><trkpt lat="42.256623" lon="14.411293"><ele>178.5</ele><time>2026-03-22T09:59:29.553Z</time></trkpt><trkpt lat="42.2565032" lon="14.4111859"><ele>180.75</ele><time>2026-03-22T09:59:30.554Z</time></trkpt><trkpt lat="42.2563835" lon="14.4110548"><ele>183.0</ele><time>2026-03-22T09:59:31.557Z</time></trkpt><trkpt lat="42.2562498" lon="14.4109195"><ele>183.0</ele><time>2026-03-22T09:59:32.556Z</time></trkpt><trkpt lat="42.2561422" lon="14.4108189"><ele>183.0</ele><time>2026-03-22T09:59:33.547Z</time></trkpt><trkpt lat="42.2560391" lon="14.4107464"><ele>183.0</ele><time>2026-03-22T09:59:34.542Z</time></trkpt><trkpt lat="42.2559719" lon="14.4107002"><ele>183.0</ele><time>2026-03-22T09:59:35.553Z</time></trkpt><trkpt lat="42.2559053" lon="14.4106773"><ele>183.0</ele><time>2026-03-22T09:59:36.547Z</time></trkpt><trkpt lat="42.2558239" lon="14.4106721"><ele>183.0</ele><time>2026-03-22T09:59:38.549Z</time></trkpt><trkpt lat="42.2557735" lon="14.4107349"><ele>183.0</ele><time>2026-03-22T09:59:43.559Z</time></trkpt><trkpt lat="42.2556828" lon="14.4108291"><ele>183.0</ele><time>2026-03-22T09:59:45.549Z</time></trkpt><trkpt lat="42.255621" lon="14.4108798"><ele>183.0</ele><time>2026-03-22T09:59:58.547Z</time></trkpt><trkpt lat="42.2555328" lon="14.4108669"><ele>183.0</ele><time>2026-03-22T10:00:02.55Z</time></trkpt><trkpt lat="42.2554682" lon="14.4108243"><ele>183.0</ele><time>2026-03-22T10:00:04.536Z</time></trkpt><trkpt lat="42.2553551" lon="14.410679"><ele>184.5</ele><time>2026-03-22T10:00:06.541Z</time></trkpt><trkpt lat="42.2552755" lon="14.4106381"><ele>186.0</ele><time>2026-03-22T10:00:07.54Z</time></trkpt><trkpt lat="42.2551836" lon="14.4106392"><ele>187.5</ele><time>2026-03-22T10:00:08.533Z</time></trkpt><trkpt lat="42.2551043" lon="14.4106709"><ele>189.0</ele><time>2026-03-22T10:00:09.536Z</time></trkpt><trkpt lat="42.2550228" lon="14.41072"><ele>190.5</ele><time>2026-03-22T10:00:10.541Z</time></trkpt><trkpt lat="42.2549461" lon="14.4107225"><ele>192.0</ele><time>2026-03-22T10:00:11.54Z</time></trkpt><trkpt lat="42.2549122" lon="14.4106437"><ele>192.0</ele><time>2026-03-22T10:00:13.551Z</time></trkpt><trkpt lat="42.2548852" lon="14.4105271"><ele>192.0</ele><time>2026-03-22T10:00:15.558Z</time></trkpt><trkpt lat="42.2548892" lon="14.4104374"><ele>192.0</ele><time>2026-03-22T10:00:20.557Z</time></trkpt><trkpt lat="42.2548966" lon="14.4103038"><ele>192.0</ele><time>2026-03-22T10:00:22.538Z</time></trkpt><trkpt lat="42.2549047" lon="14.4101919"><ele>192.0</ele><time>2026-03-22T10:00:23.543Z</time></trkpt><trkpt lat="42.2548957" lon="14.4100625"><ele>192.0</ele><time>2026-03-22T10:00:24.567Z</time></trkpt><trkpt lat="42.2548576" lon="14.4099529"><ele>191.25</ele><time>2026-03-22T10:00:25.543Z</time></trkpt><trkpt lat="42.2547789" lon="14.4098549"><ele>190.5</ele><time>2026-03-22T10:00:26.542Z</time></trkpt><trkpt lat="42.2546817" lon="14.4097094"><ele>189.75</ele><time>2026-03-22T10:00:27.561Z</time></trkpt><trkpt lat="42.2545951" lon="14.4095829"><ele>189.0</ele><time>2026-03-22T10:00:28.557Z</time></trkpt><trkpt lat="42.2545222" lon="14.4094725"><ele>187.0</ele><time>2026-03-22T10:00:29.554Z</time></trkpt><trkpt lat="42.2544595" lon="14.4094043"><ele>185.0</ele><time>2026-03-22T10:00:30.547Z</time></trkpt><trkpt lat="42.2544025" lon="14.4093448"><ele>183.0</ele><time>2026-03-22T10:00:34.565Z</time></trkpt><trkpt lat="42.2543244" lon="14.4093613"><ele>181.0</ele><time>2026-03-22T10:00:38.551Z</time></trkpt><trkpt lat="42.2542521" lon="14.4093678"><ele>179.0</ele><time>2026-03-22T10:00:40.532Z</time></trkpt><trkpt lat="42.2541964" lon="14.4093227"><ele>177.0</ele><time>2026-03-22T10:00:41.54Z</time></trkpt><trkpt lat="42.2541048" lon="14.4092476"><ele>177.0</ele><time>2026-03-22T10:00:43.539Z</time></trkpt><trkpt lat="42.2539925" lon="14.409202"><ele>177.0</ele><time>2026-03-22T10:00:45.539Z</time></trkpt><trkpt lat="42.2539158" lon="14.4091805"><ele>177.0</ele><time>2026-03-22T10:00:46.533Z</time></trkpt><trkpt lat="42.2538264" lon="14.4091662"><ele>177.0</ele><time>2026-03-22T10:00:48.546Z</time></trkpt><trkpt lat="42.2537449" lon="14.4091474"><ele>177.0</ele><time>2026-03-22T10:00:50.554Z</time></trkpt><trkpt lat="42.2536806" lon="14.4090994"><ele>177.0</ele><time>2026-03-22T10:00:53.544Z</time></trkpt><trkpt lat="42.2535834" lon="14.4089814"><ele>176.66666666666666</ele><time>2026-03-22T10:00:57.544Z</time></trkpt><trkpt lat="42.2535276" lon="14.4089326"><ele>176.33333333333334</ele><time>2026-03-22T10:00:58.551Z</time></trkpt><trkpt lat="42.2534392" lon="14.4089272"><ele>176.0</ele><time>2026-03-22T10:01:00.547Z</time></trkpt><trkpt lat="42.2533616" lon="14.4089187"><ele>175.66666666666669</ele><time>2026-03-22T10:01:02.543Z</time></trkpt><trkpt lat="42.2533035" lon="14.4088827"><ele>175.33333333333334</ele><time>2026-03-22T10:01:05.532Z</time></trkpt><trkpt lat="42.2531966" lon="14.408759"><ele>175.0</ele><time>2026-03-22T10:01:08.537Z</time></trkpt><trkpt lat="42.2530888" lon="14.4086584"><ele>178.2</ele><time>2026-03-22T10:01:10.537Z</time></trkpt><trkpt lat="42.2530156" lon="14.4085841"><ele>181.4</ele><time>2026-03-22T10:01:11.54Z</time></trkpt><trkpt lat="42.2529225" lon="14.4085216"><ele>184.60000000000002</ele><time>2026-03-22T10:01:13.554Z</time></trkpt><trkpt lat="42.2528379" lon="14.4085513"><ele>187.8</ele><time>2026-03-22T10:01:15.557Z</time></trkpt><trkpt lat="42.2527477" lon="14.4085138"><ele>191.0</ele><time>2026-03-22T10:01:17.543Z</time></trkpt><trkpt lat="42.2526715" lon="14.4084627"><ele>191.0</ele><time>2026-03-22T10:01:19.549Z</time></trkpt><trkpt lat="42.2526074" lon="14.4084459"><ele>191.0</ele><time>2026-03-22T10:01:21.545Z</time></trkpt><trkpt lat="42.2525045" lon="14.4084337"><ele>191.0</ele><time>2026-03-22T10:01:23.55Z</time></trkpt><trkpt lat="42.2523932" lon="14.4083858"><ele>191.0</ele><time>2026-03-22T10:01:25.545Z</time></trkpt><trkpt lat="42.2523151" lon="14.4083655"><ele>191.0</ele><time>2026-03-22T10:01:27.554Z</time></trkpt><trkpt lat="42.2522206" lon="14.4083694"><ele>191.66666666666666</ele><time>2026-03-22T10:01:29.549Z</time></trkpt><trkpt lat="42.252156" lon="14.4083822"><ele>192.33333333333331</ele><time>2026-03-22T10:01:30.551Z</time></trkpt><trkpt lat="42.2520915" lon="14.408406"><ele>193.0</ele><time>2026-03-22T10:01:31.548Z</time></trkpt><trkpt lat="42.2520302" lon="14.4084272"><ele>193.66666666666666</ele><time>2026-03-22T10:01:32.55Z</time></trkpt><trkpt lat="42.2519293" lon="14.4084006"><ele>194.33333333333334</ele><time>2026-03-22T10:01:34.554Z</time></trkpt><trkpt lat="42.2518473" lon="14.4084094"><ele>195.0</ele><time>2026-03-22T10:01:36.549Z</time></trkpt><trkpt lat="42.2517551" lon="14.4084653"><ele>195.0</ele><time>2026-03-22T10:01:38.541Z</time></trkpt><trkpt lat="42.2516548" lon="14.4084695"><ele>195.0</ele><time>2026-03-22T10:01:40.543Z</time></trkpt><trkpt lat="42.2515806" lon="14.4085249"><ele>195.0</ele><time>2026-03-22T10:01:42.544Z</time></trkpt><trkpt lat="42.2514839" lon="14.4084297"><ele>195.0</ele><time>2026-03-22T10:01:49.538Z</time></trkpt><trkpt lat="42.2514401" lon="14.4083683"><ele>195.0</ele><time>2026-03-22T10:01:52.534Z</time></trkpt><trkpt lat="42.2515064" lon="14.4083216"><ele>195.0</ele><time>2026-03-22T10:01:57.544Z</time></trkpt><trkpt lat="42.2516205" lon="14.4082191"><ele>195.0</ele><time>2026-03-22T10:01:59.544Z</time></trkpt><trkpt lat="42.2516956" lon="14.4081822"><ele>195.0</ele><time>2026-03-22T10:02:00.548Z</time></trkpt><trkpt lat="42.2518264" lon="14.4081662"><ele>195.0</ele><time>2026-03-22T10:02:01.54Z</time></trkpt><trkpt lat="42.2519654" lon="14.4081583"><ele>195.0</ele><time>2026-03-22T10:02:02.538Z</time></trkpt><trkpt lat="42.2520919" lon="14.4081655"><ele>195.0</ele><time>2026-03-22T10:02:03.533Z</time></trkpt><trkpt lat="42.2522132" lon="14.4081744"><ele>195.0</ele><time>2026-03-22T10:02:04.538Z</time></trkpt><trkpt lat="42.2523371" lon="14.4082112"><ele>195.0</ele><time>2026-03-22T10:02:05.538Z</time></trkpt><trkpt lat="42.2524617" lon="14.4082662"><ele>195.0</ele><time>2026-03-22T10:02:06.535Z</time></trkpt><trkpt lat="42.2525897" lon="14.4083064"><ele>193.66666666666666</ele><time>2026-03-22T10:02:07.53Z</time></trkpt><trkpt lat="42.2527092" lon="14.4083239"><ele>192.33333333333331</ele><time>2026-03-22T10:02:08.535Z</time></trkpt><trkpt lat="42.2528596" lon="14.4083432"><ele>191.0</ele><time>2026-03-22T10:02:09.538Z</time></trkpt><trkpt lat="42.2530662" lon="14.4084026"><ele>185.66666666666666</ele><time>2026-03-22T10:02:10.544Z</time></trkpt><trkpt lat="42.2532611" lon="14.4085003"><ele>180.33333333333334</ele><time>2026-03-22T10:02:11.539Z</time></trkpt><trkpt lat="42.253394" lon="14.408577"><ele>175.0</ele><time>2026-03-22T10:02:12.547Z</time></trkpt><trkpt lat="42.2535063" lon="14.4086849"><ele>175.0</ele><time>2026-03-22T10:02:13.543Z</time></trkpt><trkpt lat="42.2536166" lon="14.4088195"><ele>175.0</ele><time>2026-03-22T10:02:14.541Z</time></trkpt><trkpt lat="42.2537021" lon="14.408887"><ele>175.0</ele><time>2026-03-22T10:02:15.553Z</time></trkpt><trkpt lat="42.2537898" lon="14.4089206"><ele>175.0</ele><time>2026-03-22T10:02:16.545Z</time></trkpt><trkpt lat="42.2538816" lon="14.4089896"><ele>175.0</ele><time>2026-03-22T10:02:17.547Z</time></trkpt><trkpt lat="42.2539794" lon="14.4090509"><ele>175.33333333333334</ele><time>2026-03-22T10:02:18.549Z</time></trkpt><trkpt lat="42.2540687" lon="14.4091205"><ele>175.66666666666669</ele><time>2026-03-22T10:02:19.541Z</time></trkpt><trkpt lat="42.2541523" lon="14.4091664"><ele>176.0</ele><time>2026-03-22T10:02:20.554Z</time></trkpt><trkpt lat="42.2542142" lon="14.4092037"><ele>176.33333333333334</ele><time>2026-03-22T10:02:21.553Z</time></trkpt><trkpt lat="42.2542892" lon="14.409225"><ele>176.66666666666666</ele><time>2026-03-22T10:02:23.554Z</time></trkpt><trkpt lat="42.2543511" lon="14.4092447"><ele>177.0</ele><time>2026-03-22T10:02:27.558Z</time></trkpt><trkpt lat="42.2544348" lon="14.4092116"><ele>177.0</ele><time>2026-03-22T10:02:29.554Z</time></trkpt><trkpt lat="42.2545132" lon="14.4091673"><ele>177.0</ele><time>2026-03-22T10:02:30.554Z</time></trkpt><trkpt lat="42.2545925" lon="14.4091259"><ele>177.0</ele><time>2026-03-22T10:02:31.558Z</time></trkpt><trkpt lat="42.2547005" lon="14.4091166"><ele>177.0</ele><time>2026-03-22T10:02:33.557Z</time></trkpt><trkpt lat="42.2547565" lon="14.4092419"><ele>177.0</ele><time>2026-03-22T10:02:36.556Z</time></trkpt><trkpt lat="42.2548098" lon="14.4093049"><ele>177.33333333333334</ele><time>2026-03-22T10:02:37.556Z</time></trkpt><trkpt lat="42.2548486" lon="14.4093867"><ele>177.66666666666666</ele><time>2026-03-22T10:02:38.563Z</time></trkpt><trkpt lat="42.2548866" lon="14.4094971"><ele>178.0</ele><time>2026-03-22T10:02:39.547Z</time></trkpt><trkpt lat="42.2549054" lon="14.4095963"><ele>178.33333333333331</ele><time>2026-03-22T10:02:40.554Z</time></trkpt><trkpt lat="42.2549374" lon="14.4097057"><ele>178.66666666666666</ele><time>2026-03-22T10:02:42.553Z</time></trkpt><trkpt lat="42.2549479" lon="14.4097989"><ele>179.0</ele><time>2026-03-22T10:02:43.565Z</time></trkpt><trkpt lat="42.2549662" lon="14.4098909"><ele>179.0</ele><time>2026-03-22T10:02:44.558Z</time></trkpt><trkpt lat="42.2549889" lon="14.409982"><ele>179.0</ele><time>2026-03-22T10:02:45.569Z</time></trkpt><trkpt lat="42.2550432" lon="14.4100266"><ele>179.0</ele><time>2026-03-22T10:02:46.569Z</time></trkpt><trkpt lat="42.255122" lon="14.4100598"><ele>179.0</ele><time>2026-03-22T10:02:47.561Z</time></trkpt><trkpt lat="42.2552095" lon="14.410127"><ele>179.0</ele><time>2026-03-22T10:02:48.561Z</time></trkpt><trkpt lat="42.2553213" lon="14.4102286"><ele>179.0</ele><time>2026-03-22T10:02:49.56Z</time></trkpt><trkpt lat="42.2553995" lon="14.410333"><ele>179.0</ele><time>2026-03-22T10:02:50.555Z</time></trkpt><trkpt lat="42.2554774" lon="14.4104072"><ele>179.0</ele><time>2026-03-22T10:02:51.561Z</time></trkpt><trkpt lat="42.2555448" lon="14.4104293"><ele>179.0</ele><time>2026-03-22T10:02:52.555Z</time></trkpt><trkpt lat="42.255664" lon="14.4104381"><ele>179.0</ele><time>2026-03-22T10:02:54.554Z</time></trkpt><trkpt lat="42.2557234" lon="14.4103865"><ele>177.39999999999998</ele><time>2026-03-22T10:03:00.556Z</time></trkpt><trkpt lat="42.2558067" lon="14.4103295"><ele>175.8</ele><time>2026-03-22T10:03:02.553Z</time></trkpt><trkpt lat="42.2558865" lon="14.4103072"><ele>174.2</ele><time>2026-03-22T10:03:05.559Z</time></trkpt><trkpt lat="42.2559304" lon="14.410243"><ele>172.60000000000002</ele><time>2026-03-22T10:03:08.538Z</time></trkpt><trkpt lat="42.2560896" lon="14.4102366"><ele>171.0</ele><time>2026-03-22T10:03:12.555Z</time></trkpt><trkpt lat="42.2561726" lon="14.4101812"><ele>171.0</ele><time>2026-03-22T10:03:14.559Z</time></trkpt><trkpt lat="42.2562611" lon="14.4101603"><ele>171.0</ele><time>2026-03-22T10:03:18.571Z</time></trkpt><trkpt lat="42.2563256" lon="14.4102219"><ele>171.0</ele><time>2026-03-22T10:03:19.566Z</time></trkpt><trkpt lat="42.2564124" lon="14.4103118"><ele>171.0</ele><time>2026-03-22T10:03:20.563Z</time></trkpt><trkpt lat="42.2565417" lon="14.4104358"><ele>171.0</ele><time>2026-03-22T10:03:21.556Z</time></trkpt><trkpt lat="42.2566816" lon="14.4105709"><ele>168.75</ele><time>2026-03-22T10:03:22.556Z</time></trkpt><trkpt lat="42.2568257" lon="14.4106879"><ele>166.5</ele><time>2026-03-22T10:03:23.56Z</time></trkpt><trkpt lat="42.2569516" lon="14.4107582"><ele>164.25</ele><time>2026-03-22T10:03:24.565Z</time></trkpt><trkpt lat="42.2570818" lon="14.4107969"><ele>162.0</ele><time>2026-03-22T10:03:25.567Z</time></trkpt><trkpt lat="42.2572065" lon="14.4108468"><ele>158.75</ele><time>2026-03-22T10:03:26.564Z</time></trkpt><trkpt lat="42.2573253" lon="14.4109052"><ele>155.5</ele><time>2026-03-22T10:03:27.565Z</time></trkpt><trkpt lat="42.2574418" lon="14.4109819"><ele>152.25</ele><time>2026-03-22T10:03:28.561Z</time></trkpt><trkpt lat="42.2575276" lon="14.4110718"><ele>149.0</ele><time>2026-03-22T10:03:29.558Z</time></trkpt><trkpt lat="42.2575955" lon="14.411158"><ele>149.0</ele><time>2026-03-22T10:03:30.565Z</time></trkpt><trkpt lat="42.2576109" lon="14.4112414"><ele>149.0</ele><time>2026-03-22T10:03:31.57Z</time></trkpt><trkpt lat="42.2575917" lon="14.4113414"><ele>149.0</ele><time>2026-03-22T10:03:32.558Z</time></trkpt><trkpt lat="42.2575489" lon="14.411452"><ele>149.0</ele><time>2026-03-22T10:03:33.566Z</time></trkpt><trkpt lat="42.2574797" lon="14.4115661"><ele>149.0</ele><time>2026-03-22T10:03:34.559Z</time></trkpt><trkpt lat="42.2574051" lon="14.4116734"><ele>149.33333333333331</ele><time>2026-03-22T10:03:35.564Z</time></trkpt><trkpt lat="42.2573368" lon="14.4117699"><ele>149.66666666666666</ele><time>2026-03-22T10:03:36.563Z</time></trkpt><trkpt lat="42.2572905" lon="14.4118442"><ele>150.0</ele><time>2026-03-22T10:03:37.571Z</time></trkpt><trkpt lat="42.2572806" lon="14.4119452"><ele>150.33333333333334</ele><time>2026-03-22T10:03:39.564Z</time></trkpt><trkpt lat="42.2573412" lon="14.4120285"><ele>150.66666666666669</ele><time>2026-03-22T10:03:41.55Z</time></trkpt><trkpt lat="42.2574368" lon="14.4120865"><ele>151.0</ele><time>2026-03-22T10:03:43.566Z</time></trkpt><trkpt lat="42.2575257" lon="14.4121675"><ele>154.0</ele><time>2026-03-22T10:03:45.557Z</time></trkpt><trkpt lat="42.2576114" lon="14.4122565"><ele>157.0</ele><time>2026-03-22T10:03:47.561Z</time></trkpt><trkpt lat="42.2576577" lon="14.4123511"><ele>160.0</ele><time>2026-03-22T10:03:49.56Z</time></trkpt><trkpt lat="42.2576342" lon="14.4125122"><ele>163.0</ele><time>2026-03-22T10:03:51.564Z</time></trkpt><trkpt lat="42.2576253" lon="14.4126082"><ele>166.0</ele><time>2026-03-22T10:03:52.559Z</time></trkpt><trkpt lat="42.2576207" lon="14.4127148"><ele>166.0</ele><time>2026-03-22T10:03:53.562Z</time></trkpt><trkpt lat="42.2576374" lon="14.4128171"><ele>166.0</ele><time>2026-03-22T10:03:54.553Z</time></trkpt><trkpt lat="42.2576628" lon="14.4129294"><ele>166.0</ele><time>2026-03-22T10:03:55.552Z</time></trkpt><trkpt lat="42.2576949" lon="14.4130301"><ele>166.0</ele><time>2026-03-22T10:03:56.545Z</time></trkpt><trkpt lat="42.2577327" lon="14.4131353"><ele>166.0</ele><time>2026-03-22T10:03:57.544Z</time></trkpt><trkpt lat="42.2577606" lon="14.4132388"><ele>166.0</ele><time>2026-03-22T10:03:58.546Z</time></trkpt><trkpt lat="42.2577844" lon="14.4133351"><ele>170.0</ele><time>2026-03-22T10:03:59.549Z</time></trkpt><trkpt lat="42.2578362" lon="14.4134737"><ele>174.0</ele><time>2026-03-22T10:04:01.557Z</time></trkpt><trkpt lat="42.2578892" lon="14.4135731"><ele>178.0</ele><time>2026-03-22T10:04:03.558Z</time></trkpt><trkpt lat="42.2579873" lon="14.4136739"><ele>182.0</ele><time>2026-03-22T10:04:05.555Z</time></trkpt><trkpt lat="42.2580318" lon="14.4137355"><ele>186.0</ele><time>2026-03-22T10:04:06.557Z</time></trkpt><trkpt lat="42.2580845" lon="14.4138106"><ele>182.4</ele><time>2026-03-22T10:04:07.548Z</time></trkpt><trkpt lat="42.2581479" lon="14.4139049"><ele>178.8</ele><time>2026-03-22T10:04:08.547Z</time></trkpt><trkpt lat="42.2582309" lon="14.4140126"><ele>175.20000000000002</ele><time>2026-03-22T10:04:09.549Z</time></trkpt><trkpt lat="42.2583132" lon="14.414117"><ele>171.60000000000002</ele><time>2026-03-22T10:04:10.548Z</time></trkpt><trkpt lat="42.2583938" lon="14.4142147"><ele>168.0</ele><time>2026-03-22T10:04:11.552Z</time></trkpt><trkpt lat="42.2584577" lon="14.4142954"><ele>168.0</ele><time>2026-03-22T10:04:12.547Z</time></trkpt><trkpt lat="42.258518" lon="14.4143724"><ele>168.0</ele><time>2026-03-22T10:04:13.554Z</time></trkpt><trkpt lat="42.25856" lon="14.4144487"><ele>168.0</ele><time>2026-03-22T10:04:14.561Z</time></trkpt><trkpt lat="42.2586638" lon="14.4144985"><ele>168.0</ele><time>2026-03-22T10:04:19.548Z</time></trkpt><trkpt lat="42.2587712" lon="14.4145216"><ele>168.0</ele><time>2026-03-22T10:04:21.542Z</time></trkpt><trkpt lat="42.2588598" lon="14.4145055"><ele>168.0</ele><time>2026-03-22T10:04:22.544Z</time></trkpt><trkpt lat="42.2589378" lon="14.4145155"><ele>168.0</ele><time>2026-03-22T10:04:23.537Z</time></trkpt><trkpt lat="42.2590053" lon="14.4145197"><ele>168.0</ele><time>2026-03-22T10:04:24.553Z</time></trkpt><trkpt lat="42.2590739" lon="14.4145423"><ele>168.0</ele><time>2026-03-22T10:04:25.549Z</time></trkpt><trkpt lat="42.2591272" lon="14.4146015"><ele>168.0</ele><time>2026-03-22T10:04:27.547Z</time></trkpt><trkpt lat="42.2591386" lon="14.4147411"><ele>168.0</ele><time>2026-03-22T10:04:29.546Z</time></trkpt><trkpt lat="42.2591803" lon="14.4148166"><ele>167.33333333333334</ele><time>2026-03-22T10:04:31.555Z</time></trkpt><trkpt lat="42.2592167" lon="14.4149048"><ele>166.66666666666666</ele><time>2026-03-22T10:04:33.558Z</time></trkpt><trkpt lat="42.2592575" lon="14.4149768"><ele>166.0</ele><time>2026-03-22T10:04:35.548Z</time></trkpt><trkpt lat="42.2593285" lon="14.4150491"><ele>165.33333333333331</ele><time>2026-03-22T10:04:37.544Z</time></trkpt><trkpt lat="42.2593905" lon="14.4150972"><ele>164.66666666666666</ele><time>2026-03-22T10:04:38.55Z</time></trkpt><trkpt lat="42.2595124" lon="14.4151827"><ele>164.0</ele><time>2026-03-22T10:04:39.548Z</time></trkpt><trkpt lat="42.2596359" lon="14.4152635"><ele>164.0</ele><time>2026-03-22T10:04:40.539Z</time></trkpt><trkpt lat="42.2597668" lon="14.4153008"><ele>164.0</ele><time>2026-03-22T10:04:41.539Z</time></trkpt><trkpt lat="42.2598893" lon="14.4153235"><ele>164.0</ele><time>2026-03-22T10:04:42.539Z</time></trkpt><trkpt lat="42.2600101" lon="14.4153407"><ele>164.0</ele><time>2026-03-22T10:04:43.537Z</time></trkpt><trkpt lat="42.2601177" lon="14.4153367"><ele>161.79999999999998</ele><time>2026-03-22T10:04:44.539Z</time></trkpt><trkpt lat="42.2602269" lon="14.4153066"><ele>159.6</ele><time>2026-03-22T10:04:45.537Z</time></trkpt><trkpt lat="42.2603319" lon="14.4152717"><ele>157.4</ele><time>2026-03-22T10:04:46.536Z</time></trkpt><trkpt lat="42.2604299" lon="14.4152353"><ele>155.2</ele><time>2026-03-22T10:04:47.547Z</time></trkpt><trkpt lat="42.2605153" lon="14.4152292"><ele>153.0</ele><time>2026-03-22T10:04:48.543Z</time></trkpt><trkpt lat="42.2606029" lon="14.4152667"><ele>150.66666666666666</ele><time>2026-03-22T10:04:49.546Z</time></trkpt><trkpt lat="42.2606904" lon="14.4153201"><ele>148.33333333333334</ele><time>2026-03-22T10:04:50.546Z</time></trkpt><trkpt lat="42.2607655" lon="14.4153587"><ele>146.0</ele><time>2026-03-22T10:04:51.539Z</time></trkpt><trkpt lat="42.2608386" lon="14.4153885"><ele>143.66666666666669</ele><time>2026-03-22T10:04:52.541Z</time></trkpt><trkpt lat="42.2609055" lon="14.415393"><ele>141.33333333333334</ele><time>2026-03-22T10:04:53.538Z</time></trkpt><trkpt lat="42.2609668" lon="14.4154133"><ele>139.0</ele><time>2026-03-22T10:04:54.531Z</time></trkpt><trkpt lat="42.2610954" lon="14.4154333"><ele>139.0</ele><time>2026-03-22T10:04:56.542Z</time></trkpt><trkpt lat="42.2611869" lon="14.4154128"><ele>139.0</ele><time>2026-03-22T10:04:57.553Z</time></trkpt><trkpt lat="42.2612506" lon="14.4154393"><ele>139.0</ele><time>2026-03-22T10:04:58.561Z</time></trkpt><trkpt lat="42.2613495" lon="14.4154617"><ele>139.0</ele><time>2026-03-22T10:05:00.547Z</time></trkpt><trkpt lat="42.2614116" lon="14.4154909"><ele>139.0</ele><time>2026-03-22T10:05:02.548Z</time></trkpt><trkpt lat="42.2615142" lon="14.4156003"><ele>137.83333333333334</ele><time>2026-03-22T10:05:04.556Z</time></trkpt><trkpt lat="42.2615803" lon="14.4156249"><ele>136.66666666666669</ele><time>2026-03-22T10:05:05.547Z</time></trkpt><trkpt lat="42.2616428" lon="14.4156134"><ele>135.5</ele><time>2026-03-22T10:05:06.553Z</time></trkpt><trkpt lat="42.2617506" lon="14.4156086"><ele>134.33333333333334</ele><time>2026-03-22T10:05:08.55Z</time></trkpt><trkpt lat="42.2618741" lon="14.4156298"><ele>133.16666666666666</ele><time>2026-03-22T10:05:10.563Z</time></trkpt><trkpt lat="42.2619399" lon="14.4156975"><ele>132.0</ele><time>2026-03-22T10:05:11.56Z</time></trkpt><trkpt lat="42.26201" lon="14.4157768"><ele>132.0</ele><time>2026-03-22T10:05:12.55Z</time></trkpt><trkpt lat="42.262109" lon="14.415878"><ele>132.0</ele><time>2026-03-22T10:05:13.551Z</time></trkpt><trkpt lat="42.2622021" lon="14.4159832"><ele>132.0</ele><time>2026-03-22T10:05:14.554Z</time></trkpt><trkpt lat="42.2622867" lon="14.4160659"><ele>132.0</ele><time>2026-03-22T10:05:15.55Z</time></trkpt><trkpt lat="42.2623766" lon="14.4161545"><ele>131.75</ele><time>2026-03-22T10:05:16.558Z</time></trkpt><trkpt lat="42.2624736" lon="14.4162381"><ele>131.5</ele><time>2026-03-22T10:05:17.565Z</time></trkpt><trkpt lat="42.2625741" lon="14.4163455"><ele>131.25</ele><time>2026-03-22T10:05:18.563Z</time></trkpt><trkpt lat="42.2626762" lon="14.4164446"><ele>131.0</ele><time>2026-03-22T10:05:19.562Z</time></trkpt><trkpt lat="42.2627678" lon="14.4165399"><ele>131.0</ele><time>2026-03-22T10:05:20.564Z</time></trkpt><trkpt lat="42.2628388" lon="14.4166408"><ele>131.0</ele><time>2026-03-22T10:05:21.562Z</time></trkpt><trkpt lat="42.2628906" lon="14.4167319"><ele>131.0</ele><time>2026-03-22T10:05:22.551Z</time></trkpt><trkpt lat="42.2629481" lon="14.416798"><ele>131.0</ele><time>2026-03-22T10:05:23.551Z</time></trkpt><trkpt lat="42.2630153" lon="14.4168404"><ele>131.0</ele><time>2026-03-22T10:05:24.562Z</time></trkpt><trkpt lat="42.2631023" lon="14.4168612"><ele>131.0</ele><time>2026-03-22T10:05:25.552Z</time></trkpt><trkpt lat="42.2631991" lon="14.4168707"><ele>129.6</ele><time>2026-03-22T10:05:26.553Z</time></trkpt><trkpt lat="42.2632894" lon="14.4169198"><ele>128.2</ele><time>2026-03-22T10:05:27.559Z</time></trkpt><trkpt lat="42.2633509" lon="14.4169977"><ele>126.80000000000001</ele><time>2026-03-22T10:05:28.56Z</time></trkpt><trkpt lat="42.2634146" lon="14.4170829"><ele>125.4</ele><time>2026-03-22T10:05:29.556Z</time></trkpt><trkpt lat="42.2634892" lon="14.41719"><ele>124.0</ele><time>2026-03-22T10:05:30.56Z</time></trkpt><trkpt lat="42.2635593" lon="14.4173201"><ele>124.0</ele><time>2026-03-22T10:05:31.562Z</time></trkpt><trkpt lat="42.263632" lon="14.417442"><ele>124.0</ele><time>2026-03-22T10:05:32.568Z</time></trkpt><trkpt lat="42.263705" lon="14.4175487"><ele>124.0</ele><time>2026-03-22T10:05:33.556Z</time></trkpt><trkpt lat="42.2637624" lon="14.4176407"><ele>124.0</ele><time>2026-03-22T10:05:34.564Z</time></trkpt><trkpt lat="42.2638376" lon="14.4177173"><ele>124.0</ele><time>2026-03-22T10:05:36.551Z</time></trkpt><trkpt lat="42.2639075" lon="14.4178249"><ele>122.2</ele><time>2026-03-22T10:05:38.552Z</time></trkpt><trkpt lat="42.2639547" lon="14.4178954"><ele>120.4</ele><time>2026-03-22T10:05:39.554Z</time></trkpt><trkpt lat="42.2640061" lon="14.417993"><ele>118.6</ele><time>2026-03-22T10:05:40.556Z</time></trkpt><trkpt lat="42.264064" lon="14.4180919"><ele>116.8</ele><time>2026-03-22T10:05:41.554Z</time></trkpt><trkpt lat="42.2641325" lon="14.4181831"><ele>115.0</ele><time>2026-03-22T10:05:42.553Z</time></trkpt><trkpt lat="42.2642251" lon="14.4182667"><ele>115.0</ele><time>2026-03-22T10:05:43.558Z</time></trkpt><trkpt lat="42.2643235" lon="14.4183551"><ele>115.0</ele><time>2026-03-22T10:05:44.557Z</time></trkpt><trkpt lat="42.264407" lon="14.4184422"><ele>115.0</ele><time>2026-03-22T10:05:45.558Z</time></trkpt><trkpt lat="42.2644809" lon="14.4185226"><ele>115.0</ele><time>2026-03-22T10:05:46.554Z</time></trkpt><trkpt lat="42.2645546" lon="14.4185951"><ele>115.0</ele><time>2026-03-22T10:05:47.557Z</time></trkpt><trkpt lat="42.2646139" lon="14.4186634"><ele>115.0</ele><time>2026-03-22T10:05:48.555Z</time></trkpt><trkpt lat="42.2646713" lon="14.4187143"><ele>115.0</ele><time>2026-03-22T10:05:49.547Z</time></trkpt><trkpt lat="42.2647274" lon="14.4187644"><ele>115.0</ele><time>2026-03-22T10:05:50.552Z</time></trkpt><trkpt lat="42.2648448" lon="14.418896"><ele>115.0</ele><time>2026-03-22T10:05:52.545Z</time></trkpt><trkpt lat="42.2649097" lon="14.4190065"><ele>115.0</ele><time>2026-03-22T10:05:53.557Z</time></trkpt><trkpt lat="42.2649975" lon="14.419136"><ele>114.0</ele><time>2026-03-22T10:05:54.554Z</time></trkpt><trkpt lat="42.2651006" lon="14.4192697"><ele>113.0</ele><time>2026-03-22T10:05:55.558Z</time></trkpt><trkpt lat="42.2652057" lon="14.4193808"><ele>112.0</ele><time>2026-03-22T10:05:56.556Z</time></trkpt><trkpt lat="42.2653232" lon="14.4194652"><ele>111.0</ele><time>2026-03-22T10:05:57.565Z</time></trkpt><trkpt lat="42.265435" lon="14.4195051"><ele>111.0</ele><time>2026-03-22T10:05:58.557Z</time></trkpt><trkpt lat="42.2655354" lon="14.4194959"><ele>111.0</ele><time>2026-03-22T10:05:59.569Z</time></trkpt><trkpt lat="42.2656217" lon="14.4194532"><ele>111.0</ele><time>2026-03-22T10:06:00.565Z</time></trkpt><trkpt lat="42.2657055" lon="14.4194665"><ele>111.0</ele><time>2026-03-22T10:06:01.567Z</time></trkpt><trkpt lat="42.2658055" lon="14.4195345"><ele>111.0</ele><time>2026-03-22T10:06:02.56Z</time></trkpt><trkpt lat="42.2659081" lon="14.4196289"><ele>111.4</ele><time>2026-03-22T10:06:03.565Z</time></trkpt><trkpt lat="42.2660111" lon="14.4197164"><ele>111.8</ele><time>2026-03-22T10:06:04.566Z</time></trkpt><trkpt lat="42.2660896" lon="14.4197818"><ele>112.20000000000002</ele><time>2026-03-22T10:06:05.571Z</time></trkpt><trkpt lat="42.2661271" lon="14.4198558"><ele>112.60000000000001</ele><time>2026-03-22T10:06:08.557Z</time></trkpt><trkpt lat="42.2660596" lon="14.4199375"><ele>113.0</ele><time>2026-03-22T10:06:10.552Z</time></trkpt><trkpt lat="42.265986" lon="14.4200113"><ele>113.0</ele><time>2026-03-22T10:06:12.556Z</time></trkpt><trkpt lat="42.2659186" lon="14.4201611"><ele>113.00000000000001</ele><time>2026-03-22T10:06:14.559Z</time></trkpt><trkpt lat="42.2658751" lon="14.4202351"><ele>113.00000000000001</ele><time>2026-03-22T10:06:15.555Z</time></trkpt><trkpt lat="42.2658381" lon="14.4203165"><ele>113.0</ele><time>2026-03-22T10:06:16.553Z</time></trkpt><trkpt lat="42.2657856" lon="14.4204624"><ele>113.0</ele><time>2026-03-22T10:06:18.559Z</time></trkpt><trkpt lat="42.2657252" lon="14.4205757"><ele>115.2</ele><time>2026-03-22T10:06:20.552Z</time></trkpt><trkpt lat="42.2656786" lon="14.4206724"><ele>117.4</ele><time>2026-03-22T10:06:32.562Z</time></trkpt><trkpt lat="42.2657116" lon="14.4207601"><ele>119.60000000000001</ele><time>2026-03-22T10:06:34.559Z</time></trkpt><trkpt lat="42.2657584" lon="14.4208222"><ele>121.80000000000001</ele><time>2026-03-22T10:06:35.547Z</time></trkpt><trkpt lat="42.2658241" lon="14.420942"><ele>124.0</ele><time>2026-03-22T10:06:36.552Z</time></trkpt><trkpt lat="42.2659002" lon="14.4210985"><ele>124.0</ele><time>2026-03-22T10:06:37.538Z</time></trkpt><trkpt lat="42.2659831" lon="14.4212821"><ele>124.0</ele><time>2026-03-22T10:06:38.544Z</time></trkpt><trkpt lat="42.2660629" lon="14.4214532"><ele>124.0</ele><time>2026-03-22T10:06:39.554Z</time></trkpt><trkpt lat="42.2661195" lon="14.4215953"><ele>124.0</ele><time>2026-03-22T10:06:40.536Z</time></trkpt><trkpt lat="42.2661839" lon="14.4217042"><ele>124.0</ele><time>2026-03-22T10:06:41.544Z</time></trkpt><trkpt lat="42.2662611" lon="14.4217786"><ele>124.0</ele><time>2026-03-22T10:06:42.545Z</time></trkpt><trkpt lat="42.2663478" lon="14.4218279"><ele>124.0</ele><time>2026-03-22T10:06:43.551Z</time></trkpt><trkpt lat="42.2664692" lon="14.4218588"><ele>124.0</ele><time>2026-03-22T10:06:44.537Z</time></trkpt><trkpt lat="42.2666245" lon="14.4218675"><ele>124.0</ele><time>2026-03-22T10:06:45.536Z</time></trkpt><trkpt lat="42.2667711" lon="14.4218668"><ele>124.0</ele><time>2026-03-22T10:06:46.542Z</time></trkpt><trkpt lat="42.2669462" lon="14.4218715"><ele>124.0</ele><time>2026-03-22T10:06:47.546Z</time></trkpt><trkpt lat="42.267097" lon="14.4218794"><ele>124.0</ele><time>2026-03-22T10:06:48.551Z</time></trkpt><trkpt lat="42.2672515" lon="14.4218906"><ele>124.0</ele><time>2026-03-22T10:06:49.554Z</time></trkpt><trkpt lat="42.2673934" lon="14.4219021"><ele>124.0</ele><time>2026-03-22T10:06:50.544Z</time></trkpt><trkpt lat="42.2675172" lon="14.4219292"><ele>124.0</ele><time>2026-03-22T10:06:51.546Z</time></trkpt><trkpt lat="42.2676443" lon="14.4219614"><ele>121.80000000000001</ele><time>2026-03-22T10:06:52.546Z</time></trkpt><trkpt lat="42.2677729" lon="14.4219827"><ele>119.60000000000001</ele><time>2026-03-22T10:06:53.549Z</time></trkpt><trkpt lat="42.2678904" lon="14.4220143"><ele>117.4</ele><time>2026-03-22T10:06:54.547Z</time></trkpt><trkpt lat="42.2679899" lon="14.4220427"><ele>115.2</ele><time>2026-03-22T10:06:55.548Z</time></trkpt><trkpt lat="42.2680805" lon="14.4220669"><ele>113.0</ele><time>2026-03-22T10:06:56.554Z</time></trkpt><trkpt lat="42.2681703" lon="14.4220607"><ele>111.83333333333333</ele><time>2026-03-22T10:06:57.549Z</time></trkpt><trkpt lat="42.2682486" lon="14.4220051"><ele>110.66666666666666</ele><time>2026-03-22T10:06:58.55Z</time></trkpt><trkpt lat="42.2683246" lon="14.4219532"><ele>109.5</ele><time>2026-03-22T10:06:59.546Z</time></trkpt><trkpt lat="42.2683908" lon="14.4219223"><ele>108.33333333333334</ele><time>2026-03-22T10:07:00.545Z</time></trkpt><trkpt lat="42.2684623" lon="14.4219202"><ele>107.16666666666667</ele><time>2026-03-22T10:07:01.556Z</time></trkpt><trkpt lat="42.2685542" lon="14.4219475"><ele>106.0</ele><time>2026-03-22T10:07:02.552Z</time></trkpt><trkpt lat="42.2686742" lon="14.4219953"><ele>106.0</ele><time>2026-03-22T10:07:03.55Z</time></trkpt><trkpt lat="42.2688039" lon="14.422042"><ele>106.0</ele><time>2026-03-22T10:07:04.546Z</time></trkpt><trkpt lat="42.2689199" lon="14.4220566"><ele>106.0</ele><time>2026-03-22T10:07:05.546Z</time></trkpt><trkpt lat="42.2690323" lon="14.422048"><ele>106.0</ele><time>2026-03-22T10:07:06.547Z</time></trkpt><trkpt lat="42.2691466" lon="14.4220019"><ele>105.33333333333334</ele><time>2026-03-22T10:07:07.551Z</time></trkpt><trkpt lat="42.2692314" lon="14.4219575"><ele>104.66666666666667</ele><time>2026-03-22T10:07:08.555Z</time></trkpt><trkpt lat="42.2692924" lon="14.4219356"><ele>104.0</ele><time>2026-03-22T10:07:09.548Z</time></trkpt><trkpt lat="42.2693404" lon="14.4220044"><ele>103.33333333333334</ele><time>2026-03-22T10:07:11.549Z</time></trkpt><trkpt lat="42.2693005" lon="14.4221529"><ele>102.66666666666667</ele><time>2026-03-22T10:07:13.547Z</time></trkpt><trkpt lat="42.2692652" lon="14.4222295"><ele>102.0</ele><time>2026-03-22T10:07:14.542Z</time></trkpt><trkpt lat="42.269218" lon="14.4223002"><ele>104.8</ele><time>2026-03-22T10:07:15.544Z</time></trkpt><trkpt lat="42.2691593" lon="14.4223847"><ele>107.6</ele><time>2026-03-22T10:07:16.54Z</time></trkpt><trkpt lat="42.2691427" lon="14.4224737"><ele>110.39999999999999</ele><time>2026-03-22T10:07:17.553Z</time></trkpt><trkpt lat="42.2692064" lon="14.4226108"><ele>113.19999999999999</ele><time>2026-03-22T10:07:19.543Z</time></trkpt><trkpt lat="42.2692747" lon="14.4226739"><ele>116.0</ele><time>2026-03-22T10:07:20.549Z</time></trkpt><trkpt lat="42.2693512" lon="14.4227546"><ele>116.0</ele><time>2026-03-22T10:07:21.545Z</time></trkpt><trkpt lat="42.2694152" lon="14.4228367"><ele>116.0</ele><time>2026-03-22T10:07:22.543Z</time></trkpt><trkpt lat="42.2694637" lon="14.4229435"><ele>116.0</ele><time>2026-03-22T10:07:23.543Z</time></trkpt><trkpt lat="42.2694925" lon="14.423069"><ele>116.0</ele><time>2026-03-22T10:07:24.554Z</time></trkpt><trkpt lat="42.2695032" lon="14.4231975"><ele>116.0</ele><time>2026-03-22T10:07:25.549Z</time></trkpt><trkpt lat="42.2694924" lon="14.4233425"><ele>118.4</ele><time>2026-03-22T10:07:26.546Z</time></trkpt><trkpt lat="42.2694736" lon="14.4235028"><ele>120.8</ele><time>2026-03-22T10:07:27.548Z</time></trkpt><trkpt lat="42.2694405" lon="14.4236579"><ele>123.20000000000002</ele><time>2026-03-22T10:07:28.547Z</time></trkpt><trkpt lat="42.2694052" lon="14.4237864"><ele>125.60000000000001</ele><time>2026-03-22T10:07:29.546Z</time></trkpt><trkpt lat="42.2694013" lon="14.4238938"><ele>128.0</ele><time>2026-03-22T10:07:30.541Z</time></trkpt><trkpt lat="42.2695055" lon="14.4239735"><ele>129.0</ele><time>2026-03-22T10:07:32.552Z</time></trkpt><trkpt lat="42.2696187" lon="14.4239675"><ele>130.0</ele><time>2026-03-22T10:07:33.545Z</time></trkpt><trkpt lat="42.269746" lon="14.42395"><ele>131.0</ele><time>2026-03-22T10:07:34.535Z</time></trkpt><trkpt lat="42.2698579" lon="14.4239745"><ele>132.0</ele><time>2026-03-22T10:07:35.532Z</time></trkpt><trkpt lat="42.2699683" lon="14.4240019"><ele>132.0</ele><time>2026-03-22T10:07:36.534Z</time></trkpt><trkpt lat="42.2700534" lon="14.4240444"><ele>132.0</ele><time>2026-03-22T10:07:37.532Z</time></trkpt><trkpt lat="42.2701494" lon="14.4240693"><ele>132.0</ele><time>2026-03-22T10:07:39.539Z</time></trkpt><trkpt lat="42.2701967" lon="14.4239259"><ele>132.0</ele><time>2026-03-22T10:07:41.527Z</time></trkpt><trkpt lat="42.2702191" lon="14.4238142"><ele>132.0</ele><time>2026-03-22T10:07:42.531Z</time></trkpt><trkpt lat="42.2702289" lon="14.4236881"><ele>128.79999999999998</ele><time>2026-03-22T10:07:43.543Z</time></trkpt><trkpt lat="42.2702603" lon="14.4235657"><ele>125.6</ele><time>2026-03-22T10:07:44.546Z</time></trkpt><trkpt lat="42.2702946" lon="14.4234234"><ele>122.39999999999999</ele><time>2026-03-22T10:07:45.546Z</time></trkpt><trkpt lat="42.2703532" lon="14.4233153"><ele>119.19999999999999</ele><time>2026-03-22T10:07:46.547Z</time></trkpt><trkpt lat="42.2704115" lon="14.423247"><ele>116.0</ele><time>2026-03-22T10:07:47.552Z</time></trkpt><trkpt lat="42.2704791" lon="14.4231836"><ele>115.99999999999999</ele><time>2026-03-22T10:07:48.557Z</time></trkpt><trkpt lat="42.2705411" lon="14.4231237"><ele>116.0</ele><time>2026-03-22T10:07:49.552Z</time></trkpt><trkpt lat="42.2705979" lon="14.423065"><ele>116.0</ele><time>2026-03-22T10:07:50.557Z</time></trkpt><trkpt lat="42.2706974" lon="14.4230551"><ele>116.0</ele><time>2026-03-22T10:07:52.558Z</time></trkpt><trkpt lat="42.2707712" lon="14.4230702"><ele>115.99999999999999</ele><time>2026-03-22T10:07:53.551Z</time></trkpt><trkpt lat="42.270865" lon="14.4230612"><ele>116.0</ele><time>2026-03-22T10:07:54.552Z</time></trkpt><trkpt lat="42.2709408" lon="14.4230326"><ele>114.8</ele><time>2026-03-22T10:07:55.547Z</time></trkpt><trkpt lat="42.2709983" lon="14.422986"><ele>113.6</ele><time>2026-03-22T10:07:56.546Z</time></trkpt><trkpt lat="42.2710978" lon="14.4229001"><ele>112.4</ele><time>2026-03-22T10:07:58.543Z</time></trkpt><trkpt lat="42.271143" lon="14.4227955"><ele>111.2</ele><time>2026-03-22T10:08:00.545Z</time></trkpt><trkpt lat="42.2711095" lon="14.4226205"><ele>110.0</ele><time>2026-03-22T10:08:02.553Z</time></trkpt><trkpt lat="42.2711214" lon="14.4224527"><ele>107.25</ele><time>2026-03-22T10:08:04.546Z</time></trkpt><trkpt lat="42.2711823" lon="14.4223393"><ele>104.5</ele><time>2026-03-22T10:08:06.55Z</time></trkpt><trkpt lat="42.2712456" lon="14.4222672"><ele>101.75</ele><time>2026-03-22T10:08:08.555Z</time></trkpt><trkpt lat="42.2713836" lon="14.4223048"><ele>99.0</ele><time>2026-03-22T10:08:10.551Z</time></trkpt><trkpt lat="42.271507" lon="14.4223912"><ele>97.5</ele><time>2026-03-22T10:08:11.539Z</time></trkpt><trkpt lat="42.271635" lon="14.4224821"><ele>96.0</ele><time>2026-03-22T10:08:12.544Z</time></trkpt><trkpt lat="42.2717555" lon="14.4225559"><ele>94.5</ele><time>2026-03-22T10:08:13.538Z</time></trkpt><trkpt lat="42.2718776" lon="14.4226414"><ele>93.0</ele><time>2026-03-22T10:08:14.54Z</time></trkpt><trkpt lat="42.2719969" lon="14.4227114"><ele>93.0</ele><time>2026-03-22T10:08:15.55Z</time></trkpt><trkpt lat="42.2721153" lon="14.4227538"><ele>93.0</ele><time>2026-03-22T10:08:16.55Z</time></trkpt><trkpt lat="42.2722201" lon="14.4227895"><ele>93.0</ele><time>2026-03-22T10:08:17.546Z</time></trkpt><trkpt lat="42.2723103" lon="14.4228325"><ele>93.0</ele><time>2026-03-22T10:08:18.541Z</time></trkpt><trkpt lat="42.2724115" lon="14.4228641"><ele>93.0</ele><time>2026-03-22T10:08:19.541Z</time></trkpt><trkpt lat="42.2725284" lon="14.4229329"><ele>95.0</ele><time>2026-03-22T10:08:20.554Z</time></trkpt><trkpt lat="42.2726335" lon="14.423068"><ele>97.0</ele><time>2026-03-22T10:08:21.548Z</time></trkpt><trkpt lat="42.2727353" lon="14.4232194"><ele>99.0</ele><time>2026-03-22T10:08:22.545Z</time></trkpt><trkpt lat="42.2728552" lon="14.4233776"><ele>99.0</ele><time>2026-03-22T10:08:23.551Z</time></trkpt><trkpt lat="42.2729859" lon="14.4235806"><ele>99.0</ele><time>2026-03-22T10:08:24.549Z</time></trkpt><trkpt lat="42.2730794" lon="14.4237392"><ele>99.0</ele><time>2026-03-22T10:08:25.552Z</time></trkpt><trkpt lat="42.2731601" lon="14.4239251"><ele>98.75</ele><time>2026-03-22T10:08:26.546Z</time></trkpt><trkpt lat="42.2732143" lon="14.4241278"><ele>98.5</ele><time>2026-03-22T10:08:27.543Z</time></trkpt><trkpt lat="42.2732441" lon="14.4243017"><ele>98.25</ele><time>2026-03-22T10:08:28.541Z</time></trkpt><trkpt lat="42.2732962" lon="14.4244308"><ele>98.0</ele><time>2026-03-22T10:08:29.541Z</time></trkpt><trkpt lat="42.2733302" lon="14.4245186"><ele>98.0</ele><time>2026-03-22T10:08:30.546Z</time></trkpt><trkpt lat="42.2734399" lon="14.4245462"><ele>98.0</ele><time>2026-03-22T10:08:31.537Z</time></trkpt><trkpt lat="42.2735326" lon="14.4245232"><ele>98.0</ele><time>2026-03-22T10:08:32.542Z</time></trkpt><trkpt lat="42.2736113" lon="14.4244976"><ele>98.0</ele><time>2026-03-22T10:08:33.535Z</time></trkpt><trkpt lat="42.2737038" lon="14.4244813"><ele>98.0</ele><time>2026-03-22T10:08:34.532Z</time></trkpt><trkpt lat="42.2737881" lon="14.4244743"><ele>97.99999999999999</ele><time>2026-03-22T10:08:35.542Z</time></trkpt><trkpt lat="42.2738772" lon="14.4244951"><ele>98.0</ele><time>2026-03-22T10:08:36.543Z</time></trkpt><trkpt lat="42.2739645" lon="14.4244738"><ele>98.0</ele><time>2026-03-22T10:08:37.541Z</time></trkpt><trkpt lat="42.2740458" lon="14.4244364"><ele>98.0</ele><time>2026-03-22T10:08:38.541Z</time></trkpt><trkpt lat="42.274117" lon="14.4243916"><ele>97.99999999999999</ele><time>2026-03-22T10:08:39.536Z</time></trkpt><trkpt lat="42.2741924" lon="14.4243678"><ele>98.0</ele><time>2026-03-22T10:08:40.547Z</time></trkpt><trkpt lat="42.2742607" lon="14.4243502"><ele>95.49999999999999</ele><time>2026-03-22T10:08:41.538Z</time></trkpt><trkpt lat="42.2743358" lon="14.4243281"><ele>93.0</ele><time>2026-03-22T10:08:42.55Z</time></trkpt><trkpt lat="42.2744262" lon="14.4243188"><ele>90.5</ele><time>2026-03-22T10:08:43.543Z</time></trkpt><trkpt lat="42.2745203" lon="14.4243206"><ele>88.0</ele><time>2026-03-22T10:08:44.547Z</time></trkpt><trkpt lat="42.2745984" lon="14.4243069"><ele>85.5</ele><time>2026-03-22T10:08:45.538Z</time></trkpt><trkpt lat="42.2746717" lon="14.4242617"><ele>83.0</ele><time>2026-03-22T10:08:46.547Z</time></trkpt><trkpt lat="42.2747433" lon="14.4242068"><ele>81.66666666666667</ele><time>2026-03-22T10:08:47.541Z</time></trkpt><trkpt lat="42.2747955" lon="14.42412"><ele>80.33333333333334</ele><time>2026-03-22T10:08:48.555Z</time></trkpt><trkpt lat="42.2748516" lon="14.4240455"><ele>79.0</ele><time>2026-03-22T10:08:49.554Z</time></trkpt><trkpt lat="42.2749062" lon="14.4239636"><ele>77.66666666666667</ele><time>2026-03-22T10:08:50.553Z</time></trkpt><trkpt lat="42.2749606" lon="14.4238983"><ele>76.33333333333333</ele><time>2026-03-22T10:08:51.556Z</time></trkpt><trkpt lat="42.2750279" lon="14.4238633"><ele>75.0</ele><time>2026-03-22T10:08:52.561Z</time></trkpt><trkpt lat="42.2751072" lon="14.4238415"><ele>75.0</ele><time>2026-03-22T10:08:53.555Z</time></trkpt><trkpt lat="42.2751901" lon="14.4238283"><ele>75.0</ele><time>2026-03-22T10:08:54.551Z</time></trkpt><trkpt lat="42.2752686" lon="14.4238369"><ele>75.0</ele><time>2026-03-22T10:08:55.555Z</time></trkpt><trkpt lat="42.2753342" lon="14.423859"><ele>75.0</ele><time>2026-03-22T10:08:56.549Z</time></trkpt><trkpt lat="42.2754227" lon="14.4239719"><ele>75.0</ele><time>2026-03-22T10:08:58.547Z</time></trkpt><trkpt lat="42.2754672" lon="14.4240788"><ele>75.0</ele><time>2026-03-22T10:08:59.561Z</time></trkpt><trkpt lat="42.2755145" lon="14.4241803"><ele>74.99999999999999</ele><time>2026-03-22T10:09:00.562Z</time></trkpt><trkpt lat="42.2755698" lon="14.4242581"><ele>75.0</ele><time>2026-03-22T10:09:01.557Z</time></trkpt><trkpt lat="42.2756283" lon="14.4243094"><ele>75.0</ele><time>2026-03-22T10:09:02.559Z</time></trkpt><trkpt lat="42.2756976" lon="14.424346"><ele>75.0</ele><time>2026-03-22T10:09:03.564Z</time></trkpt><trkpt lat="42.2757646" lon="14.4243869"><ele>75.0</ele><time>2026-03-22T10:09:04.556Z</time></trkpt><trkpt lat="42.2758211" lon="14.4244551"><ele>74.99999999999999</ele><time>2026-03-22T10:09:05.55Z</time></trkpt><trkpt lat="42.2758698" lon="14.4245332"><ele>75.0</ele><time>2026-03-22T10:09:06.563Z</time></trkpt><trkpt lat="42.2758868" lon="14.424622"><ele>74.8</ele><time>2026-03-22T10:09:07.558Z</time></trkpt><trkpt lat="42.2759237" lon="14.4246955"><ele>74.6</ele><time>2026-03-22T10:09:08.562Z</time></trkpt><trkpt lat="42.2759862" lon="14.4247181"><ele>74.4</ele><time>2026-03-22T10:09:09.55Z</time></trkpt><trkpt lat="42.2761059" lon="14.4247115"><ele>74.2</ele><time>2026-03-22T10:09:11.557Z</time></trkpt><trkpt lat="42.2761688" lon="14.4246059"><ele>74.0</ele><time>2026-03-22T10:09:12.551Z</time></trkpt><trkpt lat="42.2762106" lon="14.4244824"><ele>74.0</ele><time>2026-03-22T10:09:13.553Z</time></trkpt><trkpt lat="42.2762326" lon="14.4243783"><ele>74.0</ele><time>2026-03-22T10:09:14.554Z</time></trkpt><trkpt lat="42.2762428" lon="14.4242943"><ele>74.0</ele><time>2026-03-22T10:09:15.543Z</time></trkpt><trkpt lat="42.276226" lon="14.4241933"><ele>74.0</ele><time>2026-03-22T10:09:17.553Z</time></trkpt><trkpt lat="42.2762253" lon="14.4240914"><ele>74.0</ele><time>2026-03-22T10:09:20.531Z</time></trkpt><trkpt lat="42.2763446" lon="14.4241294"><ele>74.0</ele><time>2026-03-22T10:09:22.54Z</time></trkpt><trkpt lat="42.276406" lon="14.4242166"><ele>74.0</ele><time>2026-03-22T10:09:24.544Z</time></trkpt><trkpt lat="42.2764163" lon="14.4243153"><ele>74.0</ele><time>2026-03-22T10:09:25.542Z</time></trkpt><trkpt lat="42.2764629" lon="14.4243926"><ele>74.0</ele><time>2026-03-22T10:09:26.555Z</time></trkpt><trkpt lat="42.2765382" lon="14.4244458"><ele>74.0</ele><time>2026-03-22T10:09:27.556Z</time></trkpt><trkpt lat="42.2766348" lon="14.4244954"><ele>74.0</ele><time>2026-03-22T10:09:28.555Z</time></trkpt><trkpt lat="42.2767175" lon="14.4245653"><ele>74.0</ele><time>2026-03-22T10:09:29.552Z</time></trkpt><trkpt lat="42.2767683" lon="14.4246512"><ele>73.8</ele><time>2026-03-22T10:09:30.557Z</time></trkpt><trkpt lat="42.2767736" lon="14.4247953"><ele>73.60000000000001</ele><time>2026-03-22T10:09:32.551Z</time></trkpt><trkpt lat="42.2768598" lon="14.4249328"><ele>73.4</ele><time>2026-03-22T10:09:34.556Z</time></trkpt><trkpt lat="42.27691" lon="14.4250155"><ele>73.2</ele><time>2026-03-22T10:09:35.557Z</time></trkpt><trkpt lat="42.2769673" lon="14.4250689"><ele>73.0</ele><time>2026-03-22T10:09:36.559Z</time></trkpt><trkpt lat="42.2770377" lon="14.4250711"><ele>73.0</ele><time>2026-03-22T10:09:37.546Z</time></trkpt><trkpt lat="42.2771064" lon="14.425086"><ele>73.0</ele><time>2026-03-22T10:09:38.562Z</time></trkpt><trkpt lat="42.2771717" lon="14.4251425"><ele>73.0</ele><time>2026-03-22T10:09:39.544Z</time></trkpt><trkpt lat="42.2772234" lon="14.4252123"><ele>73.0</ele><time>2026-03-22T10:09:40.549Z</time></trkpt><trkpt lat="42.2772674" lon="14.425307"><ele>73.0</ele><time>2026-03-22T10:09:41.555Z</time></trkpt><trkpt lat="42.2773174" lon="14.4254046"><ele>73.0</ele><time>2026-03-22T10:09:42.552Z</time></trkpt><trkpt lat="42.2773789" lon="14.4254779"><ele>73.16666666666666</ele><time>2026-03-22T10:09:43.563Z</time></trkpt><trkpt lat="42.2774521" lon="14.4255106"><ele>73.33333333333333</ele><time>2026-03-22T10:09:44.547Z</time></trkpt><trkpt lat="42.277533" lon="14.4255109"><ele>73.5</ele><time>2026-03-22T10:09:45.552Z</time></trkpt><trkpt lat="42.2776089" lon="14.4254941"><ele>73.66666666666667</ele><time>2026-03-22T10:09:46.558Z</time></trkpt><trkpt lat="42.2776721" lon="14.4254397"><ele>73.83333333333334</ele><time>2026-03-22T10:09:47.563Z</time></trkpt><trkpt lat="42.2777141" lon="14.425335"><ele>74.0</ele><time>2026-03-22T10:09:48.561Z</time></trkpt><trkpt lat="42.2777568" lon="14.4252274"><ele>74.0</ele><time>2026-03-22T10:09:49.553Z</time></trkpt><trkpt lat="42.2778011" lon="14.42516"><ele>74.0</ele><time>2026-03-22T10:09:50.548Z</time></trkpt><trkpt lat="42.2778771" lon="14.4251314"><ele>74.0</ele><time>2026-03-22T10:09:52.55Z</time></trkpt><trkpt lat="42.2779249" lon="14.4251868"><ele>74.0</ele><time>2026-03-22T10:09:53.554Z</time></trkpt><trkpt lat="42.2779818" lon="14.4252478"><ele>74.0</ele><time>2026-03-22T10:09:54.553Z</time></trkpt><trkpt lat="42.2780646" lon="14.4253164"><ele>74.0</ele><time>2026-03-22T10:09:56.56Z</time></trkpt><trkpt lat="42.2781342" lon="14.4254286"><ele>74.66666666666667</ele><time>2026-03-22T10:09:58.543Z</time></trkpt><trkpt lat="42.2781654" lon="14.4255104"><ele>75.33333333333334</ele><time>2026-03-22T10:09:59.542Z</time></trkpt><trkpt lat="42.2782024" lon="14.4256017"><ele>76.0</ele><time>2026-03-22T10:10:00.545Z</time></trkpt><trkpt lat="42.2782443" lon="14.4256902"><ele>76.66666666666667</ele><time>2026-03-22T10:10:01.544Z</time></trkpt><trkpt lat="42.2782967" lon="14.4257839"><ele>77.33333333333333</ele><time>2026-03-22T10:10:02.553Z</time></trkpt><trkpt lat="42.2783426" lon="14.4258702"><ele>78.0</ele><time>2026-03-22T10:10:03.554Z</time></trkpt><trkpt lat="42.2783829" lon="14.4259531"><ele>78.0</ele><time>2026-03-22T10:10:04.555Z</time></trkpt><trkpt lat="42.2784173" lon="14.426035"><ele>78.0</ele><time>2026-03-22T10:10:05.555Z</time></trkpt><trkpt lat="42.2784413" lon="14.4261232"><ele>78.0</ele><time>2026-03-22T10:10:06.55Z</time></trkpt><trkpt lat="42.278463" lon="14.4262185"><ele>78.0</ele><time>2026-03-22T10:10:07.552Z</time></trkpt><trkpt lat="42.2784901" lon="14.4263048"><ele>78.0</ele><time>2026-03-22T10:10:08.55Z</time></trkpt><trkpt lat="42.2785163" lon="14.4263989"><ele>78.0</ele><time>2026-03-22T10:10:09.554Z</time></trkpt><trkpt lat="42.2785494" lon="14.426488"><ele>78.0</ele><time>2026-03-22T10:10:10.554Z</time></trkpt><trkpt lat="42.2785889" lon="14.4265941"><ele>76.83333333333333</ele><time>2026-03-22T10:10:11.551Z</time></trkpt><trkpt lat="42.2786188" lon="14.4267359"><ele>75.66666666666667</ele><time>2026-03-22T10:10:13.558Z</time></trkpt><trkpt lat="42.2785563" lon="14.4268012"><ele>74.5</ele><time>2026-03-22T10:10:15.572Z</time></trkpt><trkpt lat="42.2784925" lon="14.4268239"><ele>73.33333333333334</ele><time>2026-03-22T10:10:16.562Z</time></trkpt><trkpt lat="42.2784273" lon="14.4268397"><ele>72.16666666666667</ele><time>2026-03-22T10:10:17.552Z</time></trkpt><trkpt lat="42.2783604" lon="14.4268696"><ele>71.0</ele><time>2026-03-22T10:10:18.559Z</time></trkpt><trkpt lat="42.2782887" lon="14.4268998"><ele>71.0</ele><time>2026-03-22T10:10:19.548Z</time></trkpt><trkpt lat="42.2782198" lon="14.4269396"><ele>71.0</ele><time>2026-03-22T10:10:21.561Z</time></trkpt><trkpt lat="42.2782558" lon="14.4270115"><ele>71.0</ele><time>2026-03-22T10:10:23.561Z</time></trkpt><trkpt lat="42.2783021" lon="14.4271049"><ele>71.0</ele><time>2026-03-22T10:10:26.562Z</time></trkpt><trkpt lat="42.2783392" lon="14.4271842"><ele>71.0</ele><time>2026-03-22T10:10:29.559Z</time></trkpt><trkpt lat="42.2783769" lon="14.4272643"><ele>71.0</ele><time>2026-03-22T10:10:32.554Z</time></trkpt><trkpt lat="42.2784461" lon="14.4273338"><ele>71.0</ele><time>2026-03-22T10:10:35.559Z</time></trkpt><trkpt lat="42.2785087" lon="14.4274522"><ele>70.6</ele><time>2026-03-22T10:10:37.559Z</time></trkpt><trkpt lat="42.2785801" lon="14.4275478"><ele>70.19999999999999</ele><time>2026-03-22T10:10:39.559Z</time></trkpt><trkpt lat="42.2786695" lon="14.4275861"><ele>69.80000000000001</ele><time>2026-03-22T10:10:41.557Z</time></trkpt><trkpt lat="42.2787635" lon="14.4275922"><ele>69.4</ele><time>2026-03-22T10:10:43.562Z</time></trkpt><trkpt lat="42.2788832" lon="14.4276319"><ele>69.0</ele><time>2026-03-22T10:10:45.558Z</time></trkpt><trkpt lat="42.2789526" lon="14.4276571"><ele>68.33333333333333</ele><time>2026-03-22T10:10:46.556Z</time></trkpt><trkpt lat="42.279027" lon="14.4276948"><ele>67.66666666666667</ele><time>2026-03-22T10:10:47.557Z</time></trkpt><trkpt lat="42.2790968" lon="14.4277302"><ele>67.0</ele><time>2026-03-22T10:10:48.562Z</time></trkpt><trkpt lat="42.27917" lon="14.4277655"><ele>66.33333333333334</ele><time>2026-03-22T10:10:49.562Z</time></trkpt><trkpt lat="42.279243" lon="14.4278061"><ele>65.66666666666667</ele><time>2026-03-22T10:10:50.56Z</time></trkpt><trkpt lat="42.2792941" lon="14.4278691"><ele>65.0</ele><time>2026-03-22T10:10:51.571Z</time></trkpt><trkpt lat="42.2793426" lon="14.4279906"><ele>65.0</ele><time>2026-03-22T10:10:52.566Z</time></trkpt><trkpt lat="42.2794021" lon="14.42813"><ele>65.0</ele><time>2026-03-22T10:10:53.566Z</time></trkpt><trkpt lat="42.2794717" lon="14.4282733"><ele>65.0</ele><time>2026-03-22T10:10:54.559Z</time></trkpt><trkpt lat="42.2795416" lon="14.4284078"><ele>65.0</ele><time>2026-03-22T10:10:55.562Z</time></trkpt><trkpt lat="42.2796048" lon="14.4285091"><ele>65.0</ele><time>2026-03-22T10:10:56.561Z</time></trkpt><trkpt lat="42.2796757" lon="14.4286232"><ele>65.0</ele><time>2026-03-22T10:10:57.561Z</time></trkpt><trkpt lat="42.2797437" lon="14.4287574"><ele>65.0</ele><time>2026-03-22T10:10:58.566Z</time></trkpt><trkpt lat="42.2798141" lon="14.4288954"><ele>65.0</ele><time>2026-03-22T10:10:59.554Z</time></trkpt><trkpt lat="42.2798867" lon="14.4289937"><ele>66.0</ele><time>2026-03-22T10:11:00.559Z</time></trkpt><trkpt lat="42.2799664" lon="14.4290727"><ele>67.0</ele><time>2026-03-22T10:11:01.559Z</time></trkpt><trkpt lat="42.2800472" lon="14.4291525"><ele>68.0</ele><time>2026-03-22T10:11:02.559Z</time></trkpt><trkpt lat="42.2801342" lon="14.4292518"><ele>69.0</ele><time>2026-03-22T10:11:03.558Z</time></trkpt><trkpt lat="42.2802158" lon="14.4293427"><ele>70.0</ele><time>2026-03-22T10:11:04.558Z</time></trkpt><trkpt lat="42.2803021" lon="14.4294283"><ele>70.0</ele><time>2026-03-22T10:11:05.562Z</time></trkpt><trkpt lat="42.2803873" lon="14.4295014"><ele>70.0</ele><time>2026-03-22T10:11:06.564Z</time></trkpt><trkpt lat="42.2804524" lon="14.4295751"><ele>70.0</ele><time>2026-03-22T10:11:07.572Z</time></trkpt><trkpt lat="42.2805138" lon="14.4296643"><ele>70.0</ele><time>2026-03-22T10:11:09.577Z</time></trkpt><trkpt lat="42.2805927" lon="14.4297748"><ele>70.0</ele><time>2026-03-22T10:11:11.559Z</time></trkpt><trkpt lat="42.280633" lon="14.4298639"><ele>68.66666666666666</ele><time>2026-03-22T10:11:13.557Z</time></trkpt><trkpt lat="42.2805821" lon="14.4299378"><ele>67.33333333333333</ele><time>2026-03-22T10:11:15.559Z</time></trkpt><trkpt lat="42.280525" lon="14.4299847"><ele>66.0</ele><time>2026-03-22T10:11:16.556Z</time></trkpt><trkpt lat="42.2804536" lon="14.4300341"><ele>64.66666666666667</ele><time>2026-03-22T10:11:17.556Z</time></trkpt><trkpt lat="42.2803836" lon="14.430084"><ele>63.333333333333336</ele><time>2026-03-22T10:11:18.559Z</time></trkpt><trkpt lat="42.2803097" lon="14.4302325"><ele>62.0</ele><time>2026-03-22T10:11:20.555Z</time></trkpt><trkpt lat="42.2802798" lon="14.4303694"><ele>61.333333333333336</ele><time>2026-03-22T10:11:21.558Z</time></trkpt><trkpt lat="42.2802465" lon="14.4304794"><ele>60.66666666666667</ele><time>2026-03-22T10:11:22.553Z</time></trkpt><trkpt lat="42.2802252" lon="14.4306024"><ele>60.0</ele><time>2026-03-22T10:11:23.552Z</time></trkpt><trkpt lat="42.2801935" lon="14.4306925"><ele>59.33333333333333</ele><time>2026-03-22T10:11:24.55Z</time></trkpt><trkpt lat="42.2801465" lon="14.4307905"><ele>58.666666666666664</ele><time>2026-03-22T10:11:25.552Z</time></trkpt><trkpt lat="42.2800772" lon="14.4308817"><ele>58.0</ele><time>2026-03-22T10:11:26.553Z</time></trkpt><trkpt lat="42.2800217" lon="14.4309753"><ele>57.99999999999999</ele><time>2026-03-22T10:11:27.562Z</time></trkpt><trkpt lat="42.279964" lon="14.4310682"><ele>58.0</ele><time>2026-03-22T10:11:28.551Z</time></trkpt><trkpt lat="42.2799087" lon="14.4311408"><ele>58.0</ele><time>2026-03-22T10:11:29.553Z</time></trkpt><trkpt lat="42.2798464" lon="14.43119"><ele>58.0</ele><time>2026-03-22T10:11:30.566Z</time></trkpt><trkpt lat="42.2797793" lon="14.4312092"><ele>57.99999999999999</ele><time>2026-03-22T10:11:31.558Z</time></trkpt><trkpt lat="42.2797458" lon="14.4312988"><ele>58.0</ele><time>2026-03-22T10:11:34.562Z</time></trkpt><trkpt lat="42.2797774" lon="14.4314357"><ele>58.33333333333333</ele><time>2026-03-22T10:11:36.555Z</time></trkpt><trkpt lat="42.2797865" lon="14.4315561"><ele>58.666666666666664</ele><time>2026-03-22T10:11:38.552Z</time></trkpt><trkpt lat="42.2798209" lon="14.431628"><ele>59.0</ele><time>2026-03-22T10:11:39.557Z</time></trkpt><trkpt lat="42.2798618" lon="14.4317008"><ele>59.33333333333333</ele><time>2026-03-22T10:11:40.545Z</time></trkpt><trkpt lat="42.2799195" lon="14.4317751"><ele>59.666666666666664</ele><time>2026-03-22T10:11:41.547Z</time></trkpt><trkpt lat="42.2799907" lon="14.431867"><ele>60.0</ele><time>2026-03-22T10:11:42.547Z</time></trkpt><trkpt lat="42.2800769" lon="14.4319524"><ele>60.0</ele><time>2026-03-22T10:11:43.553Z</time></trkpt><trkpt lat="42.2801875" lon="14.4320163"><ele>60.0</ele><time>2026-03-22T10:11:44.554Z</time></trkpt><trkpt lat="42.2803034" lon="14.4320582"><ele>60.0</ele><time>2026-03-22T10:11:45.552Z</time></trkpt><trkpt lat="42.2804101" lon="14.4321066"><ele>60.0</ele><time>2026-03-22T10:11:46.55Z</time></trkpt><trkpt lat="42.2805108" lon="14.4321793"><ele>60.6</ele><time>2026-03-22T10:11:47.546Z</time></trkpt><trkpt lat="42.280585" lon="14.4322338"><ele>61.2</ele><time>2026-03-22T10:11:48.548Z</time></trkpt><trkpt lat="42.2806505" lon="14.4323327"><ele>61.8</ele><time>2026-03-22T10:11:50.546Z</time></trkpt><trkpt lat="42.2806327" lon="14.4324556"><ele>62.4</ele><time>2026-03-22T10:11:52.542Z</time></trkpt><trkpt lat="42.2805937" lon="14.4325717"><ele>63.0</ele><time>2026-03-22T10:11:53.547Z</time></trkpt><trkpt lat="42.280532" lon="14.4327234"><ele>63.8</ele><time>2026-03-22T10:11:54.55Z</time></trkpt><trkpt lat="42.2804589" lon="14.4328829"><ele>64.6</ele><time>2026-03-22T10:11:55.551Z</time></trkpt><trkpt lat="42.2804038" lon="14.433009"><ele>65.4</ele><time>2026-03-22T10:11:56.555Z</time></trkpt><trkpt lat="42.280337" lon="14.4330827"><ele>66.2</ele><time>2026-03-22T10:11:58.551Z</time></trkpt><trkpt lat="42.2802555" lon="14.4330787"><ele>67.0</ele><time>2026-03-22T10:11:59.54Z</time></trkpt><trkpt lat="42.280162" lon="14.433099"><ele>69.2</ele><time>2026-03-22T10:12:00.545Z</time></trkpt><trkpt lat="42.280075" lon="14.4331267"><ele>71.4</ele><time>2026-03-22T10:12:01.547Z</time></trkpt><trkpt lat="42.2799937" lon="14.4331938"><ele>73.6</ele><time>2026-03-22T10:12:02.553Z</time></trkpt><trkpt lat="42.2799151" lon="14.4333103"><ele>75.8</ele><time>2026-03-22T10:12:03.54Z</time></trkpt><trkpt lat="42.2798377" lon="14.433471"><ele>78.0</ele><time>2026-03-22T10:12:04.539Z</time></trkpt><trkpt lat="42.2797557" lon="14.4336328"><ele>80.0</ele><time>2026-03-22T10:12:05.546Z</time></trkpt><trkpt lat="42.2796638" lon="14.4337693"><ele>82.0</ele><time>2026-03-22T10:12:06.544Z</time></trkpt><trkpt lat="42.2795792" lon="14.4338862"><ele>84.0</ele><time>2026-03-22T10:12:07.541Z</time></trkpt><trkpt lat="42.2794987" lon="14.4339998"><ele>86.0</ele><time>2026-03-22T10:12:08.541Z</time></trkpt><trkpt lat="42.279446" lon="14.4341055"><ele>88.19999999999999</ele><time>2026-03-22T10:12:09.551Z</time></trkpt><trkpt lat="42.2793819" lon="14.4342407"><ele>90.39999999999999</ele><time>2026-03-22T10:12:10.558Z</time></trkpt><trkpt lat="42.2793325" lon="14.4343774"><ele>92.6</ele><time>2026-03-22T10:12:11.549Z</time></trkpt><trkpt lat="42.2793048" lon="14.4344894"><ele>94.8</ele><time>2026-03-22T10:12:12.551Z</time></trkpt><trkpt lat="42.2792628" lon="14.4345735"><ele>97.0</ele><time>2026-03-22T10:12:14.556Z</time></trkpt><trkpt lat="42.2791409" lon="14.4345718"><ele>97.0</ele><time>2026-03-22T10:12:16.55Z</time></trkpt><trkpt lat="42.2790455" lon="14.4345917"><ele>97.0</ele><time>2026-03-22T10:12:17.555Z</time></trkpt><trkpt lat="42.2789328" lon="14.4346409"><ele>97.0</ele><time>2026-03-22T10:12:18.546Z</time></trkpt><trkpt lat="42.2788252" lon="14.434686"><ele>97.0</ele><time>2026-03-22T10:12:19.536Z</time></trkpt><trkpt lat="42.2787197" lon="14.43472"><ele>97.0</ele><time>2026-03-22T10:12:20.546Z</time></trkpt><trkpt lat="42.2786433" lon="14.4347405"><ele>96.00000000000001</ele><time>2026-03-22T10:12:21.54Z</time></trkpt><trkpt lat="42.2785415" lon="14.4347241"><ele>95.0</ele><time>2026-03-22T10:12:23.547Z</time></trkpt><trkpt lat="42.2784659" lon="14.4347473"><ele>94.0</ele><time>2026-03-22T10:12:25.555Z</time></trkpt><trkpt lat="42.2784028" lon="14.4347191"><ele>93.0</ele><time>2026-03-22T10:12:26.545Z</time></trkpt><trkpt lat="42.2783288" lon="14.4346698"><ele>92.0</ele><time>2026-03-22T10:12:27.541Z</time></trkpt><trkpt lat="42.2782401" lon="14.4346484"><ele>91.0</ele><time>2026-03-22T10:12:28.553Z</time></trkpt><trkpt lat="42.2781482" lon="14.4346206"><ele>90.5</ele><time>2026-03-22T10:12:29.548Z</time></trkpt><trkpt lat="42.278055" lon="14.4345829"><ele>90.0</ele><time>2026-03-22T10:12:30.544Z</time></trkpt><trkpt lat="42.2779533" lon="14.4345547"><ele>89.5</ele><time>2026-03-22T10:12:31.551Z</time></trkpt><trkpt lat="42.277862" lon="14.4345387"><ele>89.0</ele><time>2026-03-22T10:12:32.547Z</time></trkpt><trkpt lat="42.277788" lon="14.4345643"><ele>88.5</ele><time>2026-03-22T10:12:33.555Z</time></trkpt><trkpt lat="42.2777289" lon="14.4346263"><ele>88.0</ele><time>2026-03-22T10:12:34.549Z</time></trkpt><trkpt lat="42.2776666" lon="14.4346948"><ele>91.5</ele><time>2026-03-22T10:12:35.552Z</time></trkpt><trkpt lat="42.2776238" lon="14.4347837"><ele>95.0</ele><time>2026-03-22T10:12:36.545Z</time></trkpt><trkpt lat="42.2776035" lon="14.4348816"><ele>98.5</ele><time>2026-03-22T10:12:37.551Z</time></trkpt><trkpt lat="42.2776177" lon="14.4350029"><ele>102.0</ele><time>2026-03-22T10:12:38.55Z</time></trkpt><trkpt lat="42.2776327" lon="14.4351248"><ele>105.50000000000001</ele><time>2026-03-22T10:12:39.531Z</time></trkpt><trkpt lat="42.2776548" lon="14.4352662"><ele>109.0</ele><time>2026-03-22T10:12:40.53Z</time></trkpt><trkpt lat="42.27771" lon="14.4354293"><ele>112.2</ele><time>2026-03-22T10:12:41.519Z</time></trkpt><trkpt lat="42.2777738" lon="14.4355731"><ele>115.4</ele><time>2026-03-22T10:12:42.523Z</time></trkpt><trkpt lat="42.2778368" lon="14.4356267"><ele>118.6</ele><time>2026-03-22T10:12:43.517Z</time></trkpt><trkpt lat="42.2779078" lon="14.435637"><ele>121.8</ele><time>2026-03-22T10:12:44.519Z</time></trkpt><trkpt lat="42.2780018" lon="14.4356498"><ele>125.0</ele><time>2026-03-22T10:12:45.522Z</time></trkpt><trkpt lat="42.2781041" lon="14.4356747"><ele>125.0</ele><time>2026-03-22T10:12:46.53Z</time></trkpt><trkpt lat="42.2781921" lon="14.4357465"><ele>125.0</ele><time>2026-03-22T10:12:47.532Z</time></trkpt><trkpt lat="42.278275" lon="14.4358442"><ele>125.0</ele><time>2026-03-22T10:12:48.544Z</time></trkpt><trkpt lat="42.2783719" lon="14.4359253"><ele>125.0</ele><time>2026-03-22T10:12:49.54Z</time></trkpt><trkpt lat="42.2784774" lon="14.4360069"><ele>125.0</ele><time>2026-03-22T10:12:50.535Z</time></trkpt><trkpt lat="42.2785994" lon="14.4360815"><ele>125.0</ele><time>2026-03-22T10:12:51.545Z</time></trkpt><trkpt lat="42.278727" lon="14.4361729"><ele>125.0</ele><time>2026-03-22T10:12:52.544Z</time></trkpt><trkpt lat="42.2788581" lon="14.4362536"><ele>125.0</ele><time>2026-03-22T10:12:53.546Z</time></trkpt><trkpt lat="42.2789919" lon="14.4363329"><ele>125.0</ele><time>2026-03-22T10:12:54.541Z</time></trkpt><trkpt lat="42.2791109" lon="14.4364284"><ele>129.0</ele><time>2026-03-22T10:12:55.54Z</time></trkpt><trkpt lat="42.2792085" lon="14.4364724"><ele>133.0</ele><time>2026-03-22T10:12:57.552Z</time></trkpt><trkpt lat="42.2793171" lon="14.4364674"><ele>137.0</ele><time>2026-03-22T10:13:00.549Z</time></trkpt><trkpt lat="42.2794194" lon="14.4364616"><ele>141.0</ele><time>2026-03-22T10:13:01.549Z</time></trkpt><trkpt lat="42.2794934" lon="14.4364391"><ele>145.0</ele><time>2026-03-22T10:13:02.554Z</time></trkpt><trkpt lat="42.2795572" lon="14.4363944"><ele>145.0</ele><time>2026-03-22T10:13:03.551Z</time></trkpt><trkpt lat="42.2796093" lon="14.4363354"><ele>145.0</ele><time>2026-03-22T10:13:04.558Z</time></trkpt><trkpt lat="42.279644" lon="14.4362616"><ele>145.0</ele><time>2026-03-22T10:13:05.551Z</time></trkpt><trkpt lat="42.2797004" lon="14.4361673"><ele>145.0</ele><time>2026-03-22T10:13:07.545Z</time></trkpt><trkpt lat="42.2797498" lon="14.4360956"><ele>145.0</ele><time>2026-03-22T10:13:11.539Z</time></trkpt><trkpt lat="42.2797253" lon="14.4360084"><ele>145.0</ele><time>2026-03-22T10:13:13.543Z</time></trkpt><trkpt lat="42.2797467" lon="14.4358182"><ele>139.2</ele><time>2026-03-22T10:13:15.552Z</time></trkpt><trkpt lat="42.2797806" lon="14.435681"><ele>133.4</ele><time>2026-03-22T10:13:16.548Z</time></trkpt><trkpt lat="42.2798076" lon="14.4355265"><ele>127.6</ele><time>2026-03-22T10:13:17.547Z</time></trkpt><trkpt lat="42.2798268" lon="14.4353782"><ele>121.8</ele><time>2026-03-22T10:13:18.55Z</time></trkpt><trkpt lat="42.279846" lon="14.4352301"><ele>116.0</ele><time>2026-03-22T10:13:19.554Z</time></trkpt><trkpt lat="42.2798623" lon="14.4350888"><ele>112.8</ele><time>2026-03-22T10:13:20.551Z</time></trkpt><trkpt lat="42.27987" lon="14.4349746"><ele>109.6</ele><time>2026-03-22T10:13:21.558Z</time></trkpt><trkpt lat="42.2798838" lon="14.434887"><ele>106.4</ele><time>2026-03-22T10:13:22.553Z</time></trkpt><trkpt lat="42.2799962" lon="14.4348286"><ele>103.2</ele><time>2026-03-22T10:13:24.552Z</time></trkpt><trkpt lat="42.2801017" lon="14.4348107"><ele>100.0</ele><time>2026-03-22T10:13:25.55Z</time></trkpt><trkpt lat="42.2802119" lon="14.4347899"><ele>100.0</ele><time>2026-03-22T10:13:26.541Z</time></trkpt><trkpt lat="42.2803119" lon="14.4347677"><ele>100.0</ele><time>2026-03-22T10:13:27.547Z</time></trkpt><trkpt lat="42.2804124" lon="14.4347593"><ele>100.0</ele><time>2026-03-22T10:13:28.546Z</time></trkpt><trkpt lat="42.2805243" lon="14.4347474"><ele>100.0</ele><time>2026-03-22T10:13:29.55Z</time></trkpt><trkpt lat="42.2806467" lon="14.4347224"><ele>100.0</ele><time>2026-03-22T10:13:30.555Z</time></trkpt><trkpt lat="42.2807715" lon="14.4346833"><ele>100.5</ele><time>2026-03-22T10:13:31.556Z</time></trkpt><trkpt lat="42.2809004" lon="14.4346406"><ele>101.0</ele><time>2026-03-22T10:13:32.549Z</time></trkpt><trkpt lat="42.2810202" lon="14.4346084"><ele>101.5</ele><time>2026-03-22T10:13:33.548Z</time></trkpt><trkpt lat="42.2811363" lon="14.434582"><ele>102.0</ele><time>2026-03-22T10:13:34.545Z</time></trkpt><trkpt lat="42.2812488" lon="14.4345547"><ele>99.8</ele><time>2026-03-22T10:13:35.537Z</time></trkpt><trkpt lat="42.2813459" lon="14.4345294"><ele>97.6</ele><time>2026-03-22T10:13:36.535Z</time></trkpt><trkpt lat="42.2814333" lon="14.4344987"><ele>95.39999999999999</ele><time>2026-03-22T10:13:37.541Z</time></trkpt><trkpt lat="42.281522" lon="14.4344756"><ele>93.19999999999999</ele><time>2026-03-22T10:13:38.542Z</time></trkpt><trkpt lat="42.2815922" lon="14.4344499"><ele>91.0</ele><time>2026-03-22T10:13:39.551Z</time></trkpt><trkpt lat="42.2816308" lon="14.4345773"><ele>93.42857142857143</ele><time>2026-03-22T10:13:44.542Z</time></trkpt><trkpt lat="42.2816514" lon="14.4346863"><ele>95.85714285714286</ele><time>2026-03-22T10:13:46.542Z</time></trkpt><trkpt lat="42.2816758" lon="14.4347666"><ele>98.28571428571428</ele><time>2026-03-22T10:13:47.545Z</time></trkpt><trkpt lat="42.2817243" lon="14.43484"><ele>100.71428571428572</ele><time>2026-03-22T10:13:48.542Z</time></trkpt><trkpt lat="42.2817793" lon="14.4348898"><ele>103.14285714285714</ele><time>2026-03-22T10:13:49.549Z</time></trkpt><trkpt lat="42.2818329" lon="14.4349355"><ele>105.57142857142857</ele><time>2026-03-22T10:13:50.537Z</time></trkpt><trkpt lat="42.2818955" lon="14.4349713"><ele>108.0</ele><time>2026-03-22T10:13:51.544Z</time></trkpt><trkpt lat="42.2819589" lon="14.4349923"><ele>108.0</ele><time>2026-03-22T10:13:52.538Z</time></trkpt><trkpt lat="42.2820312" lon="14.4350098"><ele>108.00000000000001</ele><time>2026-03-22T10:13:53.534Z</time></trkpt><trkpt lat="42.2820969" lon="14.4350197"><ele>108.00000000000001</ele><time>2026-03-22T10:13:54.551Z</time></trkpt><trkpt lat="42.2821958" lon="14.4350663"><ele>108.0</ele><time>2026-03-22T10:13:56.541Z</time></trkpt><trkpt lat="42.2822984" lon="14.4351381"><ele>108.0</ele><time>2026-03-22T10:13:58.536Z</time></trkpt><trkpt lat="42.2823974" lon="14.4352069"><ele>108.16666666666667</ele><time>2026-03-22T10:14:00.533Z</time></trkpt><trkpt lat="42.2824573" lon="14.4352383"><ele>108.33333333333334</ele><time>2026-03-22T10:14:01.532Z</time></trkpt><trkpt lat="42.2825755" lon="14.4352588"><ele>108.5</ele><time>2026-03-22T10:14:03.544Z</time></trkpt><trkpt lat="42.2826656" lon="14.4353114"><ele>108.66666666666667</ele><time>2026-03-22T10:14:05.544Z</time></trkpt><trkpt lat="42.2827268" lon="14.4353627"><ele>108.83333333333334</ele><time>2026-03-22T10:14:26.564Z</time></trkpt><trkpt lat="42.2827937" lon="14.4354295"><ele>109.0</ele><time>2026-03-22T10:14:43.567Z</time></trkpt><trkpt lat="42.2828031" lon="14.4355149"><ele>113.00000000000001</ele><time>2026-03-22T10:14:56.568Z</time></trkpt><trkpt lat="42.2827782" lon="14.4356018"><ele>117.0</ele><time>2026-03-22T10:16:15.539Z</time></trkpt><trkpt lat="42.2828415" lon="14.4356267"><ele>121.0</ele><time>2026-03-22T10:16:22.539Z</time></trkpt><trkpt lat="42.2829305" lon="14.4356262"><ele>125.0</ele><time>2026-03-22T10:16:25.531Z</time></trkpt><trkpt lat="42.2829763" lon="14.4357131"><ele>129.0</ele><time>2026-03-22T10:16:28.537Z</time></trkpt><trkpt lat="42.283031" lon="14.4358487"><ele>133.0</ele><time>2026-03-22T10:16:31.531Z</time></trkpt><trkpt lat="42.2830584" lon="14.4359401"><ele>131.8</ele><time>2026-03-22T10:16:55.54Z</time></trkpt><trkpt lat="42.2831066" lon="14.4360144"><ele>130.60000000000002</ele><time>2026-03-22T10:17:01.533Z</time></trkpt><trkpt lat="42.2831674" lon="14.4360466"><ele>129.39999999999998</ele><time>2026-03-22T10:17:03.534Z</time></trkpt><trkpt lat="42.2832392" lon="14.4360616"><ele>128.2</ele><time>2026-03-22T10:17:06.526Z</time></trkpt><trkpt lat="42.2833953" lon="14.4361121"><ele>127.0</ele><time>2026-03-22T10:17:08.53Z</time></trkpt><trkpt lat="42.2834969" lon="14.4361352"><ele>127.00000000000001</ele><time>2026-03-22T10:17:09.525Z</time></trkpt><trkpt lat="42.2836023" lon="14.4361416"><ele>127.0</ele><time>2026-03-22T10:17:10.529Z</time></trkpt><trkpt lat="42.2837" lon="14.4361431"><ele>127.0</ele><time>2026-03-22T10:17:11.529Z</time></trkpt><trkpt lat="42.2837699" lon="14.4361988"><ele>127.0</ele><time>2026-03-22T10:17:13.536Z</time></trkpt><trkpt lat="42.2838383" lon="14.4362425"><ele>127.00000000000001</ele><time>2026-03-22T10:17:17.532Z</time></trkpt><trkpt lat="42.2839054" lon="14.4362096"><ele>127.0</ele><time>2026-03-22T10:17:19.525Z</time></trkpt><trkpt lat="42.2840584" lon="14.4362224"><ele>128.83333333333334</ele><time>2026-03-22T10:17:23.533Z</time></trkpt><trkpt lat="42.2841549" lon="14.4362584"><ele>130.66666666666669</ele><time>2026-03-22T10:17:27.529Z</time></trkpt><trkpt lat="42.2842414" lon="14.4362721"><ele>132.5</ele><time>2026-03-22T10:17:29.534Z</time></trkpt><trkpt lat="42.2843102" lon="14.4362866"><ele>134.33333333333334</ele><time>2026-03-22T10:17:31.532Z</time></trkpt><trkpt lat="42.2843768" lon="14.4362883"><ele>136.16666666666666</ele><time>2026-03-22T10:17:32.524Z</time></trkpt><trkpt lat="42.2844415" lon="14.4363074"><ele>138.0</ele><time>2026-03-22T10:17:33.526Z</time></trkpt><trkpt lat="42.2845235" lon="14.4363536"><ele>138.0</ele><time>2026-03-22T10:17:35.527Z</time></trkpt><trkpt lat="42.2845958" lon="14.4363711"><ele>138.0</ele><time>2026-03-22T10:17:40.528Z</time></trkpt><trkpt lat="42.2846623" lon="14.436372"><ele>138.0</ele><time>2026-03-22T10:17:42.536Z</time></trkpt><trkpt lat="42.2847472" lon="14.4364147"><ele>138.0</ele><time>2026-03-22T10:17:44.526Z</time></trkpt><trkpt lat="42.2849133" lon="14.4364452"><ele>138.0</ele><time>2026-03-22T10:17:49.533Z</time></trkpt><trkpt lat="42.2849655" lon="14.4365164"><ele>137.20000000000002</ele><time>2026-03-22T10:17:53.543Z</time></trkpt><trkpt lat="42.2850736" lon="14.436528"><ele>136.4</ele><time>2026-03-22T10:17:59.53Z</time></trkpt><trkpt lat="42.285156" lon="14.4365361"><ele>135.60000000000002</ele><time>2026-03-22T10:18:01.53Z</time></trkpt><trkpt lat="42.2852233" lon="14.436477"><ele>134.8</ele><time>2026-03-22T10:18:02.532Z</time></trkpt><trkpt lat="42.2853099" lon="14.4363862"><ele>134.0</ele><time>2026-03-22T10:18:04.529Z</time></trkpt><trkpt lat="42.2853772" lon="14.4364539"><ele>134.0</ele><time>2026-03-22T10:18:13.525Z</time></trkpt><trkpt lat="42.2854382" lon="14.4364877"><ele>134.0</ele><time>2026-03-22T10:18:15.532Z</time></trkpt><trkpt lat="42.285505" lon="14.4364945"><ele>134.0</ele><time>2026-03-22T10:18:16.526Z</time></trkpt><trkpt lat="42.2855771" lon="14.4365106"><ele>134.0</ele><time>2026-03-22T10:18:18.53Z</time></trkpt><trkpt lat="42.2856356" lon="14.4365571"><ele>134.0</ele><time>2026-03-22T10:18:20.535Z</time></trkpt><trkpt lat="42.2857108" lon="14.4366516"><ele>134.0</ele><time>2026-03-22T10:18:23.529Z</time></trkpt><trkpt lat="42.2857956" lon="14.4367131"><ele>131.83333333333331</ele><time>2026-03-22T10:18:25.529Z</time></trkpt><trkpt lat="42.2858666" lon="14.436778"><ele>129.66666666666666</ele><time>2026-03-22T10:18:27.532Z</time></trkpt><trkpt lat="42.2859208" lon="14.4368723"><ele>127.5</ele><time>2026-03-22T10:18:28.531Z</time></trkpt><trkpt lat="42.2859635" lon="14.4369366"><ele>125.33333333333334</ele><time>2026-03-22T10:18:29.532Z</time></trkpt><trkpt lat="42.2860892" lon="14.4369643"><ele>123.16666666666667</ele><time>2026-03-22T10:18:32.536Z</time></trkpt><trkpt lat="42.2861537" lon="14.4369994"><ele>121.0</ele><time>2026-03-22T10:18:33.533Z</time></trkpt><trkpt lat="42.2862029" lon="14.4370569"><ele>119.6</ele><time>2026-03-22T10:18:34.532Z</time></trkpt><trkpt lat="42.2862836" lon="14.4371836"><ele>118.19999999999999</ele><time>2026-03-22T10:18:36.53Z</time></trkpt><trkpt lat="42.2863162" lon="14.4373292"><ele>116.80000000000001</ele><time>2026-03-22T10:18:38.529Z</time></trkpt><trkpt lat="42.2863821" lon="14.4374248"><ele>115.4</ele><time>2026-03-22T10:18:40.534Z</time></trkpt><trkpt lat="42.2864408" lon="14.4375058"><ele>114.0</ele><time>2026-03-22T10:18:42.536Z</time></trkpt><trkpt lat="42.286511" lon="14.4375662"><ele>114.0</ele><time>2026-03-22T10:18:44.534Z</time></trkpt><trkpt lat="42.2865981" lon="14.4376347"><ele>114.0</ele><time>2026-03-22T10:18:46.539Z</time></trkpt><trkpt lat="42.2866964" lon="14.4377712"><ele>114.0</ele><time>2026-03-22T10:18:48.536Z</time></trkpt><trkpt lat="42.2867455" lon="14.4378649"><ele>114.0</ele><time>2026-03-22T10:18:49.541Z</time></trkpt><trkpt lat="42.2868126" lon="14.4379656"><ele>114.0</ele><time>2026-03-22T10:18:50.538Z</time></trkpt><trkpt lat="42.2868909" lon="14.4380756"><ele>114.4</ele><time>2026-03-22T10:18:51.538Z</time></trkpt><trkpt lat="42.2869734" lon="14.4381878"><ele>114.80000000000001</ele><time>2026-03-22T10:18:52.547Z</time></trkpt><trkpt lat="42.2870463" lon="14.4382907"><ele>115.19999999999999</ele><time>2026-03-22T10:18:53.541Z</time></trkpt><trkpt lat="42.2871008" lon="14.4383424"><ele>115.6</ele><time>2026-03-22T10:18:54.545Z</time></trkpt><trkpt lat="42.2872059" lon="14.438359"><ele>116.0</ele><time>2026-03-22T10:18:56.539Z</time></trkpt><trkpt lat="42.2872746" lon="14.4383497"><ele>116.0</ele><time>2026-03-22T10:18:57.539Z</time></trkpt><trkpt lat="42.287391" lon="14.4383638"><ele>116.0</ele><time>2026-03-22T10:18:59.535Z</time></trkpt><trkpt lat="42.2874947" lon="14.4383822"><ele>116.0</ele><time>2026-03-22T10:19:01.535Z</time></trkpt><trkpt lat="42.2875644" lon="14.438359"><ele>116.0</ele><time>2026-03-22T10:19:02.538Z</time></trkpt><trkpt lat="42.2876378" lon="14.4383367"><ele>116.0</ele><time>2026-03-22T10:19:03.537Z</time></trkpt><trkpt lat="42.2877326" lon="14.4383336"><ele>116.00000000000001</ele><time>2026-03-22T10:19:04.533Z</time></trkpt><trkpt lat="42.28783" lon="14.438331"><ele>116.0</ele><time>2026-03-22T10:19:05.535Z</time></trkpt><trkpt lat="42.2878978" lon="14.4383141"><ele>116.00000000000001</ele><time>2026-03-22T10:19:06.531Z</time></trkpt><trkpt lat="42.2879609" lon="14.4382774"><ele>116.00000000000001</ele><time>2026-03-22T10:19:07.532Z</time></trkpt><trkpt lat="42.2880179" lon="14.4382403"><ele>116.0</ele><time>2026-03-22T10:19:08.531Z</time></trkpt><trkpt lat="42.288068" lon="14.4381845"><ele>116.00000000000001</ele><time>2026-03-22T10:19:09.535Z</time></trkpt><trkpt lat="42.2881128" lon="14.4381172"><ele>116.00000000000001</ele><time>2026-03-22T10:19:10.537Z</time></trkpt><trkpt lat="42.2881545" lon="14.4380398"><ele>113.4</ele><time>2026-03-22T10:19:11.536Z</time></trkpt><trkpt lat="42.2882257" lon="14.4379903"><ele>110.8</ele><time>2026-03-22T10:19:13.538Z</time></trkpt><trkpt lat="42.2883064" lon="14.4380031"><ele>108.2</ele><time>2026-03-22T10:19:15.532Z</time></trkpt><trkpt lat="42.2884052" lon="14.4379612"><ele>105.60000000000001</ele><time>2026-03-22T10:19:18.53Z</time></trkpt><trkpt lat="42.288506" lon="14.4379581"><ele>103.0</ele><time>2026-03-22T10:19:20.532Z</time></trkpt><trkpt lat="42.2885866" lon="14.4380024"><ele>103.00000000000001</ele><time>2026-03-22T10:19:22.526Z</time></trkpt><trkpt lat="42.2886739" lon="14.4380092"><ele>103.0</ele><time>2026-03-22T10:19:27.525Z</time></trkpt><trkpt lat="42.2887642" lon="14.4379895"><ele>103.0</ele><time>2026-03-22T10:19:29.535Z</time></trkpt><trkpt lat="42.2888439" lon="14.4379377"><ele>103.0</ele><time>2026-03-22T10:19:31.533Z</time></trkpt><trkpt lat="42.2888794" lon="14.4378667"><ele>103.00000000000001</ele><time>2026-03-22T10:19:34.534Z</time></trkpt><trkpt lat="42.2889276" lon="14.4377581"><ele>103.0</ele><time>2026-03-22T10:19:37.529Z</time></trkpt><trkpt lat="42.2889589" lon="14.4376182"><ele>98.33333333333334</ele><time>2026-03-22T10:19:39.531Z</time></trkpt><trkpt lat="42.2889927" lon="14.4375174"><ele>93.66666666666667</ele><time>2026-03-22T10:19:40.531Z</time></trkpt><trkpt lat="42.2890891" lon="14.4375049"><ele>89.0</ele><time>2026-03-22T10:19:46.528Z</time></trkpt><trkpt lat="42.2891525" lon="14.4374831"><ele>84.33333333333334</ele><time>2026-03-22T10:19:47.524Z</time></trkpt><trkpt lat="42.2891926" lon="14.4374079"><ele>79.66666666666667</ele><time>2026-03-22T10:19:49.533Z</time></trkpt><trkpt lat="42.2892726" lon="14.4373971"><ele>75.0</ele><time>2026-03-22T10:19:51.529Z</time></trkpt><trkpt lat="42.2893274" lon="14.437311"><ele>75.0</ele><time>2026-03-22T10:19:53.535Z</time></trkpt><trkpt lat="42.2893068" lon="14.4372034"><ele>75.0</ele><time>2026-03-22T10:19:54.539Z</time></trkpt><trkpt lat="42.289288" lon="14.437076"><ele>75.0</ele><time>2026-03-22T10:19:55.538Z</time></trkpt><trkpt lat="42.2892714" lon="14.436954"><ele>75.0</ele><time>2026-03-22T10:19:56.531Z</time></trkpt><trkpt lat="42.2892559" lon="14.4368661"><ele>75.0</ele><time>2026-03-22T10:19:57.537Z</time></trkpt><trkpt lat="42.2892854" lon="14.4366967"><ele>73.33333333333333</ele><time>2026-03-22T10:19:59.534Z</time></trkpt><trkpt lat="42.2893274" lon="14.4365717"><ele>71.66666666666667</ele><time>2026-03-22T10:20:01.527Z</time></trkpt><trkpt lat="42.289391" lon="14.4365056"><ele>70.0</ele><time>2026-03-22T10:20:03.538Z</time></trkpt><trkpt lat="42.2894503" lon="14.4364653"><ele>68.33333333333334</ele><time>2026-03-22T10:20:05.552Z</time></trkpt><trkpt lat="42.2895152" lon="14.4364"><ele>66.66666666666667</ele><time>2026-03-22T10:20:08.53Z</time></trkpt><trkpt lat="42.2895583" lon="14.4363183"><ele>65.0</ele><time>2026-03-22T10:20:10.533Z</time></trkpt><trkpt lat="42.2895777" lon="14.436198"><ele>61.6</ele><time>2026-03-22T10:20:12.537Z</time></trkpt><trkpt lat="42.2896281" lon="14.4360603"><ele>58.2</ele><time>2026-03-22T10:20:14.533Z</time></trkpt><trkpt lat="42.2896678" lon="14.4359891"><ele>54.8</ele><time>2026-03-22T10:20:15.529Z</time></trkpt><trkpt lat="42.2896765" lon="14.4358678"><ele>51.4</ele><time>2026-03-22T10:20:17.539Z</time></trkpt><trkpt lat="42.2897901" lon="14.4357543"><ele>48.0</ele><time>2026-03-22T10:20:21.53Z</time></trkpt><trkpt lat="42.2898856" lon="14.4356594"><ele>45.0</ele><time>2026-03-22T10:20:22.533Z</time></trkpt><trkpt lat="42.2900344" lon="14.4355913"><ele>42.0</ele><time>2026-03-22T10:20:24.529Z</time></trkpt><trkpt lat="42.2901618" lon="14.4354781"><ele>39.0</ele><time>2026-03-22T10:20:25.535Z</time></trkpt><trkpt lat="42.2902783" lon="14.4353476"><ele>38.2</ele><time>2026-03-22T10:20:26.531Z</time></trkpt><trkpt lat="42.2903957" lon="14.4352102"><ele>37.4</ele><time>2026-03-22T10:20:27.537Z</time></trkpt><trkpt lat="42.2905037" lon="14.4351037"><ele>36.6</ele><time>2026-03-22T10:20:28.542Z</time></trkpt><trkpt lat="42.2905507" lon="14.4350425"><ele>35.8</ele><time>2026-03-22T10:20:29.541Z</time></trkpt><trkpt lat="42.29061" lon="14.4349975"><ele>35.0</ele><time>2026-03-22T10:20:30.534Z</time></trkpt><trkpt lat="42.2906981" lon="14.4349649"><ele>34.4</ele><time>2026-03-22T10:20:31.54Z</time></trkpt><trkpt lat="42.2908006" lon="14.4349792"><ele>33.8</ele><time>2026-03-22T10:20:32.539Z</time></trkpt><trkpt lat="42.2909116" lon="14.4350283"><ele>33.2</ele><time>2026-03-22T10:20:33.547Z</time></trkpt><trkpt lat="42.2909959" lon="14.4350797"><ele>32.6</ele><time>2026-03-22T10:20:34.533Z</time></trkpt><trkpt lat="42.2910736" lon="14.4351644"><ele>32.0</ele><time>2026-03-22T10:20:35.545Z</time></trkpt><trkpt lat="42.2911209" lon="14.4352549"><ele>32.0</ele><time>2026-03-22T10:20:36.539Z</time></trkpt><trkpt lat="42.291157" lon="14.4353474"><ele>32.0</ele><time>2026-03-22T10:20:37.541Z</time></trkpt><trkpt lat="42.2911674" lon="14.4354722"><ele>32.0</ele><time>2026-03-22T10:20:38.538Z</time></trkpt><trkpt lat="42.2911644" lon="14.4355977"><ele>32.0</ele><time>2026-03-22T10:20:39.541Z</time></trkpt><trkpt lat="42.291144" lon="14.4357832"><ele>32.0</ele><time>2026-03-22T10:20:40.54Z</time></trkpt><trkpt lat="42.2911426" lon="14.4359622"><ele>32.0</ele><time>2026-03-22T10:20:41.535Z</time></trkpt><trkpt lat="42.2911511" lon="14.4361291"><ele>32.0</ele><time>2026-03-22T10:20:42.534Z</time></trkpt><trkpt lat="42.2911768" lon="14.4362781"><ele>32.0</ele><time>2026-03-22T10:20:43.536Z</time></trkpt><trkpt lat="42.2912347" lon="14.4363971"><ele>32.0</ele><time>2026-03-22T10:20:44.537Z</time></trkpt><trkpt lat="42.2913094" lon="14.4365179"><ele>32.0</ele><time>2026-03-22T10:20:45.535Z</time></trkpt><trkpt lat="42.291408" lon="14.4365925"><ele>32.0</ele><time>2026-03-22T10:20:46.536Z</time></trkpt><trkpt lat="42.2915257" lon="14.436639"><ele>32.0</ele><time>2026-03-22T10:20:47.542Z</time></trkpt><trkpt lat="42.2916429" lon="14.4366637"><ele>32.0</ele><time>2026-03-22T10:20:48.543Z</time></trkpt><trkpt lat="42.2917775" lon="14.4366582"><ele>32.0</ele><time>2026-03-22T10:20:49.539Z</time></trkpt><trkpt lat="42.2919257" lon="14.4366395"><ele>32.0</ele><time>2026-03-22T10:20:50.537Z</time></trkpt><trkpt lat="42.2920739" lon="14.4366398"><ele>32.0</ele><time>2026-03-22T10:20:51.537Z</time></trkpt><trkpt lat="42.2922071" lon="14.4366655"><ele>32.0</ele><time>2026-03-22T10:20:52.539Z</time></trkpt><trkpt lat="42.2923362" lon="14.4366562"><ele>31.5</ele><time>2026-03-22T10:20:53.533Z</time></trkpt><trkpt lat="42.2924491" lon="14.4366189"><ele>31.0</ele><time>2026-03-22T10:20:54.541Z</time></trkpt><trkpt lat="42.2925465" lon="14.4365483"><ele>30.5</ele><time>2026-03-22T10:20:55.538Z</time></trkpt><trkpt lat="42.2926362" lon="14.4364307"><ele>30.0</ele><time>2026-03-22T10:20:56.542Z</time></trkpt><trkpt lat="42.2927425" lon="14.4363309"><ele>30.0</ele><time>2026-03-22T10:20:57.539Z</time></trkpt><trkpt lat="42.2928581" lon="14.436275"><ele>30.0</ele><time>2026-03-22T10:20:58.539Z</time></trkpt><trkpt lat="42.2929655" lon="14.4362279"><ele>30.0</ele><time>2026-03-22T10:20:59.537Z</time></trkpt><trkpt lat="42.2930647" lon="14.4362166"><ele>30.0</ele><time>2026-03-22T10:21:00.533Z</time></trkpt><trkpt lat="42.2931757" lon="14.4362383"><ele>30.0</ele><time>2026-03-22T10:21:01.536Z</time></trkpt><trkpt lat="42.2932813" lon="14.4362942"><ele>29.5</ele><time>2026-03-22T10:21:02.533Z</time></trkpt><trkpt lat="42.2934006" lon="14.4363729"><ele>29.0</ele><time>2026-03-22T10:21:03.535Z</time></trkpt><trkpt lat="42.2935067" lon="14.4364894"><ele>28.5</ele><time>2026-03-22T10:21:04.538Z</time></trkpt><trkpt lat="42.2935917" lon="14.4366296"><ele>28.0</ele><time>2026-03-22T10:21:05.538Z</time></trkpt><trkpt lat="42.2936757" lon="14.4368064"><ele>28.0</ele><time>2026-03-22T10:21:06.545Z</time></trkpt><trkpt lat="42.2937531" lon="14.4369425"><ele>28.0</ele><time>2026-03-22T10:21:07.538Z</time></trkpt><trkpt lat="42.2938337" lon="14.4370696"><ele>28.0</ele><time>2026-03-22T10:21:08.54Z</time></trkpt><trkpt lat="42.2939339" lon="14.4371876"><ele>28.0</ele><time>2026-03-22T10:21:09.533Z</time></trkpt><trkpt lat="42.2940296" lon="14.4372816"><ele>28.4</ele><time>2026-03-22T10:21:10.536Z</time></trkpt><trkpt lat="42.2941242" lon="14.4373647"><ele>28.799999999999997</ele><time>2026-03-22T10:21:11.536Z</time></trkpt><trkpt lat="42.2942159" lon="14.4374277"><ele>29.2</ele><time>2026-03-22T10:21:12.538Z</time></trkpt><trkpt lat="42.2943048" lon="14.4374876"><ele>29.6</ele><time>2026-03-22T10:21:13.534Z</time></trkpt><trkpt lat="42.2944133" lon="14.4375318"><ele>30.0</ele><time>2026-03-22T10:21:14.544Z</time></trkpt><trkpt lat="42.2945148" lon="14.4375886"><ele>30.0</ele><time>2026-03-22T10:21:15.543Z</time></trkpt><trkpt lat="42.2946181" lon="14.4377049"><ele>30.0</ele><time>2026-03-22T10:21:16.544Z</time></trkpt><trkpt lat="42.2947232" lon="14.4378435"><ele>30.0</ele><time>2026-03-22T10:21:17.544Z</time></trkpt><trkpt lat="42.2948485" lon="14.4379876"><ele>30.0</ele><time>2026-03-22T10:21:18.541Z</time></trkpt><trkpt lat="42.2949583" lon="14.4381331"><ele>29.333333333333336</ele><time>2026-03-22T10:21:19.542Z</time></trkpt><trkpt lat="42.2950926" lon="14.4382379"><ele>28.666666666666668</ele><time>2026-03-22T10:21:20.543Z</time></trkpt><trkpt lat="42.2952566" lon="14.4383277"><ele>28.0</ele><time>2026-03-22T10:21:21.543Z</time></trkpt><trkpt lat="42.2953865" lon="14.4384007"><ele>28.0</ele><time>2026-03-22T10:21:22.544Z</time></trkpt><trkpt lat="42.2955479" lon="14.4384476"><ele>28.0</ele><time>2026-03-22T10:21:23.543Z</time></trkpt><trkpt lat="42.2956767" lon="14.4384919"><ele>28.0</ele><time>2026-03-22T10:21:24.54Z</time></trkpt><trkpt lat="42.2957668" lon="14.4385631"><ele>28.0</ele><time>2026-03-22T10:21:25.539Z</time></trkpt><trkpt lat="42.2958574" lon="14.4386622"><ele>27.75</ele><time>2026-03-22T10:21:26.541Z</time></trkpt><trkpt lat="42.2959429" lon="14.4387722"><ele>27.5</ele><time>2026-03-22T10:21:27.545Z</time></trkpt><trkpt lat="42.2960233" lon="14.4389189"><ele>27.25</ele><time>2026-03-22T10:21:28.537Z</time></trkpt><trkpt lat="42.2960985" lon="14.4390934"><ele>27.0</ele><time>2026-03-22T10:21:29.539Z</time></trkpt><trkpt lat="42.2961987" lon="14.4392719"><ele>27.0</ele><time>2026-03-22T10:21:30.541Z</time></trkpt><trkpt lat="42.296266" lon="14.4394367"><ele>27.000000000000004</ele><time>2026-03-22T10:21:31.541Z</time></trkpt><trkpt lat="42.2963289" lon="14.439538"><ele>27.000000000000004</ele><time>2026-03-22T10:21:32.544Z</time></trkpt><trkpt lat="42.2963662" lon="14.4396076"><ele>27.0</ele><time>2026-03-22T10:21:33.542Z</time></trkpt><trkpt lat="42.2964751" lon="14.4397256"><ele>27.0</ele><time>2026-03-22T10:21:35.536Z</time></trkpt><trkpt lat="42.2965907" lon="14.4398"><ele>27.0</ele><time>2026-03-22T10:21:36.536Z</time></trkpt><trkpt lat="42.2966424" lon="14.4398653"><ele>27.000000000000004</ele><time>2026-03-22T10:21:37.544Z</time></trkpt><trkpt lat="42.2967581" lon="14.4398965"><ele>27.000000000000004</ele><time>2026-03-22T10:21:38.538Z</time></trkpt><trkpt lat="42.296865" lon="14.4399472"><ele>27.0</ele><time>2026-03-22T10:21:39.539Z</time></trkpt><trkpt lat="42.2969586" lon="14.4400025"><ele>27.0</ele><time>2026-03-22T10:21:40.54Z</time></trkpt><trkpt lat="42.2970578" lon="14.4400704"><ele>27.0</ele><time>2026-03-22T10:21:41.542Z</time></trkpt><trkpt lat="42.2971411" lon="14.4401541"><ele>27.000000000000004</ele><time>2026-03-22T10:21:42.536Z</time></trkpt><trkpt lat="42.2972044" lon="14.4402305"><ele>27.000000000000004</ele><time>2026-03-22T10:21:43.534Z</time></trkpt><trkpt lat="42.2972888" lon="14.4403057"><ele>27.0</ele><time>2026-03-22T10:21:44.538Z</time></trkpt><trkpt lat="42.2973716" lon="14.4403644"><ele>27.0</ele><time>2026-03-22T10:21:45.532Z</time></trkpt><trkpt lat="42.2974608" lon="14.4403817"><ele>25.8</ele><time>2026-03-22T10:21:46.537Z</time></trkpt><trkpt lat="42.2975679" lon="14.4403774"><ele>24.6</ele><time>2026-03-22T10:21:47.537Z</time></trkpt><trkpt lat="42.2976805" lon="14.4403907"><ele>23.400000000000002</ele><time>2026-03-22T10:21:48.534Z</time></trkpt><trkpt lat="42.2977797" lon="14.4403793"><ele>22.200000000000003</ele><time>2026-03-22T10:21:49.534Z</time></trkpt><trkpt lat="42.2978758" lon="14.4403797"><ele>21.0</ele><time>2026-03-22T10:21:50.539Z</time></trkpt><trkpt lat="42.2979712" lon="14.4403776"><ele>21.0</ele><time>2026-03-22T10:21:51.533Z</time></trkpt><trkpt lat="42.2980754" lon="14.4403533"><ele>21.0</ele><time>2026-03-22T10:21:52.537Z</time></trkpt><trkpt lat="42.2981688" lon="14.4403328"><ele>21.0</ele><time>2026-03-22T10:21:53.531Z</time></trkpt><trkpt lat="42.2982329" lon="14.4402882"><ele>21.0</ele><time>2026-03-22T10:21:54.53Z</time></trkpt><trkpt lat="42.2982977" lon="14.440242"><ele>21.0</ele><time>2026-03-22T10:21:56.533Z</time></trkpt><trkpt lat="42.2983856" lon="14.4401885"><ele>21.0</ele><time>2026-03-22T10:21:59.54Z</time></trkpt><trkpt lat="42.2984392" lon="14.4401214"><ele>21.0</ele><time>2026-03-22T10:22:00.545Z</time></trkpt><trkpt lat="42.298495" lon="14.440027"><ele>21.0</ele><time>2026-03-22T10:22:01.538Z</time></trkpt><trkpt lat="42.298554" lon="14.4398933"><ele>21.0</ele><time>2026-03-22T10:22:02.54Z</time></trkpt><trkpt lat="42.2986119" lon="14.4397466"><ele>21.0</ele><time>2026-03-22T10:22:03.536Z</time></trkpt><trkpt lat="42.2986613" lon="14.4395994"><ele>21.0</ele><time>2026-03-22T10:22:04.539Z</time></trkpt><trkpt lat="42.298703" lon="14.4394747"><ele>21.0</ele><time>2026-03-22T10:22:05.548Z</time></trkpt><trkpt lat="42.2987558" lon="14.4393874"><ele>21.0</ele><time>2026-03-22T10:22:06.542Z</time></trkpt><trkpt lat="42.2988229" lon="14.4392957"><ele>21.0</ele><time>2026-03-22T10:22:07.544Z</time></trkpt><trkpt lat="42.2988868" lon="14.439231"><ele>21.0</ele><time>2026-03-22T10:22:08.539Z</time></trkpt><trkpt lat="42.298939" lon="14.4391807"><ele>21.0</ele><time>2026-03-22T10:22:09.542Z</time></trkpt><trkpt lat="42.29906" lon="14.4392424"><ele>21.0</ele><time>2026-03-22T10:22:11.53Z</time></trkpt><trkpt lat="42.2991381" lon="14.4393241"><ele>21.0</ele><time>2026-03-22T10:22:12.542Z</time></trkpt><trkpt lat="42.2992001" lon="14.4394536"><ele>21.0</ele><time>2026-03-22T10:22:13.534Z</time></trkpt><trkpt lat="42.2992628" lon="14.4396152"><ele>21.0</ele><time>2026-03-22T10:22:14.54Z</time></trkpt><trkpt lat="42.2993301" lon="14.4397789"><ele>20.400000000000002</ele><time>2026-03-22T10:22:15.538Z</time></trkpt><trkpt lat="42.2993787" lon="14.4399016"><ele>19.8</ele><time>2026-03-22T10:22:16.545Z</time></trkpt><trkpt lat="42.2994405" lon="14.4400014"><ele>19.200000000000003</ele><time>2026-03-22T10:22:17.541Z</time></trkpt><trkpt lat="42.2995163" lon="14.4401031"><ele>18.6</ele><time>2026-03-22T10:22:18.538Z</time></trkpt><trkpt lat="42.2996075" lon="14.4402107"><ele>18.0</ele><time>2026-03-22T10:22:19.538Z</time></trkpt><trkpt lat="42.2997036" lon="14.4403429"><ele>18.0</ele><time>2026-03-22T10:22:20.544Z</time></trkpt><trkpt lat="42.2997941" lon="14.44048"><ele>18.0</ele><time>2026-03-22T10:22:21.543Z</time></trkpt><trkpt lat="42.2998754" lon="14.4406191"><ele>18.0</ele><time>2026-03-22T10:22:22.543Z</time></trkpt><trkpt lat="42.2999791" lon="14.4407326"><ele>18.0</ele><time>2026-03-22T10:22:23.539Z</time></trkpt><trkpt lat="42.3000961" lon="14.4408329"><ele>18.0</ele><time>2026-03-22T10:22:24.545Z</time></trkpt><trkpt lat="42.3002071" lon="14.4409293"><ele>18.0</ele><time>2026-03-22T10:22:25.54Z</time></trkpt><trkpt lat="42.3003045" lon="14.4410255"><ele>18.0</ele><time>2026-03-22T10:22:26.532Z</time></trkpt><trkpt lat="42.3003792" lon="14.441066"><ele>18.0</ele><time>2026-03-22T10:22:27.539Z</time></trkpt><trkpt lat="42.3004487" lon="14.4410656"><ele>18.0</ele><time>2026-03-22T10:22:28.541Z</time></trkpt><trkpt lat="42.3005197" lon="14.4410188"><ele>18.0</ele><time>2026-03-22T10:22:29.55Z</time></trkpt><trkpt lat="42.3005884" lon="14.4409304"><ele>18.0</ele><time>2026-03-22T10:22:30.545Z</time></trkpt><trkpt lat="42.3006576" lon="14.4408046"><ele>18.0</ele><time>2026-03-22T10:22:31.543Z</time></trkpt><trkpt lat="42.3007267" lon="14.4406682"><ele>18.0</ele><time>2026-03-22T10:22:32.542Z</time></trkpt><trkpt lat="42.3007975" lon="14.4405444"><ele>18.0</ele><time>2026-03-22T10:22:33.54Z</time></trkpt><trkpt lat="42.3008747" lon="14.4404384"><ele>17.833333333333332</ele><time>2026-03-22T10:22:34.536Z</time></trkpt><trkpt lat="42.3009523" lon="14.4403618"><ele>17.666666666666668</ele><time>2026-03-22T10:22:35.538Z</time></trkpt><trkpt lat="42.301015" lon="14.4402934"><ele>17.5</ele><time>2026-03-22T10:22:36.542Z</time></trkpt><trkpt lat="42.3010639" lon="14.4402259"><ele>17.333333333333336</ele><time>2026-03-22T10:22:37.541Z</time></trkpt><trkpt lat="42.3011402" lon="14.4401434"><ele>17.166666666666668</ele><time>2026-03-22T10:22:39.545Z</time></trkpt><trkpt lat="42.3012087" lon="14.4402047"><ele>17.0</ele><time>2026-03-22T10:22:41.547Z</time></trkpt><trkpt lat="42.3012717" lon="14.4402619"><ele>17.0</ele><time>2026-03-22T10:22:43.545Z</time></trkpt><trkpt lat="42.3013093" lon="14.4401433"><ele>17.0</ele><time>2026-03-22T10:22:45.542Z</time></trkpt><trkpt lat="42.3013102" lon="14.4400343"><ele>17.0</ele><time>2026-03-22T10:22:46.549Z</time></trkpt><trkpt lat="42.3013138" lon="14.4399134"><ele>17.0</ele><time>2026-03-22T10:22:47.542Z</time></trkpt><trkpt lat="42.301313" lon="14.4397818"><ele>17.0</ele><time>2026-03-22T10:22:48.543Z</time></trkpt><trkpt lat="42.3013238" lon="14.4396766"><ele>17.0</ele><time>2026-03-22T10:22:49.545Z</time></trkpt><trkpt lat="42.3013347" lon="14.4395853"><ele>17.333333333333336</ele><time>2026-03-22T10:22:50.548Z</time></trkpt><trkpt lat="42.3013473" lon="14.4394904"><ele>17.666666666666668</ele><time>2026-03-22T10:22:52.54Z</time></trkpt><trkpt lat="42.3013635" lon="14.4393661"><ele>18.0</ele><time>2026-03-22T10:30:59.564Z</time></trkpt><trkpt lat="42.301288" lon="14.4393051"><ele>18.333333333333332</ele><time>2026-03-22T10:31:02.573Z</time></trkpt><trkpt lat="42.3011924" lon="14.4392726"><ele>18.666666666666664</ele><time>2026-03-22T10:31:04.575Z</time></trkpt><trkpt lat="42.3011742" lon="14.4391772"><ele>19.0</ele><time>2026-03-22T10:31:06.572Z</time></trkpt><trkpt lat="42.3012061" lon="14.4390102"><ele>19.0</ele><time>2026-03-22T10:31:08.569Z</time></trkpt><trkpt lat="42.3012144" lon="14.4389135"><ele>19.0</ele><time>2026-03-22T10:31:10.571Z</time></trkpt><trkpt lat="42.3013138" lon="14.438902"><ele>19.0</ele><time>2026-03-22T10:31:13.563Z</time></trkpt><trkpt lat="42.3013757" lon="14.4388062"><ele>19.0</ele><time>2026-03-22T10:31:15.572Z</time></trkpt><trkpt lat="42.3014247" lon="14.4387473"><ele>19.0</ele><time>2026-03-22T10:31:16.579Z</time></trkpt><trkpt lat="42.3014793" lon="14.4386795"><ele>19.0</ele><time>2026-03-22T10:31:17.563Z</time></trkpt><trkpt lat="42.3015097" lon="14.4385254"><ele>19.799999999999997</ele><time>2026-03-22T10:31:19.571Z</time></trkpt><trkpt lat="42.3014901" lon="14.4384321"><ele>20.599999999999998</ele><time>2026-03-22T10:31:20.571Z</time></trkpt><trkpt lat="42.3014601" lon="14.4382935"><ele>21.4</ele><time>2026-03-22T10:31:21.57Z</time></trkpt><trkpt lat="42.3014213" lon="14.4381276"><ele>22.2</ele><time>2026-03-22T10:31:22.576Z</time></trkpt><trkpt lat="42.3013757" lon="14.4379609"><ele>23.0</ele><time>2026-03-22T10:31:23.571Z</time></trkpt><trkpt lat="42.3013229" lon="14.4378042"><ele>26.25</ele><time>2026-03-22T10:31:24.569Z</time></trkpt><trkpt lat="42.3012607" lon="14.4376795"><ele>29.5</ele><time>2026-03-22T10:31:25.564Z</time></trkpt><trkpt lat="42.3011835" lon="14.4375749"><ele>32.75</ele><time>2026-03-22T10:31:26.562Z</time></trkpt><trkpt lat="42.3010971" lon="14.4374714"><ele>36.0</ele><time>2026-03-22T10:31:27.567Z</time></trkpt><trkpt lat="42.3010099" lon="14.4373549"><ele>36.0</ele><time>2026-03-22T10:31:28.568Z</time></trkpt><trkpt lat="42.3009258" lon="14.4372326"><ele>36.0</ele><time>2026-03-22T10:31:29.568Z</time></trkpt><trkpt lat="42.3008698" lon="14.4370989"><ele>36.0</ele><time>2026-03-22T10:31:30.557Z</time></trkpt><trkpt lat="42.300822" lon="14.4369687"><ele>36.0</ele><time>2026-03-22T10:31:31.575Z</time></trkpt><trkpt lat="42.3007798" lon="14.4368736"><ele>36.0</ele><time>2026-03-22T10:31:32.577Z</time></trkpt><trkpt lat="42.3007181" lon="14.4368055"><ele>36.8</ele><time>2026-03-22T10:31:33.573Z</time></trkpt><trkpt lat="42.3006398" lon="14.4367661"><ele>37.6</ele><time>2026-03-22T10:31:34.571Z</time></trkpt><trkpt lat="42.3005307" lon="14.43674"><ele>38.4</ele><time>2026-03-22T10:31:35.572Z</time></trkpt><trkpt lat="42.300422" lon="14.4367142"><ele>39.2</ele><time>2026-03-22T10:31:36.581Z</time></trkpt><trkpt lat="42.3003242" lon="14.4366663"><ele>40.0</ele><time>2026-03-22T10:31:37.568Z</time></trkpt><trkpt lat="42.300239" lon="14.436589"><ele>42.6</ele><time>2026-03-22T10:31:38.563Z</time></trkpt><trkpt lat="42.3001471" lon="14.4365406"><ele>45.2</ele><time>2026-03-22T10:31:39.572Z</time></trkpt><trkpt lat="42.3000573" lon="14.4365341"><ele>47.8</ele><time>2026-03-22T10:31:40.572Z</time></trkpt><trkpt lat="42.2999614" lon="14.4365196"><ele>50.4</ele><time>2026-03-22T10:31:41.567Z</time></trkpt><trkpt lat="42.2998644" lon="14.436491"><ele>53.0</ele><time>2026-03-22T10:31:42.567Z</time></trkpt><trkpt lat="42.2997575" lon="14.4364782"><ele>55.2</ele><time>2026-03-22T10:31:43.559Z</time></trkpt><trkpt lat="42.2996437" lon="14.4365073"><ele>57.4</ele><time>2026-03-22T10:31:44.562Z</time></trkpt><trkpt lat="42.2995405" lon="14.4365334"><ele>59.60000000000001</ele><time>2026-03-22T10:31:45.566Z</time></trkpt><trkpt lat="42.2994606" lon="14.4365385"><ele>61.800000000000004</ele><time>2026-03-22T10:31:46.56Z</time></trkpt><trkpt lat="42.299372" lon="14.4364728"><ele>64.0</ele><time>2026-03-22T10:31:48.573Z</time></trkpt><trkpt lat="42.2993436" lon="14.4363734"><ele>66.0</ele><time>2026-03-22T10:31:49.57Z</time></trkpt><trkpt lat="42.2993218" lon="14.4362567"><ele>68.0</ele><time>2026-03-22T10:31:50.564Z</time></trkpt><trkpt lat="42.2993119" lon="14.436125"><ele>70.0</ele><time>2026-03-22T10:31:51.57Z</time></trkpt><trkpt lat="42.2993007" lon="14.4359665"><ele>72.0</ele><time>2026-03-22T10:31:52.563Z</time></trkpt><trkpt lat="42.2992836" lon="14.4357958"><ele>74.0</ele><time>2026-03-22T10:31:53.566Z</time></trkpt><trkpt lat="42.2992581" lon="14.4356204"><ele>76.5</ele><time>2026-03-22T10:31:54.561Z</time></trkpt><trkpt lat="42.29922" lon="14.4354333"><ele>79.0</ele><time>2026-03-22T10:31:55.564Z</time></trkpt><trkpt lat="42.2991818" lon="14.4352445"><ele>81.5</ele><time>2026-03-22T10:31:56.574Z</time></trkpt><trkpt lat="42.2991757" lon="14.4351017"><ele>84.0</ele><time>2026-03-22T10:31:57.565Z</time></trkpt><trkpt lat="42.299163" lon="14.4349239"><ele>84.0</ele><time>2026-03-22T10:31:58.556Z</time></trkpt><trkpt lat="42.2991843" lon="14.4347637"><ele>84.0</ele><time>2026-03-22T10:31:59.554Z</time></trkpt><trkpt lat="42.2992061" lon="14.4346108"><ele>84.0</ele><time>2026-03-22T10:32:00.559Z</time></trkpt><trkpt lat="42.2992848" lon="14.434508"><ele>84.0</ele><time>2026-03-22T10:32:01.562Z</time></trkpt><trkpt lat="42.2993578" lon="14.4343787"><ele>86.0</ele><time>2026-03-22T10:32:02.555Z</time></trkpt><trkpt lat="42.2994218" lon="14.4342864"><ele>88.0</ele><time>2026-03-22T10:32:03.561Z</time></trkpt><trkpt lat="42.2994682" lon="14.4341925"><ele>90.0</ele><time>2026-03-22T10:32:04.563Z</time></trkpt><trkpt lat="42.2994899" lon="14.4340859"><ele>92.0</ele><time>2026-03-22T10:32:05.568Z</time></trkpt><trkpt lat="42.2994916" lon="14.4339582"><ele>94.0</ele><time>2026-03-22T10:32:06.562Z</time></trkpt><trkpt lat="42.2994801" lon="14.4338106"><ele>96.0</ele><time>2026-03-22T10:32:07.558Z</time></trkpt><trkpt lat="42.2994789" lon="14.4336603"><ele>98.0</ele><time>2026-03-22T10:32:08.571Z</time></trkpt><trkpt lat="42.2994983" lon="14.4335155"><ele>100.0</ele><time>2026-03-22T10:32:09.573Z</time></trkpt><trkpt lat="42.2995279" lon="14.4333722"><ele>102.0</ele><time>2026-03-22T10:32:10.571Z</time></trkpt><trkpt lat="42.2995569" lon="14.4332234"><ele>104.0</ele><time>2026-03-22T10:32:11.572Z</time></trkpt><trkpt lat="42.2995836" lon="14.4330738"><ele>105.5</ele><time>2026-03-22T10:32:12.579Z</time></trkpt><trkpt lat="42.2996214" lon="14.4329189"><ele>107.0</ele><time>2026-03-22T10:32:13.576Z</time></trkpt><trkpt lat="42.2996595" lon="14.4327496"><ele>108.5</ele><time>2026-03-22T10:32:14.572Z</time></trkpt><trkpt lat="42.2996736" lon="14.4325801"><ele>110.0</ele><time>2026-03-22T10:32:15.569Z</time></trkpt><trkpt lat="42.2996663" lon="14.4324202"><ele>110.0</ele><time>2026-03-22T10:32:16.561Z</time></trkpt><trkpt lat="42.2996395" lon="14.4322588"><ele>110.0</ele><time>2026-03-22T10:32:17.566Z</time></trkpt><trkpt lat="42.2995894" lon="14.4320918"><ele>110.0</ele><time>2026-03-22T10:32:18.571Z</time></trkpt><trkpt lat="42.2995505" lon="14.4319051"><ele>110.0</ele><time>2026-03-22T10:32:19.577Z</time></trkpt><trkpt lat="42.2995376" lon="14.4317167"><ele>111.0</ele><time>2026-03-22T10:32:20.58Z</time></trkpt><trkpt lat="42.2995243" lon="14.431529"><ele>112.0</ele><time>2026-03-22T10:32:21.575Z</time></trkpt><trkpt lat="42.2995118" lon="14.4313769"><ele>113.0</ele><time>2026-03-22T10:32:22.583Z</time></trkpt><trkpt lat="42.2994783" lon="14.4312105"><ele>114.0</ele><time>2026-03-22T10:32:23.578Z</time></trkpt><trkpt lat="42.2994366" lon="14.4310361"><ele>114.75</ele><time>2026-03-22T10:32:24.578Z</time></trkpt><trkpt lat="42.2993958" lon="14.4308447"><ele>115.5</ele><time>2026-03-22T10:32:25.578Z</time></trkpt><trkpt lat="42.2993376" lon="14.4306447"><ele>116.25</ele><time>2026-03-22T10:32:26.581Z</time></trkpt><trkpt lat="42.2992968" lon="14.4304633"><ele>117.0</ele><time>2026-03-22T10:32:27.582Z</time></trkpt><trkpt lat="42.2992661" lon="14.4303242"><ele>117.0</ele><time>2026-03-22T10:32:28.575Z</time></trkpt><trkpt lat="42.2992288" lon="14.4301994"><ele>117.0</ele><time>2026-03-22T10:32:29.574Z</time></trkpt><trkpt lat="42.2991609" lon="14.43009"><ele>117.0</ele><time>2026-03-22T10:32:30.571Z</time></trkpt><trkpt lat="42.2990674" lon="14.4299964"><ele>117.0</ele><time>2026-03-22T10:32:31.569Z</time></trkpt><trkpt lat="42.2989576" lon="14.429894"><ele>117.75</ele><time>2026-03-22T10:32:32.574Z</time></trkpt><trkpt lat="42.2988318" lon="14.429806"><ele>118.5</ele><time>2026-03-22T10:32:33.574Z</time></trkpt><trkpt lat="42.2987228" lon="14.4297397"><ele>119.25</ele><time>2026-03-22T10:32:34.58Z</time></trkpt><trkpt lat="42.2985965" lon="14.429709"><ele>120.0</ele><time>2026-03-22T10:32:35.573Z</time></trkpt><trkpt lat="42.2984688" lon="14.4296918"><ele>120.0</ele><time>2026-03-22T10:32:36.577Z</time></trkpt><trkpt lat="42.2983601" lon="14.4296623"><ele>120.0</ele><time>2026-03-22T10:32:37.578Z</time></trkpt><trkpt lat="42.2982922" lon="14.429562"><ele>120.0</ele><time>2026-03-22T10:32:38.572Z</time></trkpt><trkpt lat="42.2982446" lon="14.4294264"><ele>120.0</ele><time>2026-03-22T10:32:39.582Z</time></trkpt><trkpt lat="42.2982104" lon="14.4292331"><ele>121.33333333333334</ele><time>2026-03-22T10:32:40.577Z</time></trkpt><trkpt lat="42.2981717" lon="14.4290411"><ele>122.66666666666667</ele><time>2026-03-22T10:32:41.573Z</time></trkpt><trkpt lat="42.2981128" lon="14.4288211"><ele>124.0</ele><time>2026-03-22T10:32:42.577Z</time></trkpt><trkpt lat="42.2980594" lon="14.4285833"><ele>124.66666666666667</ele><time>2026-03-22T10:32:43.573Z</time></trkpt><trkpt lat="42.2979856" lon="14.4283793"><ele>125.33333333333334</ele><time>2026-03-22T10:32:44.575Z</time></trkpt><trkpt lat="42.2979061" lon="14.4281919"><ele>126.0</ele><time>2026-03-22T10:32:45.566Z</time></trkpt><trkpt lat="42.2978232" lon="14.4280264"><ele>126.25</ele><time>2026-03-22T10:32:46.573Z</time></trkpt><trkpt lat="42.297757" lon="14.4278609"><ele>126.5</ele><time>2026-03-22T10:32:47.58Z</time></trkpt><trkpt lat="42.2976925" lon="14.42769"><ele>126.75</ele><time>2026-03-22T10:32:48.575Z</time></trkpt><trkpt lat="42.2976478" lon="14.4275098"><ele>127.0</ele><time>2026-03-22T10:32:49.571Z</time></trkpt><trkpt lat="42.297646" lon="14.4273122"><ele>128.0</ele><time>2026-03-22T10:32:50.577Z</time></trkpt><trkpt lat="42.2976626" lon="14.4270967"><ele>129.0</ele><time>2026-03-22T10:32:51.574Z</time></trkpt><trkpt lat="42.2976768" lon="14.4268632"><ele>130.0</ele><time>2026-03-22T10:32:52.575Z</time></trkpt><trkpt lat="42.2976655" lon="14.4266275"><ele>130.0</ele><time>2026-03-22T10:32:53.575Z</time></trkpt><trkpt lat="42.2976634" lon="14.4263864"><ele>130.0</ele><time>2026-03-22T10:32:54.57Z</time></trkpt><trkpt lat="42.2976625" lon="14.4261516"><ele>130.0</ele><time>2026-03-22T10:32:55.581Z</time></trkpt><trkpt lat="42.2976598" lon="14.425895"><ele>130.0</ele><time>2026-03-22T10:32:56.575Z</time></trkpt><trkpt lat="42.2976368" lon="14.4256459"><ele>130.0</ele><time>2026-03-22T10:32:57.577Z</time></trkpt><trkpt lat="42.2976059" lon="14.4253961"><ele>130.0</ele><time>2026-03-22T10:32:58.578Z</time></trkpt><trkpt lat="42.2975705" lon="14.4251565"><ele>130.0</ele><time>2026-03-22T10:32:59.575Z</time></trkpt><trkpt lat="42.297527" lon="14.4249048"><ele>130.0</ele><time>2026-03-22T10:33:00.579Z</time></trkpt><trkpt lat="42.2974864" lon="14.4246434"><ele>130.0</ele><time>2026-03-22T10:33:01.577Z</time></trkpt><trkpt lat="42.297438" lon="14.4243895"><ele>130.0</ele><time>2026-03-22T10:33:02.579Z</time></trkpt><trkpt lat="42.2973933" lon="14.4241261"><ele>130.0</ele><time>2026-03-22T10:33:03.581Z</time></trkpt><trkpt lat="42.2973674" lon="14.4238497"><ele>130.0</ele><time>2026-03-22T10:33:04.582Z</time></trkpt><trkpt lat="42.2973349" lon="14.4236162"><ele>131.33333333333334</ele><time>2026-03-22T10:33:05.581Z</time></trkpt><trkpt lat="42.2972891" lon="14.4233535"><ele>132.66666666666666</ele><time>2026-03-22T10:33:06.579Z</time></trkpt><trkpt lat="42.2972555" lon="14.4231037"><ele>134.0</ele><time>2026-03-22T10:33:07.58Z</time></trkpt><trkpt lat="42.2972181" lon="14.4228714"><ele>134.33333333333331</ele><time>2026-03-22T10:33:08.579Z</time></trkpt><trkpt lat="42.2971715" lon="14.4226389"><ele>134.66666666666666</ele><time>2026-03-22T10:33:09.575Z</time></trkpt><trkpt lat="42.2971556" lon="14.4223922"><ele>135.0</ele><time>2026-03-22T10:33:10.574Z</time></trkpt><trkpt lat="42.2971512" lon="14.4221255"><ele>135.33333333333334</ele><time>2026-03-22T10:33:11.57Z</time></trkpt><trkpt lat="42.2971581" lon="14.4218485"><ele>135.66666666666669</ele><time>2026-03-22T10:33:12.572Z</time></trkpt><trkpt lat="42.297175" lon="14.4215702"><ele>136.0</ele><time>2026-03-22T10:33:13.583Z</time></trkpt><trkpt lat="42.2971906" lon="14.4213493"><ele>136.66666666666669</ele><time>2026-03-22T10:33:14.577Z</time></trkpt><trkpt lat="42.2972026" lon="14.4211143"><ele>137.33333333333334</ele><time>2026-03-22T10:33:15.578Z</time></trkpt><trkpt lat="42.2972077" lon="14.4209123"><ele>138.0</ele><time>2026-03-22T10:33:16.573Z</time></trkpt><trkpt lat="42.2972031" lon="14.420723"><ele>138.0</ele><time>2026-03-22T10:33:17.567Z</time></trkpt><trkpt lat="42.2971944" lon="14.4205479"><ele>138.0</ele><time>2026-03-22T10:33:18.573Z</time></trkpt><trkpt lat="42.297176" lon="14.4203625"><ele>138.0</ele><time>2026-03-22T10:33:19.571Z</time></trkpt><trkpt lat="42.297173" lon="14.4201569"><ele>138.0</ele><time>2026-03-22T10:33:20.569Z</time></trkpt><trkpt lat="42.2971571" lon="14.4199349"><ele>139.0</ele><time>2026-03-22T10:33:21.574Z</time></trkpt><trkpt lat="42.2971148" lon="14.4196979"><ele>140.0</ele><time>2026-03-22T10:33:22.574Z</time></trkpt><trkpt lat="42.2970598" lon="14.4194629"><ele>141.0</ele><time>2026-03-22T10:33:23.576Z</time></trkpt><trkpt lat="42.2970071" lon="14.4192306"><ele>141.66666666666666</ele><time>2026-03-22T10:33:24.576Z</time></trkpt><trkpt lat="42.2969535" lon="14.4189729"><ele>142.33333333333331</ele><time>2026-03-22T10:33:25.577Z</time></trkpt><trkpt lat="42.2969017" lon="14.4187074"><ele>143.0</ele><time>2026-03-22T10:33:26.58Z</time></trkpt><trkpt lat="42.2968497" lon="14.4184655"><ele>143.0</ele><time>2026-03-22T10:33:27.577Z</time></trkpt><trkpt lat="42.2967934" lon="14.4182036"><ele>143.0</ele><time>2026-03-22T10:33:28.585Z</time></trkpt><trkpt lat="42.2967406" lon="14.4179475"><ele>143.0</ele><time>2026-03-22T10:33:29.592Z</time></trkpt><trkpt lat="42.2966833" lon="14.4176842"><ele>143.0</ele><time>2026-03-22T10:33:30.587Z</time></trkpt><trkpt lat="42.2966204" lon="14.4174495"><ele>143.0</ele><time>2026-03-22T10:33:31.584Z</time></trkpt><trkpt lat="42.2965616" lon="14.4172095"><ele>143.0</ele><time>2026-03-22T10:33:32.587Z</time></trkpt><trkpt lat="42.2965038" lon="14.4169606"><ele>143.33333333333331</ele><time>2026-03-22T10:33:33.585Z</time></trkpt><trkpt lat="42.2964362" lon="14.4167061"><ele>143.66666666666666</ele><time>2026-03-22T10:33:34.585Z</time></trkpt><trkpt lat="42.2963649" lon="14.4164798"><ele>144.0</ele><time>2026-03-22T10:33:35.582Z</time></trkpt><trkpt lat="42.296308" lon="14.4163139"><ele>144.0</ele><time>2026-03-22T10:33:36.583Z</time></trkpt><trkpt lat="42.296267" lon="14.4162049"><ele>144.0</ele><time>2026-03-22T10:33:37.577Z</time></trkpt><trkpt lat="42.2961842" lon="14.4160874"><ele>144.0</ele><time>2026-03-22T10:33:39.567Z</time></trkpt><trkpt lat="42.2961419" lon="14.4161555"><ele>144.0</ele><time>2026-03-22T10:33:40.555Z</time></trkpt><trkpt lat="42.2960829" lon="14.4162367"><ele>144.0</ele><time>2026-03-22T10:33:41.577Z</time></trkpt><trkpt lat="42.2960227" lon="14.4163435"><ele>144.0</ele><time>2026-03-22T10:33:42.567Z</time></trkpt><trkpt lat="42.2959466" lon="14.4164416"><ele>144.0</ele><time>2026-03-22T10:33:43.57Z</time></trkpt><trkpt lat="42.2958615" lon="14.4165419"><ele>144.0</ele><time>2026-03-22T10:33:44.572Z</time></trkpt><trkpt lat="42.295739" lon="14.4166618"><ele>144.0</ele><time>2026-03-22T10:33:45.568Z</time></trkpt><trkpt lat="42.2956215" lon="14.4167808"><ele>144.25</ele><time>2026-03-22T10:33:46.568Z</time></trkpt><trkpt lat="42.2954971" lon="14.4169155"><ele>144.5</ele><time>2026-03-22T10:33:47.57Z</time></trkpt><trkpt lat="42.295388" lon="14.4170253"><ele>144.75</ele><time>2026-03-22T10:33:48.564Z</time></trkpt><trkpt lat="42.2953146" lon="14.4171229"><ele>145.0</ele><time>2026-03-22T10:33:49.569Z</time></trkpt><trkpt lat="42.2952474" lon="14.4172028"><ele>143.8</ele><time>2026-03-22T10:33:50.567Z</time></trkpt><trkpt lat="42.2951759" lon="14.4172946"><ele>142.6</ele><time>2026-03-22T10:33:51.566Z</time></trkpt><trkpt lat="42.2951089" lon="14.4173819"><ele>141.4</ele><time>2026-03-22T10:33:52.57Z</time></trkpt><trkpt lat="42.2950583" lon="14.4174543"><ele>140.2</ele><time>2026-03-22T10:33:53.567Z</time></trkpt><trkpt lat="42.2950108" lon="14.4175599"><ele>139.0</ele><time>2026-03-22T10:33:54.57Z</time></trkpt><trkpt lat="42.2949676" lon="14.4176966"><ele>139.0</ele><time>2026-03-22T10:33:55.57Z</time></trkpt><trkpt lat="42.2949107" lon="14.4178413"><ele>139.0</ele><time>2026-03-22T10:33:56.565Z</time></trkpt><trkpt lat="42.2948382" lon="14.4179856"><ele>139.0</ele><time>2026-03-22T10:33:57.561Z</time></trkpt><trkpt lat="42.294759" lon="14.4181077"><ele>139.0</ele><time>2026-03-22T10:33:58.559Z</time></trkpt><trkpt lat="42.2946798" lon="14.4182224"><ele>135.25</ele><time>2026-03-22T10:33:59.551Z</time></trkpt><trkpt lat="42.2945738" lon="14.4183592"><ele>131.5</ele><time>2026-03-22T10:34:00.566Z</time></trkpt><trkpt lat="42.2944903" lon="14.4184852"><ele>127.75</ele><time>2026-03-22T10:34:01.557Z</time></trkpt><trkpt lat="42.294406" lon="14.4185834"><ele>124.0</ele><time>2026-03-22T10:34:02.556Z</time></trkpt><trkpt lat="42.2943158" lon="14.4186591"><ele>124.0</ele><time>2026-03-22T10:34:03.553Z</time></trkpt><trkpt lat="42.294227" lon="14.4187393"><ele>124.0</ele><time>2026-03-22T10:34:04.559Z</time></trkpt><trkpt lat="42.294143" lon="14.4188281"><ele>124.0</ele><time>2026-03-22T10:34:05.565Z</time></trkpt><trkpt lat="42.2940425" lon="14.4189158"><ele>124.0</ele><time>2026-03-22T10:34:06.556Z</time></trkpt><trkpt lat="42.2939479" lon="14.4189913"><ele>124.0</ele><time>2026-03-22T10:34:07.556Z</time></trkpt><trkpt lat="42.2938723" lon="14.4190535"><ele>123.0</ele><time>2026-03-22T10:34:08.562Z</time></trkpt><trkpt lat="42.2938005" lon="14.4191239"><ele>122.0</ele><time>2026-03-22T10:34:09.56Z</time></trkpt><trkpt lat="42.2937409" lon="14.4191864"><ele>121.0</ele><time>2026-03-22T10:34:10.558Z</time></trkpt><trkpt lat="42.2937228" lon="14.4193424"><ele>120.0</ele><time>2026-03-22T10:34:12.561Z</time></trkpt><trkpt lat="42.2937541" lon="14.419456"><ele>119.0</ele><time>2026-03-22T10:34:13.562Z</time></trkpt><trkpt lat="42.2938032" lon="14.4196124"><ele>121.25</ele><time>2026-03-22T10:34:14.559Z</time></trkpt><trkpt lat="42.2938653" lon="14.4198031"><ele>123.5</ele><time>2026-03-22T10:34:15.565Z</time></trkpt><trkpt lat="42.2939116" lon="14.4199935"><ele>125.75</ele><time>2026-03-22T10:34:16.571Z</time></trkpt><trkpt lat="42.2939512" lon="14.420162"><ele>128.0</ele><time>2026-03-22T10:34:17.575Z</time></trkpt><trkpt lat="42.2939843" lon="14.4203372"><ele>122.75</ele><time>2026-03-22T10:34:18.576Z</time></trkpt><trkpt lat="42.2940095" lon="14.4205002"><ele>117.5</ele><time>2026-03-22T10:34:19.573Z</time></trkpt><trkpt lat="42.2940571" lon="14.4206771"><ele>112.25</ele><time>2026-03-22T10:34:20.571Z</time></trkpt><trkpt lat="42.294111" lon="14.420866"><ele>107.0</ele><time>2026-03-22T10:34:21.573Z</time></trkpt><trkpt lat="42.294172" lon="14.4210447"><ele>107.0</ele><time>2026-03-22T10:34:22.578Z</time></trkpt><trkpt lat="42.2942041" lon="14.4212155"><ele>106.99999999999999</ele><time>2026-03-22T10:34:23.568Z</time></trkpt><trkpt lat="42.2942278" lon="14.4213212"><ele>106.99999999999999</ele><time>2026-03-22T10:34:24.574Z</time></trkpt><trkpt lat="42.2941653" lon="14.4214352"><ele>107.0</ele><time>2026-03-22T10:34:26.562Z</time></trkpt><trkpt lat="42.2941106" lon="14.4214852"><ele>107.0</ele><time>2026-03-22T10:34:27.573Z</time></trkpt><trkpt lat="42.2940295" lon="14.4215198"><ele>107.16666666666666</ele><time>2026-03-22T10:34:28.561Z</time></trkpt><trkpt lat="42.2939698" lon="14.4215786"><ele>107.33333333333333</ele><time>2026-03-22T10:34:29.564Z</time></trkpt><trkpt lat="42.2939185" lon="14.4216455"><ele>107.5</ele><time>2026-03-22T10:34:30.583Z</time></trkpt><trkpt lat="42.2938542" lon="14.4217328"><ele>107.66666666666666</ele><time>2026-03-22T10:34:31.573Z</time></trkpt><trkpt lat="42.2937865" lon="14.4218085"><ele>107.83333333333333</ele><time>2026-03-22T10:34:32.562Z</time></trkpt><trkpt lat="42.2937318" lon="14.4218551"><ele>108.0</ele><time>2026-03-22T10:34:33.584Z</time></trkpt><trkpt lat="42.2936408" lon="14.4218171"><ele>111.66666666666667</ele><time>2026-03-22T10:34:35.572Z</time></trkpt><trkpt lat="42.2935793" lon="14.4217586"><ele>115.33333333333334</ele><time>2026-03-22T10:34:36.573Z</time></trkpt><trkpt lat="42.2935129" lon="14.4216893"><ele>119.0</ele><time>2026-03-22T10:34:37.578Z</time></trkpt><trkpt lat="42.2934521" lon="14.4216335"><ele>122.66666666666667</ele><time>2026-03-22T10:34:38.572Z</time></trkpt><trkpt lat="42.2933939" lon="14.4215958"><ele>126.33333333333334</ele><time>2026-03-22T10:34:39.567Z</time></trkpt><trkpt lat="42.2932762" lon="14.4215879"><ele>130.0</ele><time>2026-03-22T10:34:41.567Z</time></trkpt><trkpt lat="42.2931465" lon="14.421677"><ele>132.5</ele><time>2026-03-22T10:34:43.57Z</time></trkpt><trkpt lat="42.2930457" lon="14.4217315"><ele>135.0</ele><time>2026-03-22T10:34:44.564Z</time></trkpt><trkpt lat="42.2929358" lon="14.4217883"><ele>137.5</ele><time>2026-03-22T10:34:45.569Z</time></trkpt><trkpt lat="42.2928105" lon="14.4218456"><ele>140.0</ele><time>2026-03-22T10:34:46.572Z</time></trkpt><trkpt lat="42.2927149" lon="14.4218815"><ele>140.0</ele><time>2026-03-22T10:34:47.575Z</time></trkpt><trkpt lat="42.2926309" lon="14.421914"><ele>140.0</ele><time>2026-03-22T10:34:48.578Z</time></trkpt><trkpt lat="42.2925374" lon="14.4219257"><ele>140.0</ele><time>2026-03-22T10:34:49.579Z</time></trkpt><trkpt lat="42.2924267" lon="14.4219037"><ele>140.0</ele><time>2026-03-22T10:34:50.591Z</time></trkpt><trkpt lat="42.2923113" lon="14.421856"><ele>140.0</ele><time>2026-03-22T10:34:51.586Z</time></trkpt><trkpt lat="42.2921976" lon="14.4217989"><ele>140.0</ele><time>2026-03-22T10:34:52.599Z</time></trkpt><trkpt lat="42.2920847" lon="14.4217471"><ele>140.0</ele><time>2026-03-22T10:34:53.584Z</time></trkpt><trkpt lat="42.2919584" lon="14.4217098"><ele>140.0</ele><time>2026-03-22T10:34:54.577Z</time></trkpt><trkpt lat="42.2918273" lon="14.4216684"><ele>140.0</ele><time>2026-03-22T10:34:55.589Z</time></trkpt><trkpt lat="42.2917034" lon="14.4216227"><ele>140.0</ele><time>2026-03-22T10:34:56.581Z</time></trkpt><trkpt lat="42.2915671" lon="14.4215812"><ele>140.0</ele><time>2026-03-22T10:34:57.581Z</time></trkpt><trkpt lat="42.2914345" lon="14.4215591"><ele>140.0</ele><time>2026-03-22T10:34:58.587Z</time></trkpt><trkpt lat="42.291296" lon="14.4215439"><ele>140.0</ele><time>2026-03-22T10:34:59.582Z</time></trkpt><trkpt lat="42.2911452" lon="14.4215074"><ele>140.25</ele><time>2026-03-22T10:35:00.583Z</time></trkpt><trkpt lat="42.2909838" lon="14.4214391"><ele>140.5</ele><time>2026-03-22T10:35:01.582Z</time></trkpt><trkpt lat="42.290846" lon="14.4213852"><ele>140.75</ele><time>2026-03-22T10:35:02.588Z</time></trkpt><trkpt lat="42.2907181" lon="14.4213365"><ele>141.0</ele><time>2026-03-22T10:35:03.585Z</time></trkpt><trkpt lat="42.2906006" lon="14.4212639"><ele>140.75</ele><time>2026-03-22T10:35:04.583Z</time></trkpt><trkpt lat="42.2904752" lon="14.4211918"><ele>140.5</ele><time>2026-03-22T10:35:05.587Z</time></trkpt><trkpt lat="42.2903478" lon="14.4211612"><ele>140.25</ele><time>2026-03-22T10:35:06.575Z</time></trkpt><trkpt lat="42.2902215" lon="14.4211396"><ele>140.0</ele><time>2026-03-22T10:35:07.574Z</time></trkpt><trkpt lat="42.2901035" lon="14.4211573"><ele>140.0</ele><time>2026-03-22T10:35:08.577Z</time></trkpt><trkpt lat="42.290001" lon="14.4211823"><ele>140.0</ele><time>2026-03-22T10:35:09.578Z</time></trkpt><trkpt lat="42.2899146" lon="14.4211947"><ele>140.0</ele><time>2026-03-22T10:35:10.572Z</time></trkpt><trkpt lat="42.2898433" lon="14.4211805"><ele>140.0</ele><time>2026-03-22T10:35:11.578Z</time></trkpt><trkpt lat="42.2897935" lon="14.421124"><ele>140.0</ele><time>2026-03-22T10:35:12.577Z</time></trkpt><trkpt lat="42.2897431" lon="14.4210244"><ele>140.0</ele><time>2026-03-22T10:35:13.567Z</time></trkpt><trkpt lat="42.2896851" lon="14.420893"><ele>140.0</ele><time>2026-03-22T10:35:14.579Z</time></trkpt><trkpt lat="42.2896225" lon="14.4207169"><ele>140.0</ele><time>2026-03-22T10:35:15.564Z</time></trkpt><trkpt lat="42.2895468" lon="14.4205185"><ele>140.0</ele><time>2026-03-22T10:35:16.579Z</time></trkpt><trkpt lat="42.2894508" lon="14.4202742"><ele>140.0</ele><time>2026-03-22T10:35:17.569Z</time></trkpt><trkpt lat="42.2893504" lon="14.4200251"><ele>140.0</ele><time>2026-03-22T10:35:18.569Z</time></trkpt><trkpt lat="42.2892377" lon="14.4197593"><ele>140.0</ele><time>2026-03-22T10:35:19.578Z</time></trkpt><trkpt lat="42.2891534" lon="14.419546"><ele>139.5</ele><time>2026-03-22T10:35:20.564Z</time></trkpt><trkpt lat="42.2890941" lon="14.4193668"><ele>139.0</ele><time>2026-03-22T10:35:21.56Z</time></trkpt><trkpt lat="42.2890127" lon="14.4191976"><ele>138.5</ele><time>2026-03-22T10:35:22.588Z</time></trkpt><trkpt lat="42.288918" lon="14.4190623"><ele>138.0</ele><time>2026-03-22T10:35:23.574Z</time></trkpt><trkpt lat="42.2887793" lon="14.4189302"><ele>138.0</ele><time>2026-03-22T10:35:24.574Z</time></trkpt><trkpt lat="42.2886584" lon="14.418816"><ele>138.0</ele><time>2026-03-22T10:35:25.587Z</time></trkpt><trkpt lat="42.2885352" lon="14.4187184"><ele>138.0</ele><time>2026-03-22T10:35:26.588Z</time></trkpt><trkpt lat="42.2884484" lon="14.418593"><ele>138.0</ele><time>2026-03-22T10:35:27.586Z</time></trkpt><trkpt lat="42.2883683" lon="14.418503"><ele>138.0</ele><time>2026-03-22T10:35:28.584Z</time></trkpt><trkpt lat="42.288322" lon="14.4184451"><ele>138.0</ele><time>2026-03-22T10:35:29.575Z</time></trkpt><trkpt lat="42.288259" lon="14.4184397"><ele>138.0</ele><time>2026-03-22T10:35:31.568Z</time></trkpt><trkpt lat="42.288196" lon="14.4185228"><ele>138.0</ele><time>2026-03-22T10:35:33.58Z</time></trkpt><trkpt lat="42.2882022" lon="14.418646"><ele>138.0</ele><time>2026-03-22T10:35:34.571Z</time></trkpt><trkpt lat="42.2882097" lon="14.418781"><ele>138.0</ele><time>2026-03-22T10:35:35.567Z</time></trkpt><trkpt lat="42.2882085" lon="14.418955"><ele>138.0</ele><time>2026-03-22T10:35:36.568Z</time></trkpt><trkpt lat="42.2881972" lon="14.4191809"><ele>138.0</ele><time>2026-03-22T10:35:37.565Z</time></trkpt><trkpt lat="42.2881689" lon="14.4193934"><ele>138.0</ele><time>2026-03-22T10:35:38.57Z</time></trkpt><trkpt lat="42.2881605" lon="14.4196119"><ele>137.66666666666666</ele><time>2026-03-22T10:35:39.573Z</time></trkpt><trkpt lat="42.2881485" lon="14.4198539"><ele>137.33333333333331</ele><time>2026-03-22T10:35:40.578Z</time></trkpt><trkpt lat="42.288123" lon="14.4200551"><ele>137.0</ele><time>2026-03-22T10:35:41.575Z</time></trkpt><trkpt lat="42.2880922" lon="14.4202813"><ele>131.0</ele><time>2026-03-22T10:35:42.573Z</time></trkpt><trkpt lat="42.2880515" lon="14.4205037"><ele>125.0</ele><time>2026-03-22T10:35:43.572Z</time></trkpt><trkpt lat="42.2880434" lon="14.4206746"><ele>119.0</ele><time>2026-03-22T10:35:44.569Z</time></trkpt><trkpt lat="42.2880358" lon="14.4207925"><ele>113.0</ele><time>2026-03-22T10:35:45.566Z</time></trkpt><trkpt lat="42.2880267" lon="14.420909"><ele>113.0</ele><time>2026-03-22T10:35:46.571Z</time></trkpt><trkpt lat="42.2880021" lon="14.4210263"><ele>113.00000000000001</ele><time>2026-03-22T10:35:47.574Z</time></trkpt><trkpt lat="42.287952" lon="14.4211681"><ele>113.00000000000001</ele><time>2026-03-22T10:35:48.573Z</time></trkpt><trkpt lat="42.2879136" lon="14.4212938"><ele>113.0</ele><time>2026-03-22T10:35:49.564Z</time></trkpt><trkpt lat="42.2878685" lon="14.4214411"><ele>113.0</ele><time>2026-03-22T10:35:50.571Z</time></trkpt><trkpt lat="42.2878461" lon="14.421616"><ele>113.2</ele><time>2026-03-22T10:35:52.576Z</time></trkpt><trkpt lat="42.2878332" lon="14.4217479"><ele>113.4</ele><time>2026-03-22T10:35:53.571Z</time></trkpt><trkpt lat="42.2878289" lon="14.4218897"><ele>113.60000000000001</ele><time>2026-03-22T10:35:54.573Z</time></trkpt><trkpt lat="42.2878303" lon="14.4220333"><ele>113.80000000000001</ele><time>2026-03-22T10:35:55.568Z</time></trkpt><trkpt lat="42.2878279" lon="14.4221743"><ele>114.0</ele><time>2026-03-22T10:35:56.566Z</time></trkpt><trkpt lat="42.2878182" lon="14.4223105"><ele>114.0</ele><time>2026-03-22T10:35:57.568Z</time></trkpt><trkpt lat="42.2877971" lon="14.4224539"><ele>114.0</ele><time>2026-03-22T10:35:58.565Z</time></trkpt><trkpt lat="42.2877874" lon="14.4225912"><ele>114.0</ele><time>2026-03-22T10:35:59.559Z</time></trkpt><trkpt lat="42.2877967" lon="14.4227042"><ele>114.0</ele><time>2026-03-22T10:36:01.56Z</time></trkpt><trkpt lat="42.2878792" lon="14.4227328"><ele>114.0</ele><time>2026-03-22T10:36:06.563Z</time></trkpt><trkpt lat="42.2879412" lon="14.4227158"><ele>114.0</ele><time>2026-03-22T10:36:07.561Z</time></trkpt><trkpt lat="42.288017" lon="14.4226767"><ele>114.0</ele><time>2026-03-22T10:36:08.56Z</time></trkpt><trkpt lat="42.2880889" lon="14.4226428"><ele>114.0</ele><time>2026-03-22T10:36:09.563Z</time></trkpt><trkpt lat="42.2881519" lon="14.4226237"><ele>114.0</ele><time>2026-03-22T10:36:10.572Z</time></trkpt><trkpt lat="42.2882504" lon="14.4226238"><ele>114.0</ele><time>2026-03-22T10:36:12.568Z</time></trkpt><trkpt lat="42.2882689" lon="14.4227424"><ele>114.0</ele><time>2026-03-22T10:36:14.566Z</time></trkpt><trkpt lat="42.2882649" lon="14.422859"><ele>114.0</ele><time>2026-03-22T10:36:15.566Z</time></trkpt><trkpt lat="42.2882477" lon="14.4230148"><ele>112.0</ele><time>2026-03-22T10:36:16.565Z</time></trkpt><trkpt lat="42.2882258" lon="14.4231812"><ele>110.0</ele><time>2026-03-22T10:36:17.569Z</time></trkpt><trkpt lat="42.2882148" lon="14.423334"><ele>108.0</ele><time>2026-03-22T10:36:18.566Z</time></trkpt><trkpt lat="42.2882124" lon="14.4234508"><ele>106.0</ele><time>2026-03-22T10:36:19.563Z</time></trkpt><trkpt lat="42.2882101" lon="14.4235645"><ele>104.0</ele><time>2026-03-22T10:36:20.571Z</time></trkpt><trkpt lat="42.2882113" lon="14.4236875"><ele>104.0</ele><time>2026-03-22T10:36:21.573Z</time></trkpt><trkpt lat="42.2882088" lon="14.4237954"><ele>104.0</ele><time>2026-03-22T10:36:22.569Z</time></trkpt><trkpt lat="42.2881819" lon="14.4239513"><ele>104.0</ele><time>2026-03-22T10:36:24.569Z</time></trkpt><trkpt lat="42.2881402" lon="14.4240168"><ele>104.0</ele><time>2026-03-22T10:36:25.568Z</time></trkpt><trkpt lat="42.2880814" lon="14.4240843"><ele>104.0</ele><time>2026-03-22T10:36:26.564Z</time></trkpt><trkpt lat="42.2879664" lon="14.4241203"><ele>100.25</ele><time>2026-03-22T10:36:27.568Z</time></trkpt><trkpt lat="42.2878503" lon="14.4241561"><ele>96.5</ele><time>2026-03-22T10:36:28.571Z</time></trkpt><trkpt lat="42.2877322" lon="14.4241865"><ele>92.75</ele><time>2026-03-22T10:36:29.579Z</time></trkpt><trkpt lat="42.2876159" lon="14.4242095"><ele>89.0</ele><time>2026-03-22T10:36:30.574Z</time></trkpt><trkpt lat="42.2875172" lon="14.4242047"><ele>89.0</ele><time>2026-03-22T10:36:31.574Z</time></trkpt><trkpt lat="42.2874291" lon="14.4241829"><ele>89.0</ele><time>2026-03-22T10:36:32.574Z</time></trkpt><trkpt lat="42.287334" lon="14.4241304"><ele>89.0</ele><time>2026-03-22T10:36:33.563Z</time></trkpt><trkpt lat="42.2872281" lon="14.4240553"><ele>89.0</ele><time>2026-03-22T10:36:34.566Z</time></trkpt><trkpt lat="42.28712" lon="14.4239572"><ele>89.0</ele><time>2026-03-22T10:36:35.567Z</time></trkpt><trkpt lat="42.2870079" lon="14.4238499"><ele>86.75</ele><time>2026-03-22T10:36:36.575Z</time></trkpt><trkpt lat="42.2869063" lon="14.4237399"><ele>84.5</ele><time>2026-03-22T10:36:37.58Z</time></trkpt><trkpt lat="42.2868166" lon="14.4236276"><ele>82.25</ele><time>2026-03-22T10:36:38.58Z</time></trkpt><trkpt lat="42.2867406" lon="14.4235131"><ele>80.0</ele><time>2026-03-22T10:36:39.571Z</time></trkpt><trkpt lat="42.2866605" lon="14.4234078"><ele>80.0</ele><time>2026-03-22T10:36:40.572Z</time></trkpt><trkpt lat="42.2865816" lon="14.4233049"><ele>80.0</ele><time>2026-03-22T10:36:41.578Z</time></trkpt><trkpt lat="42.2864963" lon="14.4231944"><ele>80.0</ele><time>2026-03-22T10:36:42.583Z</time></trkpt><trkpt lat="42.2863922" lon="14.4230872"><ele>80.0</ele><time>2026-03-22T10:36:43.581Z</time></trkpt><trkpt lat="42.2862609" lon="14.4229831"><ele>76.5</ele><time>2026-03-22T10:36:44.58Z</time></trkpt><trkpt lat="42.2860892" lon="14.4228935"><ele>73.0</ele><time>2026-03-22T10:36:45.58Z</time></trkpt><trkpt lat="42.2859719" lon="14.4228372"><ele>69.5</ele><time>2026-03-22T10:36:46.574Z</time></trkpt><trkpt lat="42.2858391" lon="14.4227914"><ele>66.0</ele><time>2026-03-22T10:36:47.573Z</time></trkpt><trkpt lat="42.2856887" lon="14.4227304"><ele>63.599999999999994</ele><time>2026-03-22T10:36:48.57Z</time></trkpt><trkpt lat="42.2855557" lon="14.4227083"><ele>61.199999999999996</ele><time>2026-03-22T10:36:49.572Z</time></trkpt><trkpt lat="42.2854442" lon="14.4226842"><ele>58.800000000000004</ele><time>2026-03-22T10:36:50.582Z</time></trkpt><trkpt lat="42.2853608" lon="14.4226547"><ele>56.400000000000006</ele><time>2026-03-22T10:36:51.581Z</time></trkpt><trkpt lat="42.2852803" lon="14.4226194"><ele>54.0</ele><time>2026-03-22T10:36:52.587Z</time></trkpt><trkpt lat="42.2851813" lon="14.4225472"><ele>54.0</ele><time>2026-03-22T10:36:54.579Z</time></trkpt><trkpt lat="42.2851485" lon="14.4223618"><ele>54.00000000000001</ele><time>2026-03-22T10:36:56.574Z</time></trkpt><trkpt lat="42.2851277" lon="14.4222699"><ele>54.00000000000001</ele><time>2026-03-22T10:36:57.574Z</time></trkpt><trkpt lat="42.2851021" lon="14.4221717"><ele>54.0</ele><time>2026-03-22T10:36:59.569Z</time></trkpt><trkpt lat="42.2851245" lon="14.4220706"><ele>54.0</ele><time>2026-03-22T10:37:19.575Z</time></trkpt><trkpt lat="42.2852629" lon="14.4220232"><ele>54.66666666666667</ele><time>2026-03-22T10:37:21.577Z</time></trkpt><trkpt lat="42.2853979" lon="14.4219723"><ele>55.333333333333336</ele><time>2026-03-22T10:37:22.57Z</time></trkpt><trkpt lat="42.2855385" lon="14.421871"><ele>56.0</ele><time>2026-03-22T10:37:23.573Z</time></trkpt><trkpt lat="42.2856835" lon="14.4217382"><ele>59.0</ele><time>2026-03-22T10:37:24.572Z</time></trkpt><trkpt lat="42.2858354" lon="14.4215945"><ele>62.0</ele><time>2026-03-22T10:37:25.585Z</time></trkpt><trkpt lat="42.285983" lon="14.4214653"><ele>65.0</ele><time>2026-03-22T10:37:26.583Z</time></trkpt><trkpt lat="42.2861122" lon="14.4213127"><ele>69.0</ele><time>2026-03-22T10:37:27.574Z</time></trkpt><trkpt lat="42.2862489" lon="14.4211545"><ele>73.0</ele><time>2026-03-22T10:37:28.579Z</time></trkpt><trkpt lat="42.2863799" lon="14.4209893"><ele>77.0</ele><time>2026-03-22T10:37:29.582Z</time></trkpt><trkpt lat="42.2865313" lon="14.4208049"><ele>79.0</ele><time>2026-03-22T10:37:30.577Z</time></trkpt><trkpt lat="42.2866559" lon="14.4206092"><ele>81.0</ele><time>2026-03-22T10:37:31.58Z</time></trkpt><trkpt lat="42.2867758" lon="14.420412"><ele>83.0</ele><time>2026-03-22T10:37:32.573Z</time></trkpt><trkpt lat="42.2868979" lon="14.4202272"><ele>85.66666666666667</ele><time>2026-03-22T10:37:33.573Z</time></trkpt><trkpt lat="42.2870142" lon="14.420055"><ele>88.33333333333333</ele><time>2026-03-22T10:37:34.578Z</time></trkpt><trkpt lat="42.2871301" lon="14.4198517"><ele>91.0</ele><time>2026-03-22T10:37:35.571Z</time></trkpt><trkpt lat="42.2872271" lon="14.4196481"><ele>98.33333333333333</ele><time>2026-03-22T10:37:36.568Z</time></trkpt><trkpt lat="42.2872901" lon="14.4194284"><ele>105.66666666666666</ele><time>2026-03-22T10:37:37.56Z</time></trkpt><trkpt lat="42.287347" lon="14.4191641"><ele>113.0</ele><time>2026-03-22T10:37:38.566Z</time></trkpt><trkpt lat="42.2874231" lon="14.4189249"><ele>116.0</ele><time>2026-03-22T10:37:39.564Z</time></trkpt><trkpt lat="42.2875042" lon="14.4186903"><ele>119.0</ele><time>2026-03-22T10:37:40.57Z</time></trkpt><trkpt lat="42.2875928" lon="14.4184744"><ele>122.0</ele><time>2026-03-22T10:37:41.57Z</time></trkpt><trkpt lat="42.287691" lon="14.4182581"><ele>122.0</ele><time>2026-03-22T10:37:42.57Z</time></trkpt><trkpt lat="42.2877912" lon="14.4180681"><ele>122.0</ele><time>2026-03-22T10:37:43.574Z</time></trkpt><trkpt lat="42.2879061" lon="14.417864"><ele>122.0</ele><time>2026-03-22T10:37:44.567Z</time></trkpt><trkpt lat="42.2880218" lon="14.4176537"><ele>127.66666666666666</ele><time>2026-03-22T10:37:45.57Z</time></trkpt><trkpt lat="42.2881453" lon="14.4174319"><ele>133.33333333333334</ele><time>2026-03-22T10:37:46.572Z</time></trkpt><trkpt lat="42.288266" lon="14.4172051"><ele>139.0</ele><time>2026-03-22T10:37:47.575Z</time></trkpt><trkpt lat="42.2884096" lon="14.4169881"><ele>140.5</ele><time>2026-03-22T10:37:48.568Z</time></trkpt><trkpt lat="42.2885292" lon="14.4168041"><ele>142.0</ele><time>2026-03-22T10:37:49.566Z</time></trkpt><trkpt lat="42.288589" lon="14.416661"><ele>143.5</ele><time>2026-03-22T10:37:50.57Z</time></trkpt><trkpt lat="42.2886503" lon="14.4165159"><ele>145.0</ele><time>2026-03-22T10:37:51.57Z</time></trkpt><trkpt lat="42.2886554" lon="14.4164154"><ele>145.5</ele><time>2026-03-22T10:37:52.576Z</time></trkpt><trkpt lat="42.2886464" lon="14.4163074"><ele>146.0</ele><time>2026-03-22T10:37:53.578Z</time></trkpt><trkpt lat="42.2885745" lon="14.4161685"><ele>146.5</ele><time>2026-03-22T10:37:54.576Z</time></trkpt><trkpt lat="42.2885008" lon="14.4160401"><ele>147.0</ele><time>2026-03-22T10:37:55.579Z</time></trkpt><trkpt lat="42.288432" lon="14.4158918"><ele>147.0</ele><time>2026-03-22T10:37:56.58Z</time></trkpt><trkpt lat="42.2883631" lon="14.4157403"><ele>147.0</ele><time>2026-03-22T10:37:57.577Z</time></trkpt><trkpt lat="42.2882943" lon="14.4155825"><ele>147.0</ele><time>2026-03-22T10:37:58.575Z</time></trkpt><trkpt lat="42.2882239" lon="14.4154324"><ele>147.0</ele><time>2026-03-22T10:37:59.569Z</time></trkpt><trkpt lat="42.2881465" lon="14.4152778"><ele>148.25</ele><time>2026-03-22T10:38:00.576Z</time></trkpt><trkpt lat="42.2880647" lon="14.4151264"><ele>149.5</ele><time>2026-03-22T10:38:01.58Z</time></trkpt><trkpt lat="42.2879981" lon="14.4149924"><ele>150.75</ele><time>2026-03-22T10:38:02.585Z</time></trkpt><trkpt lat="42.2879408" lon="14.4148718"><ele>152.0</ele><time>2026-03-22T10:38:03.583Z</time></trkpt><trkpt lat="42.2878815" lon="14.4147839"><ele>152.0</ele><time>2026-03-22T10:38:04.58Z</time></trkpt><trkpt lat="42.2877959" lon="14.4147579"><ele>152.0</ele><time>2026-03-22T10:38:06.579Z</time></trkpt><trkpt lat="42.2877425" lon="14.4148424"><ele>152.0</ele><time>2026-03-22T10:38:07.584Z</time></trkpt><trkpt lat="42.2876834" lon="14.4149401"><ele>152.0</ele><time>2026-03-22T10:38:08.579Z</time></trkpt><trkpt lat="42.2876097" lon="14.4150596"><ele>152.0</ele><time>2026-03-22T10:38:09.578Z</time></trkpt><trkpt lat="42.287519" lon="14.415191"><ele>152.0</ele><time>2026-03-22T10:38:10.58Z</time></trkpt><trkpt lat="42.2874023" lon="14.4153342"><ele>152.0</ele><time>2026-03-22T10:38:11.581Z</time></trkpt><trkpt lat="42.2872731" lon="14.4154701"><ele>152.0</ele><time>2026-03-22T10:38:12.571Z</time></trkpt><trkpt lat="42.2871357" lon="14.4155953"><ele>149.66666666666666</ele><time>2026-03-22T10:38:13.574Z</time></trkpt><trkpt lat="42.2869915" lon="14.4157067"><ele>147.33333333333334</ele><time>2026-03-22T10:38:14.578Z</time></trkpt><trkpt lat="42.286845" lon="14.4158099"><ele>145.0</ele><time>2026-03-22T10:38:15.584Z</time></trkpt><trkpt lat="42.2867094" lon="14.4158755"><ele>145.0</ele><time>2026-03-22T10:38:16.584Z</time></trkpt><trkpt lat="42.2865466" lon="14.4159272"><ele>145.0</ele><time>2026-03-22T10:38:17.588Z</time></trkpt><trkpt lat="42.2864083" lon="14.4159804"><ele>145.0</ele><time>2026-03-22T10:38:18.584Z</time></trkpt><trkpt lat="42.286272" lon="14.416047"><ele>144.0</ele><time>2026-03-22T10:38:19.585Z</time></trkpt><trkpt lat="42.2861666" lon="14.4160851"><ele>143.0</ele><time>2026-03-22T10:38:20.583Z</time></trkpt><trkpt lat="42.2860512" lon="14.4161298"><ele>142.0</ele><time>2026-03-22T10:38:21.577Z</time></trkpt><trkpt lat="42.2859141" lon="14.416165"><ele>141.0</ele><time>2026-03-22T10:38:22.581Z</time></trkpt><trkpt lat="42.2858198" lon="14.4161767"><ele>141.0</ele><time>2026-03-22T10:38:23.583Z</time></trkpt><trkpt lat="42.285739" lon="14.4162044"><ele>141.0</ele><time>2026-03-22T10:38:24.577Z</time></trkpt><trkpt lat="42.2856658" lon="14.416252"><ele>141.0</ele><time>2026-03-22T10:38:25.58Z</time></trkpt><trkpt lat="42.2855976" lon="14.4163455"><ele>141.0</ele><time>2026-03-22T10:38:26.578Z</time></trkpt><trkpt lat="42.2855214" lon="14.4164311"><ele>141.0</ele><time>2026-03-22T10:38:27.586Z</time></trkpt><trkpt lat="42.2854415" lon="14.4165082"><ele>138.0</ele><time>2026-03-22T10:38:28.59Z</time></trkpt><trkpt lat="42.2853729" lon="14.4165732"><ele>135.0</ele><time>2026-03-22T10:38:29.583Z</time></trkpt><trkpt lat="42.2852997" lon="14.4166311"><ele>132.0</ele><time>2026-03-22T10:38:30.576Z</time></trkpt><trkpt lat="42.2852163" lon="14.4166646"><ele>129.0</ele><time>2026-03-22T10:38:31.572Z</time></trkpt><trkpt lat="42.2851226" lon="14.4166802"><ele>126.0</ele><time>2026-03-22T10:38:32.572Z</time></trkpt><trkpt lat="42.2850333" lon="14.4166745"><ele>123.0</ele><time>2026-03-22T10:38:33.57Z</time></trkpt><trkpt lat="42.2849403" lon="14.4166658"><ele>123.0</ele><time>2026-03-22T10:38:34.574Z</time></trkpt><trkpt lat="42.2848481" lon="14.4166666"><ele>123.0</ele><time>2026-03-22T10:38:35.57Z</time></trkpt><trkpt lat="42.2847693" lon="14.4166759"><ele>123.0</ele><time>2026-03-22T10:38:36.57Z</time></trkpt><trkpt lat="42.2846916" lon="14.4166703"><ele>123.0</ele><time>2026-03-22T10:38:37.569Z</time></trkpt><trkpt lat="42.2846153" lon="14.4166485"><ele>123.0</ele><time>2026-03-22T10:38:38.582Z</time></trkpt><trkpt lat="42.284535" lon="14.416642"><ele>123.0</ele><time>2026-03-22T10:38:39.567Z</time></trkpt><trkpt lat="42.2844479" lon="14.4166486"><ele>120.5</ele><time>2026-03-22T10:38:40.572Z</time></trkpt><trkpt lat="42.2843836" lon="14.4166625"><ele>118.0</ele><time>2026-03-22T10:38:41.582Z</time></trkpt><trkpt lat="42.2843158" lon="14.4166872"><ele>115.5</ele><time>2026-03-22T10:38:42.584Z</time></trkpt><trkpt lat="42.2842539" lon="14.4167172"><ele>113.0</ele><time>2026-03-22T10:38:43.582Z</time></trkpt><trkpt lat="42.2841511" lon="14.41678"><ele>110.5</ele><time>2026-03-22T10:38:45.587Z</time></trkpt><trkpt lat="42.2840674" lon="14.4168795"><ele>108.0</ele><time>2026-03-22T10:38:47.575Z</time></trkpt><trkpt lat="42.2839988" lon="14.417009"><ele>108.0</ele><time>2026-03-22T10:38:49.578Z</time></trkpt><trkpt lat="42.2839397" lon="14.4171214"><ele>108.0</ele><time>2026-03-22T10:38:51.579Z</time></trkpt><trkpt lat="42.2838869" lon="14.4172364"><ele>108.0</ele><time>2026-03-22T10:38:53.587Z</time></trkpt><trkpt lat="42.2838533" lon="14.4173422"><ele>108.0</ele><time>2026-03-22T10:38:55.582Z</time></trkpt><trkpt lat="42.2838273" lon="14.4174294"><ele>108.0</ele><time>2026-03-22T10:38:57.579Z</time></trkpt><trkpt lat="42.2837984" lon="14.4175072"><ele>108.0</ele><time>2026-03-22T10:38:59.587Z</time></trkpt><trkpt lat="42.2837717" lon="14.417592"><ele>104.16666666666667</ele><time>2026-03-22T10:39:01.58Z</time></trkpt><trkpt lat="42.2837387" lon="14.4176755"><ele>100.33333333333333</ele><time>2026-03-22T10:39:07.584Z</time></trkpt><trkpt lat="42.2836801" lon="14.4177544"><ele>96.5</ele><time>2026-03-22T10:39:10.585Z</time></trkpt><trkpt lat="42.2836278" lon="14.4178125"><ele>92.66666666666666</ele><time>2026-03-22T10:39:12.593Z</time></trkpt><trkpt lat="42.2835739" lon="14.4178755"><ele>88.83333333333333</ele><time>2026-03-22T10:39:14.586Z</time></trkpt><trkpt lat="42.2834691" lon="14.4179269"><ele>85.0</ele><time>2026-03-22T10:39:16.59Z</time></trkpt><trkpt lat="42.283396" lon="14.4179296"><ele>85.0</ele><time>2026-03-22T10:39:17.571Z</time></trkpt><trkpt lat="42.2833294" lon="14.4179435"><ele>85.0</ele><time>2026-03-22T10:39:18.581Z</time></trkpt><trkpt lat="42.2832515" lon="14.4179587"><ele>85.0</ele><time>2026-03-22T10:39:19.592Z</time></trkpt><trkpt lat="42.2831762" lon="14.4179735"><ele>85.0</ele><time>2026-03-22T10:39:20.586Z</time></trkpt><trkpt lat="42.283097" lon="14.4179753"><ele>85.0</ele><time>2026-03-22T10:39:21.578Z</time></trkpt><trkpt lat="42.2830176" lon="14.4179731"><ele>85.0</ele><time>2026-03-22T10:39:22.589Z</time></trkpt><trkpt lat="42.28294" lon="14.4179583"><ele>81.83333333333333</ele><time>2026-03-22T10:39:23.584Z</time></trkpt><trkpt lat="42.2828319" lon="14.4179185"><ele>78.66666666666666</ele><time>2026-03-22T10:39:25.576Z</time></trkpt><trkpt lat="42.2827345" lon="14.4178715"><ele>75.5</ele><time>2026-03-22T10:39:27.583Z</time></trkpt><trkpt lat="42.2826708" lon="14.4178809"><ele>72.33333333333333</ele><time>2026-03-22T10:39:29.589Z</time></trkpt><trkpt lat="42.2825916" lon="14.4179154"><ele>69.16666666666667</ele><time>2026-03-22T10:39:31.579Z</time></trkpt><trkpt lat="42.2825248" lon="14.4179577"><ele>66.0</ele><time>2026-03-22T10:39:33.579Z</time></trkpt><trkpt lat="42.282431" lon="14.4179608"><ele>66.0</ele><time>2026-03-22T10:39:35.571Z</time></trkpt><trkpt lat="42.2823339" lon="14.4178912"><ele>66.0</ele><time>2026-03-22T10:39:37.569Z</time></trkpt><trkpt lat="42.2822548" lon="14.4178408"><ele>66.0</ele><time>2026-03-22T10:39:39.577Z</time></trkpt><trkpt lat="42.2821587" lon="14.4178571"><ele>66.0</ele><time>2026-03-22T10:39:41.579Z</time></trkpt><trkpt lat="42.2820891" lon="14.4178716"><ele>66.0</ele><time>2026-03-22T10:39:43.585Z</time></trkpt><trkpt lat="42.2820726" lon="14.4177827"><ele>66.0</ele><time>2026-03-22T10:39:45.586Z</time></trkpt><trkpt lat="42.2820959" lon="14.4176426"><ele>66.0</ele><time>2026-03-22T10:39:47.589Z</time></trkpt><trkpt lat="42.28218" lon="14.4175383"><ele>66.0</ele><time>2026-03-22T10:39:49.582Z</time></trkpt><trkpt lat="42.2822821" lon="14.4174458"><ele>66.0</ele><time>2026-03-22T10:39:51.579Z</time></trkpt><trkpt lat="42.2822851" lon="14.41732"><ele>66.0</ele><time>2026-03-22T10:39:54.574Z</time></trkpt><trkpt lat="42.2822228" lon="14.4171969"><ele>66.0</ele><time>2026-03-22T10:39:56.585Z</time></trkpt><trkpt lat="42.2821724" lon="14.4170605"><ele>64.0</ele><time>2026-03-22T10:39:58.579Z</time></trkpt><trkpt lat="42.2820938" lon="14.416958"><ele>62.0</ele><time>2026-03-22T10:40:00.585Z</time></trkpt><trkpt lat="42.2819846" lon="14.41685"><ele>60.0</ele><time>2026-03-22T10:40:02.575Z</time></trkpt><trkpt lat="42.281891" lon="14.4167625"><ele>58.0</ele><time>2026-03-22T10:40:03.587Z</time></trkpt><trkpt lat="42.2817957" lon="14.416664"><ele>58.0</ele><time>2026-03-22T10:40:04.58Z</time></trkpt><trkpt lat="42.2816903" lon="14.4165359"><ele>58.0</ele><time>2026-03-22T10:40:05.59Z</time></trkpt><trkpt lat="42.2815824" lon="14.4164114"><ele>58.0</ele><time>2026-03-22T10:40:06.59Z</time></trkpt><trkpt lat="42.2814865" lon="14.4163011"><ele>58.0</ele><time>2026-03-22T10:40:07.595Z</time></trkpt><trkpt lat="42.2813946" lon="14.4162027"><ele>58.4</ele><time>2026-03-22T10:40:08.6Z</time></trkpt><trkpt lat="42.2813038" lon="14.4161182"><ele>58.8</ele><time>2026-03-22T10:40:09.589Z</time></trkpt><trkpt lat="42.2812224" lon="14.416048"><ele>59.2</ele><time>2026-03-22T10:40:10.596Z</time></trkpt><trkpt lat="42.2811639" lon="14.4159878"><ele>59.6</ele><time>2026-03-22T10:40:11.597Z</time></trkpt><trkpt lat="42.2811166" lon="14.4158529"><ele>60.0</ele><time>2026-03-22T10:40:13.586Z</time></trkpt><trkpt lat="42.2811024" lon="14.4157512"><ele>60.0</ele><time>2026-03-22T10:40:14.581Z</time></trkpt><trkpt lat="42.2810805" lon="14.4156326"><ele>60.0</ele><time>2026-03-22T10:40:15.584Z</time></trkpt><trkpt lat="42.2810585" lon="14.4154825"><ele>60.0</ele><time>2026-03-22T10:40:16.585Z</time></trkpt><trkpt lat="42.281052" lon="14.4153323"><ele>60.0</ele><time>2026-03-22T10:40:17.583Z</time></trkpt><trkpt lat="42.2810479" lon="14.4151723"><ele>60.0</ele><time>2026-03-22T10:40:18.579Z</time></trkpt><trkpt lat="42.2810591" lon="14.415015"><ele>60.0</ele><time>2026-03-22T10:40:19.579Z</time></trkpt><trkpt lat="42.2810924" lon="14.4148557"><ele>60.0</ele><time>2026-03-22T10:40:20.578Z</time></trkpt><trkpt lat="42.2811368" lon="14.4146863"><ele>60.0</ele><time>2026-03-22T10:40:21.586Z</time></trkpt><trkpt lat="42.2811772" lon="14.4145248"><ele>60.0</ele><time>2026-03-22T10:40:22.581Z</time></trkpt><trkpt lat="42.2812081" lon="14.414365"><ele>60.2</ele><time>2026-03-22T10:40:23.579Z</time></trkpt><trkpt lat="42.2812179" lon="14.4142278"><ele>60.4</ele><time>2026-03-22T10:40:24.581Z</time></trkpt><trkpt lat="42.2812172" lon="14.4141003"><ele>60.599999999999994</ele><time>2026-03-22T10:40:25.585Z</time></trkpt><trkpt lat="42.2812022" lon="14.4139842"><ele>60.8</ele><time>2026-03-22T10:40:26.569Z</time></trkpt><trkpt lat="42.2811699" lon="14.4138654"><ele>61.0</ele><time>2026-03-22T10:40:27.572Z</time></trkpt><trkpt lat="42.2811383" lon="14.4137411"><ele>61.4</ele><time>2026-03-22T10:40:28.577Z</time></trkpt><trkpt lat="42.281095" lon="14.4136321"><ele>61.8</ele><time>2026-03-22T10:40:29.588Z</time></trkpt><trkpt lat="42.2810353" lon="14.4135318"><ele>62.199999999999996</ele><time>2026-03-22T10:40:30.58Z</time></trkpt><trkpt lat="42.2809571" lon="14.4134403"><ele>62.599999999999994</ele><time>2026-03-22T10:40:31.583Z</time></trkpt><trkpt lat="42.2808753" lon="14.4133663"><ele>63.0</ele><time>2026-03-22T10:40:32.58Z</time></trkpt><trkpt lat="42.2807877" lon="14.4133161"><ele>63.0</ele><time>2026-03-22T10:40:33.58Z</time></trkpt><trkpt lat="42.2806913" lon="14.413259"><ele>63.0</ele><time>2026-03-22T10:40:34.581Z</time></trkpt><trkpt lat="42.2806093" lon="14.4132077"><ele>63.0</ele><time>2026-03-22T10:40:35.582Z</time></trkpt><trkpt lat="42.2805356" lon="14.4131724"><ele>63.0</ele><time>2026-03-22T10:40:36.583Z</time></trkpt><trkpt lat="42.2804523" lon="14.4131613"><ele>63.0</ele><time>2026-03-22T10:40:37.581Z</time></trkpt><trkpt lat="42.2803537" lon="14.4131669"><ele>62.599999999999994</ele><time>2026-03-22T10:40:38.583Z</time></trkpt><trkpt lat="42.2802471" lon="14.4131867"><ele>62.199999999999996</ele><time>2026-03-22T10:40:39.582Z</time></trkpt><trkpt lat="42.2801321" lon="14.4132077"><ele>61.8</ele><time>2026-03-22T10:40:40.587Z</time></trkpt><trkpt lat="42.2800412" lon="14.4132157"><ele>61.4</ele><time>2026-03-22T10:40:41.577Z</time></trkpt><trkpt lat="42.279977" lon="14.4131978"><ele>61.0</ele><time>2026-03-22T10:40:42.59Z</time></trkpt><trkpt lat="42.2799338" lon="14.4131098"><ele>60.99999999999999</ele><time>2026-03-22T10:40:44.575Z</time></trkpt><trkpt lat="42.279936" lon="14.4130131"><ele>61.0</ele><time>2026-03-22T10:40:45.572Z</time></trkpt><trkpt lat="42.279974" lon="14.4129267"><ele>61.0</ele><time>2026-03-22T10:40:46.579Z</time></trkpt><trkpt lat="42.2800364" lon="14.4128821"><ele>61.0</ele><time>2026-03-22T10:40:47.574Z</time></trkpt><trkpt lat="42.2801195" lon="14.412825"><ele>60.99999999999999</ele><time>2026-03-22T10:40:48.575Z</time></trkpt><trkpt lat="42.2802458" lon="14.4127765"><ele>61.0</ele><time>2026-03-22T10:40:49.576Z</time></trkpt><trkpt lat="42.2803443" lon="14.4127163"><ele>61.33333333333333</ele><time>2026-03-22T10:40:50.582Z</time></trkpt><trkpt lat="42.280412" lon="14.4126529"><ele>61.666666666666664</ele><time>2026-03-22T10:40:51.579Z</time></trkpt><trkpt lat="42.2804333" lon="14.4125728"><ele>62.0</ele><time>2026-03-22T10:40:52.569Z</time></trkpt><trkpt lat="42.2804204" lon="14.4124802"><ele>62.33333333333333</ele><time>2026-03-22T10:40:53.571Z</time></trkpt><trkpt lat="42.2803943" lon="14.4123564"><ele>62.666666666666664</ele><time>2026-03-22T10:40:54.567Z</time></trkpt><trkpt lat="42.2803576" lon="14.4122605"><ele>63.0</ele><time>2026-03-22T10:40:55.574Z</time></trkpt><trkpt lat="42.280294" lon="14.4121948"><ele>63.0</ele><time>2026-03-22T10:40:56.578Z</time></trkpt><trkpt lat="42.2802122" lon="14.4121611"><ele>63.0</ele><time>2026-03-22T10:40:57.582Z</time></trkpt><trkpt lat="42.2801136" lon="14.4121328"><ele>63.0</ele><time>2026-03-22T10:40:58.575Z</time></trkpt><trkpt lat="42.2800228" lon="14.4120971"><ele>63.0</ele><time>2026-03-22T10:40:59.581Z</time></trkpt><trkpt lat="42.2799457" lon="14.4120253"><ele>63.0</ele><time>2026-03-22T10:41:00.575Z</time></trkpt><trkpt lat="42.2799086" lon="14.4119159"><ele>63.2</ele><time>2026-03-22T10:41:01.579Z</time></trkpt><trkpt lat="42.2798864" lon="14.4117993"><ele>63.4</ele><time>2026-03-22T10:41:02.581Z</time></trkpt><trkpt lat="42.2798878" lon="14.4116713"><ele>63.60000000000001</ele><time>2026-03-22T10:41:03.584Z</time></trkpt><trkpt lat="42.2799214" lon="14.4115549"><ele>63.800000000000004</ele><time>2026-03-22T10:41:04.583Z</time></trkpt><trkpt lat="42.2799697" lon="14.4114371"><ele>64.0</ele><time>2026-03-22T10:41:05.581Z</time></trkpt><trkpt lat="42.280001" lon="14.4113275"><ele>64.25</ele><time>2026-03-22T10:41:06.584Z</time></trkpt><trkpt lat="42.2799917" lon="14.4111915"><ele>64.5</ele><time>2026-03-22T10:41:07.579Z</time></trkpt><trkpt lat="42.2799513" lon="14.4110454"><ele>64.75</ele><time>2026-03-22T10:41:08.58Z</time></trkpt><trkpt lat="42.279895" lon="14.4108961"><ele>65.0</ele><time>2026-03-22T10:41:09.584Z</time></trkpt><trkpt lat="42.2798443" lon="14.4107463"><ele>65.0</ele><time>2026-03-22T10:41:10.579Z</time></trkpt><trkpt lat="42.2797955" lon="14.4106225"><ele>65.0</ele><time>2026-03-22T10:41:11.573Z</time></trkpt><trkpt lat="42.2797556" lon="14.4105183"><ele>65.0</ele><time>2026-03-22T10:41:13.593Z</time></trkpt><trkpt lat="42.2798291" lon="14.4103585"><ele>65.0</ele><time>2026-03-22T10:41:15.588Z</time></trkpt><trkpt lat="42.2798721" lon="14.4102346"><ele>65.0</ele><time>2026-03-22T10:41:16.581Z</time></trkpt><trkpt lat="42.2798746" lon="14.4100819"><ele>65.33333333333334</ele><time>2026-03-22T10:41:17.592Z</time></trkpt><trkpt lat="42.2798535" lon="14.4099027"><ele>65.66666666666667</ele><time>2026-03-22T10:41:18.58Z</time></trkpt><trkpt lat="42.2797966" lon="14.4096995"><ele>66.0</ele><time>2026-03-22T10:41:19.582Z</time></trkpt><trkpt lat="42.2797236" lon="14.4094994"><ele>66.0</ele><time>2026-03-22T10:41:20.59Z</time></trkpt><trkpt lat="42.2796241" lon="14.4092761"><ele>66.0</ele><time>2026-03-22T10:41:21.583Z</time></trkpt><trkpt lat="42.2795221" lon="14.4090609"><ele>66.0</ele><time>2026-03-22T10:41:22.585Z</time></trkpt><trkpt lat="42.2793908" lon="14.4088634"><ele>69.33333333333333</ele><time>2026-03-22T10:41:23.585Z</time></trkpt><trkpt lat="42.2792436" lon="14.4086775"><ele>72.66666666666666</ele><time>2026-03-22T10:41:24.587Z</time></trkpt><trkpt lat="42.2791078" lon="14.4084718"><ele>76.0</ele><time>2026-03-22T10:41:25.591Z</time></trkpt><trkpt lat="42.2789721" lon="14.4082828"><ele>74.75</ele><time>2026-03-22T10:41:26.589Z</time></trkpt><trkpt lat="42.2788605" lon="14.4081159"><ele>73.5</ele><time>2026-03-22T10:41:27.581Z</time></trkpt><trkpt lat="42.2787793" lon="14.40799"><ele>72.25</ele><time>2026-03-22T10:41:28.59Z</time></trkpt><trkpt lat="42.2787243" lon="14.407864"><ele>71.0</ele><time>2026-03-22T10:41:29.576Z</time></trkpt><trkpt lat="42.2786896" lon="14.4077509"><ele>71.0</ele><time>2026-03-22T10:41:30.584Z</time></trkpt><trkpt lat="42.2787076" lon="14.4076156"><ele>71.0</ele><time>2026-03-22T10:41:31.579Z</time></trkpt><trkpt lat="42.2787399" lon="14.4074981"><ele>71.0</ele><time>2026-03-22T10:41:32.598Z</time></trkpt><trkpt lat="42.2787284" lon="14.4073403"><ele>71.0</ele><time>2026-03-22T10:41:34.588Z</time></trkpt><trkpt lat="42.2786738" lon="14.4072167"><ele>71.0</ele><time>2026-03-22T10:41:35.585Z</time></trkpt><trkpt lat="42.2786418" lon="14.4070887"><ele>72.16666666666667</ele><time>2026-03-22T10:41:36.592Z</time></trkpt><trkpt lat="42.278618" lon="14.4069601"><ele>73.33333333333334</ele><time>2026-03-22T10:41:37.578Z</time></trkpt><trkpt lat="42.2786143" lon="14.4068457"><ele>74.5</ele><time>2026-03-22T10:41:38.589Z</time></trkpt><trkpt lat="42.2786224" lon="14.4067466"><ele>75.66666666666667</ele><time>2026-03-22T10:41:39.579Z</time></trkpt><trkpt lat="42.2786178" lon="14.4066609"><ele>76.83333333333333</ele><time>2026-03-22T10:41:40.585Z</time></trkpt><trkpt lat="42.2785477" lon="14.4067786"><ele>78.0</ele><time>2026-03-22T10:41:43.586Z</time></trkpt><trkpt lat="42.2785279" lon="14.4068771"><ele>78.0</ele><time>2026-03-22T10:41:44.588Z</time></trkpt><trkpt lat="42.2785124" lon="14.4069952"><ele>78.0</ele><time>2026-03-22T10:41:45.589Z</time></trkpt><trkpt lat="42.2784841" lon="14.407085"><ele>78.0</ele><time>2026-03-22T10:41:46.585Z</time></trkpt><trkpt lat="42.278455" lon="14.4071661"><ele>78.0</ele><time>2026-03-22T10:41:47.581Z</time></trkpt><trkpt lat="42.2784018" lon="14.4072164"><ele>78.0</ele><time>2026-03-22T10:41:48.587Z</time></trkpt><trkpt lat="42.2783259" lon="14.4072763"><ele>78.0</ele><time>2026-03-22T10:41:49.58Z</time></trkpt><trkpt lat="42.2782576" lon="14.407349"><ele>76.6</ele><time>2026-03-22T10:41:50.59Z</time></trkpt><trkpt lat="42.2781815" lon="14.4074346"><ele>75.19999999999999</ele><time>2026-03-22T10:41:51.583Z</time></trkpt><trkpt lat="42.2780908" lon="14.407515"><ele>73.8</ele><time>2026-03-22T10:41:52.587Z</time></trkpt><trkpt lat="42.2779979" lon="14.4075997"><ele>72.39999999999999</ele><time>2026-03-22T10:41:53.593Z</time></trkpt><trkpt lat="42.2779092" lon="14.4076857"><ele>71.0</ele><time>2026-03-22T10:41:54.597Z</time></trkpt><trkpt lat="42.2778267" lon="14.4077557"><ele>70.6</ele><time>2026-03-22T10:41:55.596Z</time></trkpt><trkpt lat="42.277747" lon="14.407829"><ele>70.19999999999999</ele><time>2026-03-22T10:41:56.599Z</time></trkpt><trkpt lat="42.2776815" lon="14.4079127"><ele>69.80000000000001</ele><time>2026-03-22T10:41:57.597Z</time></trkpt><trkpt lat="42.2776295" lon="14.4079867"><ele>69.4</ele><time>2026-03-22T10:41:58.594Z</time></trkpt><trkpt lat="42.2775526" lon="14.4080888"><ele>69.0</ele><time>2026-03-22T10:42:00.595Z</time></trkpt><trkpt lat="42.27747" lon="14.4080759"><ele>69.0</ele><time>2026-03-22T10:42:02.594Z</time></trkpt><trkpt lat="42.2774049" lon="14.4080217"><ele>69.0</ele><time>2026-03-22T10:42:03.585Z</time></trkpt><trkpt lat="42.2773202" lon="14.407943"><ele>69.0</ele><time>2026-03-22T10:42:04.592Z</time></trkpt><trkpt lat="42.277231" lon="14.4079003"><ele>69.0</ele><time>2026-03-22T10:42:05.587Z</time></trkpt><trkpt lat="42.2771492" lon="14.4078763"><ele>69.0</ele><time>2026-03-22T10:42:06.582Z</time></trkpt><trkpt lat="42.2770739" lon="14.4078618"><ele>69.0</ele><time>2026-03-22T10:42:07.589Z</time></trkpt><trkpt lat="42.2769874" lon="14.4077905"><ele>68.83333333333333</ele><time>2026-03-22T10:42:09.583Z</time></trkpt><trkpt lat="42.2769724" lon="14.4076965"><ele>68.66666666666667</ele><time>2026-03-22T10:42:11.586Z</time></trkpt><trkpt lat="42.276973" lon="14.4076041"><ele>68.5</ele><time>2026-03-22T10:42:12.592Z</time></trkpt><trkpt lat="42.2769492" lon="14.4075015"><ele>68.33333333333334</ele><time>2026-03-22T10:42:13.582Z</time></trkpt><trkpt lat="42.276919" lon="14.4074162"><ele>68.16666666666667</ele><time>2026-03-22T10:42:14.601Z</time></trkpt><trkpt lat="42.2769035" lon="14.4072803"><ele>68.0</ele><time>2026-03-22T10:42:16.593Z</time></trkpt><trkpt lat="42.276956" lon="14.4071497"><ele>69.4</ele><time>2026-03-22T10:42:18.589Z</time></trkpt><trkpt lat="42.2769101" lon="14.4070666"><ele>70.8</ele><time>2026-03-22T10:42:22.589Z</time></trkpt><trkpt lat="42.2768194" lon="14.4070423"><ele>72.2</ele><time>2026-03-22T10:42:26.587Z</time></trkpt><trkpt lat="42.2767185" lon="14.4070331"><ele>73.6</ele><time>2026-03-22T10:42:28.59Z</time></trkpt><trkpt lat="42.276603" lon="14.4070114"><ele>75.0</ele><time>2026-03-22T10:42:30.592Z</time></trkpt><trkpt lat="42.2765226" lon="14.4069944"><ele>74.0</ele><time>2026-03-22T10:42:31.592Z</time></trkpt><trkpt lat="42.276425" lon="14.4069778"><ele>73.0</ele><time>2026-03-22T10:42:32.587Z</time></trkpt><trkpt lat="42.2763218" lon="14.4069549"><ele>72.0</ele><time>2026-03-22T10:42:33.588Z</time></trkpt><trkpt lat="42.2762256" lon="14.4069406"><ele>71.0</ele><time>2026-03-22T10:42:34.591Z</time></trkpt><trkpt lat="42.2761357" lon="14.4069177"><ele>70.0</ele><time>2026-03-22T10:42:35.589Z</time></trkpt><trkpt lat="42.2760635" lon="14.4069037"><ele>70.0</ele><time>2026-03-22T10:42:36.58Z</time></trkpt><trkpt lat="42.2759625" lon="14.4068376"><ele>70.0</ele><time>2026-03-22T10:42:38.582Z</time></trkpt><trkpt lat="42.2759182" lon="14.4067755"><ele>70.0</ele><time>2026-03-22T10:42:39.582Z</time></trkpt><trkpt lat="42.2758924" lon="14.4066918"><ele>70.0</ele><time>2026-03-22T10:42:40.578Z</time></trkpt><trkpt lat="42.275878" lon="14.4065855"><ele>70.0</ele><time>2026-03-22T10:42:41.585Z</time></trkpt><trkpt lat="42.2758487" lon="14.4064729"><ele>70.0</ele><time>2026-03-22T10:42:42.595Z</time></trkpt><trkpt lat="42.2758188" lon="14.406356"><ele>70.25</ele><time>2026-03-22T10:42:43.59Z</time></trkpt><trkpt lat="42.2757864" lon="14.4062268"><ele>70.5</ele><time>2026-03-22T10:42:44.596Z</time></trkpt><trkpt lat="42.2757297" lon="14.4061062"><ele>70.75</ele><time>2026-03-22T10:42:45.585Z</time></trkpt><trkpt lat="42.275655" lon="14.4059814"><ele>71.0</ele><time>2026-03-22T10:42:46.595Z</time></trkpt><trkpt lat="42.2755755" lon="14.4058479"><ele>71.0</ele><time>2026-03-22T10:42:47.593Z</time></trkpt><trkpt lat="42.2755061" lon="14.4057325"><ele>71.0</ele><time>2026-03-22T10:42:48.593Z</time></trkpt><trkpt lat="42.2754512" lon="14.4056022"><ele>71.0</ele><time>2026-03-22T10:42:49.586Z</time></trkpt><trkpt lat="42.275412" lon="14.4054517"><ele>71.0</ele><time>2026-03-22T10:42:50.594Z</time></trkpt><trkpt lat="42.2753757" lon="14.4052886"><ele>74.5</ele><time>2026-03-22T10:42:51.589Z</time></trkpt><trkpt lat="42.2753341" lon="14.4051214"><ele>78.0</ele><time>2026-03-22T10:42:52.598Z</time></trkpt><trkpt lat="42.2752926" lon="14.4049575"><ele>81.5</ele><time>2026-03-22T10:42:53.595Z</time></trkpt><trkpt lat="42.2752532" lon="14.4047977"><ele>85.0</ele><time>2026-03-22T10:42:54.593Z</time></trkpt><trkpt lat="42.2752164" lon="14.4046442"><ele>88.6</ele><time>2026-03-22T10:42:55.6Z</time></trkpt><trkpt lat="42.2751944" lon="14.4045061"><ele>92.2</ele><time>2026-03-22T10:42:56.597Z</time></trkpt><trkpt lat="42.2751675" lon="14.4043902"><ele>95.80000000000001</ele><time>2026-03-22T10:42:57.59Z</time></trkpt><trkpt lat="42.2751183" lon="14.4042791"><ele>99.4</ele><time>2026-03-22T10:42:58.589Z</time></trkpt><trkpt lat="42.2750486" lon="14.4041788"><ele>103.0</ele><time>2026-03-22T10:42:59.593Z</time></trkpt><trkpt lat="42.2749667" lon="14.4041037"><ele>103.00000000000001</ele><time>2026-03-22T10:43:00.59Z</time></trkpt><trkpt lat="42.2749085" lon="14.4040084"><ele>103.0</ele><time>2026-03-22T10:43:01.585Z</time></trkpt><trkpt lat="42.2748768" lon="14.4039047"><ele>103.0</ele><time>2026-03-22T10:43:02.591Z</time></trkpt><trkpt lat="42.2748596" lon="14.4038051"><ele>103.0</ele><time>2026-03-22T10:43:03.593Z</time></trkpt><trkpt lat="42.2748304" lon="14.4037249"><ele>103.00000000000001</ele><time>2026-03-22T10:43:04.593Z</time></trkpt><trkpt lat="42.2747658" lon="14.4036349"><ele>103.0</ele><time>2026-03-22T10:43:05.588Z</time></trkpt><trkpt lat="42.2746715" lon="14.4035213"><ele>103.25</ele><time>2026-03-22T10:43:06.588Z</time></trkpt><trkpt lat="42.2745785" lon="14.4033974"><ele>103.5</ele><time>2026-03-22T10:43:07.583Z</time></trkpt><trkpt lat="42.2744898" lon="14.4032452"><ele>103.75</ele><time>2026-03-22T10:43:08.583Z</time></trkpt><trkpt lat="42.2744091" lon="14.403068"><ele>104.0</ele><time>2026-03-22T10:43:09.581Z</time></trkpt><trkpt lat="42.2743109" lon="14.4028683"><ele>106.75</ele><time>2026-03-22T10:43:10.574Z</time></trkpt><trkpt lat="42.2742362" lon="14.402686"><ele>109.5</ele><time>2026-03-22T10:43:11.577Z</time></trkpt><trkpt lat="42.274159" lon="14.4025297"><ele>112.25</ele><time>2026-03-22T10:43:12.582Z</time></trkpt><trkpt lat="42.2740978" lon="14.4024102"><ele>115.0</ele><time>2026-03-22T10:43:13.583Z</time></trkpt><trkpt lat="42.274036" lon="14.402285"><ele>118.0</ele><time>2026-03-22T10:43:14.577Z</time></trkpt><trkpt lat="42.273975" lon="14.4021529"><ele>121.0</ele><time>2026-03-22T10:43:15.583Z</time></trkpt><trkpt lat="42.2739119" lon="14.4020135"><ele>124.0</ele><time>2026-03-22T10:43:16.582Z</time></trkpt><trkpt lat="42.2738542" lon="14.4018675"><ele>127.0</ele><time>2026-03-22T10:43:17.584Z</time></trkpt><trkpt lat="42.2738045" lon="14.4016731"><ele>120.66666666666667</ele><time>2026-03-22T10:43:18.577Z</time></trkpt><trkpt lat="42.2737299" lon="14.4014994"><ele>114.33333333333334</ele><time>2026-03-22T10:43:19.573Z</time></trkpt><trkpt lat="42.273681" lon="14.4012897"><ele>108.0</ele><time>2026-03-22T10:43:20.572Z</time></trkpt><trkpt lat="42.2736677" lon="14.4010754"><ele>108.0</ele><time>2026-03-22T10:43:21.575Z</time></trkpt><trkpt lat="42.273656" lon="14.4008977"><ele>108.0</ele><time>2026-03-22T10:43:22.573Z</time></trkpt><trkpt lat="42.2736652" lon="14.4007177"><ele>108.0</ele><time>2026-03-22T10:43:23.576Z</time></trkpt><trkpt lat="42.2736875" lon="14.4005617"><ele>108.0</ele><time>2026-03-22T10:43:24.581Z</time></trkpt><trkpt lat="42.2736867" lon="14.4004057"><ele>110.75</ele><time>2026-03-22T10:43:25.575Z</time></trkpt><trkpt lat="42.2736144" lon="14.4002801"><ele>113.5</ele><time>2026-03-22T10:43:26.58Z</time></trkpt><trkpt lat="42.2735824" lon="14.4001419"><ele>116.25</ele><time>2026-03-22T10:43:27.582Z</time></trkpt><trkpt lat="42.2735776" lon="14.4000182"><ele>119.0</ele><time>2026-03-22T10:43:28.57Z</time></trkpt><trkpt lat="42.2735838" lon="14.3997967"><ele>121.25</ele><time>2026-03-22T10:43:29.576Z</time></trkpt><trkpt lat="42.2735867" lon="14.3996089"><ele>123.5</ele><time>2026-03-22T10:43:30.581Z</time></trkpt><trkpt lat="42.2736054" lon="14.3994215"><ele>125.75</ele><time>2026-03-22T10:43:31.58Z</time></trkpt><trkpt lat="42.2736" lon="14.3992103"><ele>128.0</ele><time>2026-03-22T10:43:32.582Z</time></trkpt><trkpt lat="42.2736001" lon="14.399037"><ele>128.0</ele><time>2026-03-22T10:43:33.577Z</time></trkpt><trkpt lat="42.2736448" lon="14.3988685"><ele>128.0</ele><time>2026-03-22T10:43:34.578Z</time></trkpt><trkpt lat="42.2736806" lon="14.3986817"><ele>128.0</ele><time>2026-03-22T10:43:35.573Z</time></trkpt><trkpt lat="42.2736876" lon="14.3985411"><ele>128.0</ele><time>2026-03-22T10:43:36.583Z</time></trkpt><trkpt lat="42.2736626" lon="14.3983999"><ele>131.0</ele><time>2026-03-22T10:43:37.582Z</time></trkpt><trkpt lat="42.2736329" lon="14.3982173"><ele>134.0</ele><time>2026-03-22T10:43:38.582Z</time></trkpt><trkpt lat="42.2736167" lon="14.3980433"><ele>137.0</ele><time>2026-03-22T10:43:39.579Z</time></trkpt><trkpt lat="42.2736258" lon="14.3978695"><ele>140.0</ele><time>2026-03-22T10:43:40.574Z</time></trkpt><trkpt lat="42.2736434" lon="14.3976803"><ele>144.0</ele><time>2026-03-22T10:43:41.576Z</time></trkpt><trkpt lat="42.2736546" lon="14.3975083"><ele>148.0</ele><time>2026-03-22T10:43:42.575Z</time></trkpt><trkpt lat="42.2736752" lon="14.3972604"><ele>152.0</ele><time>2026-03-22T10:43:43.573Z</time></trkpt><trkpt lat="42.273678" lon="14.3970671"><ele>153.75</ele><time>2026-03-22T10:43:44.577Z</time></trkpt><trkpt lat="42.2736874" lon="14.3968732"><ele>155.5</ele><time>2026-03-22T10:43:45.577Z</time></trkpt><trkpt lat="42.273699" lon="14.3966998"><ele>157.25</ele><time>2026-03-22T10:43:46.569Z</time></trkpt><trkpt lat="42.2737257" lon="14.3965192"><ele>159.0</ele><time>2026-03-22T10:43:47.569Z</time></trkpt><trkpt lat="42.2737541" lon="14.3963415"><ele>160.5</ele><time>2026-03-22T10:43:48.576Z</time></trkpt><trkpt lat="42.273811" lon="14.3961853"><ele>162.0</ele><time>2026-03-22T10:43:49.574Z</time></trkpt><trkpt lat="42.2738371" lon="14.3960074"><ele>163.5</ele><time>2026-03-22T10:43:50.579Z</time></trkpt><trkpt lat="42.2738652" lon="14.3957984"><ele>165.0</ele><time>2026-03-22T10:43:51.569Z</time></trkpt><trkpt lat="42.2739098" lon="14.3956002"><ele>168.5</ele><time>2026-03-22T10:43:52.575Z</time></trkpt><trkpt lat="42.2739774" lon="14.3953917"><ele>172.0</ele><time>2026-03-22T10:43:53.578Z</time></trkpt><trkpt lat="42.2740162" lon="14.395181"><ele>175.5</ele><time>2026-03-22T10:43:54.567Z</time></trkpt><trkpt lat="42.2740455" lon="14.395034"><ele>179.0</ele><time>2026-03-22T10:43:55.573Z</time></trkpt><trkpt lat="42.2740611" lon="14.3948593"><ele>179.0</ele><time>2026-03-22T10:43:56.575Z</time></trkpt><trkpt lat="42.2740369" lon="14.3947297"><ele>179.0</ele><time>2026-03-22T10:43:57.569Z</time></trkpt><trkpt lat="42.2740092" lon="14.3945998"><ele>179.0</ele><time>2026-03-22T10:43:58.568Z</time></trkpt><trkpt lat="42.2739779" lon="14.3944606"><ele>179.0</ele><time>2026-03-22T10:43:59.584Z</time></trkpt><trkpt lat="42.273954" lon="14.3943447"><ele>179.0</ele><time>2026-03-22T10:44:00.583Z</time></trkpt><trkpt lat="42.2739258" lon="14.394167"><ele>179.5</ele><time>2026-03-22T10:44:01.578Z</time></trkpt><trkpt lat="42.2739014" lon="14.3939825"><ele>180.0</ele><time>2026-03-22T10:44:02.584Z</time></trkpt><trkpt lat="42.2738654" lon="14.3938059"><ele>180.5</ele><time>2026-03-22T10:44:03.572Z</time></trkpt><trkpt lat="42.2737938" lon="14.3936418"><ele>181.0</ele><time>2026-03-22T10:44:04.584Z</time></trkpt><trkpt lat="42.2737056" lon="14.3934878"><ele>181.75</ele><time>2026-03-22T10:44:05.584Z</time></trkpt><trkpt lat="42.2736546" lon="14.3933188"><ele>182.5</ele><time>2026-03-22T10:44:06.581Z</time></trkpt><trkpt lat="42.273647" lon="14.3931547"><ele>183.25</ele><time>2026-03-22T10:44:07.582Z</time></trkpt><trkpt lat="42.2736541" lon="14.3930036"><ele>184.0</ele><time>2026-03-22T10:44:08.588Z</time></trkpt><trkpt lat="42.2736976" lon="14.3928622"><ele>185.39999999999998</ele><time>2026-03-22T10:44:09.59Z</time></trkpt><trkpt lat="42.2737347" lon="14.3927711"><ele>186.8</ele><time>2026-03-22T10:44:10.593Z</time></trkpt><trkpt lat="42.2736752" lon="14.3926455"><ele>188.2</ele><time>2026-03-22T10:44:12.581Z</time></trkpt><trkpt lat="42.2735983" lon="14.3926085"><ele>189.60000000000002</ele><time>2026-03-22T10:44:13.579Z</time></trkpt><trkpt lat="42.2735019" lon="14.3925868"><ele>191.0</ele><time>2026-03-22T10:44:14.582Z</time></trkpt><trkpt lat="42.2733933" lon="14.3925373"><ele>191.0</ele><time>2026-03-22T10:44:15.579Z</time></trkpt><trkpt lat="42.2732788" lon="14.3924739"><ele>191.0</ele><time>2026-03-22T10:44:16.584Z</time></trkpt><trkpt lat="42.2731547" lon="14.3923981"><ele>191.0</ele><time>2026-03-22T10:44:17.583Z</time></trkpt><trkpt lat="42.2730168" lon="14.392306"><ele>191.0</ele><time>2026-03-22T10:44:18.584Z</time></trkpt><trkpt lat="42.2728677" lon="14.3922196"><ele>193.5</ele><time>2026-03-22T10:44:19.595Z</time></trkpt><trkpt lat="42.2727207" lon="14.3921486"><ele>196.0</ele><time>2026-03-22T10:44:20.593Z</time></trkpt><trkpt lat="42.2725808" lon="14.3920832"><ele>198.5</ele><time>2026-03-22T10:44:21.597Z</time></trkpt><trkpt lat="42.2724457" lon="14.3920153"><ele>201.0</ele><time>2026-03-22T10:44:22.594Z</time></trkpt><trkpt lat="42.2722936" lon="14.3919307"><ele>200.66666666666669</ele><time>2026-03-22T10:44:23.596Z</time></trkpt><trkpt lat="42.2721504" lon="14.3918465"><ele>200.33333333333334</ele><time>2026-03-22T10:44:24.589Z</time></trkpt><trkpt lat="42.2720022" lon="14.3917598"><ele>200.0</ele><time>2026-03-22T10:44:25.595Z</time></trkpt><trkpt lat="42.2718507" lon="14.391684"><ele>200.0</ele><time>2026-03-22T10:44:26.592Z</time></trkpt><trkpt lat="42.2717311" lon="14.3916147"><ele>200.0</ele><time>2026-03-22T10:44:27.59Z</time></trkpt><trkpt lat="42.2716176" lon="14.3915498"><ele>200.0</ele><time>2026-03-22T10:44:28.591Z</time></trkpt><trkpt lat="42.271516" lon="14.3914989"><ele>200.0</ele><time>2026-03-22T10:44:29.594Z</time></trkpt><trkpt lat="42.2714386" lon="14.3914483"><ele>200.0</ele><time>2026-03-22T10:44:30.583Z</time></trkpt><trkpt lat="42.2713753" lon="14.3914062"><ele>199.0</ele><time>2026-03-22T10:44:31.59Z</time></trkpt><trkpt lat="42.2712876" lon="14.3914089"><ele>198.0</ele><time>2026-03-22T10:44:33.593Z</time></trkpt><trkpt lat="42.2712254" lon="14.3915713"><ele>197.0</ele><time>2026-03-22T10:44:35.591Z</time></trkpt><trkpt lat="42.271215" lon="14.3917123"><ele>196.0</ele><time>2026-03-22T10:44:36.585Z</time></trkpt><trkpt lat="42.2712039" lon="14.3918774"><ele>196.0</ele><time>2026-03-22T10:44:37.587Z</time></trkpt><trkpt lat="42.2711948" lon="14.392033"><ele>196.0</ele><time>2026-03-22T10:44:38.59Z</time></trkpt><trkpt lat="42.2711854" lon="14.3922003"><ele>196.0</ele><time>2026-03-22T10:44:39.595Z</time></trkpt><trkpt lat="42.2711702" lon="14.3923841"><ele>196.0</ele><time>2026-03-22T10:44:40.591Z</time></trkpt><trkpt lat="42.2711591" lon="14.3925678"><ele>196.25</ele><time>2026-03-22T10:44:41.589Z</time></trkpt><trkpt lat="42.2711491" lon="14.3927663"><ele>196.5</ele><time>2026-03-22T10:44:42.59Z</time></trkpt><trkpt lat="42.271132" lon="14.3929546"><ele>196.75</ele><time>2026-03-22T10:44:43.591Z</time></trkpt><trkpt lat="42.2711162" lon="14.3931278"><ele>197.0</ele><time>2026-03-22T10:44:44.595Z</time></trkpt><trkpt lat="42.2711136" lon="14.3932853"><ele>197.0</ele><time>2026-03-22T10:44:45.596Z</time></trkpt><trkpt lat="42.2711044" lon="14.3934456"><ele>197.0</ele><time>2026-03-22T10:44:46.594Z</time></trkpt><trkpt lat="42.2710791" lon="14.3936102"><ele>197.0</ele><time>2026-03-22T10:44:47.602Z</time></trkpt><trkpt lat="42.2710651" lon="14.3937792"><ele>197.0</ele><time>2026-03-22T10:44:48.605Z</time></trkpt><trkpt lat="42.271049" lon="14.3939621"><ele>195.66666666666669</ele><time>2026-03-22T10:44:49.601Z</time></trkpt><trkpt lat="42.2710312" lon="14.3941512"><ele>194.33333333333331</ele><time>2026-03-22T10:44:50.612Z</time></trkpt><trkpt lat="42.2710136" lon="14.3943679"><ele>193.0</ele><time>2026-03-22T10:44:51.597Z</time></trkpt><trkpt lat="42.2709906" lon="14.3945687"><ele>191.25</ele><time>2026-03-22T10:44:52.605Z</time></trkpt><trkpt lat="42.2709665" lon="14.3947517"><ele>189.5</ele><time>2026-03-22T10:44:53.605Z</time></trkpt><trkpt lat="42.2709561" lon="14.3949288"><ele>187.75</ele><time>2026-03-22T10:44:54.608Z</time></trkpt><trkpt lat="42.2709387" lon="14.3950911"><ele>186.0</ele><time>2026-03-22T10:44:55.606Z</time></trkpt><trkpt lat="42.2709083" lon="14.3952852"><ele>186.0</ele><time>2026-03-22T10:44:56.605Z</time></trkpt><trkpt lat="42.2708779" lon="14.3954517"><ele>186.0</ele><time>2026-03-22T10:44:57.611Z</time></trkpt><trkpt lat="42.270839" lon="14.3956312"><ele>186.0</ele><time>2026-03-22T10:44:58.604Z</time></trkpt><trkpt lat="42.2708024" lon="14.3958149"><ele>186.0</ele><time>2026-03-22T10:44:59.6Z</time></trkpt><trkpt lat="42.2707622" lon="14.3959739"><ele>184.25</ele><time>2026-03-22T10:45:00.589Z</time></trkpt><trkpt lat="42.2707131" lon="14.3961104"><ele>182.5</ele><time>2026-03-22T10:45:01.585Z</time></trkpt><trkpt lat="42.2706896" lon="14.396255"><ele>180.75</ele><time>2026-03-22T10:45:02.582Z</time></trkpt><trkpt lat="42.2706976" lon="14.3964162"><ele>179.0</ele><time>2026-03-22T10:45:03.584Z</time></trkpt><trkpt lat="42.2707041" lon="14.3965824"><ele>178.6</ele><time>2026-03-22T10:45:04.579Z</time></trkpt><trkpt lat="42.2707202" lon="14.3967756"><ele>178.2</ele><time>2026-03-22T10:45:05.586Z</time></trkpt><trkpt lat="42.270737" lon="14.3969177"><ele>177.79999999999998</ele><time>2026-03-22T10:45:06.592Z</time></trkpt><trkpt lat="42.270741" lon="14.3970308"><ele>177.39999999999998</ele><time>2026-03-22T10:45:07.585Z</time></trkpt><trkpt lat="42.2707575" lon="14.3971551"><ele>177.0</ele><time>2026-03-22T10:45:08.585Z</time></trkpt><trkpt lat="42.2707937" lon="14.3972822"><ele>175.39999999999998</ele><time>2026-03-22T10:45:09.588Z</time></trkpt><trkpt lat="42.2708445" lon="14.3974121"><ele>173.79999999999998</ele><time>2026-03-22T10:45:10.591Z</time></trkpt><trkpt lat="42.2708848" lon="14.3975312"><ele>172.2</ele><time>2026-03-22T10:45:11.585Z</time></trkpt><trkpt lat="42.2708982" lon="14.3976584"><ele>170.6</ele><time>2026-03-22T10:45:12.576Z</time></trkpt><trkpt lat="42.2708929" lon="14.3977969"><ele>169.0</ele><time>2026-03-22T10:45:13.581Z</time></trkpt><trkpt lat="42.2708744" lon="14.3979399"><ele>167.0</ele><time>2026-03-22T10:45:14.58Z</time></trkpt><trkpt lat="42.270857" lon="14.3980803"><ele>165.0</ele><time>2026-03-22T10:45:15.582Z</time></trkpt><trkpt lat="42.2708501" lon="14.3982135"><ele>163.0</ele><time>2026-03-22T10:45:16.584Z</time></trkpt><trkpt lat="42.2708589" lon="14.3983324"><ele>161.0</ele><time>2026-03-22T10:45:17.576Z</time></trkpt><trkpt lat="42.2708883" lon="14.3984304"><ele>159.0</ele><time>2026-03-22T10:45:18.58Z</time></trkpt><trkpt lat="42.27094" lon="14.3985349"><ele>159.0</ele><time>2026-03-22T10:45:19.588Z</time></trkpt><trkpt lat="42.2710271" lon="14.3986088"><ele>159.0</ele><time>2026-03-22T10:45:20.582Z</time></trkpt><trkpt lat="42.2711382" lon="14.3986836"><ele>159.0</ele><time>2026-03-22T10:45:21.586Z</time></trkpt><trkpt lat="42.2712336" lon="14.3987772"><ele>159.0</ele><time>2026-03-22T10:45:22.572Z</time></trkpt><trkpt lat="42.2712966" lon="14.3988474"><ele>159.0</ele><time>2026-03-22T10:45:23.573Z</time></trkpt><trkpt lat="42.2713328" lon="14.3989224"><ele>157.0</ele><time>2026-03-22T10:45:24.586Z</time></trkpt><trkpt lat="42.271302" lon="14.399058"><ele>155.0</ele><time>2026-03-22T10:45:26.578Z</time></trkpt><trkpt lat="42.27128" lon="14.3991568"><ele>153.0</ele><time>2026-03-22T10:45:27.576Z</time></trkpt><trkpt lat="42.2712753" lon="14.3992828"><ele>151.0</ele><time>2026-03-22T10:45:28.587Z</time></trkpt><trkpt lat="42.271278" lon="14.3994006"><ele>149.0</ele><time>2026-03-22T10:45:29.583Z</time></trkpt><trkpt lat="42.2712784" lon="14.3995158"><ele>147.0</ele><time>2026-03-22T10:45:30.581Z</time></trkpt><trkpt lat="42.2712888" lon="14.3996306"><ele>144.5</ele><time>2026-03-22T10:45:31.586Z</time></trkpt><trkpt lat="42.2713111" lon="14.3997467"><ele>142.0</ele><time>2026-03-22T10:45:32.578Z</time></trkpt><trkpt lat="42.2713523" lon="14.3998488"><ele>139.5</ele><time>2026-03-22T10:45:33.578Z</time></trkpt><trkpt lat="42.2713987" lon="14.3999451"><ele>137.0</ele><time>2026-03-22T10:45:34.577Z</time></trkpt><trkpt lat="42.2714628" lon="14.4000256"><ele>134.5</ele><time>2026-03-22T10:45:35.579Z</time></trkpt><trkpt lat="42.2715484" lon="14.4000849"><ele>132.0</ele><time>2026-03-22T10:45:36.58Z</time></trkpt><trkpt lat="42.2716386" lon="14.4001331"><ele>132.0</ele><time>2026-03-22T10:45:37.579Z</time></trkpt><trkpt lat="42.2717195" lon="14.4001811"><ele>132.0</ele><time>2026-03-22T10:45:38.58Z</time></trkpt><trkpt lat="42.2717773" lon="14.4002354"><ele>132.0</ele><time>2026-03-22T10:45:39.577Z</time></trkpt><trkpt lat="42.2718198" lon="14.4003053"><ele>132.0</ele><time>2026-03-22T10:45:40.576Z</time></trkpt><trkpt lat="42.2718513" lon="14.4003902"><ele>132.0</ele><time>2026-03-22T10:45:41.584Z</time></trkpt><trkpt lat="42.2718768" lon="14.4004932"><ele>132.0</ele><time>2026-03-22T10:45:42.578Z</time></trkpt><trkpt lat="42.2719135" lon="14.4005883"><ele>128.2</ele><time>2026-03-22T10:45:43.579Z</time></trkpt><trkpt lat="42.2719461" lon="14.4006905"><ele>124.39999999999999</ele><time>2026-03-22T10:45:44.584Z</time></trkpt><trkpt lat="42.2719463" lon="14.400813"><ele>120.60000000000001</ele><time>2026-03-22T10:45:45.575Z</time></trkpt><trkpt lat="42.2719297" lon="14.4009865"><ele>116.80000000000001</ele><time>2026-03-22T10:45:46.578Z</time></trkpt><trkpt lat="42.2719222" lon="14.4011732"><ele>113.0</ele><time>2026-03-22T10:45:47.589Z</time></trkpt><trkpt lat="42.2719095" lon="14.4013485"><ele>108.5</ele><time>2026-03-22T10:45:48.585Z</time></trkpt><trkpt lat="42.2718863" lon="14.4015178"><ele>104.0</ele><time>2026-03-22T10:45:49.584Z</time></trkpt><trkpt lat="42.271861" lon="14.4016982"><ele>99.5</ele><time>2026-03-22T10:45:50.591Z</time></trkpt><trkpt lat="42.2718431" lon="14.4018825"><ele>95.0</ele><time>2026-03-22T10:45:51.59Z</time></trkpt><trkpt lat="42.2718138" lon="14.4020781"><ele>92.0</ele><time>2026-03-22T10:45:52.596Z</time></trkpt><trkpt lat="42.271799" lon="14.4022653"><ele>89.0</ele><time>2026-03-22T10:45:53.591Z</time></trkpt><trkpt lat="42.271781" lon="14.4024236"><ele>86.0</ele><time>2026-03-22T10:45:54.59Z</time></trkpt><trkpt lat="42.2717736" lon="14.4025654"><ele>83.0</ele><time>2026-03-22T10:45:55.591Z</time></trkpt><trkpt lat="42.2717621" lon="14.4026817"><ele>83.0</ele><time>2026-03-22T10:45:56.581Z</time></trkpt><trkpt lat="42.2717267" lon="14.4027695"><ele>83.0</ele><time>2026-03-22T10:45:58.581Z</time></trkpt><trkpt lat="42.2716339" lon="14.4028421"><ele>83.0</ele><time>2026-03-22T10:46:00.591Z</time></trkpt><trkpt lat="42.2715584" lon="14.4028166"><ele>83.0</ele><time>2026-03-22T10:46:01.581Z</time></trkpt><trkpt lat="42.2714799" lon="14.4027822"><ele>83.0</ele><time>2026-03-22T10:46:02.586Z</time></trkpt><trkpt lat="42.2714119" lon="14.4027619"><ele>83.0</ele><time>2026-03-22T10:46:03.584Z</time></trkpt><trkpt lat="42.2713591" lon="14.402823"><ele>82.2</ele><time>2026-03-22T10:46:05.587Z</time></trkpt><trkpt lat="42.2713534" lon="14.4029347"><ele>81.4</ele><time>2026-03-22T10:46:06.592Z</time></trkpt><trkpt lat="42.2713608" lon="14.4030851"><ele>80.60000000000001</ele><time>2026-03-22T10:46:07.585Z</time></trkpt><trkpt lat="42.2713577" lon="14.4032488"><ele>79.80000000000001</ele><time>2026-03-22T10:46:08.588Z</time></trkpt><trkpt lat="42.2713413" lon="14.403382"><ele>79.0</ele><time>2026-03-22T10:46:09.587Z</time></trkpt><trkpt lat="42.2713357" lon="14.4035046"><ele>78.5</ele><time>2026-03-22T10:46:10.587Z</time></trkpt><trkpt lat="42.2713311" lon="14.4036298"><ele>78.0</ele><time>2026-03-22T10:46:11.585Z</time></trkpt><trkpt lat="42.2713182" lon="14.4037361"><ele>77.5</ele><time>2026-03-22T10:46:12.59Z</time></trkpt><trkpt lat="42.2713022" lon="14.4038192"><ele>77.0</ele><time>2026-03-22T10:46:13.583Z</time></trkpt><trkpt lat="42.2712653" lon="14.4038981"><ele>76.5</ele><time>2026-03-22T10:46:15.576Z</time></trkpt><trkpt lat="42.271191" lon="14.4038717"><ele>76.0</ele><time>2026-03-22T10:46:17.581Z</time></trkpt><trkpt lat="42.2711244" lon="14.4038143"><ele>75.6</ele><time>2026-03-22T10:46:18.578Z</time></trkpt><trkpt lat="42.271037" lon="14.403751"><ele>75.19999999999999</ele><time>2026-03-22T10:46:19.582Z</time></trkpt><trkpt lat="42.2709491" lon="14.4037097"><ele>74.80000000000001</ele><time>2026-03-22T10:46:20.588Z</time></trkpt><trkpt lat="42.2708744" lon="14.4036838"><ele>74.4</ele><time>2026-03-22T10:46:21.586Z</time></trkpt><trkpt lat="42.2707511" lon="14.403707"><ele>74.0</ele><time>2026-03-22T10:46:23.583Z</time></trkpt><trkpt lat="42.2706567" lon="14.4037382"><ele>73.25</ele><time>2026-03-22T10:46:24.576Z</time></trkpt><trkpt lat="42.2705837" lon="14.4037494"><ele>72.5</ele><time>2026-03-22T10:46:25.578Z</time></trkpt><trkpt lat="42.2704391" lon="14.4036439"><ele>71.75</ele><time>2026-03-22T10:46:27.579Z</time></trkpt><trkpt lat="42.270349" lon="14.403538"><ele>71.0</ele><time>2026-03-22T10:46:28.587Z</time></trkpt><trkpt lat="42.2702776" lon="14.403429"><ele>71.0</ele><time>2026-03-22T10:46:29.585Z</time></trkpt><trkpt lat="42.2702428" lon="14.4033143"><ele>71.0</ele><time>2026-03-22T10:46:30.582Z</time></trkpt><trkpt lat="42.2702286" lon="14.4032201"><ele>71.0</ele><time>2026-03-22T10:46:31.582Z</time></trkpt><trkpt lat="42.2701971" lon="14.4031294"><ele>71.0</ele><time>2026-03-22T10:46:33.575Z</time></trkpt><trkpt lat="42.2701339" lon="14.4031953"><ele>71.0</ele><time>2026-03-22T10:46:35.585Z</time></trkpt><trkpt lat="42.2701146" lon="14.403293"><ele>71.0</ele><time>2026-03-22T10:46:36.572Z</time></trkpt><trkpt lat="42.2700893" lon="14.4034302"><ele>71.0</ele><time>2026-03-22T10:46:37.573Z</time></trkpt><trkpt lat="42.2700446" lon="14.4035876"><ele>71.0</ele><time>2026-03-22T10:46:38.575Z</time></trkpt><trkpt lat="42.269976" lon="14.4037553"><ele>71.0</ele><time>2026-03-22T10:46:39.583Z</time></trkpt><trkpt lat="42.2699056" lon="14.4039318"><ele>71.0</ele><time>2026-03-22T10:46:40.582Z</time></trkpt><trkpt lat="42.2698395" lon="14.4040993"><ele>71.6</ele><time>2026-03-22T10:46:41.577Z</time></trkpt><trkpt lat="42.2697862" lon="14.4042465"><ele>72.19999999999999</ele><time>2026-03-22T10:46:42.579Z</time></trkpt><trkpt lat="42.2697416" lon="14.4043474"><ele>72.80000000000001</ele><time>2026-03-22T10:46:43.581Z</time></trkpt><trkpt lat="42.2696356" lon="14.4044423"><ele>73.4</ele><time>2026-03-22T10:46:45.582Z</time></trkpt><trkpt lat="42.2695356" lon="14.4044236"><ele>74.0</ele><time>2026-03-22T10:46:46.587Z</time></trkpt><trkpt lat="42.2694131" lon="14.4044111"><ele>75.25</ele><time>2026-03-22T10:46:47.587Z</time></trkpt><trkpt lat="42.2692809" lon="14.4044043"><ele>76.5</ele><time>2026-03-22T10:46:48.582Z</time></trkpt><trkpt lat="42.269141" lon="14.404404"><ele>77.75</ele><time>2026-03-22T10:46:49.585Z</time></trkpt><trkpt lat="42.2690122" lon="14.4044194"><ele>79.0</ele><time>2026-03-22T10:46:50.591Z</time></trkpt><trkpt lat="42.2689249" lon="14.4044499"><ele>81.4</ele><time>2026-03-22T10:46:51.591Z</time></trkpt><trkpt lat="42.2688567" lon="14.4045028"><ele>83.80000000000001</ele><time>2026-03-22T10:46:52.594Z</time></trkpt><trkpt lat="42.2688089" lon="14.4046219"><ele>86.19999999999999</ele><time>2026-03-22T10:46:53.586Z</time></trkpt><trkpt lat="42.2687754" lon="14.404753"><ele>88.6</ele><time>2026-03-22T10:46:54.587Z</time></trkpt><trkpt lat="42.268767" lon="14.404891"><ele>91.0</ele><time>2026-03-22T10:46:55.578Z</time></trkpt><trkpt lat="42.2687883" lon="14.405031"><ele>91.4</ele><time>2026-03-22T10:46:56.592Z</time></trkpt><trkpt lat="42.268835" lon="14.4051931"><ele>91.8</ele><time>2026-03-22T10:46:57.581Z</time></trkpt><trkpt lat="42.2688968" lon="14.4053464"><ele>92.2</ele><time>2026-03-22T10:46:58.586Z</time></trkpt><trkpt lat="42.2689585" lon="14.4054576"><ele>92.60000000000001</ele><time>2026-03-22T10:46:59.579Z</time></trkpt><trkpt lat="42.2690008" lon="14.4055453"><ele>93.0</ele><time>2026-03-22T10:47:00.571Z</time></trkpt><trkpt lat="42.2689175" lon="14.4055181"><ele>95.75</ele><time>2026-03-22T10:47:04.583Z</time></trkpt><trkpt lat="42.2688531" lon="14.405425"><ele>98.5</ele><time>2026-03-22T10:47:05.575Z</time></trkpt><trkpt lat="42.2687556" lon="14.4053043"><ele>101.25</ele><time>2026-03-22T10:47:06.579Z</time></trkpt><trkpt lat="42.2686322" lon="14.405182"><ele>104.0</ele><time>2026-03-22T10:47:07.585Z</time></trkpt><trkpt lat="42.2684923" lon="14.4050686"><ele>104.0</ele><time>2026-03-22T10:47:08.58Z</time></trkpt><trkpt lat="42.2683472" lon="14.4049513"><ele>104.0</ele><time>2026-03-22T10:47:09.582Z</time></trkpt><trkpt lat="42.268198" lon="14.404842"><ele>104.0</ele><time>2026-03-22T10:47:10.588Z</time></trkpt><trkpt lat="42.2680521" lon="14.4047334"><ele>104.0</ele><time>2026-03-22T10:47:11.585Z</time></trkpt><trkpt lat="42.2679165" lon="14.4046094"><ele>104.0</ele><time>2026-03-22T10:47:12.594Z</time></trkpt><trkpt lat="42.2677835" lon="14.4044907"><ele>104.0</ele><time>2026-03-22T10:47:13.589Z</time></trkpt><trkpt lat="42.2676492" lon="14.404349"><ele>104.0</ele><time>2026-03-22T10:47:14.602Z</time></trkpt><trkpt lat="42.2675508" lon="14.4042544"><ele>104.0</ele><time>2026-03-22T10:47:15.592Z</time></trkpt><trkpt lat="42.2674483" lon="14.4041329"><ele>104.0</ele><time>2026-03-22T10:47:16.588Z</time></trkpt><trkpt lat="42.2673099" lon="14.404037"><ele>104.0</ele><time>2026-03-22T10:47:17.579Z</time></trkpt><trkpt lat="42.267173" lon="14.4039961"><ele>104.0</ele><time>2026-03-22T10:47:18.582Z</time></trkpt><trkpt lat="42.2670279" lon="14.4039687"><ele>104.0</ele><time>2026-03-22T10:47:19.588Z</time></trkpt><trkpt lat="42.2668885" lon="14.4039065"><ele>104.0</ele><time>2026-03-22T10:47:20.571Z</time></trkpt><trkpt lat="42.2667771" lon="14.4038399"><ele>104.0</ele><time>2026-03-22T10:47:21.575Z</time></trkpt><trkpt lat="42.2666745" lon="14.4037025"><ele>104.0</ele><time>2026-03-22T10:47:22.578Z</time></trkpt><trkpt lat="42.2665915" lon="14.4035642"><ele>104.0</ele><time>2026-03-22T10:47:23.577Z</time></trkpt><trkpt lat="42.2665024" lon="14.40345"><ele>104.0</ele><time>2026-03-22T10:47:24.578Z</time></trkpt><trkpt lat="42.266442" lon="14.4033278"><ele>104.0</ele><time>2026-03-22T10:47:25.583Z</time></trkpt><trkpt lat="42.2664047" lon="14.4032342"><ele>104.0</ele><time>2026-03-22T10:47:26.584Z</time></trkpt><trkpt lat="42.2663574" lon="14.4031553"><ele>104.99999999999999</ele><time>2026-03-22T10:47:27.585Z</time></trkpt><trkpt lat="42.2663131" lon="14.4030939"><ele>106.0</ele><time>2026-03-22T10:47:28.582Z</time></trkpt><trkpt lat="42.2663077" lon="14.402991"><ele>107.0</ele><time>2026-03-22T10:47:39.58Z</time></trkpt><trkpt lat="42.2662485" lon="14.4029198"><ele>108.0</ele><time>2026-03-22T10:47:42.591Z</time></trkpt><trkpt lat="42.266193" lon="14.4028333"><ele>108.99999999999999</ele><time>2026-03-22T10:47:44.589Z</time></trkpt><trkpt lat="42.2661263" lon="14.4027134"><ele>110.0</ele><time>2026-03-22T10:47:46.591Z</time></trkpt><trkpt lat="42.2660803" lon="14.4025936"><ele>110.0</ele><time>2026-03-22T10:47:48.594Z</time></trkpt></trkseg><trkseg><trkpt lat="42.2660601" lon="14.4026206"><ele>109.99999999999999</ele><time>2026-03-22T10:58:19.624Z</time></trkpt><trkpt lat="42.266113" lon="14.4027013"><ele>110.0</ele><time>2026-03-22T10:58:21.621Z</time></trkpt><trkpt lat="42.2661319" lon="14.4027839"><ele>110.0</ele><time>2026-03-22T10:58:56.623Z</time></trkpt><trkpt lat="42.2661821" lon="14.4028434"><ele>110.0</ele><time>2026-03-22T10:58:59.629Z</time></trkpt><trkpt lat="42.266267" lon="14.402951"><ele>109.99999999999999</ele><time>2026-03-22T10:59:01.623Z</time></trkpt><trkpt lat="42.2663264" lon="14.403056"><ele>110.0</ele><time>2026-03-22T10:59:03.613Z</time></trkpt><trkpt lat="42.2662407" lon="14.4031204"><ele>110.0</ele><time>2026-03-22T10:59:06.624Z</time></trkpt><trkpt lat="42.2661397" lon="14.403011"><ele>110.0</ele><time>2026-03-22T10:59:08.616Z</time></trkpt><trkpt lat="42.2660857" lon="14.4029164"><ele>110.0</ele><time>2026-03-22T10:59:09.618Z</time></trkpt><trkpt lat="42.2660073" lon="14.4028137"><ele>110.0</ele><time>2026-03-22T10:59:10.614Z</time></trkpt><trkpt lat="42.2659223" lon="14.4026949"><ele>110.0</ele><time>2026-03-22T10:59:11.621Z</time></trkpt><trkpt lat="42.2658272" lon="14.4025844"><ele>110.0</ele><time>2026-03-22T10:59:12.622Z</time></trkpt><trkpt lat="42.2657363" lon="14.4024702"><ele>110.0</ele><time>2026-03-22T10:59:13.624Z</time></trkpt><trkpt lat="42.2656457" lon="14.4023639"><ele>110.0</ele><time>2026-03-22T10:59:14.622Z</time></trkpt><trkpt lat="42.2655622" lon="14.402276"><ele>110.0</ele><time>2026-03-22T10:59:15.619Z</time></trkpt><trkpt lat="42.2654843" lon="14.4021953"><ele>110.0</ele><time>2026-03-22T10:59:16.625Z</time></trkpt><trkpt lat="42.2654159" lon="14.4021225"><ele>110.16666666666666</ele><time>2026-03-22T10:59:17.618Z</time></trkpt><trkpt lat="42.2653572" lon="14.402058"><ele>110.33333333333333</ele><time>2026-03-22T10:59:18.618Z</time></trkpt><trkpt lat="42.2652838" lon="14.401948"><ele>110.5</ele><time>2026-03-22T10:59:20.615Z</time></trkpt><trkpt lat="42.2652466" lon="14.4018786"><ele>110.66666666666666</ele><time>2026-03-22T10:59:21.627Z</time></trkpt><trkpt lat="42.2652126" lon="14.4017963"><ele>110.83333333333333</ele><time>2026-03-22T10:59:22.635Z</time></trkpt><trkpt lat="42.2651723" lon="14.4017168"><ele>111.0</ele><time>2026-03-22T10:59:23.623Z</time></trkpt><trkpt lat="42.2651235" lon="14.4016457"><ele>111.0</ele><time>2026-03-22T10:59:24.636Z</time></trkpt><trkpt lat="42.2650694" lon="14.4015775"><ele>111.0</ele><time>2026-03-22T10:59:25.628Z</time></trkpt><trkpt lat="42.2650018" lon="14.4015038"><ele>111.0</ele><time>2026-03-22T10:59:26.618Z</time></trkpt><trkpt lat="42.2649144" lon="14.4014385"><ele>111.0</ele><time>2026-03-22T10:59:27.624Z</time></trkpt><trkpt lat="42.2647982" lon="14.4013827"><ele>111.0</ele><time>2026-03-22T10:59:28.61Z</time></trkpt><trkpt lat="42.2646929" lon="14.4013142"><ele>113.0</ele><time>2026-03-22T10:59:29.611Z</time></trkpt><trkpt lat="42.2646042" lon="14.4012257"><ele>115.0</ele><time>2026-03-22T10:59:30.61Z</time></trkpt><trkpt lat="42.2645382" lon="14.401124"><ele>117.0</ele><time>2026-03-22T10:59:31.622Z</time></trkpt><trkpt lat="42.2644922" lon="14.4009886"><ele>119.0</ele><time>2026-03-22T10:59:32.623Z</time></trkpt><trkpt lat="42.264479" lon="14.4008136"><ele>119.0</ele><time>2026-03-22T10:59:33.614Z</time></trkpt><trkpt lat="42.2644756" lon="14.4006078"><ele>119.0</ele><time>2026-03-22T10:59:34.6Z</time></trkpt><trkpt lat="42.2644935" lon="14.4004051"><ele>119.0</ele><time>2026-03-22T10:59:35.604Z</time></trkpt><trkpt lat="42.2645301" lon="14.4002135"><ele>119.0</ele><time>2026-03-22T10:59:36.616Z</time></trkpt><trkpt lat="42.2645869" lon="14.4000863"><ele>119.0</ele><time>2026-03-22T10:59:37.606Z</time></trkpt><trkpt lat="42.2645747" lon="14.3999791"><ele>119.0</ele><time>2026-03-22T10:59:38.603Z</time></trkpt><trkpt lat="42.2645455" lon="14.3998652"><ele>119.0</ele><time>2026-03-22T10:59:39.614Z</time></trkpt><trkpt lat="42.2644499" lon="14.3997723"><ele>119.0</ele><time>2026-03-22T10:59:40.608Z</time></trkpt><trkpt lat="42.2643352" lon="14.3996669"><ele>116.0</ele><time>2026-03-22T10:59:41.607Z</time></trkpt><trkpt lat="42.264249" lon="14.3995498"><ele>113.0</ele><time>2026-03-22T10:59:42.607Z</time></trkpt><trkpt lat="42.2641917" lon="14.3994093"><ele>110.0</ele><time>2026-03-22T10:59:43.604Z</time></trkpt><trkpt lat="42.2641544" lon="14.3992588"><ele>107.0</ele><time>2026-03-22T10:59:44.593Z</time></trkpt><trkpt lat="42.2641165" lon="14.3990938"><ele>107.0</ele><time>2026-03-22T10:59:45.596Z</time></trkpt><trkpt lat="42.2640798" lon="14.3989128"><ele>107.0</ele><time>2026-03-22T10:59:46.6Z</time></trkpt><trkpt lat="42.2640493" lon="14.3987391"><ele>107.0</ele><time>2026-03-22T10:59:47.61Z</time></trkpt><trkpt lat="42.2640265" lon="14.3985667"><ele>107.0</ele><time>2026-03-22T10:59:48.611Z</time></trkpt><trkpt lat="42.2640061" lon="14.3984155"><ele>107.19999999999999</ele><time>2026-03-22T10:59:49.607Z</time></trkpt><trkpt lat="42.2639872" lon="14.3982761"><ele>107.39999999999999</ele><time>2026-03-22T10:59:50.606Z</time></trkpt><trkpt lat="42.2639448" lon="14.3981643"><ele>107.60000000000001</ele><time>2026-03-22T10:59:51.614Z</time></trkpt><trkpt lat="42.263861" lon="14.398063"><ele>107.80000000000001</ele><time>2026-03-22T10:59:52.615Z</time></trkpt><trkpt lat="42.2637519" lon="14.3979693"><ele>108.0</ele><time>2026-03-22T10:59:53.602Z</time></trkpt><trkpt lat="42.2636279" lon="14.397904"><ele>108.0</ele><time>2026-03-22T10:59:54.608Z</time></trkpt><trkpt lat="42.2634867" lon="14.3978623"><ele>108.0</ele><time>2026-03-22T10:59:55.623Z</time></trkpt><trkpt lat="42.2633264" lon="14.3978362"><ele>108.0</ele><time>2026-03-22T10:59:56.603Z</time></trkpt><trkpt lat="42.2631329" lon="14.3977979"><ele>112.0</ele><time>2026-03-22T10:59:57.598Z</time></trkpt><trkpt lat="42.2629423" lon="14.3977849"><ele>116.0</ele><time>2026-03-22T10:59:58.597Z</time></trkpt><trkpt lat="42.2627784" lon="14.3977638"><ele>120.0</ele><time>2026-03-22T10:59:59.599Z</time></trkpt><trkpt lat="42.2626374" lon="14.3977177"><ele>120.0</ele><time>2026-03-22T11:00:00.588Z</time></trkpt><trkpt lat="42.2624983" lon="14.3976676"><ele>120.0</ele><time>2026-03-22T11:00:01.585Z</time></trkpt><trkpt lat="42.2623346" lon="14.3976396"><ele>120.0</ele><time>2026-03-22T11:00:02.583Z</time></trkpt><trkpt lat="42.2621736" lon="14.3976268"><ele>123.0</ele><time>2026-03-22T11:00:03.591Z</time></trkpt><trkpt lat="42.2620248" lon="14.3976098"><ele>126.0</ele><time>2026-03-22T11:00:04.594Z</time></trkpt><trkpt lat="42.261877" lon="14.3975852"><ele>129.0</ele><time>2026-03-22T11:00:05.599Z</time></trkpt><trkpt lat="42.2617247" lon="14.3975741"><ele>129.0</ele><time>2026-03-22T11:00:06.607Z</time></trkpt><trkpt lat="42.2615649" lon="14.3975756"><ele>129.0</ele><time>2026-03-22T11:00:07.601Z</time></trkpt><trkpt lat="42.2614051" lon="14.3975725"><ele>129.0</ele><time>2026-03-22T11:00:08.601Z</time></trkpt><trkpt lat="42.2612419" lon="14.3975664"><ele>132.0</ele><time>2026-03-22T11:00:09.6Z</time></trkpt><trkpt lat="42.2610747" lon="14.3975408"><ele>135.0</ele><time>2026-03-22T11:00:10.598Z</time></trkpt><trkpt lat="42.2609055" lon="14.3975082"><ele>138.0</ele><time>2026-03-22T11:00:11.589Z</time></trkpt><trkpt lat="42.2607307" lon="14.3974813"><ele>140.33333333333334</ele><time>2026-03-22T11:00:12.596Z</time></trkpt><trkpt lat="42.2605559" lon="14.3974652"><ele>142.66666666666669</ele><time>2026-03-22T11:00:13.591Z</time></trkpt><trkpt lat="42.2603773" lon="14.397457"><ele>145.0</ele><time>2026-03-22T11:00:14.594Z</time></trkpt><trkpt lat="42.2602015" lon="14.3974662"><ele>145.0</ele><time>2026-03-22T11:00:15.6Z</time></trkpt><trkpt lat="42.2600279" lon="14.3974789"><ele>145.0</ele><time>2026-03-22T11:00:16.61Z</time></trkpt><trkpt lat="42.2598593" lon="14.3975124"><ele>145.0</ele><time>2026-03-22T11:00:17.597Z</time></trkpt><trkpt lat="42.2597018" lon="14.397554"><ele>146.25</ele><time>2026-03-22T11:00:18.589Z</time></trkpt><trkpt lat="42.2595822" lon="14.3975735"><ele>147.5</ele><time>2026-03-22T11:00:19.595Z</time></trkpt><trkpt lat="42.2594779" lon="14.3975437"><ele>148.75</ele><time>2026-03-22T11:00:20.601Z</time></trkpt><trkpt lat="42.2593649" lon="14.3974999"><ele>150.0</ele><time>2026-03-22T11:00:21.592Z</time></trkpt><trkpt lat="42.2592461" lon="14.3974796"><ele>150.0</ele><time>2026-03-22T11:00:22.6Z</time></trkpt><trkpt lat="42.2591089" lon="14.3974942"><ele>150.0</ele><time>2026-03-22T11:00:23.601Z</time></trkpt><trkpt lat="42.2589625" lon="14.397527"><ele>150.0</ele><time>2026-03-22T11:00:24.6Z</time></trkpt><trkpt lat="42.2588062" lon="14.3975641"><ele>150.0</ele><time>2026-03-22T11:00:25.605Z</time></trkpt><trkpt lat="42.2586436" lon="14.3976029"><ele>152.0</ele><time>2026-03-22T11:00:26.597Z</time></trkpt><trkpt lat="42.2584922" lon="14.397632"><ele>154.0</ele><time>2026-03-22T11:00:27.594Z</time></trkpt><trkpt lat="42.2583511" lon="14.3976468"><ele>156.0</ele><time>2026-03-22T11:00:28.589Z</time></trkpt><trkpt lat="42.2582202" lon="14.3976344"><ele>158.0</ele><time>2026-03-22T11:00:29.582Z</time></trkpt><trkpt lat="42.2580849" lon="14.3975953"><ele>159.25</ele><time>2026-03-22T11:00:30.597Z</time></trkpt><trkpt lat="42.2579407" lon="14.3975797"><ele>160.5</ele><time>2026-03-22T11:00:31.583Z</time></trkpt><trkpt lat="42.2578039" lon="14.3975406"><ele>161.75</ele><time>2026-03-22T11:00:32.593Z</time></trkpt><trkpt lat="42.2576683" lon="14.3974999"><ele>163.0</ele><time>2026-03-22T11:00:33.589Z</time></trkpt><trkpt lat="42.2575284" lon="14.397488"><ele>163.0</ele><time>2026-03-22T11:00:34.594Z</time></trkpt><trkpt lat="42.2574255" lon="14.3975242"><ele>163.0</ele><time>2026-03-22T11:00:35.583Z</time></trkpt><trkpt lat="42.2573314" lon="14.3975661"><ele>163.0</ele><time>2026-03-22T11:00:36.577Z</time></trkpt><trkpt lat="42.2572337" lon="14.3976378"><ele>163.0</ele><time>2026-03-22T11:00:37.575Z</time></trkpt><trkpt lat="42.2571245" lon="14.3977242"><ele>163.0</ele><time>2026-03-22T11:00:38.581Z</time></trkpt><trkpt lat="42.2570035" lon="14.3977707"><ele>163.8</ele><time>2026-03-22T11:00:39.588Z</time></trkpt><trkpt lat="42.2568461" lon="14.3977949"><ele>164.60000000000002</ele><time>2026-03-22T11:00:40.584Z</time></trkpt><trkpt lat="42.2567245" lon="14.3977848"><ele>165.39999999999998</ele><time>2026-03-22T11:00:41.585Z</time></trkpt><trkpt lat="42.2566461" lon="14.3977246"><ele>166.2</ele><time>2026-03-22T11:00:42.583Z</time></trkpt><trkpt lat="42.2565703" lon="14.3977017"><ele>167.0</ele><time>2026-03-22T11:00:43.579Z</time></trkpt><trkpt lat="42.2564664" lon="14.3976291"><ele>169.0</ele><time>2026-03-22T11:00:44.588Z</time></trkpt><trkpt lat="42.2563732" lon="14.3975736"><ele>171.0</ele><time>2026-03-22T11:00:45.575Z</time></trkpt><trkpt lat="42.2562713" lon="14.3975468"><ele>173.0</ele><time>2026-03-22T11:00:46.581Z</time></trkpt><trkpt lat="42.256156" lon="14.3975744"><ele>175.0</ele><time>2026-03-22T11:00:47.591Z</time></trkpt><trkpt lat="42.2560284" lon="14.3975645"><ele>175.0</ele><time>2026-03-22T11:00:48.585Z</time></trkpt><trkpt lat="42.2559009" lon="14.397558"><ele>175.0</ele><time>2026-03-22T11:00:49.583Z</time></trkpt><trkpt lat="42.2557777" lon="14.3975585"><ele>175.0</ele><time>2026-03-22T11:00:50.588Z</time></trkpt><trkpt lat="42.2556531" lon="14.3975694"><ele>175.0</ele><time>2026-03-22T11:00:51.58Z</time></trkpt><trkpt lat="42.2555296" lon="14.3975763"><ele>176.2</ele><time>2026-03-22T11:00:52.586Z</time></trkpt><trkpt lat="42.2554175" lon="14.3975718"><ele>177.4</ele><time>2026-03-22T11:00:53.586Z</time></trkpt><trkpt lat="42.2553184" lon="14.3975625"><ele>178.60000000000002</ele><time>2026-03-22T11:00:54.578Z</time></trkpt><trkpt lat="42.2552256" lon="14.3975247"><ele>179.8</ele><time>2026-03-22T11:00:55.584Z</time></trkpt><trkpt lat="42.2551251" lon="14.3974869"><ele>181.0</ele><time>2026-03-22T11:00:56.578Z</time></trkpt><trkpt lat="42.2550108" lon="14.3974435"><ele>181.0</ele><time>2026-03-22T11:00:57.567Z</time></trkpt><trkpt lat="42.254893" lon="14.3973966"><ele>181.0</ele><time>2026-03-22T11:00:58.575Z</time></trkpt><trkpt lat="42.2547694" lon="14.3973575"><ele>181.0</ele><time>2026-03-22T11:00:59.573Z</time></trkpt><trkpt lat="42.2546326" lon="14.397331"><ele>181.0</ele><time>2026-03-22T11:01:00.573Z</time></trkpt><trkpt lat="42.2545037" lon="14.3973025"><ele>180.75</ele><time>2026-03-22T11:01:01.571Z</time></trkpt><trkpt lat="42.2543818" lon="14.3972536"><ele>180.5</ele><time>2026-03-22T11:01:02.57Z</time></trkpt><trkpt lat="42.2542687" lon="14.3971545"><ele>180.25</ele><time>2026-03-22T11:01:03.569Z</time></trkpt><trkpt lat="42.2541615" lon="14.3970259"><ele>180.0</ele><time>2026-03-22T11:01:04.574Z</time></trkpt><trkpt lat="42.2540582" lon="14.3968823"><ele>182.75</ele><time>2026-03-22T11:01:05.566Z</time></trkpt><trkpt lat="42.2539517" lon="14.3967338"><ele>185.5</ele><time>2026-03-22T11:01:06.578Z</time></trkpt><trkpt lat="42.2538518" lon="14.3965985"><ele>188.25</ele><time>2026-03-22T11:01:07.566Z</time></trkpt><trkpt lat="42.2537777" lon="14.3964702"><ele>191.0</ele><time>2026-03-22T11:01:08.571Z</time></trkpt><trkpt lat="42.2537041" lon="14.3963568"><ele>192.2857142857143</ele><time>2026-03-22T11:01:09.573Z</time></trkpt><trkpt lat="42.2536432" lon="14.3962649"><ele>193.57142857142856</ele><time>2026-03-22T11:01:10.577Z</time></trkpt><trkpt lat="42.253582" lon="14.3962204"><ele>194.85714285714286</ele><time>2026-03-22T11:01:11.582Z</time></trkpt><trkpt lat="42.2535163" lon="14.3962154"><ele>196.14285714285717</ele><time>2026-03-22T11:01:12.589Z</time></trkpt><trkpt lat="42.2534524" lon="14.3962555"><ele>197.42857142857144</ele><time>2026-03-22T11:01:13.589Z</time></trkpt><trkpt lat="42.253388" lon="14.3962821"><ele>198.71428571428572</ele><time>2026-03-22T11:01:15.594Z</time></trkpt><trkpt lat="42.2534501" lon="14.3962363"><ele>200.0</ele><time>2026-03-22T11:01:18.585Z</time></trkpt><trkpt lat="42.2535146" lon="14.3962273"><ele>200.0</ele><time>2026-03-22T11:01:19.582Z</time></trkpt><trkpt lat="42.2535874" lon="14.3961922"><ele>200.0</ele><time>2026-03-22T11:01:20.597Z</time></trkpt><trkpt lat="42.2536517" lon="14.3961189"><ele>200.0</ele><time>2026-03-22T11:01:21.587Z</time></trkpt><trkpt lat="42.2537059" lon="14.3959893"><ele>200.0</ele><time>2026-03-22T11:01:22.592Z</time></trkpt><trkpt lat="42.2537244" lon="14.3958326"><ele>200.0</ele><time>2026-03-22T11:01:23.59Z</time></trkpt><trkpt lat="42.2537309" lon="14.3956933"><ele>200.0</ele><time>2026-03-22T11:01:24.592Z</time></trkpt><trkpt lat="42.2537609" lon="14.3955767"><ele>200.0</ele><time>2026-03-22T11:01:25.591Z</time></trkpt><trkpt lat="42.2538167" lon="14.3954771"><ele>200.0</ele><time>2026-03-22T11:01:26.592Z</time></trkpt><trkpt lat="42.2538898" lon="14.3954122"><ele>200.0</ele><time>2026-03-22T11:01:27.582Z</time></trkpt><trkpt lat="42.2539726" lon="14.3953619"><ele>200.0</ele><time>2026-03-22T11:01:28.587Z</time></trkpt><trkpt lat="42.2540777" lon="14.3953459"><ele>195.75</ele><time>2026-03-22T11:01:29.58Z</time></trkpt><trkpt lat="42.2542131" lon="14.3953591"><ele>191.5</ele><time>2026-03-22T11:01:30.591Z</time></trkpt><trkpt lat="42.2543518" lon="14.3953715"><ele>187.25</ele><time>2026-03-22T11:01:31.587Z</time></trkpt><trkpt lat="42.254483" lon="14.3953623"><ele>183.0</ele><time>2026-03-22T11:01:32.577Z</time></trkpt><trkpt lat="42.2546061" lon="14.3953376"><ele>183.0</ele><time>2026-03-22T11:01:33.58Z</time></trkpt><trkpt lat="42.254722" lon="14.3953023"><ele>183.0</ele><time>2026-03-22T11:01:34.577Z</time></trkpt><trkpt lat="42.2548305" lon="14.3952691"><ele>183.0</ele><time>2026-03-22T11:01:35.572Z</time></trkpt><trkpt lat="42.2549369" lon="14.3952411"><ele>183.0</ele><time>2026-03-22T11:01:36.591Z</time></trkpt><trkpt lat="42.2550342" lon="14.3952252"><ele>183.0</ele><time>2026-03-22T11:01:37.586Z</time></trkpt><trkpt lat="42.2551384" lon="14.3952166"><ele>181.4</ele><time>2026-03-22T11:01:38.58Z</time></trkpt><trkpt lat="42.255243" lon="14.395215"><ele>179.8</ele><time>2026-03-22T11:01:39.588Z</time></trkpt><trkpt lat="42.2553519" lon="14.3952141"><ele>178.2</ele><time>2026-03-22T11:01:40.599Z</time></trkpt><trkpt lat="42.255459" lon="14.395207"><ele>176.6</ele><time>2026-03-22T11:01:41.592Z</time></trkpt><trkpt lat="42.2555495" lon="14.3952087"><ele>175.0</ele><time>2026-03-22T11:01:42.595Z</time></trkpt><trkpt lat="42.2556424" lon="14.3952299"><ele>173.2</ele><time>2026-03-22T11:01:43.597Z</time></trkpt><trkpt lat="42.2557286" lon="14.3952784"><ele>171.4</ele><time>2026-03-22T11:01:44.586Z</time></trkpt><trkpt lat="42.2558212" lon="14.3953256"><ele>169.60000000000002</ele><time>2026-03-22T11:01:45.59Z</time></trkpt><trkpt lat="42.2559123" lon="14.3953483"><ele>167.8</ele><time>2026-03-22T11:01:46.59Z</time></trkpt><trkpt lat="42.2559985" lon="14.3953465"><ele>166.0</ele><time>2026-03-22T11:01:47.585Z</time></trkpt><trkpt lat="42.2560828" lon="14.3953325"><ele>166.0</ele><time>2026-03-22T11:01:48.588Z</time></trkpt><trkpt lat="42.2561621" lon="14.3953143"><ele>166.0</ele><time>2026-03-22T11:01:49.586Z</time></trkpt><trkpt lat="42.2562553" lon="14.3952564"><ele>166.0</ele><time>2026-03-22T11:01:51.584Z</time></trkpt><trkpt lat="42.2563301" lon="14.3951016"><ele>166.0</ele><time>2026-03-22T11:01:53.591Z</time></trkpt><trkpt lat="42.2563651" lon="14.3950234"><ele>166.0</ele><time>2026-03-22T11:01:54.588Z</time></trkpt><trkpt lat="42.2564332" lon="14.3949801"><ele>163.4</ele><time>2026-03-22T11:01:56.582Z</time></trkpt><trkpt lat="42.2565546" lon="14.3950591"><ele>160.8</ele><time>2026-03-22T11:01:58.589Z</time></trkpt><trkpt lat="42.2566474" lon="14.3950893"><ele>158.20000000000002</ele><time>2026-03-22T11:01:59.591Z</time></trkpt><trkpt lat="42.2567423" lon="14.3951025"><ele>155.60000000000002</ele><time>2026-03-22T11:02:00.59Z</time></trkpt><trkpt lat="42.256843" lon="14.3951033"><ele>153.0</ele><time>2026-03-22T11:02:01.587Z</time></trkpt><trkpt lat="42.2569427" lon="14.395108"><ele>153.0</ele><time>2026-03-22T11:02:02.591Z</time></trkpt><trkpt lat="42.257047" lon="14.3951215"><ele>153.0</ele><time>2026-03-22T11:02:03.585Z</time></trkpt><trkpt lat="42.2571539" lon="14.3951385"><ele>153.0</ele><time>2026-03-22T11:02:04.588Z</time></trkpt><trkpt lat="42.2572489" lon="14.3951483"><ele>153.0</ele><time>2026-03-22T11:02:05.59Z</time></trkpt><trkpt lat="42.2573461" lon="14.395143"><ele>153.0</ele><time>2026-03-22T11:02:06.586Z</time></trkpt><trkpt lat="42.2574493" lon="14.3951294"><ele>150.0</ele><time>2026-03-22T11:02:07.589Z</time></trkpt><trkpt lat="42.2575508" lon="14.3951059"><ele>147.0</ele><time>2026-03-22T11:02:08.59Z</time></trkpt><trkpt lat="42.2576488" lon="14.3950697"><ele>144.0</ele><time>2026-03-22T11:02:09.589Z</time></trkpt><trkpt lat="42.2577369" lon="14.395021"><ele>141.0</ele><time>2026-03-22T11:02:10.593Z</time></trkpt><trkpt lat="42.2578207" lon="14.394964"><ele>138.0</ele><time>2026-03-22T11:02:11.588Z</time></trkpt><trkpt lat="42.2579048" lon="14.3949217"><ele>138.0</ele><time>2026-03-22T11:02:12.591Z</time></trkpt><trkpt lat="42.2579932" lon="14.3949097"><ele>138.0</ele><time>2026-03-22T11:02:13.589Z</time></trkpt><trkpt lat="42.2580825" lon="14.3949102"><ele>138.0</ele><time>2026-03-22T11:02:14.589Z</time></trkpt><trkpt lat="42.2581824" lon="14.3948876"><ele>138.0</ele><time>2026-03-22T11:02:15.59Z</time></trkpt><trkpt lat="42.2582895" lon="14.3948426"><ele>138.0</ele><time>2026-03-22T11:02:16.597Z</time></trkpt><trkpt lat="42.2583998" lon="14.3947834"><ele>136.0</ele><time>2026-03-22T11:02:17.587Z</time></trkpt><trkpt lat="42.2585072" lon="14.3947188"><ele>134.0</ele><time>2026-03-22T11:02:18.592Z</time></trkpt><trkpt lat="42.2586106" lon="14.3946523"><ele>132.0</ele><time>2026-03-22T11:02:19.598Z</time></trkpt><trkpt lat="42.2587016" lon="14.3945946"><ele>130.0</ele><time>2026-03-22T11:02:20.59Z</time></trkpt><trkpt lat="42.2587818" lon="14.3945392"><ele>128.0</ele><time>2026-03-22T11:02:21.593Z</time></trkpt><trkpt lat="42.2588584" lon="14.3944583"><ele>128.0</ele><time>2026-03-22T11:02:22.591Z</time></trkpt><trkpt lat="42.2589406" lon="14.3943536"><ele>128.0</ele><time>2026-03-22T11:02:23.584Z</time></trkpt><trkpt lat="42.2590309" lon="14.3942403"><ele>128.0</ele><time>2026-03-22T11:02:24.583Z</time></trkpt><trkpt lat="42.2591384" lon="14.3941275"><ele>128.0</ele><time>2026-03-22T11:02:25.589Z</time></trkpt><trkpt lat="42.2592576" lon="14.3940145"><ele>124.66666666666666</ele><time>2026-03-22T11:02:26.591Z</time></trkpt><trkpt lat="42.2593912" lon="14.3939121"><ele>121.33333333333334</ele><time>2026-03-22T11:02:27.587Z</time></trkpt><trkpt lat="42.2595353" lon="14.3938155"><ele>118.0</ele><time>2026-03-22T11:02:28.577Z</time></trkpt><trkpt lat="42.2596818" lon="14.3937211"><ele>114.33333333333334</ele><time>2026-03-22T11:02:29.578Z</time></trkpt><trkpt lat="42.2598299" lon="14.3936275"><ele>110.66666666666666</ele><time>2026-03-22T11:02:30.583Z</time></trkpt><trkpt lat="42.2599771" lon="14.3935423"><ele>107.0</ele><time>2026-03-22T11:02:31.588Z</time></trkpt><trkpt lat="42.260124" lon="14.3934395"><ele>107.0</ele><time>2026-03-22T11:02:32.597Z</time></trkpt><trkpt lat="42.260286" lon="14.3933294"><ele>107.0</ele><time>2026-03-22T11:02:33.583Z</time></trkpt><trkpt lat="42.2604277" lon="14.3932188"><ele>107.0</ele><time>2026-03-22T11:02:34.589Z</time></trkpt><trkpt lat="42.2605692" lon="14.393143"><ele>105.33333333333333</ele><time>2026-03-22T11:02:35.588Z</time></trkpt><trkpt lat="42.2607173" lon="14.393058"><ele>103.66666666666666</ele><time>2026-03-22T11:02:36.592Z</time></trkpt><trkpt lat="42.260865" lon="14.3929558"><ele>102.0</ele><time>2026-03-22T11:02:37.601Z</time></trkpt><trkpt lat="42.2610047" lon="14.3928667"><ele>101.5</ele><time>2026-03-22T11:02:38.6Z</time></trkpt><trkpt lat="42.2611336" lon="14.3927928"><ele>101.0</ele><time>2026-03-22T11:02:39.593Z</time></trkpt><trkpt lat="42.2612471" lon="14.3927326"><ele>100.5</ele><time>2026-03-22T11:02:40.589Z</time></trkpt><trkpt lat="42.2613616" lon="14.3926565"><ele>100.0</ele><time>2026-03-22T11:02:41.594Z</time></trkpt><trkpt lat="42.2614852" lon="14.3925872"><ele>98.75</ele><time>2026-03-22T11:02:42.599Z</time></trkpt><trkpt lat="42.2616077" lon="14.3925068"><ele>97.5</ele><time>2026-03-22T11:02:43.593Z</time></trkpt><trkpt lat="42.2617217" lon="14.3924115"><ele>96.25</ele><time>2026-03-22T11:02:44.596Z</time></trkpt><trkpt lat="42.2618521" lon="14.3922972"><ele>95.0</ele><time>2026-03-22T11:02:45.593Z</time></trkpt><trkpt lat="42.261984" lon="14.3921855"><ele>94.6</ele><time>2026-03-22T11:02:46.594Z</time></trkpt><trkpt lat="42.2621058" lon="14.3921135"><ele>94.2</ele><time>2026-03-22T11:02:47.595Z</time></trkpt><trkpt lat="42.2622018" lon="14.3920622"><ele>93.80000000000001</ele><time>2026-03-22T11:02:48.589Z</time></trkpt><trkpt lat="42.2622807" lon="14.3920284"><ele>93.4</ele><time>2026-03-22T11:02:49.597Z</time></trkpt><trkpt lat="42.2623551" lon="14.3919824"><ele>93.0</ele><time>2026-03-22T11:02:50.582Z</time></trkpt><trkpt lat="42.2624461" lon="14.3919143"><ele>92.2</ele><time>2026-03-22T11:02:51.583Z</time></trkpt><trkpt lat="42.2625327" lon="14.3918524"><ele>91.4</ele><time>2026-03-22T11:02:52.585Z</time></trkpt><trkpt lat="42.2626015" lon="14.3918066"><ele>90.60000000000001</ele><time>2026-03-22T11:02:53.591Z</time></trkpt><trkpt lat="42.262702" lon="14.391771"><ele>89.80000000000001</ele><time>2026-03-22T11:02:55.582Z</time></trkpt><trkpt lat="42.2626977" lon="14.391657"><ele>89.0</ele><time>2026-03-22T11:03:02.594Z</time></trkpt><trkpt lat="42.2626221" lon="14.3915411"><ele>89.0</ele><time>2026-03-22T11:03:04.587Z</time></trkpt><trkpt lat="42.26258" lon="14.3914777"><ele>89.0</ele><time>2026-03-22T11:03:05.582Z</time></trkpt><trkpt lat="42.2625283" lon="14.3914241"><ele>89.0</ele><time>2026-03-22T11:03:06.59Z</time></trkpt><trkpt lat="42.2624268" lon="14.3913246"><ele>89.0</ele><time>2026-03-22T11:03:08.588Z</time></trkpt><trkpt lat="42.2623736" lon="14.3912707"><ele>89.0</ele><time>2026-03-22T11:03:09.604Z</time></trkpt><trkpt lat="42.2623203" lon="14.3912133"><ele>89.0</ele><time>2026-03-22T11:03:10.601Z</time></trkpt><trkpt lat="42.2622612" lon="14.3911563"><ele>89.42857142857142</ele><time>2026-03-22T11:03:11.593Z</time></trkpt><trkpt lat="42.2622035" lon="14.391105"><ele>89.85714285714286</ele><time>2026-03-22T11:03:12.586Z</time></trkpt><trkpt lat="42.2621499" lon="14.3910522"><ele>90.28571428571428</ele><time>2026-03-22T11:03:13.576Z</time></trkpt><trkpt lat="42.2620917" lon="14.3910133"><ele>90.71428571428571</ele><time>2026-03-22T11:03:14.589Z</time></trkpt><trkpt lat="42.2620204" lon="14.3909957"><ele>91.14285714285714</ele><time>2026-03-22T11:03:15.576Z</time></trkpt><trkpt lat="42.2619477" lon="14.3910159"><ele>91.57142857142857</ele><time>2026-03-22T11:03:16.588Z</time></trkpt><trkpt lat="42.2618814" lon="14.3910725"><ele>92.0</ele><time>2026-03-22T11:03:17.589Z</time></trkpt><trkpt lat="42.2618212" lon="14.3911479"><ele>92.0</ele><time>2026-03-22T11:03:18.59Z</time></trkpt><trkpt lat="42.2617391" lon="14.3912045"><ele>92.0</ele><time>2026-03-22T11:03:19.585Z</time></trkpt><trkpt lat="42.2616504" lon="14.3912451"><ele>92.0</ele><time>2026-03-22T11:03:20.585Z</time></trkpt><trkpt lat="42.2615577" lon="14.3912622"><ele>92.0</ele><time>2026-03-22T11:03:21.584Z</time></trkpt><trkpt lat="42.2614631" lon="14.3912522"><ele>92.0</ele><time>2026-03-22T11:03:22.584Z</time></trkpt><trkpt lat="42.2613692" lon="14.3912213"><ele>92.39999999999999</ele><time>2026-03-22T11:03:23.581Z</time></trkpt><trkpt lat="42.2612795" lon="14.3911757"><ele>92.8</ele><time>2026-03-22T11:03:24.587Z</time></trkpt><trkpt lat="42.2612131" lon="14.3911174"><ele>93.2</ele><time>2026-03-22T11:03:25.578Z</time></trkpt><trkpt lat="42.2611762" lon="14.3910402"><ele>93.6</ele><time>2026-03-22T11:03:26.598Z</time></trkpt><trkpt lat="42.2610857" lon="14.3909861"><ele>94.0</ele><time>2026-03-22T11:03:28.593Z</time></trkpt><trkpt lat="42.2609614" lon="14.3910805"><ele>94.0</ele><time>2026-03-22T11:03:30.592Z</time></trkpt><trkpt lat="42.2608867" lon="14.3911208"><ele>94.0</ele><time>2026-03-22T11:03:31.595Z</time></trkpt><trkpt lat="42.2608085" lon="14.3911156"><ele>94.0</ele><time>2026-03-22T11:03:32.6Z</time></trkpt><trkpt lat="42.2607451" lon="14.3910658"><ele>94.0</ele><time>2026-03-22T11:03:33.603Z</time></trkpt><trkpt lat="42.2607017" lon="14.3909545"><ele>94.0</ele><time>2026-03-22T11:03:35.606Z</time></trkpt><trkpt lat="42.2607227" lon="14.3908431"><ele>94.0</ele><time>2026-03-22T11:03:37.605Z</time></trkpt><trkpt lat="42.2607177" lon="14.3907462"><ele>94.0</ele><time>2026-03-22T11:03:39.629Z</time></trkpt><trkpt lat="42.2607198" lon="14.3906536"><ele>94.0</ele><time>2026-03-22T11:03:41.61Z</time></trkpt><trkpt lat="42.2606939" lon="14.3905034"><ele>94.0</ele><time>2026-03-22T11:03:43.612Z</time></trkpt><trkpt lat="42.2606785" lon="14.3904136"><ele>94.0</ele><time>2026-03-22T11:03:44.606Z</time></trkpt><trkpt lat="42.2606694" lon="14.3902533"><ele>94.0</ele><time>2026-03-22T11:03:46.603Z</time></trkpt><trkpt lat="42.2606662" lon="14.3901158"><ele>93.83333333333333</ele><time>2026-03-22T11:03:48.599Z</time></trkpt><trkpt lat="42.2606909" lon="14.3900099"><ele>93.66666666666666</ele><time>2026-03-22T11:03:50.598Z</time></trkpt><trkpt lat="42.2607115" lon="14.3899134"><ele>93.5</ele><time>2026-03-22T11:03:52.615Z</time></trkpt><trkpt lat="42.2606988" lon="14.3897894"><ele>93.33333333333333</ele><time>2026-03-22T11:03:54.599Z</time></trkpt><trkpt lat="42.2606471" lon="14.3896262"><ele>93.16666666666667</ele><time>2026-03-22T11:03:56.6Z</time></trkpt><trkpt lat="42.2606173" lon="14.3895474"><ele>93.0</ele><time>2026-03-22T11:03:57.602Z</time></trkpt><trkpt lat="42.2605699" lon="14.3893958"><ele>93.0</ele><time>2026-03-22T11:03:59.597Z</time></trkpt><trkpt lat="42.2605203" lon="14.3892551"><ele>93.0</ele><time>2026-03-22T11:04:01.597Z</time></trkpt><trkpt lat="42.2604749" lon="14.3891904"><ele>93.0</ele><time>2026-03-22T11:04:02.603Z</time></trkpt><trkpt lat="42.2604275" lon="14.3891167"><ele>93.0</ele><time>2026-03-22T11:04:03.606Z</time></trkpt><trkpt lat="42.2603795" lon="14.3890383"><ele>93.0</ele><time>2026-03-22T11:04:04.6Z</time></trkpt><trkpt lat="42.260329" lon="14.3889615"><ele>93.0</ele><time>2026-03-22T11:04:05.608Z</time></trkpt><trkpt lat="42.2602766" lon="14.3888899"><ele>93.16666666666667</ele><time>2026-03-22T11:04:06.603Z</time></trkpt><trkpt lat="42.2602191" lon="14.388815"><ele>93.33333333333333</ele><time>2026-03-22T11:04:07.611Z</time></trkpt><trkpt lat="42.2601609" lon="14.3887461"><ele>93.5</ele><time>2026-03-22T11:04:08.606Z</time></trkpt><trkpt lat="42.2601049" lon="14.3886851"><ele>93.66666666666666</ele><time>2026-03-22T11:04:09.608Z</time></trkpt><trkpt lat="42.2600217" lon="14.3885913"><ele>93.83333333333333</ele><time>2026-03-22T11:04:11.6Z</time></trkpt><trkpt lat="42.2599348" lon="14.3885866"><ele>94.0</ele><time>2026-03-22T11:04:13.587Z</time></trkpt><trkpt lat="42.2598743" lon="14.3886219"><ele>94.0</ele><time>2026-03-22T11:04:14.589Z</time></trkpt><trkpt lat="42.2598056" lon="14.3886727"><ele>94.0</ele><time>2026-03-22T11:04:15.581Z</time></trkpt><trkpt lat="42.2597383" lon="14.3887272"><ele>94.0</ele><time>2026-03-22T11:04:16.583Z</time></trkpt><trkpt lat="42.2596681" lon="14.3887676"><ele>94.0</ele><time>2026-03-22T11:04:17.59Z</time></trkpt><trkpt lat="42.2596059" lon="14.3887812"><ele>94.0</ele><time>2026-03-22T11:04:18.588Z</time></trkpt><trkpt lat="42.2595119" lon="14.3887547"><ele>94.0</ele><time>2026-03-22T11:04:20.594Z</time></trkpt><trkpt lat="42.2594401" lon="14.3888086"><ele>93.6</ele><time>2026-03-22T11:04:23.597Z</time></trkpt><trkpt lat="42.2594643" lon="14.3889841"><ele>93.2</ele><time>2026-03-22T11:04:25.593Z</time></trkpt><trkpt lat="42.2594483" lon="14.389084"><ele>92.8</ele><time>2026-03-22T11:04:26.599Z</time></trkpt><trkpt lat="42.2593977" lon="14.3891863"><ele>92.39999999999999</ele><time>2026-03-22T11:04:27.586Z</time></trkpt><trkpt lat="42.2593186" lon="14.3893027"><ele>92.0</ele><time>2026-03-22T11:04:28.611Z</time></trkpt><trkpt lat="42.259225" lon="14.3894332"><ele>92.0</ele><time>2026-03-22T11:04:29.594Z</time></trkpt><trkpt lat="42.2591366" lon="14.3895741"><ele>92.0</ele><time>2026-03-22T11:04:30.597Z</time></trkpt><trkpt lat="42.2590471" lon="14.3897259"><ele>92.0</ele><time>2026-03-22T11:04:31.593Z</time></trkpt><trkpt lat="42.2589618" lon="14.3898755"><ele>92.0</ele><time>2026-03-22T11:04:32.59Z</time></trkpt><trkpt lat="42.2588931" lon="14.3900024"><ele>93.19999999999999</ele><time>2026-03-22T11:04:33.586Z</time></trkpt><trkpt lat="42.2588363" lon="14.3900986"><ele>94.4</ele><time>2026-03-22T11:04:34.592Z</time></trkpt><trkpt lat="42.2587766" lon="14.3901609"><ele>95.6</ele><time>2026-03-22T11:04:35.591Z</time></trkpt><trkpt lat="42.2587001" lon="14.3901806"><ele>96.80000000000001</ele><time>2026-03-22T11:04:36.602Z</time></trkpt><trkpt lat="42.2585998" lon="14.390174"><ele>98.0</ele><time>2026-03-22T11:04:37.596Z</time></trkpt><trkpt lat="42.2584679" lon="14.3901503"><ele>98.0</ele><time>2026-03-22T11:04:38.599Z</time></trkpt><trkpt lat="42.2583394" lon="14.3901203"><ele>98.0</ele><time>2026-03-22T11:04:39.6Z</time></trkpt><trkpt lat="42.2582104" lon="14.3900865"><ele>98.0</ele><time>2026-03-22T11:04:40.588Z</time></trkpt><trkpt lat="42.258092" lon="14.3900241"><ele>98.0</ele><time>2026-03-22T11:04:41.59Z</time></trkpt><trkpt lat="42.2579748" lon="14.3899318"><ele>98.33333333333333</ele><time>2026-03-22T11:04:42.594Z</time></trkpt><trkpt lat="42.2578606" lon="14.3898136"><ele>98.66666666666666</ele><time>2026-03-22T11:04:43.584Z</time></trkpt><trkpt lat="42.2577396" lon="14.3896702"><ele>99.0</ele><time>2026-03-22T11:04:44.589Z</time></trkpt><trkpt lat="42.2576113" lon="14.3895509"><ele>99.0</ele><time>2026-03-22T11:04:45.583Z</time></trkpt><trkpt lat="42.2574788" lon="14.3894673"><ele>99.0</ele><time>2026-03-22T11:04:46.588Z</time></trkpt><trkpt lat="42.2573493" lon="14.38942"><ele>99.0</ele><time>2026-03-22T11:04:47.584Z</time></trkpt><trkpt lat="42.2572053" lon="14.3893802"><ele>99.0</ele><time>2026-03-22T11:04:48.584Z</time></trkpt><trkpt lat="42.2570516" lon="14.3893618"><ele>100.66666666666666</ele><time>2026-03-22T11:04:49.578Z</time></trkpt><trkpt lat="42.2568795" lon="14.389376"><ele>102.33333333333333</ele><time>2026-03-22T11:04:50.577Z</time></trkpt><trkpt lat="42.2567095" lon="14.3893741"><ele>104.0</ele><time>2026-03-22T11:04:51.588Z</time></trkpt><trkpt lat="42.2565539" lon="14.3893355"><ele>104.80000000000001</ele><time>2026-03-22T11:04:52.59Z</time></trkpt><trkpt lat="42.256419" lon="14.3893033"><ele>105.60000000000001</ele><time>2026-03-22T11:04:53.584Z</time></trkpt><trkpt lat="42.2563213" lon="14.3892697"><ele>106.4</ele><time>2026-03-22T11:04:54.592Z</time></trkpt><trkpt lat="42.2562596" lon="14.3892031"><ele>107.2</ele><time>2026-03-22T11:04:55.594Z</time></trkpt><trkpt lat="42.2562458" lon="14.3890805"><ele>108.0</ele><time>2026-03-22T11:04:56.596Z</time></trkpt><trkpt lat="42.2562464" lon="14.3889463"><ele>107.0</ele><time>2026-03-22T11:04:57.583Z</time></trkpt><trkpt lat="42.2562556" lon="14.3887706"><ele>106.0</ele><time>2026-03-22T11:04:58.592Z</time></trkpt><trkpt lat="42.2562524" lon="14.3885782"><ele>105.0</ele><time>2026-03-22T11:04:59.596Z</time></trkpt><trkpt lat="42.2562203" lon="14.3883738"><ele>104.0</ele><time>2026-03-22T11:05:00.593Z</time></trkpt><trkpt lat="42.2561633" lon="14.3881921"><ele>104.0</ele><time>2026-03-22T11:05:01.588Z</time></trkpt><trkpt lat="42.2561045" lon="14.3880723"><ele>104.0</ele><time>2026-03-22T11:05:02.584Z</time></trkpt><trkpt lat="42.2560224" lon="14.3879873"><ele>104.0</ele><time>2026-03-22T11:05:03.591Z</time></trkpt><trkpt lat="42.2558981" lon="14.38795"><ele>104.0</ele><time>2026-03-22T11:05:04.589Z</time></trkpt><trkpt lat="42.2557611" lon="14.387926"><ele>103.5</ele><time>2026-03-22T11:05:05.584Z</time></trkpt><trkpt lat="42.2555976" lon="14.3879185"><ele>103.0</ele><time>2026-03-22T11:05:06.589Z</time></trkpt><trkpt lat="42.2554577" lon="14.3878719"><ele>102.5</ele><time>2026-03-22T11:05:07.581Z</time></trkpt><trkpt lat="42.2553524" lon="14.3877773"><ele>102.0</ele><time>2026-03-22T11:05:08.587Z</time></trkpt><trkpt lat="42.2552691" lon="14.3876491"><ele>102.0</ele><time>2026-03-22T11:05:09.582Z</time></trkpt><trkpt lat="42.2551926" lon="14.3875146"><ele>102.0</ele><time>2026-03-22T11:05:10.594Z</time></trkpt><trkpt lat="42.255116" lon="14.3873929"><ele>102.0</ele><time>2026-03-22T11:05:11.59Z</time></trkpt><trkpt lat="42.2550113" lon="14.3873006"><ele>102.0</ele><time>2026-03-22T11:05:12.582Z</time></trkpt><trkpt lat="42.2548769" lon="14.3872244"><ele>102.33333333333334</ele><time>2026-03-22T11:05:13.591Z</time></trkpt><trkpt lat="42.2546984" lon="14.3871426"><ele>102.66666666666667</ele><time>2026-03-22T11:05:14.595Z</time></trkpt><trkpt lat="42.2545169" lon="14.3870507"><ele>103.0</ele><time>2026-03-22T11:05:15.594Z</time></trkpt><trkpt lat="42.2543355" lon="14.3869591"><ele>103.0</ele><time>2026-03-22T11:05:16.597Z</time></trkpt><trkpt lat="42.2541583" lon="14.386879"><ele>103.0</ele><time>2026-03-22T11:05:17.595Z</time></trkpt><trkpt lat="42.2539854" lon="14.3868038"><ele>103.0</ele><time>2026-03-22T11:05:18.602Z</time></trkpt><trkpt lat="42.2538353" lon="14.3867247"><ele>103.66666666666667</ele><time>2026-03-22T11:05:19.598Z</time></trkpt><trkpt lat="42.2536896" lon="14.3866518"><ele>104.33333333333334</ele><time>2026-03-22T11:05:20.595Z</time></trkpt><trkpt lat="42.2535413" lon="14.3866147"><ele>105.0</ele><time>2026-03-22T11:05:21.593Z</time></trkpt><trkpt lat="42.2533858" lon="14.386604"><ele>105.0</ele><time>2026-03-22T11:05:22.591Z</time></trkpt><trkpt lat="42.253214" lon="14.386585"><ele>105.0</ele><time>2026-03-22T11:05:23.594Z</time></trkpt><trkpt lat="42.2530466" lon="14.3865879"><ele>105.0</ele><time>2026-03-22T11:05:24.587Z</time></trkpt><trkpt lat="42.2528931" lon="14.3866168"><ele>106.0</ele><time>2026-03-22T11:05:25.592Z</time></trkpt><trkpt lat="42.2527631" lon="14.3866554"><ele>107.0</ele><time>2026-03-22T11:05:26.588Z</time></trkpt><trkpt lat="42.2526482" lon="14.3867027"><ele>108.0</ele><time>2026-03-22T11:05:27.581Z</time></trkpt><trkpt lat="42.2525199" lon="14.3867314"><ele>109.0</ele><time>2026-03-22T11:05:28.588Z</time></trkpt><trkpt lat="42.2523856" lon="14.3867186"><ele>108.80000000000001</ele><time>2026-03-22T11:05:29.58Z</time></trkpt><trkpt lat="42.2522762" lon="14.3866778"><ele>108.60000000000001</ele><time>2026-03-22T11:05:30.582Z</time></trkpt><trkpt lat="42.2522022" lon="14.3866089"><ele>108.4</ele><time>2026-03-22T11:05:31.581Z</time></trkpt><trkpt lat="42.2521623" lon="14.3865016"><ele>108.2</ele><time>2026-03-22T11:05:32.59Z</time></trkpt><trkpt lat="42.2521215" lon="14.3863623"><ele>108.0</ele><time>2026-03-22T11:05:33.591Z</time></trkpt><trkpt lat="42.2520697" lon="14.3862114"><ele>108.0</ele><time>2026-03-22T11:05:34.584Z</time></trkpt><trkpt lat="42.2520184" lon="14.3861013"><ele>108.00000000000001</ele><time>2026-03-22T11:05:35.584Z</time></trkpt><trkpt lat="42.2519747" lon="14.3860243"><ele>108.00000000000001</ele><time>2026-03-22T11:05:36.593Z</time></trkpt><trkpt lat="42.2518564" lon="14.3860344"><ele>108.0</ele><time>2026-03-22T11:05:38.591Z</time></trkpt><trkpt lat="42.2517613" lon="14.3861013"><ele>108.0</ele><time>2026-03-22T11:05:39.594Z</time></trkpt><trkpt lat="42.251638" lon="14.3861701"><ele>108.0</ele><time>2026-03-22T11:05:40.588Z</time></trkpt><trkpt lat="42.2515007" lon="14.3862325"><ele>108.0</ele><time>2026-03-22T11:05:41.581Z</time></trkpt><trkpt lat="42.2513637" lon="14.3862658"><ele>108.0</ele><time>2026-03-22T11:05:42.586Z</time></trkpt><trkpt lat="42.2512252" lon="14.3862702"><ele>108.0</ele><time>2026-03-22T11:05:43.589Z</time></trkpt><trkpt lat="42.2510741" lon="14.3862422"><ele>108.0</ele><time>2026-03-22T11:05:44.595Z</time></trkpt><trkpt lat="42.2509216" lon="14.3861978"><ele>108.0</ele><time>2026-03-22T11:05:45.588Z</time></trkpt><trkpt lat="42.2507719" lon="14.3861262"><ele>108.0</ele><time>2026-03-22T11:05:46.583Z</time></trkpt><trkpt lat="42.2506141" lon="14.3860372"><ele>109.0</ele><time>2026-03-22T11:05:47.583Z</time></trkpt><trkpt lat="42.2504502" lon="14.385942"><ele>110.0</ele><time>2026-03-22T11:05:48.59Z</time></trkpt><trkpt lat="42.2503121" lon="14.385868"><ele>111.0</ele><time>2026-03-22T11:05:49.582Z</time></trkpt><trkpt lat="42.2502095" lon="14.3858046"><ele>112.0</ele><time>2026-03-22T11:05:50.591Z</time></trkpt><trkpt lat="42.2501129" lon="14.3857517"><ele>112.00000000000001</ele><time>2026-03-22T11:05:51.588Z</time></trkpt><trkpt lat="42.2500418" lon="14.3857172"><ele>112.0</ele><time>2026-03-22T11:05:52.589Z</time></trkpt><trkpt lat="42.2500037" lon="14.3855942"><ele>112.0</ele><time>2026-03-22T11:05:54.582Z</time></trkpt><trkpt lat="42.2499344" lon="14.3856056"><ele>112.0</ele><time>2026-03-22T11:05:56.59Z</time></trkpt><trkpt lat="42.2498712" lon="14.3856688"><ele>112.00000000000001</ele><time>2026-03-22T11:05:57.581Z</time></trkpt><trkpt lat="42.249783" lon="14.3857187"><ele>112.0</ele><time>2026-03-22T11:05:58.587Z</time></trkpt><trkpt lat="42.2496848" lon="14.3857434"><ele>112.8</ele><time>2026-03-22T11:05:59.571Z</time></trkpt><trkpt lat="42.2495857" lon="14.385752"><ele>113.6</ele><time>2026-03-22T11:06:00.589Z</time></trkpt><trkpt lat="42.2494888" lon="14.3857526"><ele>114.39999999999999</ele><time>2026-03-22T11:06:01.576Z</time></trkpt><trkpt lat="42.249388" lon="14.3857502"><ele>115.19999999999999</ele><time>2026-03-22T11:06:02.587Z</time></trkpt><trkpt lat="42.2492826" lon="14.3857458"><ele>116.0</ele><time>2026-03-22T11:06:03.578Z</time></trkpt><trkpt lat="42.249183" lon="14.3857412"><ele>116.0</ele><time>2026-03-22T11:06:04.579Z</time></trkpt><trkpt lat="42.2490849" lon="14.3857295"><ele>116.0</ele><time>2026-03-22T11:06:05.59Z</time></trkpt><trkpt lat="42.2489895" lon="14.385726"><ele>116.0</ele><time>2026-03-22T11:06:06.59Z</time></trkpt><trkpt lat="42.2488849" lon="14.3857284"><ele>116.0</ele><time>2026-03-22T11:06:07.596Z</time></trkpt><trkpt lat="42.2487654" lon="14.3857189"><ele>116.0</ele><time>2026-03-22T11:06:08.589Z</time></trkpt><trkpt lat="42.2486335" lon="14.3857121"><ele>119.66666666666666</ele><time>2026-03-22T11:06:09.59Z</time></trkpt><trkpt lat="42.2484891" lon="14.3857094"><ele>123.33333333333334</ele><time>2026-03-22T11:06:10.591Z</time></trkpt><trkpt lat="42.2483379" lon="14.3857027"><ele>127.0</ele><time>2026-03-22T11:06:11.589Z</time></trkpt><trkpt lat="42.2481794" lon="14.3856995"><ele>129.25</ele><time>2026-03-22T11:06:12.591Z</time></trkpt><trkpt lat="42.24802" lon="14.3856914"><ele>131.5</ele><time>2026-03-22T11:06:13.594Z</time></trkpt><trkpt lat="42.247884" lon="14.3856677"><ele>133.75</ele><time>2026-03-22T11:06:14.599Z</time></trkpt><trkpt lat="42.2477445" lon="14.3856281"><ele>136.0</ele><time>2026-03-22T11:06:15.603Z</time></trkpt><trkpt lat="42.2475969" lon="14.3855857"><ele>136.0</ele><time>2026-03-22T11:06:16.596Z</time></trkpt><trkpt lat="42.2474548" lon="14.3855576"><ele>136.0</ele><time>2026-03-22T11:06:17.594Z</time></trkpt><trkpt lat="42.247319" lon="14.3855325"><ele>136.0</ele><time>2026-03-22T11:06:18.599Z</time></trkpt><trkpt lat="42.2471901" lon="14.3855067"><ele>136.0</ele><time>2026-03-22T11:06:19.599Z</time></trkpt><trkpt lat="42.2470543" lon="14.3854759"><ele>139.0</ele><time>2026-03-22T11:06:20.593Z</time></trkpt><trkpt lat="42.2469266" lon="14.3854382"><ele>142.0</ele><time>2026-03-22T11:06:21.592Z</time></trkpt><trkpt lat="42.2468049" lon="14.3854026"><ele>145.0</ele><time>2026-03-22T11:06:22.594Z</time></trkpt><trkpt lat="42.2466867" lon="14.3853937"><ele>148.0</ele><time>2026-03-22T11:06:23.601Z</time></trkpt><trkpt lat="42.2465649" lon="14.3854076"><ele>150.0</ele><time>2026-03-22T11:06:24.597Z</time></trkpt><trkpt lat="42.2464308" lon="14.3854316"><ele>152.0</ele><time>2026-03-22T11:06:25.602Z</time></trkpt><trkpt lat="42.2462959" lon="14.3854583"><ele>154.0</ele><time>2026-03-22T11:06:26.6Z</time></trkpt><trkpt lat="42.2461702" lon="14.3854816"><ele>156.0</ele><time>2026-03-22T11:06:27.595Z</time></trkpt><trkpt lat="42.2460538" lon="14.385514"><ele>156.0</ele><time>2026-03-22T11:06:28.593Z</time></trkpt><trkpt lat="42.2459447" lon="14.3855487"><ele>156.0</ele><time>2026-03-22T11:06:29.598Z</time></trkpt><trkpt lat="42.2458463" lon="14.3855721"><ele>156.0</ele><time>2026-03-22T11:06:30.6Z</time></trkpt><trkpt lat="42.2457517" lon="14.3855801"><ele>156.0</ele><time>2026-03-22T11:06:31.597Z</time></trkpt><trkpt lat="42.2456512" lon="14.3855749"><ele>156.0</ele><time>2026-03-22T11:06:32.599Z</time></trkpt><trkpt lat="42.2455463" lon="14.3855746"><ele>157.8</ele><time>2026-03-22T11:06:33.597Z</time></trkpt><trkpt lat="42.2454334" lon="14.385562"><ele>159.6</ele><time>2026-03-22T11:06:34.595Z</time></trkpt><trkpt lat="42.2453154" lon="14.3855516"><ele>161.4</ele><time>2026-03-22T11:06:35.597Z</time></trkpt><trkpt lat="42.2452044" lon="14.3855389"><ele>163.2</ele><time>2026-03-22T11:06:36.598Z</time></trkpt><trkpt lat="42.2451139" lon="14.3854929"><ele>165.0</ele><time>2026-03-22T11:06:37.592Z</time></trkpt><trkpt lat="42.2450287" lon="14.3854342"><ele>165.4</ele><time>2026-03-22T11:06:38.591Z</time></trkpt><trkpt lat="42.2449381" lon="14.3854208"><ele>165.8</ele><time>2026-03-22T11:06:39.603Z</time></trkpt><trkpt lat="42.2448426" lon="14.3854495"><ele>166.2</ele><time>2026-03-22T11:06:40.595Z</time></trkpt><trkpt lat="42.2447421" lon="14.3854873"><ele>166.6</ele><time>2026-03-22T11:06:41.591Z</time></trkpt><trkpt lat="42.2446343" lon="14.3854855"><ele>167.0</ele><time>2026-03-22T11:06:42.593Z</time></trkpt><trkpt lat="42.2445155" lon="14.3854663"><ele>169.66666666666666</ele><time>2026-03-22T11:06:43.6Z</time></trkpt><trkpt lat="42.2443871" lon="14.3854504"><ele>172.33333333333334</ele><time>2026-03-22T11:06:44.59Z</time></trkpt><trkpt lat="42.2442325" lon="14.3854333"><ele>175.0</ele><time>2026-03-22T11:06:45.597Z</time></trkpt><trkpt lat="42.2440632" lon="14.3854314"><ele>176.66666666666669</ele><time>2026-03-22T11:06:46.589Z</time></trkpt><trkpt lat="42.243884" lon="14.3854541"><ele>178.33333333333334</ele><time>2026-03-22T11:06:47.595Z</time></trkpt><trkpt lat="42.2437142" lon="14.3854817"><ele>180.0</ele><time>2026-03-22T11:06:48.599Z</time></trkpt><trkpt lat="42.2435651" lon="14.3855118"><ele>179.2</ele><time>2026-03-22T11:06:49.593Z</time></trkpt><trkpt lat="42.2434487" lon="14.3855444"><ele>178.4</ele><time>2026-03-22T11:06:50.594Z</time></trkpt><trkpt lat="42.2433523" lon="14.3855801"><ele>177.60000000000002</ele><time>2026-03-22T11:06:51.593Z</time></trkpt><trkpt lat="42.2432559" lon="14.3856029"><ele>176.8</ele><time>2026-03-22T11:06:52.606Z</time></trkpt><trkpt lat="42.2431316" lon="14.3855908"><ele>176.0</ele><time>2026-03-22T11:06:53.601Z</time></trkpt><trkpt lat="42.2429875" lon="14.3855791"><ele>176.0</ele><time>2026-03-22T11:06:54.599Z</time></trkpt><trkpt lat="42.2428422" lon="14.38557"><ele>176.0</ele><time>2026-03-22T11:06:55.594Z</time></trkpt><trkpt lat="42.242705" lon="14.3855523"><ele>176.0</ele><time>2026-03-22T11:06:56.596Z</time></trkpt><trkpt lat="42.2425795" lon="14.3855403"><ele>176.0</ele><time>2026-03-22T11:06:57.592Z</time></trkpt><trkpt lat="42.2424616" lon="14.3855403"><ele>176.0</ele><time>2026-03-22T11:06:58.598Z</time></trkpt><trkpt lat="42.2423486" lon="14.3855238"><ele>176.0</ele><time>2026-03-22T11:06:59.595Z</time></trkpt><trkpt lat="42.2422241" lon="14.385497"><ele>176.0</ele><time>2026-03-22T11:07:00.593Z</time></trkpt><trkpt lat="42.2420869" lon="14.3854723"><ele>176.0</ele><time>2026-03-22T11:07:01.592Z</time></trkpt><trkpt lat="42.2419438" lon="14.3854464"><ele>176.0</ele><time>2026-03-22T11:07:02.589Z</time></trkpt><trkpt lat="42.241796" lon="14.3854272"><ele>176.0</ele><time>2026-03-22T11:07:03.597Z</time></trkpt><trkpt lat="42.2416602" lon="14.3854077"><ele>176.0</ele><time>2026-03-22T11:07:04.6Z</time></trkpt><trkpt lat="42.2415385" lon="14.3854044"><ele>176.0</ele><time>2026-03-22T11:07:05.596Z</time></trkpt><trkpt lat="42.2414171" lon="14.3854224"><ele>176.75</ele><time>2026-03-22T11:07:06.597Z</time></trkpt><trkpt lat="42.2412935" lon="14.3854463"><ele>177.5</ele><time>2026-03-22T11:07:07.6Z</time></trkpt><trkpt lat="42.2411463" lon="14.3854756"><ele>178.25</ele><time>2026-03-22T11:07:08.598Z</time></trkpt><trkpt lat="42.2410126" lon="14.3855006"><ele>179.0</ele><time>2026-03-22T11:07:09.599Z</time></trkpt><trkpt lat="42.240905" lon="14.3855135"><ele>179.2</ele><time>2026-03-22T11:07:10.604Z</time></trkpt><trkpt lat="42.2408358" lon="14.3854962"><ele>179.39999999999998</ele><time>2026-03-22T11:07:11.606Z</time></trkpt><trkpt lat="42.2407844" lon="14.3854368"><ele>179.6</ele><time>2026-03-22T11:07:12.609Z</time></trkpt><trkpt lat="42.2407505" lon="14.3853263"><ele>179.8</ele><time>2026-03-22T11:07:13.601Z</time></trkpt><trkpt lat="42.2407177" lon="14.3851701"><ele>180.0</ele><time>2026-03-22T11:07:14.597Z</time></trkpt><trkpt lat="42.2406839" lon="14.3850006"><ele>180.0</ele><time>2026-03-22T11:07:15.592Z</time></trkpt><trkpt lat="42.240653" lon="14.3848715"><ele>180.0</ele><time>2026-03-22T11:07:16.607Z</time></trkpt><trkpt lat="42.2406443" lon="14.384787"><ele>180.0</ele><time>2026-03-22T11:07:17.606Z</time></trkpt><trkpt lat="42.2406792" lon="14.3847127"><ele>180.0</ele><time>2026-03-22T11:07:19.593Z</time></trkpt><trkpt lat="42.2407893" lon="14.3846594"><ele>180.0</ele><time>2026-03-22T11:07:21.586Z</time></trkpt><trkpt lat="42.2408505" lon="14.3846021"><ele>180.0</ele><time>2026-03-22T11:07:22.59Z</time></trkpt><trkpt lat="42.2408854" lon="14.3845234"><ele>179.0</ele><time>2026-03-22T11:07:23.582Z</time></trkpt><trkpt lat="42.240915" lon="14.3844312"><ele>178.0</ele><time>2026-03-22T11:07:24.591Z</time></trkpt><trkpt lat="42.2409734" lon="14.3843422"><ele>177.0</ele><time>2026-03-22T11:07:25.592Z</time></trkpt><trkpt lat="42.2410698" lon="14.3842308"><ele>176.0</ele><time>2026-03-22T11:07:26.588Z</time></trkpt><trkpt lat="42.2411782" lon="14.3841029"><ele>175.0</ele><time>2026-03-22T11:07:27.586Z</time></trkpt><trkpt lat="42.2412782" lon="14.383972"><ele>175.0</ele><time>2026-03-22T11:07:28.596Z</time></trkpt><trkpt lat="42.2413752" lon="14.3838509"><ele>175.0</ele><time>2026-03-22T11:07:29.595Z</time></trkpt><trkpt lat="42.2414614" lon="14.3837312"><ele>175.0</ele><time>2026-03-22T11:07:30.599Z</time></trkpt><trkpt lat="42.2415323" lon="14.383597"><ele>175.0</ele><time>2026-03-22T11:07:31.599Z</time></trkpt><trkpt lat="42.2415865" lon="14.3834364"><ele>174.2</ele><time>2026-03-22T11:07:32.593Z</time></trkpt><trkpt lat="42.2416287" lon="14.3832758"><ele>173.4</ele><time>2026-03-22T11:07:33.591Z</time></trkpt><trkpt lat="42.241677" lon="14.3831279"><ele>172.60000000000002</ele><time>2026-03-22T11:07:34.593Z</time></trkpt><trkpt lat="42.2417056" lon="14.3830015"><ele>171.8</ele><time>2026-03-22T11:07:35.58Z</time></trkpt><trkpt lat="42.2417322" lon="14.3828691"><ele>171.0</ele><time>2026-03-22T11:07:36.593Z</time></trkpt><trkpt lat="42.2417684" lon="14.3827259"><ele>170.20000000000002</ele><time>2026-03-22T11:07:37.581Z</time></trkpt><trkpt lat="42.2418059" lon="14.3825877"><ele>169.4</ele><time>2026-03-22T11:07:38.596Z</time></trkpt><trkpt lat="42.2418361" lon="14.3824742"><ele>168.6</ele><time>2026-03-22T11:07:39.595Z</time></trkpt><trkpt lat="42.2418633" lon="14.3823759"><ele>167.8</ele><time>2026-03-22T11:07:40.598Z</time></trkpt><trkpt lat="42.2419035" lon="14.3822916"><ele>167.0</ele><time>2026-03-22T11:07:41.597Z</time></trkpt><trkpt lat="42.2419844" lon="14.3821875"><ele>165.2</ele><time>2026-03-22T11:07:43.577Z</time></trkpt><trkpt lat="42.2420744" lon="14.3820859"><ele>163.39999999999998</ele><time>2026-03-22T11:07:45.574Z</time></trkpt><trkpt lat="42.2421545" lon="14.3820011"><ele>161.60000000000002</ele><time>2026-03-22T11:07:47.584Z</time></trkpt><trkpt lat="42.2422256" lon="14.3819301"><ele>159.8</ele><time>2026-03-22T11:07:59.595Z</time></trkpt><trkpt lat="42.2422819" lon="14.3818501"><ele>158.0</ele><time>2026-03-22T11:08:02.599Z</time></trkpt><trkpt lat="42.2423731" lon="14.38179"><ele>157.33333333333331</ele><time>2026-03-22T11:08:04.599Z</time></trkpt><trkpt lat="42.2424389" lon="14.3817424"><ele>156.66666666666666</ele><time>2026-03-22T11:08:05.596Z</time></trkpt><trkpt lat="42.242505" lon="14.3816925"><ele>156.0</ele><time>2026-03-22T11:08:06.594Z</time></trkpt><trkpt lat="42.2425692" lon="14.3816435"><ele>155.33333333333334</ele><time>2026-03-22T11:08:07.592Z</time></trkpt><trkpt lat="42.242632" lon="14.3815938"><ele>154.66666666666669</ele><time>2026-03-22T11:08:08.588Z</time></trkpt><trkpt lat="42.2426954" lon="14.3815348"><ele>154.0</ele><time>2026-03-22T11:08:09.592Z</time></trkpt><trkpt lat="42.2427646" lon="14.3814697"><ele>154.0</ele><time>2026-03-22T11:08:10.591Z</time></trkpt><trkpt lat="42.2428378" lon="14.3814"><ele>154.0</ele><time>2026-03-22T11:08:11.587Z</time></trkpt><trkpt lat="42.2429175" lon="14.3813389"><ele>154.0</ele><time>2026-03-22T11:08:12.586Z</time></trkpt><trkpt lat="42.2430013" lon="14.3812964"><ele>154.0</ele><time>2026-03-22T11:08:13.58Z</time></trkpt><trkpt lat="42.2430889" lon="14.3812783"><ele>154.0</ele><time>2026-03-22T11:08:14.588Z</time></trkpt><trkpt lat="42.2431735" lon="14.3812644"><ele>154.0</ele><time>2026-03-22T11:08:15.591Z</time></trkpt><trkpt lat="42.2432435" lon="14.3812374"><ele>150.6</ele><time>2026-03-22T11:08:16.593Z</time></trkpt><trkpt lat="42.2432989" lon="14.3811722"><ele>147.2</ele><time>2026-03-22T11:08:17.595Z</time></trkpt><trkpt lat="42.2433473" lon="14.3810661"><ele>143.79999999999998</ele><time>2026-03-22T11:08:18.588Z</time></trkpt><trkpt lat="42.243393" lon="14.3809282"><ele>140.4</ele><time>2026-03-22T11:08:19.591Z</time></trkpt><trkpt lat="42.2434311" lon="14.3807882"><ele>137.0</ele><time>2026-03-22T11:08:20.589Z</time></trkpt><trkpt lat="42.2434735" lon="14.3806596"><ele>137.0</ele><time>2026-03-22T11:08:21.593Z</time></trkpt><trkpt lat="42.2435082" lon="14.3805378"><ele>137.0</ele><time>2026-03-22T11:08:22.588Z</time></trkpt><trkpt lat="42.2435392" lon="14.3804156"><ele>137.0</ele><time>2026-03-22T11:08:23.588Z</time></trkpt><trkpt lat="42.2435687" lon="14.3802956"><ele>137.0</ele><time>2026-03-22T11:08:24.589Z</time></trkpt><trkpt lat="42.2436046" lon="14.3801718"><ele>137.0</ele><time>2026-03-22T11:08:25.588Z</time></trkpt><trkpt lat="42.2436435" lon="14.380055"><ele>136.0</ele><time>2026-03-22T11:08:26.583Z</time></trkpt><trkpt lat="42.243677" lon="14.3799545"><ele>135.0</ele><time>2026-03-22T11:08:27.577Z</time></trkpt><trkpt lat="42.2437055" lon="14.3798611"><ele>134.0</ele><time>2026-03-22T11:08:28.577Z</time></trkpt><trkpt lat="42.2437399" lon="14.3797707"><ele>133.0</ele><time>2026-03-22T11:08:29.573Z</time></trkpt><trkpt lat="42.2437903" lon="14.3796845"><ele>132.0</ele><time>2026-03-22T11:08:30.581Z</time></trkpt><trkpt lat="42.2438422" lon="14.3796073"><ele>131.0</ele><time>2026-03-22T11:08:31.567Z</time></trkpt><trkpt lat="42.243895" lon="14.3795483"><ele>130.0</ele><time>2026-03-22T11:08:32.582Z</time></trkpt><trkpt lat="42.2439746" lon="14.3794468"><ele>129.0</ele><time>2026-03-22T11:08:34.573Z</time></trkpt><trkpt lat="42.2439562" lon="14.3793177"><ele>128.0</ele><time>2026-03-22T11:08:36.59Z</time></trkpt><trkpt lat="42.2439034" lon="14.3792461"><ele>127.0</ele><time>2026-03-22T11:08:37.578Z</time></trkpt><trkpt lat="42.243836" lon="14.3791803"><ele>126.0</ele><time>2026-03-22T11:08:38.589Z</time></trkpt><trkpt lat="42.2437527" lon="14.3791285"><ele>126.0</ele><time>2026-03-22T11:08:39.591Z</time></trkpt><trkpt lat="42.2436742" lon="14.3790726"><ele>126.0</ele><time>2026-03-22T11:08:40.591Z</time></trkpt><trkpt lat="42.2436123" lon="14.379005"><ele>126.0</ele><time>2026-03-22T11:08:41.594Z</time></trkpt><trkpt lat="42.2435732" lon="14.3789047"><ele>126.0</ele><time>2026-03-22T11:08:42.597Z</time></trkpt><trkpt lat="42.2435439" lon="14.3787688"><ele>126.0</ele><time>2026-03-22T11:08:43.592Z</time></trkpt><trkpt lat="42.2435197" lon="14.3786003"><ele>125.8</ele><time>2026-03-22T11:08:44.583Z</time></trkpt><trkpt lat="42.2434925" lon="14.3784406"><ele>125.6</ele><time>2026-03-22T11:08:45.596Z</time></trkpt><trkpt lat="42.2434662" lon="14.3783183"><ele>125.4</ele><time>2026-03-22T11:08:46.594Z</time></trkpt><trkpt lat="42.2434133" lon="14.3782444"><ele>125.2</ele><time>2026-03-22T11:08:47.592Z</time></trkpt><trkpt lat="42.2433436" lon="14.3782078"><ele>125.0</ele><time>2026-03-22T11:08:48.586Z</time></trkpt><trkpt lat="42.243259" lon="14.3782119"><ele>125.0</ele><time>2026-03-22T11:08:49.601Z</time></trkpt><trkpt lat="42.2431439" lon="14.3782617"><ele>125.0</ele><time>2026-03-22T11:08:50.59Z</time></trkpt><trkpt lat="42.2430049" lon="14.3783294"><ele>125.0</ele><time>2026-03-22T11:08:51.583Z</time></trkpt><trkpt lat="42.2428313" lon="14.3784044"><ele>126.33333333333333</ele><time>2026-03-22T11:08:52.595Z</time></trkpt><trkpt lat="42.242634" lon="14.3784942"><ele>127.66666666666666</ele><time>2026-03-22T11:08:53.596Z</time></trkpt><trkpt lat="42.2424712" lon="14.3785698"><ele>129.0</ele><time>2026-03-22T11:08:54.595Z</time></trkpt><trkpt lat="42.2423471" lon="14.3786312"><ele>130.0</ele><time>2026-03-22T11:08:55.594Z</time></trkpt><trkpt lat="42.2422465" lon="14.3787156"><ele>131.0</ele><time>2026-03-22T11:08:56.593Z</time></trkpt><trkpt lat="42.2421609" lon="14.3788339"><ele>132.0</ele><time>2026-03-22T11:08:57.589Z</time></trkpt><trkpt lat="42.2420784" lon="14.3789559"><ele>133.0</ele><time>2026-03-22T11:08:58.589Z</time></trkpt><trkpt lat="42.2420072" lon="14.3790203"><ele>134.0</ele><time>2026-03-22T11:08:59.595Z</time></trkpt><trkpt lat="42.2419349" lon="14.3790424"><ele>134.0</ele><time>2026-03-22T11:09:00.597Z</time></trkpt><trkpt lat="42.2418421" lon="14.3790186"><ele>134.0</ele><time>2026-03-22T11:09:01.598Z</time></trkpt><trkpt lat="42.2417233" lon="14.3789902"><ele>134.0</ele><time>2026-03-22T11:09:02.581Z</time></trkpt><trkpt lat="42.241588" lon="14.3789676"><ele>134.0</ele><time>2026-03-22T11:09:03.587Z</time></trkpt><trkpt lat="42.241455" lon="14.3789731"><ele>134.5</ele><time>2026-03-22T11:09:04.591Z</time></trkpt><trkpt lat="42.2413131" lon="14.3789992"><ele>135.0</ele><time>2026-03-22T11:09:05.591Z</time></trkpt><trkpt lat="42.2411707" lon="14.3790003"><ele>135.5</ele><time>2026-03-22T11:09:06.586Z</time></trkpt><trkpt lat="42.2410344" lon="14.3789904"><ele>136.0</ele><time>2026-03-22T11:09:07.588Z</time></trkpt><trkpt lat="42.2409063" lon="14.3789974"><ele>136.0</ele><time>2026-03-22T11:09:08.582Z</time></trkpt><trkpt lat="42.2407907" lon="14.3790275"><ele>136.0</ele><time>2026-03-22T11:09:09.578Z</time></trkpt><trkpt lat="42.2406683" lon="14.3790618"><ele>136.0</ele><time>2026-03-22T11:09:10.585Z</time></trkpt><trkpt lat="42.2405451" lon="14.3790778"><ele>136.0</ele><time>2026-03-22T11:09:11.59Z</time></trkpt><trkpt lat="42.2404184" lon="14.3790825"><ele>138.0</ele><time>2026-03-22T11:09:12.584Z</time></trkpt><trkpt lat="42.2402914" lon="14.3791076"><ele>140.0</ele><time>2026-03-22T11:09:13.586Z</time></trkpt><trkpt lat="42.2401668" lon="14.3791158"><ele>142.0</ele><time>2026-03-22T11:09:14.579Z</time></trkpt><trkpt lat="42.2400336" lon="14.3790943"><ele>144.0</ele><time>2026-03-22T11:09:15.59Z</time></trkpt><trkpt lat="42.2398995" lon="14.3790639"><ele>146.33333333333334</ele><time>2026-03-22T11:09:16.59Z</time></trkpt><trkpt lat="42.2397589" lon="14.3790187"><ele>148.66666666666669</ele><time>2026-03-22T11:09:17.589Z</time></trkpt><trkpt lat="42.2396083" lon="14.378972"><ele>151.0</ele><time>2026-03-22T11:09:18.59Z</time></trkpt><trkpt lat="42.2394548" lon="14.3789323"><ele>151.0</ele><time>2026-03-22T11:09:19.588Z</time></trkpt><trkpt lat="42.2393132" lon="14.3789147"><ele>151.0</ele><time>2026-03-22T11:09:20.587Z</time></trkpt><trkpt lat="42.2391876" lon="14.3789326"><ele>151.0</ele><time>2026-03-22T11:09:21.592Z</time></trkpt><trkpt lat="42.2390855" lon="14.378984"><ele>151.0</ele><time>2026-03-22T11:09:22.587Z</time></trkpt><trkpt lat="42.2390064" lon="14.3790365"><ele>152.0</ele><time>2026-03-22T11:09:23.594Z</time></trkpt><trkpt lat="42.2389036" lon="14.3789539"><ele>153.0</ele><time>2026-03-22T11:09:25.603Z</time></trkpt><trkpt lat="42.2388617" lon="14.3788325"><ele>154.0</ele><time>2026-03-22T11:09:26.586Z</time></trkpt><trkpt lat="42.2388098" lon="14.3786897"><ele>155.0</ele><time>2026-03-22T11:09:27.587Z</time></trkpt><trkpt lat="42.2387468" lon="14.3785573"><ele>156.4</ele><time>2026-03-22T11:09:28.595Z</time></trkpt><trkpt lat="42.2386764" lon="14.3784498"><ele>157.8</ele><time>2026-03-22T11:09:29.592Z</time></trkpt><trkpt lat="42.2386199" lon="14.3783765"><ele>159.2</ele><time>2026-03-22T11:09:30.595Z</time></trkpt><trkpt lat="42.2385563" lon="14.3784428"><ele>160.6</ele><time>2026-03-22T11:09:33.601Z</time></trkpt><trkpt lat="42.2385175" lon="14.3786049"><ele>162.0</ele><time>2026-03-22T11:09:35.594Z</time></trkpt><trkpt lat="42.2384849" lon="14.3787142"><ele>162.0</ele><time>2026-03-22T11:09:37.602Z</time></trkpt><trkpt lat="42.2384259" lon="14.3787573"><ele>162.0</ele><time>2026-03-22T11:10:03.596Z</time></trkpt><trkpt lat="42.2384017" lon="14.3788589"><ele>162.0</ele><time>2026-03-22T11:10:54.617Z</time></trkpt><trkpt lat="42.2384823" lon="14.3786977"><ele>162.0</ele><time>2026-03-22T11:10:59.606Z</time></trkpt><trkpt lat="42.2385285" lon="14.3785761"><ele>162.0</ele><time>2026-03-22T11:11:00.606Z</time></trkpt><trkpt lat="42.2385479" lon="14.3784624"><ele>162.0</ele><time>2026-03-22T11:11:01.602Z</time></trkpt><trkpt lat="42.2385224" lon="14.3783782"><ele>162.0</ele><time>2026-03-22T11:11:02.613Z</time></trkpt><trkpt lat="42.2384594" lon="14.3783283"><ele>162.0</ele><time>2026-03-22T11:11:03.6Z</time></trkpt><trkpt lat="42.238384" lon="14.3782861"><ele>162.0</ele><time>2026-03-22T11:11:04.592Z</time></trkpt><trkpt lat="42.2382938" lon="14.3783221"><ele>162.0</ele><time>2026-03-22T11:11:05.601Z</time></trkpt><trkpt lat="42.238195" lon="14.3783873"><ele>162.0</ele><time>2026-03-22T11:11:06.602Z</time></trkpt><trkpt lat="42.2380773" lon="14.3784783"><ele>163.5</ele><time>2026-03-22T11:11:07.602Z</time></trkpt><trkpt lat="42.2379629" lon="14.3785546"><ele>165.0</ele><time>2026-03-22T11:11:08.6Z</time></trkpt><trkpt lat="42.2378442" lon="14.3785867"><ele>166.5</ele><time>2026-03-22T11:11:09.596Z</time></trkpt><trkpt lat="42.2377205" lon="14.3785802"><ele>168.0</ele><time>2026-03-22T11:11:10.6Z</time></trkpt><trkpt lat="42.2376113" lon="14.3785374"><ele>168.0</ele><time>2026-03-22T11:11:11.584Z</time></trkpt><trkpt lat="42.2375184" lon="14.3784614"><ele>168.0</ele><time>2026-03-22T11:11:12.6Z</time></trkpt><trkpt lat="42.2374424" lon="14.3783438"><ele>168.0</ele><time>2026-03-22T11:11:13.588Z</time></trkpt><trkpt lat="42.2373736" lon="14.3781928"><ele>168.0</ele><time>2026-03-22T11:11:14.596Z</time></trkpt><trkpt lat="42.2373256" lon="14.3779949"><ele>171.5</ele><time>2026-03-22T11:11:15.594Z</time></trkpt><trkpt lat="42.2372807" lon="14.3777818"><ele>175.0</ele><time>2026-03-22T11:11:16.598Z</time></trkpt><trkpt lat="42.2372648" lon="14.3776138"><ele>178.5</ele><time>2026-03-22T11:11:17.6Z</time></trkpt><trkpt lat="42.2372459" lon="14.3775096"><ele>182.0</ele><time>2026-03-22T11:11:18.596Z</time></trkpt><trkpt lat="42.2371271" lon="14.3774845"><ele>182.0</ele><time>2026-03-22T11:11:20.589Z</time></trkpt><trkpt lat="42.2370249" lon="14.3774912"><ele>182.0</ele><time>2026-03-22T11:11:21.591Z</time></trkpt><trkpt lat="42.2368905" lon="14.3774615"><ele>182.0</ele><time>2026-03-22T11:11:22.58Z</time></trkpt><trkpt lat="42.2367349" lon="14.3774302"><ele>182.0</ele><time>2026-03-22T11:11:23.587Z</time></trkpt><trkpt lat="42.2365738" lon="14.3774006"><ele>186.25</ele><time>2026-03-22T11:11:24.594Z</time></trkpt><trkpt lat="42.2364017" lon="14.3774063"><ele>190.5</ele><time>2026-03-22T11:11:25.583Z</time></trkpt><trkpt lat="42.2362795" lon="14.3774437"><ele>194.75</ele><time>2026-03-22T11:11:26.586Z</time></trkpt><trkpt lat="42.2361747" lon="14.3775072"><ele>199.0</ele><time>2026-03-22T11:11:27.598Z</time></trkpt><trkpt lat="42.2360744" lon="14.377588"><ele>198.99999999999997</ele><time>2026-03-22T11:11:28.599Z</time></trkpt><trkpt lat="42.2359981" lon="14.3776206"><ele>199.0</ele><time>2026-03-22T11:11:29.597Z</time></trkpt><trkpt lat="42.2359224" lon="14.3776042"><ele>199.0</ele><time>2026-03-22T11:11:30.595Z</time></trkpt><trkpt lat="42.2358183" lon="14.3775677"><ele>199.0</ele><time>2026-03-22T11:11:31.596Z</time></trkpt><trkpt lat="42.2357605" lon="14.377509"><ele>198.99999999999997</ele><time>2026-03-22T11:11:32.589Z</time></trkpt><trkpt lat="42.2357053" lon="14.3774328"><ele>199.0</ele><time>2026-03-22T11:11:33.596Z</time></trkpt><trkpt lat="42.2356764" lon="14.3773437"><ele>199.0</ele><time>2026-03-22T11:11:34.588Z</time></trkpt><trkpt lat="42.2356591" lon="14.3772601"><ele>199.0</ele><time>2026-03-22T11:11:35.591Z</time></trkpt><trkpt lat="42.2356163" lon="14.3771781"><ele>199.0</ele><time>2026-03-22T11:11:36.597Z</time></trkpt><trkpt lat="42.2355375" lon="14.3771088"><ele>199.0</ele><time>2026-03-22T11:11:37.597Z</time></trkpt><trkpt lat="42.2354262" lon="14.377089"><ele>199.0</ele><time>2026-03-22T11:11:38.59Z</time></trkpt><trkpt lat="42.235305" lon="14.3770921"><ele>200.6</ele><time>2026-03-22T11:11:39.602Z</time></trkpt><trkpt lat="42.2351806" lon="14.3770821"><ele>202.2</ele><time>2026-03-22T11:11:40.602Z</time></trkpt><trkpt lat="42.2350749" lon="14.3770745"><ele>203.79999999999998</ele><time>2026-03-22T11:11:41.597Z</time></trkpt><trkpt lat="42.234998" lon="14.3770895"><ele>205.39999999999998</ele><time>2026-03-22T11:11:42.6Z</time></trkpt><trkpt lat="42.2348919" lon="14.3771983"><ele>207.0</ele><time>2026-03-22T11:11:44.595Z</time></trkpt><trkpt lat="42.2348191" lon="14.3772668"><ele>208.83333333333334</ele><time>2026-03-22T11:11:45.6Z</time></trkpt><trkpt lat="42.2347399" lon="14.3772973"><ele>210.66666666666669</ele><time>2026-03-22T11:11:46.603Z</time></trkpt><trkpt lat="42.2346589" lon="14.3772826"><ele>212.5</ele><time>2026-03-22T11:11:47.606Z</time></trkpt><trkpt lat="42.2345735" lon="14.3772281"><ele>214.33333333333334</ele><time>2026-03-22T11:11:48.603Z</time></trkpt><trkpt lat="42.2344909" lon="14.3771735"><ele>216.16666666666669</ele><time>2026-03-22T11:11:49.606Z</time></trkpt><trkpt lat="42.2344075" lon="14.3771318"><ele>218.0</ele><time>2026-03-22T11:11:50.608Z</time></trkpt><trkpt lat="42.2343249" lon="14.377084"><ele>218.2</ele><time>2026-03-22T11:11:51.608Z</time></trkpt><trkpt lat="42.2342448" lon="14.3770348"><ele>218.4</ele><time>2026-03-22T11:11:52.605Z</time></trkpt><trkpt lat="42.2341592" lon="14.3769893"><ele>218.59999999999997</ele><time>2026-03-22T11:11:53.602Z</time></trkpt><trkpt lat="42.2340709" lon="14.3769872"><ele>218.79999999999998</ele><time>2026-03-22T11:11:54.592Z</time></trkpt><trkpt lat="42.2339749" lon="14.3770336"><ele>219.0</ele><time>2026-03-22T11:11:55.591Z</time></trkpt><trkpt lat="42.2338762" lon="14.3771109"><ele>220.2</ele><time>2026-03-22T11:11:56.609Z</time></trkpt><trkpt lat="42.2337715" lon="14.377198"><ele>221.39999999999998</ele><time>2026-03-22T11:11:57.608Z</time></trkpt><trkpt lat="42.2336719" lon="14.3772889"><ele>222.6</ele><time>2026-03-22T11:11:58.619Z</time></trkpt><trkpt lat="42.2335814" lon="14.3773514"><ele>223.8</ele><time>2026-03-22T11:11:59.604Z</time></trkpt><trkpt lat="42.2334987" lon="14.3773736"><ele>225.0</ele><time>2026-03-22T11:12:00.61Z</time></trkpt><trkpt lat="42.2334089" lon="14.37734"><ele>225.0</ele><time>2026-03-22T11:12:01.598Z</time></trkpt><trkpt lat="42.233314" lon="14.3772954"><ele>225.0</ele><time>2026-03-22T11:12:02.596Z</time></trkpt><trkpt lat="42.2332028" lon="14.3772517"><ele>225.0</ele><time>2026-03-22T11:12:03.601Z</time></trkpt><trkpt lat="42.2330715" lon="14.377224"><ele>225.0</ele><time>2026-03-22T11:12:04.597Z</time></trkpt><trkpt lat="42.2329494" lon="14.3772109"><ele>225.2</ele><time>2026-03-22T11:12:05.592Z</time></trkpt><trkpt lat="42.2328333" lon="14.3772173"><ele>225.4</ele><time>2026-03-22T11:12:06.597Z</time></trkpt><trkpt lat="42.2327195" lon="14.3772464"><ele>225.60000000000002</ele><time>2026-03-22T11:12:07.597Z</time></trkpt><trkpt lat="42.2326101" lon="14.3772834"><ele>225.8</ele><time>2026-03-22T11:12:08.591Z</time></trkpt><trkpt lat="42.2325104" lon="14.3772999"><ele>226.0</ele><time>2026-03-22T11:12:09.589Z</time></trkpt><trkpt lat="42.2324216" lon="14.3772799"><ele>226.0</ele><time>2026-03-22T11:12:10.605Z</time></trkpt><trkpt lat="42.2323431" lon="14.377221"><ele>226.00000000000003</ele><time>2026-03-22T11:12:11.598Z</time></trkpt><trkpt lat="42.2322586" lon="14.3771595"><ele>226.00000000000003</ele><time>2026-03-22T11:12:12.601Z</time></trkpt><trkpt lat="42.2321762" lon="14.3771262"><ele>226.0</ele><time>2026-03-22T11:12:13.589Z</time></trkpt><trkpt lat="42.2320876" lon="14.3771192"><ele>226.0</ele><time>2026-03-22T11:12:14.585Z</time></trkpt><trkpt lat="42.2319885" lon="14.3771074"><ele>227.20000000000002</ele><time>2026-03-22T11:12:15.589Z</time></trkpt><trkpt lat="42.2318834" lon="14.3770752"><ele>228.40000000000003</ele><time>2026-03-22T11:12:16.593Z</time></trkpt><trkpt lat="42.231783" lon="14.3770412"><ele>229.6</ele><time>2026-03-22T11:12:17.592Z</time></trkpt><trkpt lat="42.231676" lon="14.3770475"><ele>230.8</ele><time>2026-03-22T11:12:18.593Z</time></trkpt><trkpt lat="42.2315768" lon="14.3770526"><ele>232.0</ele><time>2026-03-22T11:12:19.584Z</time></trkpt><trkpt lat="42.2314944" lon="14.377029"><ele>233.0</ele><time>2026-03-22T11:12:20.603Z</time></trkpt><trkpt lat="42.2314153" lon="14.3769585"><ele>234.0</ele><time>2026-03-22T11:12:21.596Z</time></trkpt><trkpt lat="42.2313249" lon="14.3768778"><ele>235.0</ele><time>2026-03-22T11:12:22.597Z</time></trkpt><trkpt lat="42.2312238" lon="14.3767925"><ele>236.0</ele><time>2026-03-22T11:12:23.601Z</time></trkpt><trkpt lat="42.2311207" lon="14.376688"><ele>236.0</ele><time>2026-03-22T11:12:24.598Z</time></trkpt><trkpt lat="42.2310055" lon="14.3765971"><ele>236.0</ele><time>2026-03-22T11:12:25.588Z</time></trkpt><trkpt lat="42.2308649" lon="14.3765241"><ele>236.0</ele><time>2026-03-22T11:12:26.595Z</time></trkpt><trkpt lat="42.2307133" lon="14.3764873"><ele>236.0</ele><time>2026-03-22T11:12:27.599Z</time></trkpt><trkpt lat="42.2305636" lon="14.3764653"><ele>236.8</ele><time>2026-03-22T11:12:28.606Z</time></trkpt><trkpt lat="42.2304359" lon="14.3764358"><ele>237.60000000000002</ele><time>2026-03-22T11:12:29.601Z</time></trkpt><trkpt lat="42.2303268" lon="14.3763896"><ele>238.4</ele><time>2026-03-22T11:12:30.597Z</time></trkpt><trkpt lat="42.2302212" lon="14.3763523"><ele>239.2</ele><time>2026-03-22T11:12:31.599Z</time></trkpt><trkpt lat="42.2301272" lon="14.3763343"><ele>240.0</ele><time>2026-03-22T11:12:32.598Z</time></trkpt><trkpt lat="42.2300288" lon="14.3763485"><ele>240.0</ele><time>2026-03-22T11:12:33.597Z</time></trkpt><trkpt lat="42.2299341" lon="14.3763843"><ele>240.0</ele><time>2026-03-22T11:12:34.603Z</time></trkpt><trkpt lat="42.2298476" lon="14.3764181"><ele>240.0</ele><time>2026-03-22T11:12:35.599Z</time></trkpt><trkpt lat="42.2297777" lon="14.3764546"><ele>240.0</ele><time>2026-03-22T11:12:36.603Z</time></trkpt><trkpt lat="42.2297202" lon="14.3764979"><ele>240.0</ele><time>2026-03-22T11:12:37.592Z</time></trkpt><trkpt lat="42.2296596" lon="14.376565"><ele>240.0</ele><time>2026-03-22T11:12:38.595Z</time></trkpt><trkpt lat="42.2295831" lon="14.3766654"><ele>242.5</ele><time>2026-03-22T11:12:39.59Z</time></trkpt><trkpt lat="42.2294987" lon="14.3767751"><ele>245.0</ele><time>2026-03-22T11:12:40.593Z</time></trkpt><trkpt lat="42.2294046" lon="14.3768868"><ele>247.5</ele><time>2026-03-22T11:12:41.607Z</time></trkpt><trkpt lat="42.2293047" lon="14.3769791"><ele>250.0</ele><time>2026-03-22T11:12:42.606Z</time></trkpt><trkpt lat="42.2292031" lon="14.3770487"><ele>250.0</ele><time>2026-03-22T11:12:43.607Z</time></trkpt><trkpt lat="42.2291015" lon="14.3771086"><ele>250.0</ele><time>2026-03-22T11:12:44.597Z</time></trkpt><trkpt lat="42.228995" lon="14.3771548"><ele>250.0</ele><time>2026-03-22T11:12:45.594Z</time></trkpt><trkpt lat="42.2288822" lon="14.3771834"><ele>250.0</ele><time>2026-03-22T11:12:46.596Z</time></trkpt><trkpt lat="42.2287698" lon="14.3772022"><ele>251.6</ele><time>2026-03-22T11:12:47.601Z</time></trkpt><trkpt lat="42.2286634" lon="14.377213"><ele>253.2</ele><time>2026-03-22T11:12:48.605Z</time></trkpt><trkpt lat="42.2285556" lon="14.3772169"><ele>254.8</ele><time>2026-03-22T11:12:49.605Z</time></trkpt><trkpt lat="42.2284456" lon="14.3772088"><ele>256.4</ele><time>2026-03-22T11:12:50.599Z</time></trkpt><trkpt lat="42.2283301" lon="14.3771744"><ele>258.0</ele><time>2026-03-22T11:12:51.592Z</time></trkpt><trkpt lat="42.2282064" lon="14.3771055"><ele>255.33333333333331</ele><time>2026-03-22T11:12:52.596Z</time></trkpt><trkpt lat="42.228082" lon="14.3769973"><ele>252.66666666666666</ele><time>2026-03-22T11:12:53.593Z</time></trkpt><trkpt lat="42.2279549" lon="14.3768842"><ele>250.0</ele><time>2026-03-22T11:12:54.583Z</time></trkpt><trkpt lat="42.2277954" lon="14.3767755"><ele>250.0</ele><time>2026-03-22T11:12:55.569Z</time></trkpt><trkpt lat="42.2276321" lon="14.3767208"><ele>250.0</ele><time>2026-03-22T11:12:56.584Z</time></trkpt><trkpt lat="42.227488" lon="14.3767424"><ele>250.0</ele><time>2026-03-22T11:12:57.587Z</time></trkpt><trkpt lat="42.2273528" lon="14.3768116"><ele>250.0</ele><time>2026-03-22T11:12:58.584Z</time></trkpt><trkpt lat="42.2272254" lon="14.3768984"><ele>250.0</ele><time>2026-03-22T11:12:59.597Z</time></trkpt><trkpt lat="42.2271117" lon="14.3769839"><ele>250.0</ele><time>2026-03-22T11:13:00.597Z</time></trkpt><trkpt lat="42.2270046" lon="14.3770604"><ele>250.0</ele><time>2026-03-22T11:13:01.595Z</time></trkpt><trkpt lat="42.2269006" lon="14.3771363"><ele>248.83333333333331</ele><time>2026-03-22T11:13:02.591Z</time></trkpt><trkpt lat="42.226808" lon="14.3772001"><ele>247.66666666666666</ele><time>2026-03-22T11:13:03.592Z</time></trkpt><trkpt lat="42.2267289" lon="14.3772606"><ele>246.5</ele><time>2026-03-22T11:13:04.589Z</time></trkpt><trkpt lat="42.2266517" lon="14.3772987"><ele>245.33333333333331</ele><time>2026-03-22T11:13:05.598Z</time></trkpt><trkpt lat="42.2265603" lon="14.3773662"><ele>244.16666666666666</ele><time>2026-03-22T11:13:07.604Z</time></trkpt><trkpt lat="42.226547" lon="14.3774564"><ele>243.0</ele><time>2026-03-22T11:13:09.596Z</time></trkpt><trkpt lat="42.2266169" lon="14.3776134"><ele>243.0</ele><time>2026-03-22T11:13:11.595Z</time></trkpt><trkpt lat="42.2266952" lon="14.3777381"><ele>243.0</ele><time>2026-03-22T11:13:12.587Z</time></trkpt><trkpt lat="42.2267823" lon="14.3778829"><ele>243.0</ele><time>2026-03-22T11:13:13.586Z</time></trkpt><trkpt lat="42.2268752" lon="14.3780447"><ele>243.0</ele><time>2026-03-22T11:13:14.592Z</time></trkpt><trkpt lat="42.2269633" lon="14.3781908"><ele>241.0</ele><time>2026-03-22T11:13:15.584Z</time></trkpt><trkpt lat="42.2270476" lon="14.3783293"><ele>239.0</ele><time>2026-03-22T11:13:16.585Z</time></trkpt><trkpt lat="42.2271295" lon="14.378471"><ele>237.0</ele><time>2026-03-22T11:13:17.588Z</time></trkpt><trkpt lat="42.227215" lon="14.3786129"><ele>235.0</ele><time>2026-03-22T11:13:18.591Z</time></trkpt><trkpt lat="42.2273006" lon="14.3787649"><ele>232.0</ele><time>2026-03-22T11:13:19.584Z</time></trkpt><trkpt lat="42.2273694" lon="14.3789363"><ele>229.0</ele><time>2026-03-22T11:13:20.592Z</time></trkpt><trkpt lat="42.2274213" lon="14.3791233"><ele>226.0</ele><time>2026-03-22T11:13:21.587Z</time></trkpt><trkpt lat="42.2274612" lon="14.3793353"><ele>226.0</ele><time>2026-03-22T11:13:22.59Z</time></trkpt><trkpt lat="42.2275009" lon="14.3795488"><ele>226.0</ele><time>2026-03-22T11:13:23.588Z</time></trkpt><trkpt lat="42.2275537" lon="14.379731"><ele>226.0</ele><time>2026-03-22T11:13:24.587Z</time></trkpt><trkpt lat="42.2276015" lon="14.3798926"><ele>226.0</ele><time>2026-03-22T11:13:25.594Z</time></trkpt><trkpt lat="42.2276278" lon="14.3800305"><ele>227.4</ele><time>2026-03-22T11:13:26.591Z</time></trkpt><trkpt lat="42.2276305" lon="14.3802001"><ele>228.8</ele><time>2026-03-22T11:13:27.595Z</time></trkpt><trkpt lat="42.2276525" lon="14.3803451"><ele>230.20000000000002</ele><time>2026-03-22T11:13:28.59Z</time></trkpt><trkpt lat="42.2276932" lon="14.3804626"><ele>231.60000000000002</ele><time>2026-03-22T11:13:29.597Z</time></trkpt><trkpt lat="42.2277634" lon="14.3805768"><ele>233.0</ele><time>2026-03-22T11:13:30.597Z</time></trkpt><trkpt lat="42.2278552" lon="14.3806978"><ele>234.8</ele><time>2026-03-22T11:13:31.591Z</time></trkpt><trkpt lat="42.2279168" lon="14.3808156"><ele>236.60000000000002</ele><time>2026-03-22T11:13:32.591Z</time></trkpt><trkpt lat="42.2279475" lon="14.3809327"><ele>238.39999999999998</ele><time>2026-03-22T11:13:33.592Z</time></trkpt><trkpt lat="42.227949" lon="14.3810767"><ele>240.2</ele><time>2026-03-22T11:13:34.588Z</time></trkpt><trkpt lat="42.2279415" lon="14.3812216"><ele>242.0</ele><time>2026-03-22T11:13:35.583Z</time></trkpt><trkpt lat="42.2279217" lon="14.3813789"><ele>246.0</ele><time>2026-03-22T11:13:36.592Z</time></trkpt><trkpt lat="42.2278912" lon="14.381555"><ele>250.0</ele><time>2026-03-22T11:13:37.589Z</time></trkpt><trkpt lat="42.2278665" lon="14.381735"><ele>254.0</ele><time>2026-03-22T11:13:38.586Z</time></trkpt><trkpt lat="42.2278626" lon="14.3819039"><ele>258.0</ele><time>2026-03-22T11:13:39.591Z</time></trkpt><trkpt lat="42.2278637" lon="14.3820555"><ele>260.6</ele><time>2026-03-22T11:13:40.596Z</time></trkpt><trkpt lat="42.2278604" lon="14.382193"><ele>263.20000000000005</ele><time>2026-03-22T11:13:41.589Z</time></trkpt><trkpt lat="42.2278537" lon="14.3823103"><ele>265.8</ele><time>2026-03-22T11:13:42.595Z</time></trkpt><trkpt lat="42.2278456" lon="14.3824222"><ele>268.40000000000003</ele><time>2026-03-22T11:13:43.597Z</time></trkpt><trkpt lat="42.2278317" lon="14.3825464"><ele>271.0</ele><time>2026-03-22T11:13:44.593Z</time></trkpt><trkpt lat="42.2278118" lon="14.3826932"><ele>271.0</ele><time>2026-03-22T11:13:45.597Z</time></trkpt><trkpt lat="42.2277932" lon="14.3828401"><ele>271.0</ele><time>2026-03-22T11:13:46.596Z</time></trkpt><trkpt lat="42.2277864" lon="14.3829913"><ele>271.0</ele><time>2026-03-22T11:13:47.585Z</time></trkpt><trkpt lat="42.2278008" lon="14.3831464"><ele>271.0</ele><time>2026-03-22T11:13:48.587Z</time></trkpt><trkpt lat="42.2278386" lon="14.3832983"><ele>272.40000000000003</ele><time>2026-03-22T11:13:49.592Z</time></trkpt><trkpt lat="42.2278921" lon="14.3834387"><ele>273.8</ele><time>2026-03-22T11:13:50.589Z</time></trkpt><trkpt lat="42.2279538" lon="14.3835695"><ele>275.20000000000005</ele><time>2026-03-22T11:13:51.593Z</time></trkpt><trkpt lat="42.2280094" lon="14.3836904"><ele>276.6</ele><time>2026-03-22T11:13:52.588Z</time></trkpt><trkpt lat="42.2280588" lon="14.3837946"><ele>278.0</ele><time>2026-03-22T11:13:53.59Z</time></trkpt><trkpt lat="42.2281103" lon="14.3839095"><ele>276.4</ele><time>2026-03-22T11:13:55.588Z</time></trkpt><trkpt lat="42.2281794" lon="14.3840223"><ele>274.8</ele><time>2026-03-22T11:13:57.584Z</time></trkpt><trkpt lat="42.228243" lon="14.3841032"><ele>273.2</ele><time>2026-03-22T11:13:58.586Z</time></trkpt><trkpt lat="42.2283102" lon="14.3841928"><ele>271.6</ele><time>2026-03-22T11:13:59.593Z</time></trkpt><trkpt lat="42.228394" lon="14.3842845"><ele>270.0</ele><time>2026-03-22T11:14:00.597Z</time></trkpt><trkpt lat="42.228472" lon="14.3843729"><ele>270.0</ele><time>2026-03-22T11:14:01.596Z</time></trkpt><trkpt lat="42.228551" lon="14.3844587"><ele>270.0</ele><time>2026-03-22T11:14:02.588Z</time></trkpt><trkpt lat="42.2286235" lon="14.3845456"><ele>270.0</ele><time>2026-03-22T11:14:03.586Z</time></trkpt><trkpt lat="42.2286925" lon="14.3846532"><ele>270.0</ele><time>2026-03-22T11:14:04.584Z</time></trkpt><trkpt lat="42.2287582" lon="14.3847908"><ele>270.0</ele><time>2026-03-22T11:14:05.584Z</time></trkpt><trkpt lat="42.2288325" lon="14.3849277"><ele>269.0</ele><time>2026-03-22T11:14:06.575Z</time></trkpt><trkpt lat="42.228918" lon="14.3850647"><ele>268.0</ele><time>2026-03-22T11:14:07.577Z</time></trkpt><trkpt lat="42.2290002" lon="14.3851905"><ele>267.0</ele><time>2026-03-22T11:14:08.575Z</time></trkpt><trkpt lat="42.2290761" lon="14.3853026"><ele>266.0</ele><time>2026-03-22T11:14:09.574Z</time></trkpt><trkpt lat="42.229139" lon="14.385389"><ele>266.0</ele><time>2026-03-22T11:14:10.579Z</time></trkpt><trkpt lat="42.2290499" lon="14.3853947"><ele>266.0</ele><time>2026-03-22T11:14:15.58Z</time></trkpt><trkpt lat="42.228972" lon="14.3853955"><ele>266.0</ele><time>2026-03-22T11:14:16.583Z</time></trkpt><trkpt lat="42.2288995" lon="14.3854254"><ele>266.0</ele><time>2026-03-22T11:14:17.57Z</time></trkpt><trkpt lat="42.2288101" lon="14.3855119"><ele>266.0</ele><time>2026-03-22T11:14:19.586Z</time></trkpt><trkpt lat="42.2288102" lon="14.3856201"><ele>266.0</ele><time>2026-03-22T11:14:21.582Z</time></trkpt><trkpt lat="42.2288126" lon="14.3857349"><ele>271.25</ele><time>2026-03-22T11:14:22.59Z</time></trkpt><trkpt lat="42.228787" lon="14.3858779"><ele>276.5</ele><time>2026-03-22T11:14:23.589Z</time></trkpt><trkpt lat="42.228741" lon="14.386025"><ele>281.75</ele><time>2026-03-22T11:14:24.586Z</time></trkpt><trkpt lat="42.2286846" lon="14.3861985"><ele>287.0</ele><time>2026-03-22T11:14:25.583Z</time></trkpt><trkpt lat="42.2286147" lon="14.386373"><ele>287.25</ele><time>2026-03-22T11:14:26.584Z</time></trkpt><trkpt lat="42.2285472" lon="14.3865488"><ele>287.5</ele><time>2026-03-22T11:14:27.586Z</time></trkpt><trkpt lat="42.2284804" lon="14.3867232"><ele>287.75</ele><time>2026-03-22T11:14:28.585Z</time></trkpt><trkpt lat="42.2284128" lon="14.3868967"><ele>288.0</ele><time>2026-03-22T11:14:29.581Z</time></trkpt><trkpt lat="42.2283489" lon="14.3870633"><ele>287.5</ele><time>2026-03-22T11:14:30.575Z</time></trkpt><trkpt lat="42.2282924" lon="14.3872197"><ele>287.0</ele><time>2026-03-22T11:14:31.595Z</time></trkpt><trkpt lat="42.2282339" lon="14.3873671"><ele>286.5</ele><time>2026-03-22T11:14:32.589Z</time></trkpt><trkpt lat="42.2281724" lon="14.3875146"><ele>286.0</ele><time>2026-03-22T11:14:33.582Z</time></trkpt><trkpt lat="42.2281099" lon="14.3876798"><ele>287.75</ele><time>2026-03-22T11:14:34.589Z</time></trkpt><trkpt lat="42.2280385" lon="14.3878528"><ele>289.5</ele><time>2026-03-22T11:14:35.584Z</time></trkpt><trkpt lat="42.2279722" lon="14.3880121"><ele>291.25</ele><time>2026-03-22T11:14:36.588Z</time></trkpt><trkpt lat="42.2279155" lon="14.3881505"><ele>293.0</ele><time>2026-03-22T11:14:37.579Z</time></trkpt><trkpt lat="42.2278633" lon="14.3882864"><ele>293.0</ele><time>2026-03-22T11:14:38.584Z</time></trkpt><trkpt lat="42.2278152" lon="14.3883928"><ele>293.0</ele><time>2026-03-22T11:14:39.588Z</time></trkpt><trkpt lat="42.2277637" lon="14.3884773"><ele>293.0</ele><time>2026-03-22T11:14:40.586Z</time></trkpt><trkpt lat="42.2277067" lon="14.3885478"><ele>293.0</ele><time>2026-03-22T11:14:41.582Z</time></trkpt><trkpt lat="42.2276548" lon="14.3886265"><ele>293.0</ele><time>2026-03-22T11:14:42.587Z</time></trkpt><trkpt lat="42.2275992" lon="14.3887294"><ele>293.0</ele><time>2026-03-22T11:14:43.586Z</time></trkpt><trkpt lat="42.2275303" lon="14.3888478"><ele>292.6</ele><time>2026-03-22T11:14:44.588Z</time></trkpt><trkpt lat="42.2274539" lon="14.3889805"><ele>292.20000000000005</ele><time>2026-03-22T11:14:45.593Z</time></trkpt><trkpt lat="42.2273816" lon="14.3891033"><ele>291.8</ele><time>2026-03-22T11:14:46.59Z</time></trkpt><trkpt lat="42.2273035" lon="14.3891872"><ele>291.40000000000003</ele><time>2026-03-22T11:14:47.581Z</time></trkpt><trkpt lat="42.2272132" lon="14.3892279"><ele>291.0</ele><time>2026-03-22T11:14:48.573Z</time></trkpt><trkpt lat="42.2271099" lon="14.3892374"><ele>290.0</ele><time>2026-03-22T11:14:49.578Z</time></trkpt><trkpt lat="42.2269984" lon="14.3892191"><ele>289.0</ele><time>2026-03-22T11:14:50.585Z</time></trkpt><trkpt lat="42.2268737" lon="14.389197"><ele>288.0</ele><time>2026-03-22T11:14:51.582Z</time></trkpt><trkpt lat="42.2267422" lon="14.38917"><ele>287.0</ele><time>2026-03-22T11:14:52.579Z</time></trkpt><trkpt lat="42.2266202" lon="14.389142"><ele>287.0</ele><time>2026-03-22T11:14:53.583Z</time></trkpt><trkpt lat="42.2265015" lon="14.3891186"><ele>287.0</ele><time>2026-03-22T11:14:54.58Z</time></trkpt><trkpt lat="42.2263802" lon="14.3891001"><ele>287.0</ele><time>2026-03-22T11:14:55.582Z</time></trkpt><trkpt lat="42.2262746" lon="14.3890877"><ele>287.0</ele><time>2026-03-22T11:14:56.584Z</time></trkpt><trkpt lat="42.2261727" lon="14.3890861"><ele>287.0</ele><time>2026-03-22T11:14:57.587Z</time></trkpt><trkpt lat="42.2260775" lon="14.3890841"><ele>287.0</ele><time>2026-03-22T11:14:58.587Z</time></trkpt><trkpt lat="42.2259921" lon="14.3890731"><ele>287.0</ele><time>2026-03-22T11:14:59.588Z</time></trkpt><trkpt lat="42.2259123" lon="14.3890709"><ele>287.0</ele><time>2026-03-22T11:15:00.572Z</time></trkpt><trkpt lat="42.2258297" lon="14.3890675"><ele>287.0</ele><time>2026-03-22T11:15:01.573Z</time></trkpt><trkpt lat="42.2257479" lon="14.3890701"><ele>287.0</ele><time>2026-03-22T11:15:02.577Z</time></trkpt><trkpt lat="42.2256557" lon="14.3890773"><ele>287.0</ele><time>2026-03-22T11:15:03.58Z</time></trkpt><trkpt lat="42.2255656" lon="14.3890726"><ele>287.0</ele><time>2026-03-22T11:15:04.568Z</time></trkpt><trkpt lat="42.2254778" lon="14.3890665"><ele>287.0</ele><time>2026-03-22T11:15:05.564Z</time></trkpt><trkpt lat="42.2253897" lon="14.3890681"><ele>287.0</ele><time>2026-03-22T11:15:06.577Z</time></trkpt><trkpt lat="42.2252885" lon="14.3890755"><ele>287.0</ele><time>2026-03-22T11:15:07.58Z</time></trkpt><trkpt lat="42.2251794" lon="14.3891026"><ele>287.0</ele><time>2026-03-22T11:15:08.572Z</time></trkpt><trkpt lat="42.2250572" lon="14.3891365"><ele>287.0</ele><time>2026-03-22T11:15:09.574Z</time></trkpt><trkpt lat="42.2249474" lon="14.3891817"><ele>287.0</ele><time>2026-03-22T11:15:10.57Z</time></trkpt><trkpt lat="42.2248626" lon="14.3892481"><ele>287.0</ele><time>2026-03-22T11:15:11.565Z</time></trkpt><trkpt lat="42.2248178" lon="14.3893304"><ele>287.0</ele><time>2026-03-22T11:15:12.576Z</time></trkpt><trkpt lat="42.224768" lon="14.3894406"><ele>287.0</ele><time>2026-03-22T11:15:14.57Z</time></trkpt><trkpt lat="42.2248056" lon="14.3895239"><ele>287.0</ele><time>2026-03-22T11:15:15.568Z</time></trkpt><trkpt lat="42.2248535" lon="14.3896174"><ele>287.0</ele><time>2026-03-22T11:15:16.559Z</time></trkpt><trkpt lat="42.2249327" lon="14.38969"><ele>287.0</ele><time>2026-03-22T11:15:17.565Z</time></trkpt><trkpt lat="42.2250397" lon="14.3897558"><ele>287.0</ele><time>2026-03-22T11:15:18.578Z</time></trkpt><trkpt lat="42.2251674" lon="14.3898097"><ele>287.0</ele><time>2026-03-22T11:15:19.568Z</time></trkpt><trkpt lat="42.2252893" lon="14.3898554"><ele>287.0</ele><time>2026-03-22T11:15:20.563Z</time></trkpt><trkpt lat="42.2254359" lon="14.3899127"><ele>287.0</ele><time>2026-03-22T11:15:21.566Z</time></trkpt><trkpt lat="42.225591" lon="14.3899822"><ele>287.0</ele><time>2026-03-22T11:15:22.561Z</time></trkpt><trkpt lat="42.2257439" lon="14.3900544"><ele>287.0</ele><time>2026-03-22T11:15:23.561Z</time></trkpt><trkpt lat="42.2258904" lon="14.3901433"><ele>287.0</ele><time>2026-03-22T11:15:24.568Z</time></trkpt><trkpt lat="42.2260091" lon="14.3902485"><ele>287.0</ele><time>2026-03-22T11:15:25.579Z</time></trkpt><trkpt lat="42.226101" lon="14.3903503"><ele>287.0</ele><time>2026-03-22T11:15:26.579Z</time></trkpt><trkpt lat="42.2261894" lon="14.3904445"><ele>287.75</ele><time>2026-03-22T11:15:27.576Z</time></trkpt><trkpt lat="42.2262804" lon="14.3905334"><ele>288.5</ele><time>2026-03-22T11:15:28.58Z</time></trkpt><trkpt lat="42.2263681" lon="14.3906277"><ele>289.25</ele><time>2026-03-22T11:15:29.572Z</time></trkpt><trkpt lat="42.2264541" lon="14.3907334"><ele>290.0</ele><time>2026-03-22T11:15:30.569Z</time></trkpt><trkpt lat="42.2265367" lon="14.3908404"><ele>288.8</ele><time>2026-03-22T11:15:31.568Z</time></trkpt><trkpt lat="42.2266134" lon="14.3909411"><ele>287.6</ele><time>2026-03-22T11:15:32.566Z</time></trkpt><trkpt lat="42.2266671" lon="14.3910511"><ele>286.4</ele><time>2026-03-22T11:15:33.561Z</time></trkpt><trkpt lat="42.2266855" lon="14.3911902"><ele>285.2</ele><time>2026-03-22T11:15:34.565Z</time></trkpt><trkpt lat="42.2266882" lon="14.3913465"><ele>284.0</ele><time>2026-03-22T11:15:35.561Z</time></trkpt><trkpt lat="42.2266923" lon="14.3915062"><ele>284.0</ele><time>2026-03-22T11:15:36.566Z</time></trkpt><trkpt lat="42.2267143" lon="14.391656"><ele>284.0</ele><time>2026-03-22T11:15:37.561Z</time></trkpt><trkpt lat="42.2267292" lon="14.3917924"><ele>284.0</ele><time>2026-03-22T11:15:38.569Z</time></trkpt><trkpt lat="42.2267328" lon="14.3918999"><ele>284.0</ele><time>2026-03-22T11:15:39.576Z</time></trkpt><trkpt lat="42.2267391" lon="14.3920462"><ele>284.0</ele><time>2026-03-22T11:15:41.572Z</time></trkpt><trkpt lat="42.2267555" lon="14.3921506"><ele>284.4</ele><time>2026-03-22T11:15:42.577Z</time></trkpt><trkpt lat="42.2267896" lon="14.392282"><ele>284.79999999999995</ele><time>2026-03-22T11:15:43.576Z</time></trkpt><trkpt lat="42.2268342" lon="14.3924295"><ele>285.20000000000005</ele><time>2026-03-22T11:15:44.583Z</time></trkpt><trkpt lat="42.2268791" lon="14.3925658"><ele>285.6</ele><time>2026-03-22T11:15:45.583Z</time></trkpt><trkpt lat="42.2269246" lon="14.3926841"><ele>286.0</ele><time>2026-03-22T11:15:46.576Z</time></trkpt><trkpt lat="42.2269786" lon="14.3927833"><ele>286.0</ele><time>2026-03-22T11:15:47.576Z</time></trkpt><trkpt lat="42.2270414" lon="14.3928608"><ele>286.0</ele><time>2026-03-22T11:15:48.573Z</time></trkpt><trkpt lat="42.2271068" lon="14.3929327"><ele>286.0</ele><time>2026-03-22T11:15:49.575Z</time></trkpt><trkpt lat="42.2271571" lon="14.3929902"><ele>286.0</ele><time>2026-03-22T11:15:50.56Z</time></trkpt><trkpt lat="42.2272279" lon="14.3930748"><ele>286.0</ele><time>2026-03-22T11:15:52.572Z</time></trkpt><trkpt lat="42.2273031" lon="14.3931777"><ele>286.0</ele><time>2026-03-22T11:15:55.567Z</time></trkpt><trkpt lat="42.2273339" lon="14.3932533"><ele>285.8333333333333</ele><time>2026-03-22T11:15:56.572Z</time></trkpt><trkpt lat="42.2273707" lon="14.3933521"><ele>285.66666666666663</ele><time>2026-03-22T11:15:57.574Z</time></trkpt><trkpt lat="42.2274133" lon="14.3934402"><ele>285.5</ele><time>2026-03-22T11:15:58.58Z</time></trkpt><trkpt lat="42.2274406" lon="14.3935815"><ele>285.3333333333333</ele><time>2026-03-22T11:16:00.584Z</time></trkpt><trkpt lat="42.2273961" lon="14.3936588"><ele>285.1666666666667</ele><time>2026-03-22T11:16:01.578Z</time></trkpt><trkpt lat="42.2273293" lon="14.393725"><ele>285.0</ele><time>2026-03-22T11:16:02.573Z</time></trkpt><trkpt lat="42.2272688" lon="14.3937826"><ele>285.0</ele><time>2026-03-22T11:16:03.575Z</time></trkpt><trkpt lat="42.2271844" lon="14.39384"><ele>285.0</ele><time>2026-03-22T11:16:05.583Z</time></trkpt><trkpt lat="42.2272431" lon="14.3939583"><ele>285.0</ele><time>2026-03-22T11:16:08.581Z</time></trkpt><trkpt lat="42.2273087" lon="14.3940645"><ele>285.0</ele><time>2026-03-22T11:16:10.576Z</time></trkpt><trkpt lat="42.2273915" lon="14.3941574"><ele>285.0</ele><time>2026-03-22T11:16:12.577Z</time></trkpt><trkpt lat="42.2274459" lon="14.3942248"><ele>285.0</ele><time>2026-03-22T11:16:13.576Z</time></trkpt><trkpt lat="42.2275078" lon="14.3943082"><ele>285.0</ele><time>2026-03-22T11:16:14.575Z</time></trkpt><trkpt lat="42.227568" lon="14.394403"><ele>285.0</ele><time>2026-03-22T11:16:15.572Z</time></trkpt><trkpt lat="42.2276186" lon="14.394509"><ele>285.0</ele><time>2026-03-22T11:16:16.579Z</time></trkpt><trkpt lat="42.2276683" lon="14.3946216"><ele>285.0</ele><time>2026-03-22T11:16:17.578Z</time></trkpt><trkpt lat="42.2277163" lon="14.3947267"><ele>284.4</ele><time>2026-03-22T11:16:18.577Z</time></trkpt><trkpt lat="42.2277683" lon="14.3948205"><ele>283.8</ele><time>2026-03-22T11:16:19.583Z</time></trkpt><trkpt lat="42.2278276" lon="14.394908"><ele>283.2</ele><time>2026-03-22T11:16:20.586Z</time></trkpt><trkpt lat="42.2278996" lon="14.3950113"><ele>282.6</ele><time>2026-03-22T11:16:21.58Z</time></trkpt><trkpt lat="42.2279649" lon="14.3951347"><ele>282.0</ele><time>2026-03-22T11:16:22.58Z</time></trkpt><trkpt lat="42.2280242" lon="14.3952688"><ele>282.0</ele><time>2026-03-22T11:16:23.586Z</time></trkpt><trkpt lat="42.2280846" lon="14.3953874"><ele>282.0</ele><time>2026-03-22T11:16:24.584Z</time></trkpt><trkpt lat="42.2281417" lon="14.3954931"><ele>282.0</ele><time>2026-03-22T11:16:25.582Z</time></trkpt><trkpt lat="42.2281933" lon="14.3955814"><ele>282.0</ele><time>2026-03-22T11:16:26.583Z</time></trkpt><trkpt lat="42.228237" lon="14.3956568"><ele>282.0</ele><time>2026-03-22T11:16:27.586Z</time></trkpt><trkpt lat="42.2283002" lon="14.3957742"><ele>282.0</ele><time>2026-03-22T11:16:29.583Z</time></trkpt><trkpt lat="42.2283601" lon="14.3958799"><ele>282.0</ele><time>2026-03-22T11:16:31.585Z</time></trkpt><trkpt lat="42.2284205" lon="14.3959807"><ele>282.0</ele><time>2026-03-22T11:16:33.585Z</time></trkpt><trkpt lat="42.2284094" lon="14.3961059"><ele>282.0</ele><time>2026-03-22T11:16:35.588Z</time></trkpt><trkpt lat="42.2283537" lon="14.3961654"><ele>282.0</ele><time>2026-03-22T11:16:36.589Z</time></trkpt><trkpt lat="42.2282787" lon="14.396237"><ele>282.0</ele><time>2026-03-22T11:16:37.579Z</time></trkpt><trkpt lat="42.2281912" lon="14.3963311"><ele>282.0</ele><time>2026-03-22T11:16:38.581Z</time></trkpt><trkpt lat="42.2280917" lon="14.3964328"><ele>282.0</ele><time>2026-03-22T11:16:39.58Z</time></trkpt><trkpt lat="42.2280014" lon="14.3965317"><ele>282.0</ele><time>2026-03-22T11:16:40.576Z</time></trkpt><trkpt lat="42.2279251" lon="14.396617"><ele>279.0</ele><time>2026-03-22T11:16:41.577Z</time></trkpt><trkpt lat="42.2278595" lon="14.3966813"><ele>279.0</ele><time>2026-03-22T11:16:42.586Z</time></trkpt><trkpt lat="42.2277765" lon="14.3967273"><ele>279.0</ele><time>2026-03-22T11:16:44.576Z</time></trkpt></trkseg></trk></gpx>